<?xml version="1.0" encoding="UTF-8" standalone="no" ?>
<gpx xmlns="http://www.topografix.com/GPX/1/1" xmlns:xsi="http://www.w3.org/2001/XMLSchema-instance" xsi:schemaLocation="http://www.topografix.com/GPX/1/1 http://www.topografix.com/GPX/1/1/gpx.xsd" version="1.1" creator="VisuGPX - https://www.visugpx.com">
  <metadata>
    <name>Descente de la loire 2/6</name>
    <desc><![CDATA[azertyuiopqwd]]></desc>
  </metadata>
  <trk>
    <name><![CDATA[Etape 1]]></name>
    <trkseg>
      <trkpt lat="44.82346" lon="4.06877">
        <ele>1021.0576171875</ele>
        <time>2013-06-25T04:51:24Z</time>
      </trkpt>
      <trkpt lat="44.82346" lon="4.06878">
        <ele>1018.1733398438</ele>
        <time>2013-06-25T04:52:03Z</time>
      </trkpt>
      <trkpt lat="44.82344" lon="4.06882">
        <ele>1018.1733398438</ele>
        <time>2013-06-25T04:52:27Z</time>
      </trkpt>
      <trkpt lat="44.82345" lon="4.06881">
        <ele>1018.6540527344</ele>
        <time>2013-06-25T04:54:16Z</time>
      </trkpt>
      <trkpt lat="44.82363" lon="4.06922">
        <ele>1016.2507324219</ele>
        <time>2013-06-25T04:54:30Z</time>
      </trkpt>
      <trkpt lat="44.82374" lon="4.06983">
        <ele>1016.2507324219</ele>
        <time>2013-06-25T04:54:45Z</time>
      </trkpt>
      <trkpt lat="44.82386" lon="4.07058">
        <ele>1015.2895507812</ele>
        <time>2013-06-25T04:55:02Z</time>
      </trkpt>
      <trkpt lat="44.82387" lon="4.07086">
        <ele>1013.3669433594</ele>
        <time>2013-06-25T04:55:09Z</time>
      </trkpt>
      <trkpt lat="44.82393" lon="4.07065">
        <ele>1013.3669433594</ele>
        <time>2013-06-25T04:55:18Z</time>
      </trkpt>
      <trkpt lat="44.82381" lon="4.06978">
        <ele>1013.3669433594</ele>
        <time>2013-06-25T04:55:34Z</time>
      </trkpt>
      <trkpt lat="44.82376" lon="4.0688">
        <ele>1012.4055175781</ele>
        <time>2013-06-25T04:55:50Z</time>
      </trkpt>
      <trkpt lat="44.82353" lon="4.06766">
        <ele>1009.5217285156</ele>
        <time>2013-06-25T04:56:07Z</time>
      </trkpt>
      <trkpt lat="44.82314" lon="4.06688">
        <ele>1003.2729492188</ele>
        <time>2013-06-25T04:56:18Z</time>
      </trkpt>
      <trkpt lat="44.82268" lon="4.06624">
        <ele>998.46630859375</ele>
        <time>2013-06-25T04:56:28Z</time>
      </trkpt>
      <trkpt lat="44.82227" lon="4.06518">
        <ele>995.10180664062</ele>
        <time>2013-06-25T04:56:42Z</time>
      </trkpt>
      <trkpt lat="44.82196" lon="4.0642">
        <ele>993.65991210938</ele>
        <time>2013-06-25T04:56:56Z</time>
      </trkpt>
      <trkpt lat="44.82167" lon="4.0631">
        <ele>992.69873046875</ele>
        <time>2013-06-25T04:57:14Z</time>
      </trkpt>
      <trkpt lat="44.82139" lon="4.06245">
        <ele>992.21801757812</ele>
        <time>2013-06-25T04:57:28Z</time>
      </trkpt>
      <trkpt lat="44.82121" lon="4.06209">
        <ele>991.7373046875</ele>
        <time>2013-06-25T04:57:37Z</time>
      </trkpt>
      <trkpt lat="44.82152" lon="4.06197">
        <ele>986.93041992188</ele>
        <time>2013-06-25T04:57:44Z</time>
      </trkpt>
      <trkpt lat="44.82158" lon="4.06201">
        <ele>986.44995117188</ele>
        <time>2013-06-25T04:57:45Z</time>
      </trkpt>
      <trkpt lat="44.82171" lon="4.06214">
        <ele>985.00805664062</ele>
        <time>2013-06-25T04:57:47Z</time>
      </trkpt>
      <trkpt lat="44.8221" lon="4.06209">
        <ele>982.1240234375</ele>
        <time>2013-06-25T04:57:52Z</time>
      </trkpt>
      <trkpt lat="44.82271" lon="4.06191">
        <ele>975.87548828125</ele>
        <time>2013-06-25T04:57:59Z</time>
      </trkpt>
      <trkpt lat="44.82293" lon="4.06131">
        <ele>971.54931640625</ele>
        <time>2013-06-25T04:58:05Z</time>
      </trkpt>
      <trkpt lat="44.82293" lon="4.06104">
        <ele>970.107421875</ele>
        <time>2013-06-25T04:58:07Z</time>
      </trkpt>
      <trkpt lat="44.82326" lon="4.06031">
        <ele>964.8203125</ele>
        <time>2013-06-25T04:58:14Z</time>
      </trkpt>
      <trkpt lat="44.82363" lon="4.06041">
        <ele>960.97509765625</ele>
        <time>2013-06-25T04:58:19Z</time>
      </trkpt>
      <trkpt lat="44.82371" lon="4.06091">
        <ele>959.05249023438</ele>
        <time>2013-06-25T04:58:23Z</time>
      </trkpt>
      <trkpt lat="44.82375" lon="4.06214">
        <ele>952.8037109375</ele>
        <time>2013-06-25T04:58:31Z</time>
      </trkpt>
      <trkpt lat="44.82401" lon="4.0627">
        <ele>948.47778320312</ele>
        <time>2013-06-25T04:58:36Z</time>
      </trkpt>
      <trkpt lat="44.82412" lon="4.0629">
        <ele>947.03588867188</ele>
        <time>2013-06-25T04:58:38Z</time>
      </trkpt>
      <trkpt lat="44.82446" lon="4.0639">
        <ele>941.74877929688</ele>
        <time>2013-06-25T04:58:47Z</time>
      </trkpt>
      <trkpt lat="44.82448" lon="4.06395">
        <ele>941.26806640625</ele>
        <time>2013-06-25T04:58:50Z</time>
      </trkpt>
      <trkpt lat="44.8246" lon="4.0641">
        <ele>939.82592773438</ele>
        <time>2013-06-25T04:58:56Z</time>
      </trkpt>
      <trkpt lat="44.82465" lon="4.0635">
        <ele>936.46142578125</ele>
        <time>2013-06-25T04:59:04Z</time>
      </trkpt>
      <trkpt lat="44.82476" lon="4.06284">
        <ele>932.6162109375</ele>
        <time>2013-06-25T04:59:12Z</time>
      </trkpt>
      <trkpt lat="44.8249" lon="4.06263">
        <ele>932.13549804688</ele>
        <time>2013-06-25T04:59:15Z</time>
      </trkpt>
      <trkpt lat="44.82501" lon="4.0618">
        <ele>931.65478515625</ele>
        <time>2013-06-25T04:59:25Z</time>
      </trkpt>
      <trkpt lat="44.82534" lon="4.06076">
        <ele>934.53881835938</ele>
        <time>2013-06-25T04:59:40Z</time>
      </trkpt>
      <trkpt lat="44.82538" lon="4.06063">
        <ele>934.53881835938</ele>
        <time>2013-06-25T04:59:42Z</time>
      </trkpt>
      <trkpt lat="44.82545" lon="4.06036">
        <ele>934.05810546875</ele>
        <time>2013-06-25T04:59:46Z</time>
      </trkpt>
      <trkpt lat="44.82573" lon="4.05902">
        <ele>935.01953125</ele>
        <time>2013-06-25T05:00:07Z</time>
      </trkpt>
      <trkpt lat="44.82576" lon="4.05877">
        <ele>935.5</ele>
        <time>2013-06-25T05:00:11Z</time>
      </trkpt>
      <trkpt lat="44.82567" lon="4.05762">
        <ele>936.94189453125</ele>
        <time>2013-06-25T05:00:28Z</time>
      </trkpt>
      <trkpt lat="44.82545" lon="4.05698">
        <ele>937.42260742188</ele>
        <time>2013-06-25T05:00:39Z</time>
      </trkpt>
      <trkpt lat="44.82508" lon="4.05641">
        <ele>938.86474609375</ele>
        <time>2013-06-25T05:00:50Z</time>
      </trkpt>
      <trkpt lat="44.82484" lon="4.05596">
        <ele>939.34521484375</ele>
        <time>2013-06-25T05:00:58Z</time>
      </trkpt>
      <trkpt lat="44.82473" lon="4.05576">
        <ele>939.82592773438</ele>
        <time>2013-06-25T05:01:02Z</time>
      </trkpt>
      <trkpt lat="44.82469" lon="4.05567">
        <ele>940.30688476562</ele>
        <time>2013-06-25T05:01:04Z</time>
      </trkpt>
      <trkpt lat="44.82456" lon="4.0554">
        <ele>942.2294921875</ele>
        <time>2013-06-25T05:01:10Z</time>
      </trkpt>
      <trkpt lat="44.82452" lon="4.05488">
        <ele>944.15209960938</ele>
        <time>2013-06-25T05:01:18Z</time>
      </trkpt>
      <trkpt lat="44.82451" lon="4.05445">
        <ele>945.11328125</ele>
        <time>2013-06-25T05:01:26Z</time>
      </trkpt>
      <trkpt lat="44.82472" lon="4.05367">
        <ele>950.40063476562</ele>
        <time>2013-06-25T05:01:42Z</time>
      </trkpt>
      <trkpt lat="44.82471" lon="4.05286">
        <ele>956.16845703125</ele>
        <time>2013-06-25T05:01:58Z</time>
      </trkpt>
      <trkpt lat="44.82469" lon="4.05184">
        <ele>957.61059570312</ele>
        <time>2013-06-25T05:02:16Z</time>
      </trkpt>
      <trkpt lat="44.82503" lon="4.05083">
        <ele>957.61059570312</ele>
        <time>2013-06-25T05:02:35Z</time>
      </trkpt>
      <trkpt lat="44.82527" lon="4.05036">
        <ele>957.61059570312</ele>
        <time>2013-06-25T05:02:44Z</time>
      </trkpt>
      <trkpt lat="44.82565" lon="4.05014">
        <ele>955.68774414062</ele>
        <time>2013-06-25T05:02:52Z</time>
      </trkpt>
      <trkpt lat="44.82626" lon="4.05012">
        <ele>951.84252929688</ele>
        <time>2013-06-25T05:03:01Z</time>
      </trkpt>
      <trkpt lat="44.82661" lon="4.05031">
        <ele>949.919921875</ele>
        <time>2013-06-25T05:03:06Z</time>
      </trkpt>
      <trkpt lat="44.82728" lon="4.05135">
        <ele>948.47778320312</ele>
        <time>2013-06-25T05:03:20Z</time>
      </trkpt>
      <trkpt lat="44.82775" lon="4.05178">
        <ele>947.03588867188</ele>
        <time>2013-06-25T05:03:28Z</time>
      </trkpt>
      <trkpt lat="44.82816" lon="4.05171">
        <ele>945.59399414062</ele>
        <time>2013-06-25T05:03:35Z</time>
      </trkpt>
      <trkpt lat="44.82841" lon="4.05153">
        <ele>945.59399414062</ele>
        <time>2013-06-25T05:03:40Z</time>
      </trkpt>
      <trkpt lat="44.82859" lon="4.05134">
        <ele>946.07470703125</ele>
        <time>2013-06-25T05:03:44Z</time>
      </trkpt>
      <trkpt lat="44.82869" lon="4.05105">
        <ele>947.99731445312</ele>
        <time>2013-06-25T05:03:49Z</time>
      </trkpt>
      <trkpt lat="44.82866" lon="4.05019">
        <ele>952.32299804688</ele>
        <time>2013-06-25T05:04:05Z</time>
      </trkpt>
      <trkpt lat="44.8286" lon="4.04936">
        <ele>956.16845703125</ele>
        <time>2013-06-25T05:04:21Z</time>
      </trkpt>
      <trkpt lat="44.82879" lon="4.04812">
        <ele>956.64916992188</ele>
        <time>2013-06-25T05:04:42Z</time>
      </trkpt>
      <trkpt lat="44.82917" lon="4.04684">
        <ele>956.16845703125</ele>
        <time>2013-06-25T05:05:02Z</time>
      </trkpt>
      <trkpt lat="44.82977" lon="4.04557">
        <ele>954.72631835938</ele>
        <time>2013-06-25T05:05:23Z</time>
      </trkpt>
      <trkpt lat="44.83025" lon="4.04402">
        <ele>957.61059570312</ele>
        <time>2013-06-25T05:05:47Z</time>
      </trkpt>
      <trkpt lat="44.83044" lon="4.04254">
        <ele>954.72631835938</ele>
        <time>2013-06-25T05:06:08Z</time>
      </trkpt>
      <trkpt lat="44.83076" lon="4.04141">
        <ele>955.68774414062</ele>
        <time>2013-06-25T05:06:25Z</time>
      </trkpt>
      <trkpt lat="44.83151" lon="4.04036">
        <ele>957.1298828125</ele>
        <time>2013-06-25T05:06:46Z</time>
      </trkpt>
      <trkpt lat="44.83168" lon="4.04019">
        <ele>956.64916992188</ele>
        <time>2013-06-25T05:06:50Z</time>
      </trkpt>
      <trkpt lat="44.83193" lon="4.04011">
        <ele>957.61059570312</ele>
        <time>2013-06-25T05:06:55Z</time>
      </trkpt>
      <trkpt lat="44.8325" lon="4.04022">
        <ele>958.09130859375</ele>
        <time>2013-06-25T05:07:06Z</time>
      </trkpt>
      <trkpt lat="44.8329" lon="4.03997">
        <ele>959.05249023438</ele>
        <time>2013-06-25T05:07:15Z</time>
      </trkpt>
      <trkpt lat="44.83302" lon="4.03968">
        <ele>958.09130859375</ele>
        <time>2013-06-25T05:07:20Z</time>
      </trkpt>
      <trkpt lat="44.83333" lon="4.03849">
        <ele>958.57177734375</ele>
        <time>2013-06-25T05:07:37Z</time>
      </trkpt>
      <trkpt lat="44.83349" lon="4.03796">
        <ele>959.05249023438</ele>
        <time>2013-06-25T05:07:45Z</time>
      </trkpt>
      <trkpt lat="44.83363" lon="4.03772">
        <ele>959.533203125</ele>
        <time>2013-06-25T05:07:49Z</time>
      </trkpt>
      <trkpt lat="44.834" lon="4.03749">
        <ele>959.533203125</ele>
        <time>2013-06-25T05:07:57Z</time>
      </trkpt>
      <trkpt lat="44.83497" lon="4.03712">
        <ele>959.05249023438</ele>
        <time>2013-06-25T05:08:17Z</time>
      </trkpt>
      <trkpt lat="44.83584" lon="4.03658">
        <ele>960.49438476562</ele>
        <time>2013-06-25T05:08:35Z</time>
      </trkpt>
      <trkpt lat="44.83667" lon="4.03661">
        <ele>964.8203125</ele>
        <time>2013-06-25T05:08:51Z</time>
      </trkpt>
      <trkpt lat="44.83757" lon="4.03655">
        <ele>962.89770507812</ele>
        <time>2013-06-25T05:09:08Z</time>
      </trkpt>
      <trkpt lat="44.83822" lon="4.03664">
        <ele>960.013671875</ele>
        <time>2013-06-25T05:09:19Z</time>
      </trkpt>
      <trkpt lat="44.83851" lon="4.03701">
        <ele>958.57177734375</ele>
        <time>2013-06-25T05:09:25Z</time>
      </trkpt>
      <trkpt lat="44.83888" lon="4.038">
        <ele>956.16845703125</ele>
        <time>2013-06-25T05:09:38Z</time>
      </trkpt>
      <trkpt lat="44.83928" lon="4.03814">
        <ele>954.72631835938</ele>
        <time>2013-06-25T05:09:46Z</time>
      </trkpt>
      <trkpt lat="44.83941" lon="4.03808">
        <ele>956.16845703125</ele>
        <time>2013-06-25T05:09:49Z</time>
      </trkpt>
      <trkpt lat="44.84011" lon="4.03704">
        <ele>956.16845703125</ele>
        <time>2013-06-25T05:10:05Z</time>
      </trkpt>
      <trkpt lat="44.84096" lon="4.03635">
        <ele>953.28442382812</ele>
        <time>2013-06-25T05:10:21Z</time>
      </trkpt>
      <trkpt lat="44.84175" lon="4.03623">
        <ele>950.88110351562</ele>
        <time>2013-06-25T05:10:34Z</time>
      </trkpt>
      <trkpt lat="44.84249" lon="4.03589">
        <ele>948.95849609375</ele>
        <time>2013-06-25T05:10:47Z</time>
      </trkpt>
      <trkpt lat="44.84315" lon="4.03558">
        <ele>947.5166015625</ele>
        <time>2013-06-25T05:10:59Z</time>
      </trkpt>
      <trkpt lat="44.84339" lon="4.03536">
        <ele>947.03588867188</ele>
        <time>2013-06-25T05:11:04Z</time>
      </trkpt>
      <trkpt lat="44.84362" lon="4.03502">
        <ele>946.55541992188</ele>
        <time>2013-06-25T05:11:10Z</time>
      </trkpt>
      <trkpt lat="44.8444" lon="4.0345">
        <ele>946.07470703125</ele>
        <time>2013-06-25T05:11:26Z</time>
      </trkpt>
      <trkpt lat="44.8445" lon="4.03445">
        <ele>945.59399414062</ele>
        <time>2013-06-25T05:11:28Z</time>
      </trkpt>
      <trkpt lat="44.8449" lon="4.03387">
        <ele>944.63256835938</ele>
        <time>2013-06-25T05:11:39Z</time>
      </trkpt>
      <trkpt lat="44.84471" lon="4.03332">
        <ele>944.63256835938</ele>
        <time>2013-06-25T05:11:48Z</time>
      </trkpt>
      <trkpt lat="44.84381" lon="4.03243">
        <ele>945.11328125</ele>
        <time>2013-06-25T05:12:10Z</time>
      </trkpt>
      <trkpt lat="44.84361" lon="4.03225">
        <ele>945.59399414062</ele>
        <time>2013-06-25T05:12:15Z</time>
      </trkpt>
      <trkpt lat="44.84278" lon="4.03198">
        <ele>945.59399414062</ele>
        <time>2013-06-25T05:12:33Z</time>
      </trkpt>
      <trkpt lat="44.8423" lon="4.03197">
        <ele>946.55541992188</ele>
        <time>2013-06-25T05:12:43Z</time>
      </trkpt>
      <trkpt lat="44.84205" lon="4.03158">
        <ele>947.99731445312</ele>
        <time>2013-06-25T05:12:53Z</time>
      </trkpt>
      <trkpt lat="44.84231" lon="4.03115">
        <ele>949.919921875</ele>
        <time>2013-06-25T05:13:02Z</time>
      </trkpt>
      <trkpt lat="44.84297" lon="4.03081">
        <ele>953.76513671875</ele>
        <time>2013-06-25T05:13:18Z</time>
      </trkpt>
      <trkpt lat="44.84365" lon="4.03087">
        <ele>956.64916992188</ele>
        <time>2013-06-25T05:13:32Z</time>
      </trkpt>
      <trkpt lat="44.84378" lon="4.03086">
        <ele>956.64916992188</ele>
        <time>2013-06-25T05:13:35Z</time>
      </trkpt>
      <trkpt lat="44.84392" lon="4.03086">
        <ele>955.68774414062</ele>
        <time>2013-06-25T05:13:38Z</time>
      </trkpt>
      <trkpt lat="44.84452" lon="4.03083">
        <ele>954.72631835938</ele>
        <time>2013-06-25T05:13:52Z</time>
      </trkpt>
      <trkpt lat="44.84465" lon="4.03082">
        <ele>955.20703125</ele>
        <time>2013-06-25T05:13:56Z</time>
      </trkpt>
      <trkpt lat="44.84518" lon="4.02932">
        <ele>954.72631835938</ele>
        <time>2013-06-25T05:14:18Z</time>
      </trkpt>
      <trkpt lat="44.84573" lon="4.02853">
        <ele>954.72631835938</ele>
        <time>2013-06-25T05:14:33Z</time>
      </trkpt>
      <trkpt lat="44.84593" lon="4.02843">
        <ele>954.24584960938</ele>
        <time>2013-06-25T05:14:37Z</time>
      </trkpt>
      <trkpt lat="44.84612" lon="4.02835">
        <ele>954.24584960938</ele>
        <time>2013-06-25T05:14:41Z</time>
      </trkpt>
      <trkpt lat="44.84633" lon="4.02839">
        <ele>954.24584960938</ele>
        <time>2013-06-25T05:14:45Z</time>
      </trkpt>
      <trkpt lat="44.84665" lon="4.0286">
        <ele>951.84252929688</ele>
        <time>2013-06-25T05:14:51Z</time>
      </trkpt>
      <trkpt lat="44.84714" lon="4.02844">
        <ele>948.47778320312</ele>
        <time>2013-06-25T05:14:58Z</time>
      </trkpt>
      <trkpt lat="44.8472" lon="4.02824">
        <ele>947.5166015625</ele>
        <time>2013-06-25T05:15:00Z</time>
      </trkpt>
      <trkpt lat="44.84736" lon="4.02768">
        <ele>945.11328125</ele>
        <time>2013-06-25T05:15:05Z</time>
      </trkpt>
      <trkpt lat="44.84757" lon="4.02731">
        <ele>942.71020507812</ele>
        <time>2013-06-25T05:15:09Z</time>
      </trkpt>
      <trkpt lat="44.84769" lon="4.02712">
        <ele>941.26806640625</ele>
        <time>2013-06-25T05:15:11Z</time>
      </trkpt>
      <trkpt lat="44.84792" lon="4.02656">
        <ele>937.9033203125</ele>
        <time>2013-06-25T05:15:16Z</time>
      </trkpt>
      <trkpt lat="44.84797" lon="4.026">
        <ele>935.01953125</ele>
        <time>2013-06-25T05:15:20Z</time>
      </trkpt>
      <trkpt lat="44.84789" lon="4.02493">
        <ele>930.69360351562</ele>
        <time>2013-06-25T05:15:28Z</time>
      </trkpt>
      <trkpt lat="44.84803" lon="4.02431">
        <ele>928.29028320312</ele>
        <time>2013-06-25T05:15:34Z</time>
      </trkpt>
      <trkpt lat="44.84855" lon="4.02434">
        <ele>924.92578125</ele>
        <time>2013-06-25T05:15:40Z</time>
      </trkpt>
      <trkpt lat="44.84872" lon="4.0245">
        <ele>923.48364257812</ele>
        <time>2013-06-25T05:15:42Z</time>
      </trkpt>
      <trkpt lat="44.84909" lon="4.02501">
        <ele>919.15771484375</ele>
        <time>2013-06-25T05:15:47Z</time>
      </trkpt>
      <trkpt lat="44.84942" lon="4.02562">
        <ele>916.27368164062</ele>
        <time>2013-06-25T05:15:52Z</time>
      </trkpt>
      <trkpt lat="44.84987" lon="4.02589">
        <ele>913.38989257812</ele>
        <time>2013-06-25T05:15:57Z</time>
      </trkpt>
      <trkpt lat="44.85007" lon="4.02593">
        <ele>912.42846679688</ele>
        <time>2013-06-25T05:15:59Z</time>
      </trkpt>
      <trkpt lat="44.85113" lon="4.02568">
        <ele>905.69921875</ele>
        <time>2013-06-25T05:16:09Z</time>
      </trkpt>
      <trkpt lat="44.85123" lon="4.02566">
        <ele>905.21850585938</ele>
        <time>2013-06-25T05:16:10Z</time>
      </trkpt>
      <trkpt lat="44.85175" lon="4.02533">
        <ele>901.85400390625</ele>
        <time>2013-06-25T05:16:16Z</time>
      </trkpt>
      <trkpt lat="44.85214" lon="4.0254">
        <ele>898.4892578125</ele>
        <time>2013-06-25T05:16:22Z</time>
      </trkpt>
      <trkpt lat="44.85226" lon="4.02559">
        <ele>897.04736328125</ele>
        <time>2013-06-25T05:16:24Z</time>
      </trkpt>
      <trkpt lat="44.85239" lon="4.02577">
        <ele>895.12475585938</ele>
        <time>2013-06-25T05:16:26Z</time>
      </trkpt>
      <trkpt lat="44.85273" lon="4.02572">
        <ele>894.16357421875</ele>
        <time>2013-06-25T05:16:31Z</time>
      </trkpt>
      <trkpt lat="44.85294" lon="4.02543">
        <ele>895.60546875</ele>
        <time>2013-06-25T05:16:35Z</time>
      </trkpt>
      <trkpt lat="44.85306" lon="4.02499">
        <ele>899.45068359375</ele>
        <time>2013-06-25T05:16:44Z</time>
      </trkpt>
      <trkpt lat="44.85306" lon="4.02499">
        <ele>900.412109375</ele>
        <time>2013-06-25T05:16:45Z</time>
      </trkpt>
      <trkpt lat="44.85275" lon="4.02449">
        <ele>902.33447265625</ele>
        <time>2013-06-25T05:16:58Z</time>
      </trkpt>
      <trkpt lat="44.85229" lon="4.02427">
        <ele>906.1796875</ele>
        <time>2013-06-25T05:17:14Z</time>
      </trkpt>
      <trkpt lat="44.85176" lon="4.02391">
        <ele>910.98657226562</ele>
        <time>2013-06-25T05:17:34Z</time>
      </trkpt>
      <trkpt lat="44.85127" lon="4.02391">
        <ele>913.87036132812</ele>
        <time>2013-06-25T05:17:51Z</time>
      </trkpt>
      <trkpt lat="44.85093" lon="4.02373">
        <ele>918.1962890625</ele>
        <time>2013-06-25T05:18:04Z</time>
      </trkpt>
      <trkpt lat="44.85091" lon="4.0237">
        <ele>918.1962890625</ele>
        <time>2013-06-25T05:18:05Z</time>
      </trkpt>
      <trkpt lat="44.85074" lon="4.02314">
        <ele>923.48364257812</ele>
        <time>2013-06-25T05:18:19Z</time>
      </trkpt>
      <trkpt lat="44.85044" lon="4.02293">
        <ele>926.84838867188</ele>
        <time>2013-06-25T05:18:32Z</time>
      </trkpt>
      <trkpt lat="44.85033" lon="4.0226">
        <ele>928.77099609375</ele>
        <time>2013-06-25T05:18:40Z</time>
      </trkpt>
      <trkpt lat="44.85034" lon="4.02265">
        <ele>929.73217773438</ele>
        <time>2013-06-25T05:18:49Z</time>
      </trkpt>
      <trkpt lat="44.85034" lon="4.02265">
        <ele>929.73217773438</ele>
        <time>2013-06-25T05:18:50Z</time>
      </trkpt>
      <trkpt lat="44.85034" lon="4.02264">
        <ele>929.73217773438</ele>
        <time>2013-06-25T05:18:52Z</time>
      </trkpt>
      <trkpt lat="44.85034" lon="4.02202">
        <ele>928.77099609375</ele>
        <time>2013-06-25T05:19:03Z</time>
      </trkpt>
      <trkpt lat="44.85035" lon="4.02174">
        <ele>928.29028320312</ele>
        <time>2013-06-25T05:19:07Z</time>
      </trkpt>
      <trkpt lat="44.85032" lon="4.02152">
        <ele>927.8095703125</ele>
        <time>2013-06-25T05:19:10Z</time>
      </trkpt>
      <trkpt lat="44.85006" lon="4.02122">
        <ele>928.77099609375</ele>
        <time>2013-06-25T05:19:17Z</time>
      </trkpt>
      <trkpt lat="44.8494" lon="4.02108">
        <ele>932.13549804688</ele>
        <time>2013-06-25T05:19:34Z</time>
      </trkpt>
      <trkpt lat="44.84909" lon="4.0208">
        <ele>934.53881835938</ele>
        <time>2013-06-25T05:19:46Z</time>
      </trkpt>
      <trkpt lat="44.84882" lon="4.02017">
        <ele>938.38403320312</ele>
        <time>2013-06-25T05:20:03Z</time>
      </trkpt>
      <trkpt lat="44.84889" lon="4.01957">
        <ele>942.71020507812</ele>
        <time>2013-06-25T05:20:17Z</time>
      </trkpt>
      <trkpt lat="44.8493" lon="4.01881">
        <ele>946.55541992188</ele>
        <time>2013-06-25T05:20:37Z</time>
      </trkpt>
      <trkpt lat="44.84974" lon="4.01805">
        <ele>947.99731445312</ele>
        <time>2013-06-25T05:20:57Z</time>
      </trkpt>
      <trkpt lat="44.85012" lon="4.01728">
        <ele>953.76513671875</ele>
        <time>2013-06-25T05:21:16Z</time>
      </trkpt>
      <trkpt lat="44.85034" lon="4.01651">
        <ele>959.533203125</ele>
        <time>2013-06-25T05:21:33Z</time>
      </trkpt>
      <trkpt lat="44.85045" lon="4.01559">
        <ele>963.85888671875</ele>
        <time>2013-06-25T05:21:50Z</time>
      </trkpt>
      <trkpt lat="44.85048" lon="4.01435">
        <ele>964.8203125</ele>
        <time>2013-06-25T05:22:11Z</time>
      </trkpt>
      <trkpt lat="44.85059" lon="4.01326">
        <ele>967.2236328125</ele>
        <time>2013-06-25T05:22:29Z</time>
      </trkpt>
      <trkpt lat="44.85106" lon="4.0122">
        <ele>969.14624023438</ele>
        <time>2013-06-25T05:22:49Z</time>
      </trkpt>
      <trkpt lat="44.85154" lon="4.01106">
        <ele>968.66552734375</ele>
        <time>2013-06-25T05:23:07Z</time>
      </trkpt>
      <trkpt lat="44.85198" lon="4.00977">
        <ele>967.7041015625</ele>
        <time>2013-06-25T05:23:25Z</time>
      </trkpt>
      <trkpt lat="44.85233" lon="4.00824">
        <ele>967.7041015625</ele>
        <time>2013-06-25T05:23:44Z</time>
      </trkpt>
      <trkpt lat="44.85263" lon="4.00715">
        <ele>963.37841796875</ele>
        <time>2013-06-25T05:23:58Z</time>
      </trkpt>
      <trkpt lat="44.85245" lon="4.00673">
        <ele>962.4169921875</ele>
        <time>2013-06-25T05:24:05Z</time>
      </trkpt>
      <trkpt lat="44.85235" lon="4.00671">
        <ele>962.4169921875</ele>
        <time>2013-06-25T05:24:07Z</time>
      </trkpt>
      <trkpt lat="44.85164" lon="4.00679">
        <ele>961.9365234375</ele>
        <time>2013-06-25T05:24:20Z</time>
      </trkpt>
      <trkpt lat="44.85126" lon="4.0065">
        <ele>961.9365234375</ele>
        <time>2013-06-25T05:24:29Z</time>
      </trkpt>
      <trkpt lat="44.85114" lon="4.00617">
        <ele>962.89770507812</ele>
        <time>2013-06-25T05:24:34Z</time>
      </trkpt>
      <trkpt lat="44.85102" lon="4.00587">
        <ele>964.33959960938</ele>
        <time>2013-06-25T05:24:39Z</time>
      </trkpt>
      <trkpt lat="44.85103" lon="4.00544">
        <ele>964.33959960938</ele>
        <time>2013-06-25T05:24:45Z</time>
      </trkpt>
      <trkpt lat="44.8511" lon="4.00509">
        <ele>965.78173828125</ele>
        <time>2013-06-25T05:24:50Z</time>
      </trkpt>
      <trkpt lat="44.85114" lon="4.00488">
        <ele>966.26220703125</ele>
        <time>2013-06-25T05:24:53Z</time>
      </trkpt>
      <trkpt lat="44.85118" lon="4.00454">
        <ele>968.18481445312</ele>
        <time>2013-06-25T05:24:58Z</time>
      </trkpt>
      <trkpt lat="44.85121" lon="4.00414">
        <ele>967.2236328125</ele>
        <time>2013-06-25T05:25:03Z</time>
      </trkpt>
      <trkpt lat="44.85123" lon="4.004">
        <ele>967.2236328125</ele>
        <time>2013-06-25T05:25:05Z</time>
      </trkpt>
      <trkpt lat="44.85121" lon="4.00333">
        <ele>966.74291992188</ele>
        <time>2013-06-25T05:25:14Z</time>
      </trkpt>
      <trkpt lat="44.8511" lon="4.00294">
        <ele>968.18481445312</ele>
        <time>2013-06-25T05:25:20Z</time>
      </trkpt>
      <trkpt lat="44.85096" lon="4.00271">
        <ele>966.74291992188</ele>
        <time>2013-06-25T05:25:25Z</time>
      </trkpt>
      <trkpt lat="44.85093" lon="4.00226">
        <ele>967.2236328125</ele>
        <time>2013-06-25T05:25:32Z</time>
      </trkpt>
      <trkpt lat="44.85098" lon="4.00186">
        <ele>968.18481445312</ele>
        <time>2013-06-25T05:25:38Z</time>
      </trkpt>
      <trkpt lat="44.85098" lon="4.00154">
        <ele>968.66552734375</ele>
        <time>2013-06-25T05:25:43Z</time>
      </trkpt>
      <trkpt lat="44.85093" lon="4.00094">
        <ele>968.66552734375</ele>
        <time>2013-06-25T05:25:52Z</time>
      </trkpt>
      <trkpt lat="44.85099" lon="4.0007">
        <ele>968.66552734375</ele>
        <time>2013-06-25T05:25:56Z</time>
      </trkpt>
      <trkpt lat="44.85114" lon="4.00036">
        <ele>968.66552734375</ele>
        <time>2013-06-25T05:26:01Z</time>
      </trkpt>
      <trkpt lat="44.8512" lon="4.00023">
        <ele>968.66552734375</ele>
        <time>2013-06-25T05:26:03Z</time>
      </trkpt>
      <trkpt lat="44.8513" lon="3.99988">
        <ele>968.18481445312</ele>
        <time>2013-06-25T05:26:08Z</time>
      </trkpt>
      <trkpt lat="44.8513" lon="3.99917">
        <ele>967.7041015625</ele>
        <time>2013-06-25T05:26:16Z</time>
      </trkpt>
      <trkpt lat="44.85166" lon="3.99807">
        <ele>965.78173828125</ele>
        <time>2013-06-25T05:26:30Z</time>
      </trkpt>
      <trkpt lat="44.85184" lon="3.99752">
        <ele>964.8203125</ele>
        <time>2013-06-25T05:26:37Z</time>
      </trkpt>
      <trkpt lat="44.85231" lon="3.99557">
        <ele>960.97509765625</ele>
        <time>2013-06-25T05:26:58Z</time>
      </trkpt>
      <trkpt lat="44.85245" lon="3.9943">
        <ele>958.09130859375</ele>
        <time>2013-06-25T05:27:10Z</time>
      </trkpt>
      <trkpt lat="44.85273" lon="3.99375">
        <ele>956.16845703125</ele>
        <time>2013-06-25T05:27:17Z</time>
      </trkpt>
      <trkpt lat="44.85326" lon="3.99353">
        <ele>953.28442382812</ele>
        <time>2013-06-25T05:27:25Z</time>
      </trkpt>
      <trkpt lat="44.85421" lon="3.99415">
        <ele>951.36181640625</ele>
        <time>2013-06-25T05:27:40Z</time>
      </trkpt>
      <trkpt lat="44.85433" lon="3.99425">
        <ele>950.88110351562</ele>
        <time>2013-06-25T05:27:42Z</time>
      </trkpt>
      <trkpt lat="44.85483" lon="3.99407">
        <ele>949.919921875</ele>
        <time>2013-06-25T05:27:50Z</time>
      </trkpt>
      <trkpt lat="44.85488" lon="3.994">
        <ele>949.919921875</ele>
        <time>2013-06-25T05:27:51Z</time>
      </trkpt>
      <trkpt lat="44.85502" lon="3.99379">
        <ele>948.95849609375</ele>
        <time>2013-06-25T05:27:54Z</time>
      </trkpt>
      <trkpt lat="44.85592" lon="3.99301">
        <ele>942.2294921875</ele>
        <time>2013-06-25T05:28:08Z</time>
      </trkpt>
      <trkpt lat="44.85743" lon="3.99212">
        <ele>936.94189453125</ele>
        <time>2013-06-25T05:28:29Z</time>
      </trkpt>
      <trkpt lat="44.85834" lon="3.9915">
        <ele>932.13549804688</ele>
        <time>2013-06-25T05:28:42Z</time>
      </trkpt>
      <trkpt lat="44.85934" lon="3.99033">
        <ele>927.3291015625</ele>
        <time>2013-06-25T05:28:57Z</time>
      </trkpt>
      <trkpt lat="44.85997" lon="3.9896">
        <ele>925.40625</ele>
        <time>2013-06-25T05:29:06Z</time>
      </trkpt>
      <trkpt lat="44.8603" lon="3.98941">
        <ele>923.0029296875</ele>
        <time>2013-06-25T05:29:10Z</time>
      </trkpt>
      <trkpt lat="44.8608" lon="3.98927">
        <ele>921.08032226562</ele>
        <time>2013-06-25T05:29:16Z</time>
      </trkpt>
      <trkpt lat="44.86122" lon="3.98889">
        <ele>922.52221679688</ele>
        <time>2013-06-25T05:29:22Z</time>
      </trkpt>
      <trkpt lat="44.86173" lon="3.98782">
        <ele>922.52221679688</ele>
        <time>2013-06-25T05:29:36Z</time>
      </trkpt>
      <trkpt lat="44.8622" lon="3.98705">
        <ele>923.48364257812</ele>
        <time>2013-06-25T05:29:50Z</time>
      </trkpt>
      <trkpt lat="44.8628" lon="3.98597">
        <ele>928.29028320312</ele>
        <time>2013-06-25T05:30:09Z</time>
      </trkpt>
      <trkpt lat="44.86321" lon="3.9849">
        <ele>931.17431640625</ele>
        <time>2013-06-25T05:30:31Z</time>
      </trkpt>
      <trkpt lat="44.86357" lon="3.98405">
        <ele>938.86474609375</ele>
        <time>2013-06-25T05:30:50Z</time>
      </trkpt>
      <trkpt lat="44.86405" lon="3.98386">
        <ele>935.5</ele>
        <time>2013-06-25T05:31:00Z</time>
      </trkpt>
      <trkpt lat="44.8643" lon="3.98334">
        <ele>934.53881835938</ele>
        <time>2013-06-25T05:31:09Z</time>
      </trkpt>
      <trkpt lat="44.86424" lon="3.98308">
        <ele>934.53881835938</ele>
        <time>2013-06-25T05:31:13Z</time>
      </trkpt>
      <trkpt lat="44.86405" lon="3.98272">
        <ele>934.53881835938</ele>
        <time>2013-06-25T05:31:20Z</time>
      </trkpt>
      <trkpt lat="44.8639" lon="3.98257">
        <ele>934.05810546875</ele>
        <time>2013-06-25T05:31:24Z</time>
      </trkpt>
      <trkpt lat="44.86382" lon="3.98249">
        <ele>933.57739257812</ele>
        <time>2013-06-25T05:31:26Z</time>
      </trkpt>
      <trkpt lat="44.86367" lon="3.98213">
        <ele>933.0966796875</ele>
        <time>2013-06-25T05:31:32Z</time>
      </trkpt>
      <trkpt lat="44.8637" lon="3.98075">
        <ele>930.212890625</ele>
        <time>2013-06-25T05:31:47Z</time>
      </trkpt>
      <trkpt lat="44.86377" lon="3.98003">
        <ele>926.84838867188</ele>
        <time>2013-06-25T05:31:54Z</time>
      </trkpt>
      <trkpt lat="44.86396" lon="3.97971">
        <ele>926.84838867188</ele>
        <time>2013-06-25T05:31:58Z</time>
      </trkpt>
      <trkpt lat="44.86454" lon="3.97895">
        <ele>929.73217773438</ele>
        <time>2013-06-25T05:32:14Z</time>
      </trkpt>
      <trkpt lat="44.86475" lon="3.97827">
        <ele>935.98071289062</ele>
        <time>2013-06-25T05:32:28Z</time>
      </trkpt>
      <trkpt lat="44.86495" lon="3.97732">
        <ele>937.9033203125</ele>
        <time>2013-06-25T05:32:47Z</time>
      </trkpt>
      <trkpt lat="44.86524" lon="3.97627">
        <ele>941.74877929688</ele>
        <time>2013-06-25T05:33:09Z</time>
      </trkpt>
      <trkpt lat="44.86546" lon="3.97547">
        <ele>944.15209960938</ele>
        <time>2013-06-25T05:33:27Z</time>
      </trkpt>
      <trkpt lat="44.86576" lon="3.97457">
        <ele>945.59399414062</ele>
        <time>2013-06-25T05:33:46Z</time>
      </trkpt>
      <trkpt lat="44.86581" lon="3.97401">
        <ele>946.55541992188</ele>
        <time>2013-06-25T05:33:59Z</time>
      </trkpt>
      <trkpt lat="44.86541" lon="3.97375">
        <ele>948.47778320312</ele>
        <time>2013-06-25T05:34:11Z</time>
      </trkpt>
      <trkpt lat="44.86464" lon="3.9734">
        <ele>952.8037109375</ele>
        <time>2013-06-25T05:34:32Z</time>
      </trkpt>
      <trkpt lat="44.86438" lon="3.97291">
        <ele>955.20703125</ele>
        <time>2013-06-25T05:34:44Z</time>
      </trkpt>
      <trkpt lat="44.86433" lon="3.97195">
        <ele>958.09130859375</ele>
        <time>2013-06-25T05:35:03Z</time>
      </trkpt>
      <trkpt lat="44.86444" lon="3.97163">
        <ele>959.05249023438</ele>
        <time>2013-06-25T05:35:14Z</time>
      </trkpt>
      <trkpt lat="44.86434" lon="3.97139">
        <ele>958.09130859375</ele>
        <time>2013-06-25T05:35:17Z</time>
      </trkpt>
      <trkpt lat="44.86437" lon="3.9711">
        <ele>957.1298828125</ele>
        <time>2013-06-25T05:35:21Z</time>
      </trkpt>
      <trkpt lat="44.86465" lon="3.97069">
        <ele>956.16845703125</ele>
        <time>2013-06-25T05:35:28Z</time>
      </trkpt>
      <trkpt lat="44.86472" lon="3.9701">
        <ele>952.32299804688</ele>
        <time>2013-06-25T05:35:35Z</time>
      </trkpt>
      <trkpt lat="44.86468" lon="3.97">
        <ele>951.84252929688</ele>
        <time>2013-06-25T05:35:36Z</time>
      </trkpt>
      <trkpt lat="44.86387" lon="3.96882">
        <ele>941.74877929688</ele>
        <time>2013-06-25T05:35:49Z</time>
      </trkpt>
      <trkpt lat="44.86343" lon="3.96865">
        <ele>938.86474609375</ele>
        <time>2013-06-25T05:35:54Z</time>
      </trkpt>
      <trkpt lat="44.86218" lon="3.96863">
        <ele>929.73217773438</ele>
        <time>2013-06-25T05:36:07Z</time>
      </trkpt>
      <trkpt lat="44.86209" lon="3.96859">
        <ele>928.77099609375</ele>
        <time>2013-06-25T05:36:08Z</time>
      </trkpt>
      <trkpt lat="44.86183" lon="3.96794">
        <ele>924.44506835938</ele>
        <time>2013-06-25T05:36:14Z</time>
      </trkpt>
      <trkpt lat="44.86182" lon="3.96781">
        <ele>923.96411132812</ele>
        <time>2013-06-25T05:36:15Z</time>
      </trkpt>
      <trkpt lat="44.86198" lon="3.96692">
        <ele>918.1962890625</ele>
        <time>2013-06-25T05:36:24Z</time>
      </trkpt>
      <trkpt lat="44.8625" lon="3.96626">
        <ele>917.71557617188</ele>
        <time>2013-06-25T05:36:30Z</time>
      </trkpt>
      <trkpt lat="44.86287" lon="3.96599">
        <ele>921.56079101562</ele>
        <time>2013-06-25T05:36:37Z</time>
      </trkpt>
      <trkpt lat="44.8634" lon="3.96566">
        <ele>926.36767578125</ele>
        <time>2013-06-25T05:36:51Z</time>
      </trkpt>
      <trkpt lat="44.86346" lon="3.96558">
        <ele>926.84838867188</ele>
        <time>2013-06-25T05:36:53Z</time>
      </trkpt>
      <trkpt lat="44.86352" lon="3.96535">
        <ele>926.36767578125</ele>
        <time>2013-06-25T05:36:57Z</time>
      </trkpt>
      <trkpt lat="44.86358" lon="3.96497">
        <ele>925.88696289062</ele>
        <time>2013-06-25T05:37:03Z</time>
      </trkpt>
      <trkpt lat="44.86412" lon="3.96408">
        <ele>926.84838867188</ele>
        <time>2013-06-25T05:37:21Z</time>
      </trkpt>
      <trkpt lat="44.86453" lon="3.96385">
        <ele>927.3291015625</ele>
        <time>2013-06-25T05:37:30Z</time>
      </trkpt>
      <trkpt lat="44.86497" lon="3.96394">
        <ele>927.8095703125</ele>
        <time>2013-06-25T05:37:39Z</time>
      </trkpt>
      <trkpt lat="44.86546" lon="3.96375">
        <ele>927.8095703125</ele>
        <time>2013-06-25T05:37:50Z</time>
      </trkpt>
      <trkpt lat="44.86549" lon="3.9632">
        <ele>928.29028320312</ele>
        <time>2013-06-25T05:37:59Z</time>
      </trkpt>
      <trkpt lat="44.86546" lon="3.96315">
        <ele>928.29028320312</ele>
        <time>2013-06-25T05:38:00Z</time>
      </trkpt>
      <trkpt lat="44.86518" lon="3.96263">
        <ele>927.3291015625</ele>
        <time>2013-06-25T05:38:10Z</time>
      </trkpt>
      <trkpt lat="44.86509" lon="3.96217">
        <ele>927.3291015625</ele>
        <time>2013-06-25T05:38:17Z</time>
      </trkpt>
      <trkpt lat="44.86511" lon="3.96196">
        <ele>927.8095703125</ele>
        <time>2013-06-25T05:38:20Z</time>
      </trkpt>
      <trkpt lat="44.8649" lon="3.96155">
        <ele>930.69360351562</ele>
        <time>2013-06-25T05:38:29Z</time>
      </trkpt>
      <trkpt lat="44.86486" lon="3.96153">
        <ele>930.69360351562</ele>
        <time>2013-06-25T05:38:30Z</time>
      </trkpt>
      <trkpt lat="44.8646" lon="3.96146">
        <ele>931.65478515625</ele>
        <time>2013-06-25T05:38:36Z</time>
      </trkpt>
      <trkpt lat="44.86416" lon="3.96128">
        <ele>934.05810546875</ele>
        <time>2013-06-25T05:38:46Z</time>
      </trkpt>
      <trkpt lat="44.86406" lon="3.96117">
        <ele>935.01953125</ele>
        <time>2013-06-25T05:38:49Z</time>
      </trkpt>
      <trkpt lat="44.86383" lon="3.96069">
        <ele>935.5</ele>
        <time>2013-06-25T05:38:58Z</time>
      </trkpt>
      <trkpt lat="44.86383" lon="3.96056">
        <ele>935.5</ele>
        <time>2013-06-25T05:39:00Z</time>
      </trkpt>
      <trkpt lat="44.86383" lon="3.96044">
        <ele>935.01953125</ele>
        <time>2013-06-25T05:39:02Z</time>
      </trkpt>
      <trkpt lat="44.8641" lon="3.95988">
        <ele>936.46142578125</ele>
        <time>2013-06-25T05:39:12Z</time>
      </trkpt>
      <trkpt lat="44.86481" lon="3.95934">
        <ele>936.94189453125</ele>
        <time>2013-06-25T05:39:29Z</time>
      </trkpt>
      <trkpt lat="44.86499" lon="3.95889">
        <ele>939.34521484375</ele>
        <time>2013-06-25T05:39:38Z</time>
      </trkpt>
      <trkpt lat="44.86499" lon="3.95857">
        <ele>939.82592773438</ele>
        <time>2013-06-25T05:39:43Z</time>
      </trkpt>
      <trkpt lat="44.86501" lon="3.95838">
        <ele>939.82592773438</ele>
        <time>2013-06-25T05:39:46Z</time>
      </trkpt>
      <trkpt lat="44.86524" lon="3.95765">
        <ele>942.71020507812</ele>
        <time>2013-06-25T05:39:58Z</time>
      </trkpt>
      <trkpt lat="44.8656" lon="3.95723">
        <ele>943.19067382812</ele>
        <time>2013-06-25T05:40:08Z</time>
      </trkpt>
      <trkpt lat="44.8657" lon="3.95724">
        <ele>942.71020507812</ele>
        <time>2013-06-25T05:40:10Z</time>
      </trkpt>
      <trkpt lat="44.86593" lon="3.9573">
        <ele>943.67138671875</ele>
        <time>2013-06-25T05:40:15Z</time>
      </trkpt>
      <trkpt lat="44.86633" lon="3.95723">
        <ele>947.03588867188</ele>
        <time>2013-06-25T05:40:24Z</time>
      </trkpt>
      <trkpt lat="44.86699" lon="3.95707">
        <ele>948.47778320312</ele>
        <time>2013-06-25T05:40:38Z</time>
      </trkpt>
      <trkpt lat="44.86714" lon="3.95664">
        <ele>950.40063476562</ele>
        <time>2013-06-25T05:40:47Z</time>
      </trkpt>
      <trkpt lat="44.86713" lon="3.95661">
        <ele>950.40063476562</ele>
        <time>2013-06-25T05:40:48Z</time>
      </trkpt>
      <trkpt lat="44.8667" lon="3.95583">
        <ele>950.88110351562</ele>
        <time>2013-06-25T05:41:03Z</time>
      </trkpt>
      <trkpt lat="44.86667" lon="3.95482">
        <ele>950.40063476562</ele>
        <time>2013-06-25T05:41:18Z</time>
      </trkpt>
      <trkpt lat="44.86669" lon="3.95463">
        <ele>951.36181640625</ele>
        <time>2013-06-25T05:41:21Z</time>
      </trkpt>
      <trkpt lat="44.8667" lon="3.9545">
        <ele>951.84252929688</ele>
        <time>2013-06-25T05:41:23Z</time>
      </trkpt>
      <trkpt lat="44.86668" lon="3.95307">
        <ele>952.8037109375</ele>
        <time>2013-06-25T05:41:44Z</time>
      </trkpt>
      <trkpt lat="44.86681" lon="3.95191">
        <ele>953.76513671875</ele>
        <time>2013-06-25T05:42:00Z</time>
      </trkpt>
      <trkpt lat="44.86666" lon="3.95124">
        <ele>950.88110351562</ele>
        <time>2013-06-25T05:42:09Z</time>
      </trkpt>
      <trkpt lat="44.8667" lon="3.95082">
        <ele>949.919921875</ele>
        <time>2013-06-25T05:42:14Z</time>
      </trkpt>
      <trkpt lat="44.86687" lon="3.94978">
        <ele>948.95849609375</ele>
        <time>2013-06-25T05:42:26Z</time>
      </trkpt>
      <trkpt lat="44.8669" lon="3.94867">
        <ele>949.43920898438</ele>
        <time>2013-06-25T05:42:40Z</time>
      </trkpt>
      <trkpt lat="44.867" lon="3.94757">
        <ele>951.36181640625</ele>
        <time>2013-06-25T05:42:56Z</time>
      </trkpt>
      <trkpt lat="44.86717" lon="3.94666">
        <ele>952.32299804688</ele>
        <time>2013-06-25T05:43:09Z</time>
      </trkpt>
      <trkpt lat="44.86712" lon="3.94645">
        <ele>952.32299804688</ele>
        <time>2013-06-25T05:43:12Z</time>
      </trkpt>
      <trkpt lat="44.86696" lon="3.9461">
        <ele>952.32299804688</ele>
        <time>2013-06-25T05:43:18Z</time>
      </trkpt>
      <trkpt lat="44.86682" lon="3.94592">
        <ele>952.32299804688</ele>
        <time>2013-06-25T05:43:22Z</time>
      </trkpt>
      <trkpt lat="44.86666" lon="3.94544">
        <ele>953.28442382812</ele>
        <time>2013-06-25T05:43:30Z</time>
      </trkpt>
      <trkpt lat="44.86675" lon="3.94431">
        <ele>951.36181640625</ele>
        <time>2013-06-25T05:43:44Z</time>
      </trkpt>
      <trkpt lat="44.86678" lon="3.94416">
        <ele>949.919921875</ele>
        <time>2013-06-25T05:43:46Z</time>
      </trkpt>
      <trkpt lat="44.86696" lon="3.94392">
        <ele>948.95849609375</ele>
        <time>2013-06-25T05:43:50Z</time>
      </trkpt>
      <trkpt lat="44.86711" lon="3.94377">
        <ele>948.47778320312</ele>
        <time>2013-06-25T05:43:53Z</time>
      </trkpt>
      <trkpt lat="44.86724" lon="3.94318">
        <ele>949.919921875</ele>
        <time>2013-06-25T05:44:02Z</time>
      </trkpt>
      <trkpt lat="44.86719" lon="3.94291">
        <ele>949.919921875</ele>
        <time>2013-06-25T05:44:06Z</time>
      </trkpt>
      <trkpt lat="44.86708" lon="3.94267">
        <ele>949.43920898438</ele>
        <time>2013-06-25T05:44:10Z</time>
      </trkpt>
      <trkpt lat="44.86711" lon="3.94209">
        <ele>949.919921875</ele>
        <time>2013-06-25T05:44:18Z</time>
      </trkpt>
      <trkpt lat="44.8676" lon="3.94082">
        <ele>952.8037109375</ele>
        <time>2013-06-25T05:44:37Z</time>
      </trkpt>
      <trkpt lat="44.86786" lon="3.94012">
        <ele>951.36181640625</ele>
        <time>2013-06-25T05:44:47Z</time>
      </trkpt>
      <trkpt lat="44.86833" lon="3.93878">
        <ele>954.24584960938</ele>
        <time>2013-06-25T05:45:07Z</time>
      </trkpt>
      <trkpt lat="44.8691" lon="3.93786">
        <ele>959.05249023438</ele>
        <time>2013-06-25T05:45:29Z</time>
      </trkpt>
      <trkpt lat="44.86944" lon="3.93747">
        <ele>959.533203125</ele>
        <time>2013-06-25T05:45:38Z</time>
      </trkpt>
      <trkpt lat="44.86984" lon="3.93626">
        <ele>957.61059570312</ele>
        <time>2013-06-25T05:45:56Z</time>
      </trkpt>
      <trkpt lat="44.86963" lon="3.93557">
        <ele>955.20703125</ele>
        <time>2013-06-25T05:46:05Z</time>
      </trkpt>
      <trkpt lat="44.86934" lon="3.93541">
        <ele>954.72631835938</ele>
        <time>2013-06-25T05:46:10Z</time>
      </trkpt>
      <trkpt lat="44.86921" lon="3.93539">
        <ele>953.76513671875</ele>
        <time>2013-06-25T05:46:12Z</time>
      </trkpt>
      <trkpt lat="44.86898" lon="3.93499">
        <ele>953.76513671875</ele>
        <time>2013-06-25T05:46:19Z</time>
      </trkpt>
      <trkpt lat="44.86899" lon="3.93489">
        <ele>953.76513671875</ele>
        <time>2013-06-25T05:46:20Z</time>
      </trkpt>
      <trkpt lat="44.8693" lon="3.93385">
        <ele>954.24584960938</ele>
        <time>2013-06-25T05:46:35Z</time>
      </trkpt>
      <trkpt lat="44.86924" lon="3.9324">
        <ele>954.24584960938</ele>
        <time>2013-06-25T05:46:55Z</time>
      </trkpt>
      <trkpt lat="44.86924" lon="3.93218">
        <ele>955.20703125</ele>
        <time>2013-06-25T05:46:58Z</time>
      </trkpt>
      <trkpt lat="44.8693" lon="3.93169">
        <ele>955.20703125</ele>
        <time>2013-06-25T05:47:05Z</time>
      </trkpt>
      <trkpt lat="44.86947" lon="3.93123">
        <ele>954.72631835938</ele>
        <time>2013-06-25T05:47:12Z</time>
      </trkpt>
      <trkpt lat="44.86968" lon="3.93095">
        <ele>954.72631835938</ele>
        <time>2013-06-25T05:47:17Z</time>
      </trkpt>
      <trkpt lat="44.87053" lon="3.93058">
        <ele>954.24584960938</ele>
        <time>2013-06-25T05:47:33Z</time>
      </trkpt>
      <trkpt lat="44.871" lon="3.93079">
        <ele>951.84252929688</ele>
        <time>2013-06-25T05:47:41Z</time>
      </trkpt>
      <trkpt lat="44.87142" lon="3.93075">
        <ele>949.43920898438</ele>
        <time>2013-06-25T05:47:48Z</time>
      </trkpt>
      <trkpt lat="44.87247" lon="3.93011">
        <ele>947.03588867188</ele>
        <time>2013-06-25T05:48:05Z</time>
      </trkpt>
      <trkpt lat="44.87296" lon="3.9299">
        <ele>949.43920898438</ele>
        <time>2013-06-25T05:48:18Z</time>
      </trkpt>
      <trkpt lat="44.87328" lon="3.92998">
        <ele>948.47778320312</ele>
        <time>2013-06-25T05:48:30Z</time>
      </trkpt>
      <trkpt lat="44.87346" lon="3.93049">
        <ele>947.03588867188</ele>
        <time>2013-06-25T05:48:46Z</time>
      </trkpt>
      <trkpt lat="44.87353" lon="3.9307">
        <ele>946.55541992188</ele>
        <time>2013-06-25T05:48:57Z</time>
      </trkpt>
      <trkpt lat="44.87353" lon="3.9307">
        <ele>946.55541992188</ele>
        <time>2013-06-25T05:49:16Z</time>
      </trkpt>
      <trkpt lat="44.87389" lon="3.93048">
        <ele>944.15209960938</ele>
        <time>2013-06-25T05:49:29Z</time>
      </trkpt>
      <trkpt lat="44.87413" lon="3.92957">
        <ele>944.63256835938</ele>
        <time>2013-06-25T05:49:43Z</time>
      </trkpt>
      <trkpt lat="44.87443" lon="3.9283">
        <ele>945.59399414062</ele>
        <time>2013-06-25T05:50:00Z</time>
      </trkpt>
      <trkpt lat="44.87487" lon="3.92647">
        <ele>946.07470703125</ele>
        <time>2013-06-25T05:50:24Z</time>
      </trkpt>
      <trkpt lat="44.87489" lon="3.92601">
        <ele>946.55541992188</ele>
        <time>2013-06-25T05:50:30Z</time>
      </trkpt>
      <trkpt lat="44.87487" lon="3.92561">
        <ele>946.55541992188</ele>
        <time>2013-06-25T05:50:35Z</time>
      </trkpt>
      <trkpt lat="44.87491" lon="3.92522">
        <ele>946.55541992188</ele>
        <time>2013-06-25T05:50:40Z</time>
      </trkpt>
      <trkpt lat="44.87547" lon="3.92422">
        <ele>943.67138671875</ele>
        <time>2013-06-25T05:50:54Z</time>
      </trkpt>
      <trkpt lat="44.87643" lon="3.92353">
        <ele>943.19067382812</ele>
        <time>2013-06-25T05:51:10Z</time>
      </trkpt>
      <trkpt lat="44.87701" lon="3.92267">
        <ele>942.71020507812</ele>
        <time>2013-06-25T05:51:25Z</time>
      </trkpt>
      <trkpt lat="44.87743" lon="3.92204">
        <ele>944.63256835938</ele>
        <time>2013-06-25T05:51:36Z</time>
      </trkpt>
      <trkpt lat="44.87793" lon="3.9219">
        <ele>945.11328125</ele>
        <time>2013-06-25T05:51:45Z</time>
      </trkpt>
      <trkpt lat="44.87799" lon="3.92194">
        <ele>945.11328125</ele>
        <time>2013-06-25T05:51:46Z</time>
      </trkpt>
      <trkpt lat="44.87833" lon="3.92225">
        <ele>944.15209960938</ele>
        <time>2013-06-25T05:51:52Z</time>
      </trkpt>
      <trkpt lat="44.87888" lon="3.92231">
        <ele>941.26806640625</ele>
        <time>2013-06-25T05:52:00Z</time>
      </trkpt>
      <trkpt lat="44.87894" lon="3.92224">
        <ele>941.26806640625</ele>
        <time>2013-06-25T05:52:01Z</time>
      </trkpt>
      <trkpt lat="44.87923" lon="3.92201">
        <ele>939.34521484375</ele>
        <time>2013-06-25T05:52:05Z</time>
      </trkpt>
      <trkpt lat="44.87959" lon="3.92228">
        <ele>935.01953125</ele>
        <time>2013-06-25T05:52:11Z</time>
      </trkpt>
      <trkpt lat="44.87983" lon="3.92279">
        <ele>931.65478515625</ele>
        <time>2013-06-25T05:52:17Z</time>
      </trkpt>
      <trkpt lat="44.88007" lon="3.92254">
        <ele>927.8095703125</ele>
        <time>2013-06-25T05:52:21Z</time>
      </trkpt>
      <trkpt lat="44.88037" lon="3.92188">
        <ele>923.48364257812</ele>
        <time>2013-06-25T05:52:27Z</time>
      </trkpt>
      <trkpt lat="44.88082" lon="3.92157">
        <ele>921.08032226562</ele>
        <time>2013-06-25T05:52:32Z</time>
      </trkpt>
      <trkpt lat="44.88139" lon="3.92173">
        <ele>913.87036132812</ele>
        <time>2013-06-25T05:52:38Z</time>
      </trkpt>
      <trkpt lat="44.88153" lon="3.92195">
        <ele>912.42846679688</ele>
        <time>2013-06-25T05:52:40Z</time>
      </trkpt>
      <trkpt lat="44.88165" lon="3.92215">
        <ele>910.98657226562</ele>
        <time>2013-06-25T05:52:42Z</time>
      </trkpt>
      <trkpt lat="44.882" lon="3.92206">
        <ele>907.62182617188</ele>
        <time>2013-06-25T05:52:47Z</time>
      </trkpt>
      <trkpt lat="44.88204" lon="3.92194">
        <ele>907.14111328125</ele>
        <time>2013-06-25T05:52:48Z</time>
      </trkpt>
      <trkpt lat="44.88285" lon="3.92009">
        <ele>896.08618164062</ele>
        <time>2013-06-25T05:53:03Z</time>
      </trkpt>
      <trkpt lat="44.88322" lon="3.91939">
        <ele>889.83740234375</ele>
        <time>2013-06-25T05:53:09Z</time>
      </trkpt>
      <trkpt lat="44.8837" lon="3.91907">
        <ele>883.10815429688</ele>
        <time>2013-06-25T05:53:16Z</time>
      </trkpt>
      <trkpt lat="44.88421" lon="3.91916">
        <ele>880.705078125</ele>
        <time>2013-06-25T05:53:19Z</time>
      </trkpt>
      <trkpt lat="44.88716" lon="3.9298">
        <ele>813.89331054688</ele>
        <time>2013-06-25T05:55:18Z</time>
      </trkpt>
      <trkpt lat="44.88824" lon="3.92823">
        <ele>789.37963867188</ele>
        <time>2013-06-25T05:56:03Z</time>
      </trkpt>
      <trkpt lat="44.88829" lon="3.92814">
        <ele>789.8603515625</ele>
        <time>2013-06-25T05:56:05Z</time>
      </trkpt>
      <trkpt lat="44.88847" lon="3.92805">
        <ele>788.89916992188</ele>
        <time>2013-06-25T05:56:12Z</time>
      </trkpt>
      <trkpt lat="44.88893" lon="3.92808">
        <ele>789.8603515625</ele>
        <time>2013-06-25T05:56:28Z</time>
      </trkpt>
      <trkpt lat="44.8895" lon="3.92799">
        <ele>795.62817382812</ele>
        <time>2013-06-25T05:56:47Z</time>
      </trkpt>
      <trkpt lat="44.88966" lon="3.92774">
        <ele>799.4736328125</ele>
        <time>2013-06-25T05:56:59Z</time>
      </trkpt>
      <trkpt lat="44.89003" lon="3.92718">
        <ele>805.24145507812</ele>
        <time>2013-06-25T05:57:15Z</time>
      </trkpt>
      <trkpt lat="44.89047" lon="3.92674">
        <ele>812.45141601562</ele>
        <time>2013-06-25T05:57:34Z</time>
      </trkpt>
      <trkpt lat="44.89106" lon="3.92605">
        <ele>820.62255859375</ele>
        <time>2013-06-25T05:58:01Z</time>
      </trkpt>
      <trkpt lat="44.89139" lon="3.92563">
        <ele>824.94848632812</ele>
        <time>2013-06-25T05:58:18Z</time>
      </trkpt>
      <trkpt lat="44.89156" lon="3.92505">
        <ele>824.94848632812</ele>
        <time>2013-06-25T05:58:33Z</time>
      </trkpt>
      <trkpt lat="44.89181" lon="3.92468">
        <ele>827.83227539062</ele>
        <time>2013-06-25T05:58:50Z</time>
      </trkpt>
      <trkpt lat="44.89192" lon="3.92446">
        <ele>829.75512695312</ele>
        <time>2013-06-25T05:59:38Z</time>
      </trkpt>
      <trkpt lat="44.8922" lon="3.92395">
        <ele>834.0810546875</ele>
        <time>2013-06-25T05:59:55Z</time>
      </trkpt>
      <trkpt lat="44.89248" lon="3.92352">
        <ele>837.44555664062</ele>
        <time>2013-06-25T06:00:11Z</time>
      </trkpt>
      <trkpt lat="44.89278" lon="3.92308">
        <ele>840.81005859375</ele>
        <time>2013-06-25T06:00:28Z</time>
      </trkpt>
      <trkpt lat="44.89318" lon="3.92253">
        <ele>845.13623046875</ele>
        <time>2013-06-25T06:00:49Z</time>
      </trkpt>
      <trkpt lat="44.89353" lon="3.92242">
        <ele>848.02026367188</ele>
        <time>2013-06-25T06:01:02Z</time>
      </trkpt>
      <trkpt lat="44.89399" lon="3.92277">
        <ele>850.42358398438</ele>
        <time>2013-06-25T06:01:18Z</time>
      </trkpt>
      <trkpt lat="44.89421" lon="3.92345">
        <ele>852.82666015625</ele>
        <time>2013-06-25T06:01:35Z</time>
      </trkpt>
      <trkpt lat="44.89458" lon="3.92377">
        <ele>854.74926757812</ele>
        <time>2013-06-25T06:01:49Z</time>
      </trkpt>
      <trkpt lat="44.89488" lon="3.92427">
        <ele>857.63330078125</ele>
        <time>2013-06-25T06:02:05Z</time>
      </trkpt>
      <trkpt lat="44.89525" lon="3.92475">
        <ele>861.95947265625</ele>
        <time>2013-06-25T06:02:22Z</time>
      </trkpt>
      <trkpt lat="44.89553" lon="3.92484">
        <ele>865.32397460938</ele>
        <time>2013-06-25T06:02:33Z</time>
      </trkpt>
      <trkpt lat="44.896" lon="3.92491">
        <ele>870.61108398438</ele>
        <time>2013-06-25T06:02:50Z</time>
      </trkpt>
      <trkpt lat="44.89634" lon="3.92455">
        <ele>873.4951171875</ele>
        <time>2013-06-25T06:03:05Z</time>
      </trkpt>
      <trkpt lat="44.89678" lon="3.92401">
        <ele>876.37915039062</ele>
        <time>2013-06-25T06:03:24Z</time>
      </trkpt>
      <trkpt lat="44.89707" lon="3.92344">
        <ele>880.22436523438</ele>
        <time>2013-06-25T06:03:41Z</time>
      </trkpt>
      <trkpt lat="44.89721" lon="3.92276">
        <ele>885.51147460938</ele>
        <time>2013-06-25T06:03:58Z</time>
      </trkpt>
      <trkpt lat="44.89759" lon="3.92214">
        <ele>889.83740234375</ele>
        <time>2013-06-25T06:04:16Z</time>
      </trkpt>
      <trkpt lat="44.89808" lon="3.92186">
        <ele>893.2021484375</ele>
        <time>2013-06-25T06:04:35Z</time>
      </trkpt>
      <trkpt lat="44.89877" lon="3.92186">
        <ele>897.04736328125</ele>
        <time>2013-06-25T06:04:53Z</time>
      </trkpt>
      <trkpt lat="44.89949" lon="3.92159">
        <ele>902.33447265625</ele>
        <time>2013-06-25T06:05:17Z</time>
      </trkpt>
      <trkpt lat="44.90002" lon="3.92106">
        <ele>908.10278320312</ele>
        <time>2013-06-25T06:05:37Z</time>
      </trkpt>
      <trkpt lat="44.90056" lon="3.92082">
        <ele>913.38989257812</ele>
        <time>2013-06-25T06:05:56Z</time>
      </trkpt>
      <trkpt lat="44.90082" lon="3.92121">
        <ele>916.27368164062</ele>
        <time>2013-06-25T06:06:09Z</time>
      </trkpt>
      <trkpt lat="44.90099" lon="3.92154">
        <ele>918.1962890625</ele>
        <time>2013-06-25T06:06:19Z</time>
      </trkpt>
      <trkpt lat="44.90103" lon="3.92167">
        <ele>919.63842773438</ele>
        <time>2013-06-25T06:06:23Z</time>
      </trkpt>
      <trkpt lat="44.90116" lon="3.9224">
        <ele>922.04150390625</ele>
        <time>2013-06-25T06:06:42Z</time>
      </trkpt>
      <trkpt lat="44.90098" lon="3.92298">
        <ele>926.36767578125</ele>
        <time>2013-06-25T06:06:58Z</time>
      </trkpt>
      <trkpt lat="44.90067" lon="3.92346">
        <ele>930.69360351562</ele>
        <time>2013-06-25T06:07:15Z</time>
      </trkpt>
      <trkpt lat="44.90058" lon="3.92379">
        <ele>932.6162109375</ele>
        <time>2013-06-25T06:07:24Z</time>
      </trkpt>
      <trkpt lat="44.90055" lon="3.9239">
        <ele>933.0966796875</ele>
        <time>2013-06-25T06:07:27Z</time>
      </trkpt>
      <trkpt lat="44.90046" lon="3.92451">
        <ele>936.46142578125</ele>
        <time>2013-06-25T06:07:44Z</time>
      </trkpt>
      <trkpt lat="44.90046" lon="3.92502">
        <ele>940.30688476562</ele>
        <time>2013-06-25T06:07:58Z</time>
      </trkpt>
      <trkpt lat="44.90061" lon="3.92565">
        <ele>945.59399414062</ele>
        <time>2013-06-25T06:08:16Z</time>
      </trkpt>
      <trkpt lat="44.9009" lon="3.92625">
        <ele>950.40063476562</ele>
        <time>2013-06-25T06:08:35Z</time>
      </trkpt>
      <trkpt lat="44.90127" lon="3.92673">
        <ele>954.24584960938</ele>
        <time>2013-06-25T06:08:54Z</time>
      </trkpt>
      <trkpt lat="44.9017" lon="3.92699">
        <ele>958.57177734375</ele>
        <time>2013-06-25T06:09:11Z</time>
      </trkpt>
      <trkpt lat="44.90211" lon="3.92722">
        <ele>961.45581054688</ele>
        <time>2013-06-25T06:09:27Z</time>
      </trkpt>
      <trkpt lat="44.90259" lon="3.92766">
        <ele>961.9365234375</ele>
        <time>2013-06-25T06:09:47Z</time>
      </trkpt>
      <trkpt lat="44.90311" lon="3.92824">
        <ele>965.30102539062</ele>
        <time>2013-06-25T06:10:10Z</time>
      </trkpt>
      <trkpt lat="44.90338" lon="3.92872">
        <ele>966.74291992188</ele>
        <time>2013-06-25T06:10:24Z</time>
      </trkpt>
      <trkpt lat="44.90382" lon="3.92923">
        <ele>970.107421875</ele>
        <time>2013-06-25T06:10:41Z</time>
      </trkpt>
      <trkpt lat="44.90412" lon="3.93005">
        <ele>974.91430664062</ele>
        <time>2013-06-25T06:11:00Z</time>
      </trkpt>
      <trkpt lat="44.90447" lon="3.9311">
        <ele>978.27880859375</ele>
        <time>2013-06-25T06:11:24Z</time>
      </trkpt>
      <trkpt lat="44.9044" lon="3.9319">
        <ele>983.56591796875</ele>
        <time>2013-06-25T06:11:41Z</time>
      </trkpt>
      <trkpt lat="44.90435" lon="3.93254">
        <ele>985.96923828125</ele>
        <time>2013-06-25T06:11:56Z</time>
      </trkpt>
      <trkpt lat="44.90454" lon="3.93319">
        <ele>987.4111328125</ele>
        <time>2013-06-25T06:12:17Z</time>
      </trkpt>
      <trkpt lat="44.90477" lon="3.93391">
        <ele>989.333984375</ele>
        <time>2013-06-25T06:12:38Z</time>
      </trkpt>
      <trkpt lat="44.90506" lon="3.93408">
        <ele>992.21801757812</ele>
        <time>2013-06-25T06:12:52Z</time>
      </trkpt>
      <trkpt lat="44.90558" lon="3.93387">
        <ele>994.140625</ele>
        <time>2013-06-25T06:13:10Z</time>
      </trkpt>
      <trkpt lat="44.90561" lon="3.93386">
        <ele>994.140625</ele>
        <time>2013-06-25T06:13:12Z</time>
      </trkpt>
      <trkpt lat="44.90556" lon="3.93388">
        <ele>994.140625</ele>
        <time>2013-06-25T06:13:19Z</time>
      </trkpt>
      <trkpt lat="44.90543" lon="3.9335">
        <ele>992.69873046875</ele>
        <time>2013-06-25T06:13:26Z</time>
      </trkpt>
      <trkpt lat="44.90545" lon="3.93325">
        <ele>991.7373046875</ele>
        <time>2013-06-25T06:13:29Z</time>
      </trkpt>
      <trkpt lat="44.90569" lon="3.93278">
        <ele>989.81469726562</ele>
        <time>2013-06-25T06:13:36Z</time>
      </trkpt>
      <trkpt lat="44.90668" lon="3.93213">
        <ele>987.4111328125</ele>
        <time>2013-06-25T06:13:57Z</time>
      </trkpt>
      <trkpt lat="44.9075" lon="3.9319">
        <ele>984.52734375</ele>
        <time>2013-06-25T06:14:11Z</time>
      </trkpt>
      <trkpt lat="44.90846" lon="3.93203">
        <ele>981.64331054688</ele>
        <time>2013-06-25T06:14:28Z</time>
      </trkpt>
      <trkpt lat="44.90891" lon="3.93219">
        <ele>979.23999023438</ele>
        <time>2013-06-25T06:14:36Z</time>
      </trkpt>
      <trkpt lat="44.90923" lon="3.93231">
        <ele>975.87548828125</ele>
        <time>2013-06-25T06:14:41Z</time>
      </trkpt>
      <trkpt lat="44.9101" lon="3.93291">
        <ele>968.66552734375</ele>
        <time>2013-06-25T06:14:52Z</time>
      </trkpt>
      <trkpt lat="44.91164" lon="3.93362">
        <ele>956.64916992188</ele>
        <time>2013-06-25T06:15:08Z</time>
      </trkpt>
      <trkpt lat="44.91311" lon="3.93447">
        <ele>946.07470703125</ele>
        <time>2013-06-25T06:15:25Z</time>
      </trkpt>
      <trkpt lat="44.91328" lon="3.93457">
        <ele>945.11328125</ele>
        <time>2013-06-25T06:15:27Z</time>
      </trkpt>
      <trkpt lat="44.91382" lon="3.93477">
        <ele>942.2294921875</ele>
        <time>2013-06-25T06:15:33Z</time>
      </trkpt>
      <trkpt lat="44.91492" lon="3.93541">
        <ele>937.9033203125</ele>
        <time>2013-06-25T06:15:46Z</time>
      </trkpt>
      <trkpt lat="44.91586" lon="3.93563">
        <ele>934.53881835938</ele>
        <time>2013-06-25T06:15:56Z</time>
      </trkpt>
      <trkpt lat="44.91711" lon="3.93563">
        <ele>935.01953125</ele>
        <time>2013-06-25T06:16:11Z</time>
      </trkpt>
      <trkpt lat="44.91831" lon="3.9358">
        <ele>936.46142578125</ele>
        <time>2013-06-25T06:16:29Z</time>
      </trkpt>
      <trkpt lat="44.91961" lon="3.93579">
        <ele>936.94189453125</ele>
        <time>2013-06-25T06:16:48Z</time>
      </trkpt>
      <trkpt lat="44.92077" lon="3.93598">
        <ele>936.94189453125</ele>
        <time>2013-06-25T06:17:05Z</time>
      </trkpt>
      <trkpt lat="44.92215" lon="3.93618">
        <ele>934.05810546875</ele>
        <time>2013-06-25T06:17:24Z</time>
      </trkpt>
      <trkpt lat="44.92275" lon="3.93616">
        <ele>931.65478515625</ele>
        <time>2013-06-25T06:17:31Z</time>
      </trkpt>
      <trkpt lat="44.92453" lon="3.93589">
        <ele>927.3291015625</ele>
        <time>2013-06-25T06:17:52Z</time>
      </trkpt>
      <trkpt lat="44.9258" lon="3.93535">
        <ele>925.88696289062</ele>
        <time>2013-06-25T06:18:08Z</time>
      </trkpt>
      <trkpt lat="44.92689" lon="3.93463">
        <ele>924.44506835938</ele>
        <time>2013-06-25T06:18:23Z</time>
      </trkpt>
      <trkpt lat="44.92797" lon="3.93318">
        <ele>916.27368164062</ele>
        <time>2013-06-25T06:18:39Z</time>
      </trkpt>
      <trkpt lat="44.92912" lon="3.93146">
        <ele>904.25732421875</ele>
        <time>2013-06-25T06:18:54Z</time>
      </trkpt>
      <trkpt lat="44.92992" lon="3.93011">
        <ele>896.08618164062</ele>
        <time>2013-06-25T06:19:05Z</time>
      </trkpt>
      <trkpt lat="44.93048" lon="3.92828">
        <ele>885.9921875</ele>
        <time>2013-06-25T06:19:17Z</time>
      </trkpt>
      <trkpt lat="44.93087" lon="3.92725">
        <ele>879.74365234375</ele>
        <time>2013-06-25T06:19:24Z</time>
      </trkpt>
      <trkpt lat="44.93146" lon="3.92693">
        <ele>875.41748046875</ele>
        <time>2013-06-25T06:19:30Z</time>
      </trkpt>
      <trkpt lat="44.93166" lon="3.92704">
        <ele>873.4951171875</ele>
        <time>2013-06-25T06:19:32Z</time>
      </trkpt>
      <trkpt lat="44.93187" lon="3.92717">
        <ele>872.05297851562</ele>
        <time>2013-06-25T06:19:34Z</time>
      </trkpt>
      <trkpt lat="44.93242" lon="3.92713">
        <ele>868.6884765625</ele>
        <time>2013-06-25T06:19:39Z</time>
      </trkpt>
      <trkpt lat="44.93272" lon="3.92689">
        <ele>866.28515625</ele>
        <time>2013-06-25T06:19:42Z</time>
      </trkpt>
      <trkpt lat="44.93349" lon="3.92687">
        <ele>861.47875976562</ele>
        <time>2013-06-25T06:19:49Z</time>
      </trkpt>
      <trkpt lat="44.93392" lon="3.92671">
        <ele>858.59448242188</ele>
        <time>2013-06-25T06:19:53Z</time>
      </trkpt>
      <trkpt lat="44.93414" lon="3.92655">
        <ele>856.19116210938</ele>
        <time>2013-06-25T06:19:55Z</time>
      </trkpt>
      <trkpt lat="44.93482" lon="3.9261">
        <ele>851.86547851562</ele>
        <time>2013-06-25T06:20:01Z</time>
      </trkpt>
      <trkpt lat="44.9354" lon="3.92633">
        <ele>848.9814453125</ele>
        <time>2013-06-25T06:20:07Z</time>
      </trkpt>
      <trkpt lat="44.93549" lon="3.9264">
        <ele>848.50073242188</ele>
        <time>2013-06-25T06:20:08Z</time>
      </trkpt>
      <trkpt lat="44.93569" lon="3.92657">
        <ele>847.05883789062</ele>
        <time>2013-06-25T06:20:10Z</time>
      </trkpt>
      <trkpt lat="44.9368" lon="3.92696">
        <ele>839.84887695312</ele>
        <time>2013-06-25T06:20:20Z</time>
      </trkpt>
      <trkpt lat="44.93692" lon="3.92697">
        <ele>838.8876953125</ele>
        <time>2013-06-25T06:20:21Z</time>
      </trkpt>
      <trkpt lat="44.93747" lon="3.92676">
        <ele>833.60034179688</ele>
        <time>2013-06-25T06:20:26Z</time>
      </trkpt>
      <trkpt lat="44.93806" lon="3.9268">
        <ele>828.7939453125</ele>
        <time>2013-06-25T06:20:31Z</time>
      </trkpt>
      <trkpt lat="44.93891" lon="3.92638">
        <ele>823.50659179688</ele>
        <time>2013-06-25T06:20:39Z</time>
      </trkpt>
      <trkpt lat="44.93975" lon="3.92613">
        <ele>816.29663085938</ele>
        <time>2013-06-25T06:20:47Z</time>
      </trkpt>
      <trkpt lat="44.94022" lon="3.92651">
        <ele>811.48999023438</ele>
        <time>2013-06-25T06:20:52Z</time>
      </trkpt>
      <trkpt lat="44.94077" lon="3.92733">
        <ele>806.20263671875</ele>
        <time>2013-06-25T06:20:59Z</time>
      </trkpt>
      <trkpt lat="44.94125" lon="3.92777">
        <ele>803.79956054688</ele>
        <time>2013-06-25T06:21:04Z</time>
      </trkpt>
      <trkpt lat="44.94167" lon="3.92818">
        <ele>799.95434570312</ele>
        <time>2013-06-25T06:21:09Z</time>
      </trkpt>
      <trkpt lat="44.9419" lon="3.92851">
        <ele>797.55102539062</ele>
        <time>2013-06-25T06:21:12Z</time>
      </trkpt>
      <trkpt lat="44.94268" lon="3.92908">
        <ele>790.34106445312</ele>
        <time>2013-06-25T06:21:22Z</time>
      </trkpt>
      <trkpt lat="44.94284" lon="3.92917">
        <ele>788.41845703125</ele>
        <time>2013-06-25T06:21:24Z</time>
      </trkpt>
      <trkpt lat="44.94336" lon="3.92919">
        <ele>785.05395507812</ele>
        <time>2013-06-25T06:21:30Z</time>
      </trkpt>
      <trkpt lat="44.94381" lon="3.92898">
        <ele>782.169921875</ele>
        <time>2013-06-25T06:21:35Z</time>
      </trkpt>
      <trkpt lat="44.94483" lon="3.92811">
        <ele>776.40185546875</ele>
        <time>2013-06-25T06:21:47Z</time>
      </trkpt>
      <trkpt lat="44.94517" lon="3.92776">
        <ele>773.99853515625</ele>
        <time>2013-06-25T06:21:51Z</time>
      </trkpt>
      <trkpt lat="44.94586" lon="3.9275">
        <ele>769.6728515625</ele>
        <time>2013-06-25T06:21:58Z</time>
      </trkpt>
      <trkpt lat="44.94618" lon="3.9275">
        <ele>768.71142578125</ele>
        <time>2013-06-25T06:22:01Z</time>
      </trkpt>
      <trkpt lat="44.94689" lon="3.92735">
        <ele>764.8662109375</ele>
        <time>2013-06-25T06:22:08Z</time>
      </trkpt>
      <trkpt lat="44.94726" lon="3.92753">
        <ele>762.943359375</ele>
        <time>2013-06-25T06:22:12Z</time>
      </trkpt>
      <trkpt lat="44.94806" lon="3.92818">
        <ele>757.17553710938</ele>
        <time>2013-06-25T06:22:21Z</time>
      </trkpt>
      <trkpt lat="44.94857" lon="3.92832">
        <ele>754.29174804688</ele>
        <time>2013-06-25T06:22:26Z</time>
      </trkpt>
      <trkpt lat="44.94906" lon="3.92904">
        <ele>749.48510742188</ele>
        <time>2013-06-25T06:22:33Z</time>
      </trkpt>
      <trkpt lat="44.94975" lon="3.93075">
        <ele>742.27514648438</ele>
        <time>2013-06-25T06:22:46Z</time>
      </trkpt>
      <trkpt lat="44.9503" lon="3.93223">
        <ele>736.02661132812</ele>
        <time>2013-06-25T06:22:57Z</time>
      </trkpt>
      <trkpt lat="44.95073" lon="3.93246">
        <ele>731.70043945312</ele>
        <time>2013-06-25T06:23:03Z</time>
      </trkpt>
      <trkpt lat="44.95088" lon="3.9323">
        <ele>730.7392578125</ele>
        <time>2013-06-25T06:23:05Z</time>
      </trkpt>
      <trkpt lat="44.95129" lon="3.93183">
        <ele>727.37475585938</ele>
        <time>2013-06-25T06:23:10Z</time>
      </trkpt>
      <trkpt lat="44.95179" lon="3.93162">
        <ele>724.01000976562</ele>
        <time>2013-06-25T06:23:15Z</time>
      </trkpt>
      <trkpt lat="44.95226" lon="3.9322">
        <ele>718.72290039062</ele>
        <time>2013-06-25T06:23:22Z</time>
      </trkpt>
      <trkpt lat="44.95232" lon="3.93287">
        <ele>716.31958007812</ele>
        <time>2013-06-25T06:23:27Z</time>
      </trkpt>
      <trkpt lat="44.95232" lon="3.93289">
        <ele>714.39672851562</ele>
        <time>2013-06-25T06:23:29Z</time>
      </trkpt>
      <trkpt lat="44.95197" lon="3.93397">
        <ele>711.99365234375</ele>
        <time>2013-06-25T06:23:36Z</time>
      </trkpt>
      <trkpt lat="44.95182" lon="3.93415">
        <ele>711.51293945312</ele>
        <time>2013-06-25T06:23:38Z</time>
      </trkpt>
      <trkpt lat="44.95151" lon="3.9351">
        <ele>708.1484375</ele>
        <time>2013-06-25T06:23:46Z</time>
      </trkpt>
      <trkpt lat="44.95179" lon="3.93551">
        <ele>706.2255859375</ele>
        <time>2013-06-25T06:23:51Z</time>
      </trkpt>
      <trkpt lat="44.95269" lon="3.93618">
        <ele>705.7451171875</ele>
        <time>2013-06-25T06:24:06Z</time>
      </trkpt>
      <trkpt lat="44.95271" lon="3.9362">
        <ele>705.7451171875</ele>
        <time>2013-06-25T06:24:07Z</time>
      </trkpt>
      <trkpt lat="44.95271" lon="3.9362">
        <ele>706.2255859375</ele>
        <time>2013-06-25T06:24:11Z</time>
      </trkpt>
      <trkpt lat="44.95288" lon="3.93628">
        <ele>706.2255859375</ele>
        <time>2013-06-25T06:24:24Z</time>
      </trkpt>
      <trkpt lat="44.95288" lon="3.93628">
        <ele>706.70629882812</ele>
        <time>2013-06-25T06:24:42Z</time>
      </trkpt>
      <trkpt lat="44.95288" lon="3.93628">
        <ele>706.70629882812</ele>
        <time>2013-06-25T06:31:33Z</time>
      </trkpt>
      <trkpt lat="44.95288" lon="3.93628">
        <ele>706.70629882812</ele>
        <time>2013-06-25T06:31:34Z</time>
      </trkpt>
      <trkpt lat="44.95295" lon="3.93624">
        <ele>706.70629882812</ele>
        <time>2013-06-25T06:31:38Z</time>
      </trkpt>
      <trkpt lat="44.95338" lon="3.936">
        <ele>709.10961914062</ele>
        <time>2013-06-25T06:31:56Z</time>
      </trkpt>
      <trkpt lat="44.95404" lon="3.9358">
        <ele>712.95483398438</ele>
        <time>2013-06-25T06:32:17Z</time>
      </trkpt>
      <trkpt lat="44.9546" lon="3.93595">
        <ele>718.72290039062</ele>
        <time>2013-06-25T06:32:35Z</time>
      </trkpt>
      <trkpt lat="44.95529" lon="3.93602">
        <ele>724.49072265625</ele>
        <time>2013-06-25T06:32:57Z</time>
      </trkpt>
      <trkpt lat="44.95571" lon="3.93617">
        <ele>728.3359375</ele>
        <time>2013-06-25T06:33:12Z</time>
      </trkpt>
      <trkpt lat="44.95583" lon="3.93671">
        <ele>731.70043945312</ele>
        <time>2013-06-25T06:33:26Z</time>
      </trkpt>
      <trkpt lat="44.95609" lon="3.93697">
        <ele>734.58471679688</ele>
        <time>2013-06-25T06:33:38Z</time>
      </trkpt>
      <trkpt lat="44.95658" lon="3.93677">
        <ele>737.46850585938</ele>
        <time>2013-06-25T06:33:54Z</time>
      </trkpt>
      <trkpt lat="44.957" lon="3.93627">
        <ele>741.31372070312</ele>
        <time>2013-06-25T06:34:12Z</time>
      </trkpt>
      <trkpt lat="44.95714" lon="3.93566">
        <ele>744.19775390625</ele>
        <time>2013-06-25T06:34:27Z</time>
      </trkpt>
      <trkpt lat="44.95754" lon="3.93524">
        <ele>748.52368164062</ele>
        <time>2013-06-25T06:34:43Z</time>
      </trkpt>
      <trkpt lat="44.95802" lon="3.93504">
        <ele>751.88842773438</ele>
        <time>2013-06-25T06:34:59Z</time>
      </trkpt>
      <trkpt lat="44.95851" lon="3.93492">
        <ele>755.73364257812</ele>
        <time>2013-06-25T06:35:15Z</time>
      </trkpt>
      <trkpt lat="44.95902" lon="3.93464">
        <ele>760.5400390625</ele>
        <time>2013-06-25T06:35:31Z</time>
      </trkpt>
      <trkpt lat="44.95972" lon="3.9344">
        <ele>765.34692382812</ele>
        <time>2013-06-25T06:35:52Z</time>
      </trkpt>
      <trkpt lat="44.96025" lon="3.93407">
        <ele>769.19213867188</ele>
        <time>2013-06-25T06:36:09Z</time>
      </trkpt>
      <trkpt lat="44.96047" lon="3.93418">
        <ele>771.59521484375</ele>
        <time>2013-06-25T06:36:18Z</time>
      </trkpt>
      <trkpt lat="44.96091" lon="3.93319">
        <ele>767.26953125</ele>
        <time>2013-06-25T06:36:33Z</time>
      </trkpt>
      <trkpt lat="44.96094" lon="3.9331">
        <ele>766.78881835938</ele>
        <time>2013-06-25T06:36:34Z</time>
      </trkpt>
      <trkpt lat="44.961" lon="3.93275">
        <ele>765.34692382812</ele>
        <time>2013-06-25T06:36:38Z</time>
      </trkpt>
      <trkpt lat="44.96101" lon="3.93184">
        <ele>762.943359375</ele>
        <time>2013-06-25T06:36:47Z</time>
      </trkpt>
      <trkpt lat="44.96067" lon="3.93134">
        <ele>761.50146484375</ele>
        <time>2013-06-25T06:36:54Z</time>
      </trkpt>
      <trkpt lat="44.96037" lon="3.93115">
        <ele>760.5400390625</ele>
        <time>2013-06-25T06:36:58Z</time>
      </trkpt>
      <trkpt lat="44.96014" lon="3.93069">
        <ele>758.61743164062</ele>
        <time>2013-06-25T06:37:03Z</time>
      </trkpt>
      <trkpt lat="44.96001" lon="3.93006">
        <ele>755.2529296875</ele>
        <time>2013-06-25T06:37:08Z</time>
      </trkpt>
      <trkpt lat="44.96008" lon="3.92937">
        <ele>752.36889648438</ele>
        <time>2013-06-25T06:37:13Z</time>
      </trkpt>
      <trkpt lat="44.96022" lon="3.92868">
        <ele>749.9658203125</ele>
        <time>2013-06-25T06:37:18Z</time>
      </trkpt>
      <trkpt lat="44.96056" lon="3.92821">
        <ele>748.04321289062</ele>
        <time>2013-06-25T06:37:23Z</time>
      </trkpt>
      <trkpt lat="44.96074" lon="3.92808">
        <ele>747.08154296875</ele>
        <time>2013-06-25T06:37:25Z</time>
      </trkpt>
      <trkpt lat="44.96113" lon="3.92766">
        <ele>745.15893554688</ele>
        <time>2013-06-25T06:37:30Z</time>
      </trkpt>
      <trkpt lat="44.962" lon="3.92818">
        <ele>739.87182617188</ele>
        <time>2013-06-25T06:37:41Z</time>
      </trkpt>
      <trkpt lat="44.9621" lon="3.92842">
        <ele>738.91064453125</ele>
        <time>2013-06-25T06:37:43Z</time>
      </trkpt>
      <trkpt lat="44.96245" lon="3.92857">
        <ele>737.46850585938</ele>
        <time>2013-06-25T06:37:47Z</time>
      </trkpt>
      <trkpt lat="44.96265" lon="3.92861">
        <ele>736.02661132812</ele>
        <time>2013-06-25T06:37:49Z</time>
      </trkpt>
      <trkpt lat="44.96295" lon="3.92867">
        <ele>734.58471679688</ele>
        <time>2013-06-25T06:37:52Z</time>
      </trkpt>
      <trkpt lat="44.96321" lon="3.92806">
        <ele>728.81665039062</ele>
        <time>2013-06-25T06:38:00Z</time>
      </trkpt>
      <trkpt lat="44.96305" lon="3.92768">
        <ele>726.41333007812</ele>
        <time>2013-06-25T06:38:03Z</time>
      </trkpt>
      <trkpt lat="44.96325" lon="3.92669">
        <ele>721.60668945312</ele>
        <time>2013-06-25T06:38:10Z</time>
      </trkpt>
      <trkpt lat="44.9634" lon="3.92543">
        <ele>714.87744140625</ele>
        <time>2013-06-25T06:38:18Z</time>
      </trkpt>
      <trkpt lat="44.96352" lon="3.92493">
        <ele>712.47412109375</ele>
        <time>2013-06-25T06:38:21Z</time>
      </trkpt>
      <trkpt lat="44.96378" lon="3.92435">
        <ele>709.10961914062</ele>
        <time>2013-06-25T06:38:25Z</time>
      </trkpt>
      <trkpt lat="44.96482" lon="3.92318">
        <ele>700.9384765625</ele>
        <time>2013-06-25T06:38:36Z</time>
      </trkpt>
      <trkpt lat="44.96543" lon="3.92269">
        <ele>697.57373046875</ele>
        <time>2013-06-25T06:38:42Z</time>
      </trkpt>
      <trkpt lat="44.96564" lon="3.92206">
        <ele>695.17041015625</ele>
        <time>2013-06-25T06:38:47Z</time>
      </trkpt>
      <trkpt lat="44.96576" lon="3.92114">
        <ele>693.728515625</ele>
        <time>2013-06-25T06:38:57Z</time>
      </trkpt>
      <trkpt lat="44.96582" lon="3.92068">
        <ele>693.728515625</ele>
        <time>2013-06-25T06:39:08Z</time>
      </trkpt>
      <trkpt lat="44.96592" lon="3.92045">
        <ele>696.1318359375</ele>
        <time>2013-06-25T06:40:01Z</time>
      </trkpt>
      <trkpt lat="44.96607" lon="3.92001">
        <ele>696.61254882812</ele>
        <time>2013-06-25T06:40:10Z</time>
      </trkpt>
      <trkpt lat="44.96624" lon="3.91951">
        <ele>696.61254882812</ele>
        <time>2013-06-25T06:40:21Z</time>
      </trkpt>
      <trkpt lat="44.96628" lon="3.91942">
        <ele>696.61254882812</ele>
        <time>2013-06-25T06:40:23Z</time>
      </trkpt>
      <trkpt lat="44.9665" lon="3.91885">
        <ele>699.49633789062</ele>
        <time>2013-06-25T06:40:36Z</time>
      </trkpt>
      <trkpt lat="44.96679" lon="3.9184">
        <ele>701.41918945312</ele>
        <time>2013-06-25T06:40:49Z</time>
      </trkpt>
      <trkpt lat="44.96704" lon="3.91826">
        <ele>702.86108398438</ele>
        <time>2013-06-25T06:40:57Z</time>
      </trkpt>
      <trkpt lat="44.96737" lon="3.91786">
        <ele>707.18701171875</ele>
        <time>2013-06-25T06:41:12Z</time>
      </trkpt>
      <trkpt lat="44.96747" lon="3.91723">
        <ele>710.07080078125</ele>
        <time>2013-06-25T06:41:27Z</time>
      </trkpt>
      <trkpt lat="44.96762" lon="3.91679">
        <ele>717.28100585938</ele>
        <time>2013-06-25T06:41:38Z</time>
      </trkpt>
      <trkpt lat="44.96777" lon="3.91622">
        <ele>722.08740234375</ele>
        <time>2013-06-25T06:41:52Z</time>
      </trkpt>
      <trkpt lat="44.9677" lon="3.91602">
        <ele>723.52954101562</ele>
        <time>2013-06-25T06:41:57Z</time>
      </trkpt>
      <trkpt lat="44.96717" lon="3.9155">
        <ele>724.97143554688</ele>
        <time>2013-06-25T06:42:15Z</time>
      </trkpt>
      <trkpt lat="44.96656" lon="3.91481">
        <ele>730.7392578125</ele>
        <time>2013-06-25T06:42:37Z</time>
      </trkpt>
      <trkpt lat="44.96591" lon="3.91425">
        <ele>735.0654296875</ele>
        <time>2013-06-25T06:42:55Z</time>
      </trkpt>
      <trkpt lat="44.96536" lon="3.91388">
        <ele>737.46850585938</ele>
        <time>2013-06-25T06:43:09Z</time>
      </trkpt>
      <trkpt lat="44.96515" lon="3.91374">
        <ele>737.94921875</ele>
        <time>2013-06-25T06:43:14Z</time>
      </trkpt>
      <trkpt lat="44.96512" lon="3.91322">
        <ele>738.91064453125</ele>
        <time>2013-06-25T06:43:22Z</time>
      </trkpt>
      <trkpt lat="44.96539" lon="3.913">
        <ele>739.87182617188</ele>
        <time>2013-06-25T06:43:28Z</time>
      </trkpt>
      <trkpt lat="44.96654" lon="3.91318">
        <ele>743.236328125</ele>
        <time>2013-06-25T06:43:51Z</time>
      </trkpt>
      <trkpt lat="44.9673" lon="3.9133">
        <ele>744.19775390625</ele>
        <time>2013-06-25T06:44:07Z</time>
      </trkpt>
      <trkpt lat="44.9679" lon="3.91336">
        <ele>747.08154296875</ele>
        <time>2013-06-25T06:44:20Z</time>
      </trkpt>
      <trkpt lat="44.96806" lon="3.9133">
        <ele>747.08154296875</ele>
        <time>2013-06-25T06:44:24Z</time>
      </trkpt>
      <trkpt lat="44.9684" lon="3.91311">
        <ele>747.56225585938</ele>
        <time>2013-06-25T06:44:32Z</time>
      </trkpt>
      <trkpt lat="44.96892" lon="3.91311">
        <ele>749.48510742188</ele>
        <time>2013-06-25T06:44:44Z</time>
      </trkpt>
      <trkpt lat="44.96924" lon="3.9129">
        <ele>752.36889648438</ele>
        <time>2013-06-25T06:44:52Z</time>
      </trkpt>
      <trkpt lat="44.96932" lon="3.91274">
        <ele>753.33032226562</ele>
        <time>2013-06-25T06:44:55Z</time>
      </trkpt>
      <trkpt lat="44.96956" lon="3.91221">
        <ele>753.81103515625</ele>
        <time>2013-06-25T06:45:04Z</time>
      </trkpt>
      <trkpt lat="44.97013" lon="3.91146">
        <ele>755.2529296875</ele>
        <time>2013-06-25T06:45:21Z</time>
      </trkpt>
      <trkpt lat="44.97042" lon="3.91114">
        <ele>756.21411132812</ele>
        <time>2013-06-25T06:45:29Z</time>
      </trkpt>
      <trkpt lat="44.97106" lon="3.9102">
        <ele>760.5400390625</ele>
        <time>2013-06-25T06:45:49Z</time>
      </trkpt>
      <trkpt lat="44.97146" lon="3.90971">
        <ele>762.943359375</ele>
        <time>2013-06-25T06:46:00Z</time>
      </trkpt>
      <trkpt lat="44.97157" lon="3.90957">
        <ele>762.943359375</ele>
        <time>2013-06-25T06:46:03Z</time>
      </trkpt>
      <trkpt lat="44.97158" lon="3.90922">
        <ele>763.42407226562</ele>
        <time>2013-06-25T06:46:09Z</time>
      </trkpt>
      <trkpt lat="44.97094" lon="3.90829">
        <ele>765.82763671875</ele>
        <time>2013-06-25T06:46:28Z</time>
      </trkpt>
      <trkpt lat="44.97077" lon="3.90805">
        <ele>767.26953125</ele>
        <time>2013-06-25T06:46:33Z</time>
      </trkpt>
      <trkpt lat="44.97065" lon="3.90793">
        <ele>768.23071289062</ele>
        <time>2013-06-25T06:46:36Z</time>
      </trkpt>
      <trkpt lat="44.97025" lon="3.90757">
        <ele>769.19213867188</ele>
        <time>2013-06-25T06:46:46Z</time>
      </trkpt>
      <trkpt lat="44.96975" lon="3.90698">
        <ele>774.47924804688</ele>
        <time>2013-06-25T06:47:00Z</time>
      </trkpt>
      <trkpt lat="44.96958" lon="3.90673">
        <ele>774.47924804688</ele>
        <time>2013-06-25T06:47:06Z</time>
      </trkpt>
      <trkpt lat="44.96945" lon="3.90655">
        <ele>774.47924804688</ele>
        <time>2013-06-25T06:47:10Z</time>
      </trkpt>
      <trkpt lat="44.96932" lon="3.90596">
        <ele>775.4404296875</ele>
        <time>2013-06-25T06:47:20Z</time>
      </trkpt>
      <trkpt lat="44.96909" lon="3.90477">
        <ele>778.32446289062</ele>
        <time>2013-06-25T06:47:39Z</time>
      </trkpt>
      <trkpt lat="44.96889" lon="3.9043">
        <ele>780.24731445312</ele>
        <time>2013-06-25T06:47:47Z</time>
      </trkpt>
      <trkpt lat="44.96872" lon="3.90406">
        <ele>781.68920898438</ele>
        <time>2013-06-25T06:47:52Z</time>
      </trkpt>
      <trkpt lat="44.96816" lon="3.90382">
        <ele>784.5732421875</ele>
        <time>2013-06-25T06:48:08Z</time>
      </trkpt>
      <trkpt lat="44.9678" lon="3.90364">
        <ele>786.01513671875</ele>
        <time>2013-06-25T06:48:19Z</time>
      </trkpt>
      <trkpt lat="44.96757" lon="3.9035">
        <ele>786.49584960938</ele>
        <time>2013-06-25T06:48:25Z</time>
      </trkpt>
      <trkpt lat="44.96751" lon="3.90307">
        <ele>786.49584960938</ele>
        <time>2013-06-25T06:48:32Z</time>
      </trkpt>
      <trkpt lat="44.96761" lon="3.90278">
        <ele>787.45703125</ele>
        <time>2013-06-25T06:48:37Z</time>
      </trkpt>
      <trkpt lat="44.96765" lon="3.90267">
        <ele>787.93774414062</ele>
        <time>2013-06-25T06:48:39Z</time>
      </trkpt>
      <trkpt lat="44.9677" lon="3.90244">
        <ele>788.89916992188</ele>
        <time>2013-06-25T06:48:43Z</time>
      </trkpt>
      <trkpt lat="44.9677" lon="3.90208">
        <ele>788.41845703125</ele>
        <time>2013-06-25T06:48:49Z</time>
      </trkpt>
      <trkpt lat="44.96766" lon="3.90178">
        <ele>788.89916992188</ele>
        <time>2013-06-25T06:48:54Z</time>
      </trkpt>
      <trkpt lat="44.96763" lon="3.90158">
        <ele>788.89916992188</ele>
        <time>2013-06-25T06:48:57Z</time>
      </trkpt>
      <trkpt lat="44.96758" lon="3.90126">
        <ele>789.37963867188</ele>
        <time>2013-06-25T06:49:02Z</time>
      </trkpt>
      <trkpt lat="44.96754" lon="3.90094">
        <ele>791.30224609375</ele>
        <time>2013-06-25T06:49:07Z</time>
      </trkpt>
      <trkpt lat="44.9676" lon="3.90012">
        <ele>792.74438476562</ele>
        <time>2013-06-25T06:49:19Z</time>
      </trkpt>
      <trkpt lat="44.96766" lon="3.89963">
        <ele>792.263671875</ele>
        <time>2013-06-25T06:49:26Z</time>
      </trkpt>
      <trkpt lat="44.96772" lon="3.89914">
        <ele>795.1474609375</ele>
        <time>2013-06-25T06:49:33Z</time>
      </trkpt>
      <trkpt lat="44.96776" lon="3.89828">
        <ele>794.18627929688</ele>
        <time>2013-06-25T06:49:47Z</time>
      </trkpt>
      <trkpt lat="44.96775" lon="3.89802">
        <ele>792.74438476562</ele>
        <time>2013-06-25T06:49:51Z</time>
      </trkpt>
      <trkpt lat="44.96763" lon="3.89757">
        <ele>795.62817382812</ele>
        <time>2013-06-25T06:49:59Z</time>
      </trkpt>
      <trkpt lat="44.96734" lon="3.89667">
        <ele>804.2802734375</ele>
        <time>2013-06-25T06:50:17Z</time>
      </trkpt>
      <trkpt lat="44.96733" lon="3.89635">
        <ele>807.1640625</ele>
        <time>2013-06-25T06:50:23Z</time>
      </trkpt>
      <trkpt lat="44.96734" lon="3.89515">
        <ele>810.0478515625</ele>
        <time>2013-06-25T06:50:42Z</time>
      </trkpt>
      <trkpt lat="44.96735" lon="3.89509">
        <ele>810.52856445312</ele>
        <time>2013-06-25T06:50:43Z</time>
      </trkpt>
      <trkpt lat="44.96744" lon="3.89464">
        <ele>810.52856445312</ele>
        <time>2013-06-25T06:50:51Z</time>
      </trkpt>
      <trkpt lat="44.96749" lon="3.89421">
        <ele>811.48999023438</ele>
        <time>2013-06-25T06:50:59Z</time>
      </trkpt>
      <trkpt lat="44.96728" lon="3.89324">
        <ele>814.85473632812</ele>
        <time>2013-06-25T06:51:17Z</time>
      </trkpt>
      <trkpt lat="44.9672" lon="3.89261">
        <ele>817.73852539062</ele>
        <time>2013-06-25T06:51:33Z</time>
      </trkpt>
      <trkpt lat="44.96718" lon="3.89189">
        <ele>818.69995117188</ele>
        <time>2013-06-25T06:51:49Z</time>
      </trkpt>
      <trkpt lat="44.96722" lon="3.891">
        <ele>822.54516601562</ele>
        <time>2013-06-25T06:52:08Z</time>
      </trkpt>
      <trkpt lat="44.96717" lon="3.89032">
        <ele>824.94848632812</ele>
        <time>2013-06-25T06:52:23Z</time>
      </trkpt>
      <trkpt lat="44.96683" lon="3.8903">
        <ele>829.2744140625</ele>
        <time>2013-06-25T06:52:35Z</time>
      </trkpt>
      <trkpt lat="44.96619" lon="3.89057">
        <ele>834.56176757812</ele>
        <time>2013-06-25T06:52:55Z</time>
      </trkpt>
      <trkpt lat="44.96587" lon="3.89041">
        <ele>836.00366210938</ele>
        <time>2013-06-25T06:53:05Z</time>
      </trkpt>
      <trkpt lat="44.966" lon="3.88987">
        <ele>837.92626953125</ele>
        <time>2013-06-25T06:53:16Z</time>
      </trkpt>
      <trkpt lat="44.96646" lon="3.88965">
        <ele>836.484375</ele>
        <time>2013-06-25T06:53:29Z</time>
      </trkpt>
      <trkpt lat="44.96719" lon="3.88916">
        <ele>829.75512695312</ele>
        <time>2013-06-25T06:53:42Z</time>
      </trkpt>
      <trkpt lat="44.96747" lon="3.88897">
        <ele>826.87109375</ele>
        <time>2013-06-25T06:53:46Z</time>
      </trkpt>
      <trkpt lat="44.96782" lon="3.88883">
        <ele>823.98706054688</ele>
        <time>2013-06-25T06:53:50Z</time>
      </trkpt>
      <trkpt lat="44.96891" lon="3.8887">
        <ele>813.41284179688</ele>
        <time>2013-06-25T06:54:01Z</time>
      </trkpt>
      <trkpt lat="44.97035" lon="3.88877">
        <ele>803.79956054688</ele>
        <time>2013-06-25T06:54:14Z</time>
      </trkpt>
      <trkpt lat="44.97146" lon="3.88909">
        <ele>797.0703125</ele>
        <time>2013-06-25T06:54:22Z</time>
      </trkpt>
      <trkpt lat="44.97198" lon="3.88881">
        <ele>792.263671875</ele>
        <time>2013-06-25T06:54:28Z</time>
      </trkpt>
      <trkpt lat="44.972" lon="3.88829">
        <ele>789.8603515625</ele>
        <time>2013-06-25T06:54:32Z</time>
      </trkpt>
      <trkpt lat="44.97182" lon="3.88779">
        <ele>787.45703125</ele>
        <time>2013-06-25T06:54:36Z</time>
      </trkpt>
      <trkpt lat="44.97194" lon="3.88724">
        <ele>785.53442382812</ele>
        <time>2013-06-25T06:54:41Z</time>
      </trkpt>
      <trkpt lat="44.97212" lon="3.88714">
        <ele>784.09252929688</ele>
        <time>2013-06-25T06:54:43Z</time>
      </trkpt>
      <trkpt lat="44.97348" lon="3.88699">
        <ele>773.03735351562</ele>
        <time>2013-06-25T06:54:55Z</time>
      </trkpt>
      <trkpt lat="44.97497" lon="3.88656">
        <ele>765.34692382812</ele>
        <time>2013-06-25T06:55:08Z</time>
      </trkpt>
      <trkpt lat="44.97614" lon="3.8859">
        <ele>759.09814453125</ele>
        <time>2013-06-25T06:55:20Z</time>
      </trkpt>
      <trkpt lat="44.9766" lon="3.88543">
        <ele>756.21411132812</ele>
        <time>2013-06-25T06:55:25Z</time>
      </trkpt>
      <trkpt lat="44.97701" lon="3.88521">
        <ele>752.849609375</ele>
        <time>2013-06-25T06:55:29Z</time>
      </trkpt>
      <trkpt lat="44.97854" lon="3.8853">
        <ele>741.79443359375</ele>
        <time>2013-06-25T06:55:42Z</time>
      </trkpt>
      <trkpt lat="44.97997" lon="3.88544">
        <ele>731.21997070312</ele>
        <time>2013-06-25T06:55:54Z</time>
      </trkpt>
      <trkpt lat="44.98044" lon="3.88493">
        <ele>726.89404296875</ele>
        <time>2013-06-25T06:56:00Z</time>
      </trkpt>
      <trkpt lat="44.98045" lon="3.88448">
        <ele>724.49072265625</ele>
        <time>2013-06-25T06:56:03Z</time>
      </trkpt>
      <trkpt lat="44.9804" lon="3.88398">
        <ele>723.048828125</ele>
        <time>2013-06-25T06:56:06Z</time>
      </trkpt>
      <trkpt lat="44.98058" lon="3.88252">
        <ele>718.2421875</ele>
        <time>2013-06-25T06:56:15Z</time>
      </trkpt>
      <trkpt lat="44.98078" lon="3.88129">
        <ele>713.435546875</ele>
        <time>2013-06-25T06:56:23Z</time>
      </trkpt>
      <trkpt lat="44.98127" lon="3.88072">
        <ele>708.62890625</ele>
        <time>2013-06-25T06:56:29Z</time>
      </trkpt>
      <trkpt lat="44.98194" lon="3.88081">
        <ele>706.2255859375</ele>
        <time>2013-06-25T06:56:35Z</time>
      </trkpt>
      <trkpt lat="44.98212" lon="3.8813">
        <ele>703.82250976562</ele>
        <time>2013-06-25T06:56:39Z</time>
      </trkpt>
      <trkpt lat="44.9824" lon="3.88305">
        <ele>700.4580078125</ele>
        <time>2013-06-25T06:56:51Z</time>
      </trkpt>
      <trkpt lat="44.98245" lon="3.88317">
        <ele>700.4580078125</ele>
        <time>2013-06-25T06:56:52Z</time>
      </trkpt>
      <trkpt lat="44.98267" lon="3.88355">
        <ele>699.97705078125</ele>
        <time>2013-06-25T06:56:56Z</time>
      </trkpt>
      <trkpt lat="44.98289" lon="3.88374">
        <ele>698.53491210938</ele>
        <time>2013-06-25T06:56:59Z</time>
      </trkpt>
      <trkpt lat="44.98397" lon="3.88416">
        <ele>698.53491210938</ele>
        <time>2013-06-25T06:57:13Z</time>
      </trkpt>
      <trkpt lat="44.98466" lon="3.8844">
        <ele>701.41918945312</ele>
        <time>2013-06-25T06:57:24Z</time>
      </trkpt>
      <trkpt lat="44.98542" lon="3.88425">
        <ele>700.9384765625</ele>
        <time>2013-06-25T06:57:35Z</time>
      </trkpt>
      <trkpt lat="44.98667" lon="3.88382">
        <ele>698.53491210938</ele>
        <time>2013-06-25T06:57:52Z</time>
      </trkpt>
      <trkpt lat="44.98731" lon="3.88356">
        <ele>698.05444335938</ele>
        <time>2013-06-25T06:58:02Z</time>
      </trkpt>
      <trkpt lat="44.98793" lon="3.88282">
        <ele>697.57373046875</ele>
        <time>2013-06-25T06:58:15Z</time>
      </trkpt>
      <trkpt lat="44.98846" lon="3.88266">
        <ele>698.05444335938</ele>
        <time>2013-06-25T06:58:23Z</time>
      </trkpt>
      <trkpt lat="44.98923" lon="3.88281">
        <ele>695.17041015625</ele>
        <time>2013-06-25T06:58:35Z</time>
      </trkpt>
      <trkpt lat="44.99023" lon="3.88264">
        <ele>698.53491210938</ele>
        <time>2013-06-25T06:58:52Z</time>
      </trkpt>
      <trkpt lat="44.99082" lon="3.88265">
        <ele>698.05444335938</ele>
        <time>2013-06-25T06:59:06Z</time>
      </trkpt>
      <trkpt lat="44.99127" lon="3.88301">
        <ele>697.09301757812</ele>
        <time>2013-06-25T06:59:20Z</time>
      </trkpt>
      <trkpt lat="44.99142" lon="3.88319">
        <ele>697.09301757812</ele>
        <time>2013-06-25T06:59:25Z</time>
      </trkpt>
      <trkpt lat="44.99155" lon="3.88335">
        <ele>699.97705078125</ele>
        <time>2013-06-25T06:59:30Z</time>
      </trkpt>
      <trkpt lat="44.99182" lon="3.88359">
        <ele>704.30322265625</ele>
        <time>2013-06-25T06:59:39Z</time>
      </trkpt>
      <trkpt lat="44.99252" lon="3.88408">
        <ele>712.47412109375</ele>
        <time>2013-06-25T07:00:01Z</time>
      </trkpt>
      <trkpt lat="44.99324" lon="3.88458">
        <ele>715.8388671875</ele>
        <time>2013-06-25T07:00:22Z</time>
      </trkpt>
      <trkpt lat="44.99388" lon="3.88515">
        <ele>720.6455078125</ele>
        <time>2013-06-25T07:00:43Z</time>
      </trkpt>
      <trkpt lat="44.99429" lon="3.88576">
        <ele>723.048828125</ele>
        <time>2013-06-25T07:01:01Z</time>
      </trkpt>
      <trkpt lat="44.99472" lon="3.88632">
        <ele>728.81665039062</ele>
        <time>2013-06-25T07:01:18Z</time>
      </trkpt>
      <trkpt lat="44.99519" lon="3.88641">
        <ele>733.62329101562</ele>
        <time>2013-06-25T07:01:32Z</time>
      </trkpt>
      <trkpt lat="44.99567" lon="3.88664">
        <ele>736.02661132812</ele>
        <time>2013-06-25T07:01:47Z</time>
      </trkpt>
      <trkpt lat="44.99609" lon="3.88656">
        <ele>738.91064453125</ele>
        <time>2013-06-25T07:02:00Z</time>
      </trkpt>
      <trkpt lat="44.9964" lon="3.88605">
        <ele>740.8330078125</ele>
        <time>2013-06-25T07:02:14Z</time>
      </trkpt>
      <trkpt lat="44.99674" lon="3.8857">
        <ele>745.6396484375</ele>
        <time>2013-06-25T07:02:26Z</time>
      </trkpt>
      <trkpt lat="44.99709" lon="3.88546">
        <ele>746.60107421875</ele>
        <time>2013-06-25T07:02:37Z</time>
      </trkpt>
      <trkpt lat="44.99746" lon="3.88505">
        <ele>747.08154296875</ele>
        <time>2013-06-25T07:02:49Z</time>
      </trkpt>
      <trkpt lat="44.9979" lon="3.88485">
        <ele>747.08154296875</ele>
        <time>2013-06-25T07:03:00Z</time>
      </trkpt>
      <trkpt lat="44.99805" lon="3.88483">
        <ele>747.56225585938</ele>
        <time>2013-06-25T07:03:03Z</time>
      </trkpt>
      <trkpt lat="44.99853" lon="3.88481">
        <ele>748.52368164062</ele>
        <time>2013-06-25T07:03:13Z</time>
      </trkpt>
      <trkpt lat="44.99889" lon="3.88474">
        <ele>749.48510742188</ele>
        <time>2013-06-25T07:03:19Z</time>
      </trkpt>
      <trkpt lat="44.9991" lon="3.88452">
        <ele>749.9658203125</ele>
        <time>2013-06-25T07:03:24Z</time>
      </trkpt>
      <trkpt lat="44.9996" lon="3.88356">
        <ele>752.36889648438</ele>
        <time>2013-06-25T07:03:43Z</time>
      </trkpt>
      <trkpt lat="45.00024" lon="3.883">
        <ele>755.2529296875</ele>
        <time>2013-06-25T07:04:01Z</time>
      </trkpt>
      <trkpt lat="45.00077" lon="3.88301">
        <ele>757.17553710938</ele>
        <time>2013-06-25T07:04:12Z</time>
      </trkpt>
      <trkpt lat="45.00093" lon="3.88316">
        <ele>758.13696289062</ele>
        <time>2013-06-25T07:04:16Z</time>
      </trkpt>
      <trkpt lat="45.0011" lon="3.88332">
        <ele>758.61743164062</ele>
        <time>2013-06-25T07:04:20Z</time>
      </trkpt>
      <trkpt lat="45.00188" lon="3.88363">
        <ele>760.5400390625</ele>
        <time>2013-06-25T07:04:36Z</time>
      </trkpt>
      <trkpt lat="45.00243" lon="3.88382">
        <ele>761.50146484375</ele>
        <time>2013-06-25T07:04:47Z</time>
      </trkpt>
      <trkpt lat="45.00271" lon="3.88419">
        <ele>761.02075195312</ele>
        <time>2013-06-25T07:04:53Z</time>
      </trkpt>
      <trkpt lat="45.00286" lon="3.88462">
        <ele>760.05932617188</ele>
        <time>2013-06-25T07:04:58Z</time>
      </trkpt>
      <trkpt lat="45.00321" lon="3.88494">
        <ele>758.61743164062</ele>
        <time>2013-06-25T07:05:04Z</time>
      </trkpt>
      <trkpt lat="45.00429" lon="3.88535">
        <ele>759.57885742188</ele>
        <time>2013-06-25T07:05:21Z</time>
      </trkpt>
      <trkpt lat="45.00523" lon="3.88562">
        <ele>761.98217773438</ele>
        <time>2013-06-25T07:05:37Z</time>
      </trkpt>
      <trkpt lat="45.00573" lon="3.88588">
        <ele>764.8662109375</ele>
        <time>2013-06-25T07:05:47Z</time>
      </trkpt>
      <trkpt lat="45.00587" lon="3.88595">
        <ele>766.30810546875</ele>
        <time>2013-06-25T07:05:50Z</time>
      </trkpt>
      <trkpt lat="45.00617" lon="3.886">
        <ele>767.26953125</ele>
        <time>2013-06-25T07:05:56Z</time>
      </trkpt>
      <trkpt lat="45.0064" lon="3.88605">
        <ele>768.71142578125</ele>
        <time>2013-06-25T07:06:01Z</time>
      </trkpt>
      <trkpt lat="45.00655" lon="3.88609">
        <ele>770.1533203125</ele>
        <time>2013-06-25T07:06:04Z</time>
      </trkpt>
      <trkpt lat="45.00664" lon="3.88616">
        <ele>770.1533203125</ele>
        <time>2013-06-25T07:06:06Z</time>
      </trkpt>
      <trkpt lat="45.00717" lon="3.88699">
        <ele>774.9599609375</ele>
        <time>2013-06-25T07:06:23Z</time>
      </trkpt>
      <trkpt lat="45.00744" lon="3.88753">
        <ele>776.88256835938</ele>
        <time>2013-06-25T07:06:33Z</time>
      </trkpt>
      <trkpt lat="45.00769" lon="3.88815">
        <ele>777.84375</ele>
        <time>2013-06-25T07:06:44Z</time>
      </trkpt>
      <trkpt lat="45.00775" lon="3.88833">
        <ele>778.32446289062</ele>
        <time>2013-06-25T07:06:47Z</time>
      </trkpt>
      <trkpt lat="45.00781" lon="3.88855">
        <ele>777.36328125</ele>
        <time>2013-06-25T07:06:51Z</time>
      </trkpt>
      <trkpt lat="45.00776" lon="3.88906">
        <ele>778.80517578125</ele>
        <time>2013-06-25T07:06:59Z</time>
      </trkpt>
      <trkpt lat="45.00768" lon="3.88923">
        <ele>778.32446289062</ele>
        <time>2013-06-25T07:07:02Z</time>
      </trkpt>
      <trkpt lat="45.00776" lon="3.88991">
        <ele>777.84375</ele>
        <time>2013-06-25T07:07:12Z</time>
      </trkpt>
      <trkpt lat="45.00834" lon="3.8909">
        <ele>782.65063476562</ele>
        <time>2013-06-25T07:07:30Z</time>
      </trkpt>
      <trkpt lat="45.00875" lon="3.89179">
        <ele>785.53442382812</ele>
        <time>2013-06-25T07:07:47Z</time>
      </trkpt>
      <trkpt lat="45.0088" lon="3.89201">
        <ele>786.49584960938</ele>
        <time>2013-06-25T07:07:51Z</time>
      </trkpt>
      <trkpt lat="45.00886" lon="3.89255">
        <ele>787.93774414062</ele>
        <time>2013-06-25T07:07:59Z</time>
      </trkpt>
      <trkpt lat="45.00927" lon="3.89333">
        <ele>789.37963867188</ele>
        <time>2013-06-25T07:08:15Z</time>
      </trkpt>
      <trkpt lat="45.00972" lon="3.89422">
        <ele>792.263671875</ele>
        <time>2013-06-25T07:08:34Z</time>
      </trkpt>
      <trkpt lat="45.01001" lon="3.89491">
        <ele>795.62817382812</ele>
        <time>2013-06-25T07:08:48Z</time>
      </trkpt>
      <trkpt lat="45.01059" lon="3.89597">
        <ele>800.43505859375</ele>
        <time>2013-06-25T07:09:11Z</time>
      </trkpt>
      <trkpt lat="45.01101" lon="3.89643">
        <ele>800.91552734375</ele>
        <time>2013-06-25T07:09:23Z</time>
      </trkpt>
      <trkpt lat="45.0114" lon="3.89662">
        <ele>801.876953125</ele>
        <time>2013-06-25T07:09:33Z</time>
      </trkpt>
      <trkpt lat="45.01136" lon="3.89695">
        <ele>800.43505859375</ele>
        <time>2013-06-25T07:09:38Z</time>
      </trkpt>
      <trkpt lat="45.01123" lon="3.89717">
        <ele>799.4736328125</ele>
        <time>2013-06-25T07:09:41Z</time>
      </trkpt>
      <trkpt lat="45.01106" lon="3.89755">
        <ele>796.58984375</ele>
        <time>2013-06-25T07:09:45Z</time>
      </trkpt>
      <trkpt lat="45.01084" lon="3.89828">
        <ele>793.70556640625</ele>
        <time>2013-06-25T07:09:51Z</time>
      </trkpt>
      <trkpt lat="45.01" lon="3.89985">
        <ele>787.45703125</ele>
        <time>2013-06-25T07:10:05Z</time>
      </trkpt>
      <trkpt lat="45.00881" lon="3.90211">
        <ele>775.92114257812</ele>
        <time>2013-06-25T07:10:23Z</time>
      </trkpt>
      <trkpt lat="45.00849" lon="3.9028">
        <ele>772.556640625</ele>
        <time>2013-06-25T07:10:28Z</time>
      </trkpt>
      <trkpt lat="45.00764" lon="3.90418">
        <ele>764.38549804688</ele>
        <time>2013-06-25T07:10:42Z</time>
      </trkpt>
      <trkpt lat="45.00635" lon="3.90533">
        <ele>760.05932617188</ele>
        <time>2013-06-25T07:10:54Z</time>
      </trkpt>
      <trkpt lat="45.00626" lon="3.9054">
        <ele>759.57885742188</ele>
        <time>2013-06-25T07:10:55Z</time>
      </trkpt>
      <trkpt lat="45.00577" lon="3.90638">
        <ele>755.2529296875</ele>
        <time>2013-06-25T07:11:03Z</time>
      </trkpt>
      <trkpt lat="45.00557" lon="3.90716">
        <ele>751.40771484375</ele>
        <time>2013-06-25T07:11:08Z</time>
      </trkpt>
      <trkpt lat="45.00537" lon="3.90773">
        <ele>748.04321289062</ele>
        <time>2013-06-25T07:11:12Z</time>
      </trkpt>
      <trkpt lat="45.00432" lon="3.90945">
        <ele>736.02661132812</ele>
        <time>2013-06-25T07:11:26Z</time>
      </trkpt>
      <trkpt lat="45.00415" lon="3.9105">
        <ele>732.662109375</ele>
        <time>2013-06-25T07:11:33Z</time>
      </trkpt>
      <trkpt lat="45.00447" lon="3.91223">
        <ele>725.9326171875</ele>
        <time>2013-06-25T07:11:45Z</time>
      </trkpt>
      <trkpt lat="45.00425" lon="3.91285">
        <ele>723.52954101562</ele>
        <time>2013-06-25T07:11:51Z</time>
      </trkpt>
      <trkpt lat="45.00372" lon="3.91304">
        <ele>720.16479492188</ele>
        <time>2013-06-25T07:11:57Z</time>
      </trkpt>
      <trkpt lat="45.00347" lon="3.91271">
        <ele>717.76147460938</ele>
        <time>2013-06-25T07:12:00Z</time>
      </trkpt>
      <trkpt lat="45.00269" lon="3.91091">
        <ele>706.2255859375</ele>
        <time>2013-06-25T07:12:12Z</time>
      </trkpt>
      <trkpt lat="45.00211" lon="3.91052">
        <ele>700.4580078125</ele>
        <time>2013-06-25T07:12:19Z</time>
      </trkpt>
      <trkpt lat="45.00175" lon="3.91106">
        <ele>695.17041015625</ele>
        <time>2013-06-25T07:12:25Z</time>
      </trkpt>
      <trkpt lat="45.00128" lon="3.9131">
        <ele>681.2314453125</ele>
        <time>2013-06-25T07:12:38Z</time>
      </trkpt>
      <trkpt lat="45.00123" lon="3.91326">
        <ele>680.27001953125</ele>
        <time>2013-06-25T07:12:39Z</time>
      </trkpt>
      <trkpt lat="45.00072" lon="3.9139">
        <ele>673.06030273438</ele>
        <time>2013-06-25T07:12:45Z</time>
      </trkpt>
      <trkpt lat="45.00033" lon="3.91383">
        <ele>669.21508789062</ele>
        <time>2013-06-25T07:12:48Z</time>
      </trkpt>
      <trkpt lat="45.00008" lon="3.91371">
        <ele>667.29223632812</ele>
        <time>2013-06-25T07:12:50Z</time>
      </trkpt>
      <trkpt lat="44.99954" lon="3.91389">
        <ele>662.00512695312</ele>
        <time>2013-06-25T07:12:55Z</time>
      </trkpt>
      <trkpt lat="44.99935" lon="3.91411">
        <ele>659.60180664062</ele>
        <time>2013-06-25T07:12:57Z</time>
      </trkpt>
      <trkpt lat="44.99911" lon="3.91506">
        <ele>652.87255859375</ele>
        <time>2013-06-25T07:13:03Z</time>
      </trkpt>
      <trkpt lat="44.99914" lon="3.91542">
        <ele>650.46923828125</ele>
        <time>2013-06-25T07:13:05Z</time>
      </trkpt>
      <trkpt lat="44.99927" lon="3.91603">
        <ele>646.6240234375</ele>
        <time>2013-06-25T07:13:09Z</time>
      </trkpt>
      <trkpt lat="44.99908" lon="3.91665">
        <ele>641.33666992188</ele>
        <time>2013-06-25T07:13:15Z</time>
      </trkpt>
      <trkpt lat="44.99893" lon="3.91679">
        <ele>640.37548828125</ele>
        <time>2013-06-25T07:13:17Z</time>
      </trkpt>
      <trkpt lat="44.9988" lon="3.91713">
        <ele>637.97216796875</ele>
        <time>2013-06-25T07:13:24Z</time>
      </trkpt>
      <trkpt lat="44.99898" lon="3.91787">
        <ele>637.97216796875</ele>
        <time>2013-06-25T07:13:38Z</time>
      </trkpt>
      <trkpt lat="44.99906" lon="3.91825">
        <ele>636.04956054688</ele>
        <time>2013-06-25T07:13:44Z</time>
      </trkpt>
      <trkpt lat="44.99921" lon="3.91867">
        <ele>635.08813476562</ele>
        <time>2013-06-25T07:13:50Z</time>
      </trkpt>
      <trkpt lat="44.99938" lon="3.91881">
        <ele>635.08813476562</ele>
        <time>2013-06-25T07:13:54Z</time>
      </trkpt>
      <trkpt lat="45.00002" lon="3.91939">
        <ele>636.04956054688</ele>
        <time>2013-06-25T07:14:09Z</time>
      </trkpt>
      <trkpt lat="45.001" lon="3.92034">
        <ele>638.45288085938</ele>
        <time>2013-06-25T07:14:27Z</time>
      </trkpt>
      <trkpt lat="45.00206" lon="3.92101">
        <ele>634.607421875</ele>
        <time>2013-06-25T07:14:45Z</time>
      </trkpt>
      <trkpt lat="45.00282" lon="3.92143">
        <ele>632.2041015625</ele>
        <time>2013-06-25T07:15:00Z</time>
      </trkpt>
      <trkpt lat="45.00283" lon="3.92143">
        <ele>632.68481445312</ele>
        <time>2013-06-25T07:15:01Z</time>
      </trkpt>
      <trkpt lat="45.00283" lon="3.92143">
        <ele>631.72338867188</ele>
        <time>2013-06-25T07:15:23Z</time>
      </trkpt>
      <trkpt lat="45.00283" lon="3.92143">
        <ele>631.72338867188</ele>
        <time>2013-06-25T07:16:52Z</time>
      </trkpt>
      <trkpt lat="45.00283" lon="3.92143">
        <ele>631.72338867188</ele>
        <time>2013-06-25T07:17:44Z</time>
      </trkpt>
      <trkpt lat="45.00283" lon="3.92143">
        <ele>632.2041015625</ele>
        <time>2013-06-25T07:18:01Z</time>
      </trkpt>
      <trkpt lat="45.00292" lon="3.92148">
        <ele>631.24291992188</ele>
        <time>2013-06-25T07:18:07Z</time>
      </trkpt>
      <trkpt lat="45.00292" lon="3.92148">
        <ele>631.24291992188</ele>
        <time>2013-06-25T07:18:10Z</time>
      </trkpt>
      <trkpt lat="45.00318" lon="3.92168">
        <ele>630.76220703125</ele>
        <time>2013-06-25T07:18:15Z</time>
      </trkpt>
      <trkpt lat="45.0034" lon="3.92168">
        <ele>631.24291992188</ele>
        <time>2013-06-25T07:18:20Z</time>
      </trkpt>
      <trkpt lat="45.00458" lon="3.92211">
        <ele>629.32006835938</ele>
        <time>2013-06-25T07:18:42Z</time>
      </trkpt>
      <trkpt lat="45.00572" lon="3.92253">
        <ele>628.35888671875</ele>
        <time>2013-06-25T07:19:01Z</time>
      </trkpt>
      <trkpt lat="45.00601" lon="3.92258">
        <ele>628.83959960938</ele>
        <time>2013-06-25T07:19:06Z</time>
      </trkpt>
      <trkpt lat="45.0068" lon="3.92249">
        <ele>633.64599609375</ele>
        <time>2013-06-25T07:19:22Z</time>
      </trkpt>
      <trkpt lat="45.00718" lon="3.92248">
        <ele>636.04956054688</ele>
        <time>2013-06-25T07:19:30Z</time>
      </trkpt>
      <trkpt lat="45.00799" lon="3.92265">
        <ele>638.93359375</ele>
        <time>2013-06-25T07:19:49Z</time>
      </trkpt>
      <trkpt lat="45.00891" lon="3.92284">
        <ele>643.25927734375</ele>
        <time>2013-06-25T07:20:12Z</time>
      </trkpt>
      <trkpt lat="45.00959" lon="3.9232">
        <ele>649.02709960938</ele>
        <time>2013-06-25T07:20:30Z</time>
      </trkpt>
      <trkpt lat="45.01057" lon="3.92385">
        <ele>654.31469726562</ele>
        <time>2013-06-25T07:20:55Z</time>
      </trkpt>
      <trkpt lat="45.01136" lon="3.92461">
        <ele>657.19848632812</ele>
        <time>2013-06-25T07:21:17Z</time>
      </trkpt>
      <trkpt lat="45.01148" lon="3.92492">
        <ele>656.7177734375</ele>
        <time>2013-06-25T07:21:23Z</time>
      </trkpt>
      <trkpt lat="45.01187" lon="3.92526">
        <ele>654.79516601562</ele>
        <time>2013-06-25T07:21:31Z</time>
      </trkpt>
      <trkpt lat="45.01216" lon="3.92534">
        <ele>654.79516601562</ele>
        <time>2013-06-25T07:21:36Z</time>
      </trkpt>
      <trkpt lat="45.01255" lon="3.92593">
        <ele>653.833984375</ele>
        <time>2013-06-25T07:21:46Z</time>
      </trkpt>
      <trkpt lat="45.01257" lon="3.92603">
        <ele>653.35327148438</ele>
        <time>2013-06-25T07:21:47Z</time>
      </trkpt>
      <trkpt lat="45.0126" lon="3.92623">
        <ele>652.87255859375</ele>
        <time>2013-06-25T07:21:49Z</time>
      </trkpt>
      <trkpt lat="45.01289" lon="3.92688">
        <ele>649.98852539062</ele>
        <time>2013-06-25T07:21:56Z</time>
      </trkpt>
      <trkpt lat="45.0133" lon="3.92732">
        <ele>647.58520507812</ele>
        <time>2013-06-25T07:22:02Z</time>
      </trkpt>
      <trkpt lat="45.01455" lon="3.92795">
        <ele>640.37548828125</ele>
        <time>2013-06-25T07:22:16Z</time>
      </trkpt>
      <trkpt lat="45.01535" lon="3.92828">
        <ele>637.0107421875</ele>
        <time>2013-06-25T07:22:24Z</time>
      </trkpt>
      <trkpt lat="45.01666" lon="3.92944">
        <ele>630.76220703125</ele>
        <time>2013-06-25T07:22:39Z</time>
      </trkpt>
      <trkpt lat="45.01728" lon="3.9297">
        <ele>628.83959960938</ele>
        <time>2013-06-25T07:22:46Z</time>
      </trkpt>
      <trkpt lat="45.01867" lon="3.92951">
        <ele>628.35888671875</ele>
        <time>2013-06-25T07:23:01Z</time>
      </trkpt>
      <trkpt lat="45.02006" lon="3.9298">
        <ele>626.43627929688</ele>
        <time>2013-06-25T07:23:16Z</time>
      </trkpt>
      <trkpt lat="45.02041" lon="3.92978">
        <ele>625.47485351562</ele>
        <time>2013-06-25T07:23:20Z</time>
      </trkpt>
      <trkpt lat="45.02192" lon="3.92952">
        <ele>623.55249023438</ele>
        <time>2013-06-25T07:23:37Z</time>
      </trkpt>
      <trkpt lat="45.02334" lon="3.9297">
        <ele>620.18774414062</ele>
        <time>2013-06-25T07:23:53Z</time>
      </trkpt>
      <trkpt lat="45.02475" lon="3.92998">
        <ele>618.74560546875</ele>
        <time>2013-06-25T07:24:12Z</time>
      </trkpt>
      <trkpt lat="45.02632" lon="3.93035">
        <ele>617.3037109375</ele>
        <time>2013-06-25T07:24:34Z</time>
      </trkpt>
      <trkpt lat="45.02746" lon="3.93096">
        <ele>616.34228515625</ele>
        <time>2013-06-25T07:24:50Z</time>
      </trkpt>
      <trkpt lat="45.02854" lon="3.9322">
        <ele>616.34228515625</ele>
        <time>2013-06-25T07:25:10Z</time>
      </trkpt>
      <trkpt lat="45.02941" lon="3.93298">
        <ele>617.7841796875</ele>
        <time>2013-06-25T07:25:23Z</time>
      </trkpt>
      <trkpt lat="45.03056" lon="3.93324">
        <ele>618.74560546875</ele>
        <time>2013-06-25T07:25:41Z</time>
      </trkpt>
      <trkpt lat="45.03133" lon="3.93383">
        <ele>616.82299804688</ele>
        <time>2013-06-25T07:25:53Z</time>
      </trkpt>
      <trkpt lat="45.03264" lon="3.93498">
        <ele>614.41967773438</ele>
        <time>2013-06-25T07:26:13Z</time>
      </trkpt>
      <trkpt lat="45.03422" lon="3.9354">
        <ele>611.05517578125</ele>
        <time>2013-06-25T07:26:34Z</time>
      </trkpt>
      <trkpt lat="45.03538" lon="3.93568">
        <ele>608.65185546875</ele>
        <time>2013-06-25T07:26:49Z</time>
      </trkpt>
      <trkpt lat="45.0359" lon="3.93557">
        <ele>609.13256835938</ele>
        <time>2013-06-25T07:26:56Z</time>
      </trkpt>
      <trkpt lat="45.03708" lon="3.93463">
        <ele>609.13256835938</ele>
        <time>2013-06-25T07:27:15Z</time>
      </trkpt>
      <trkpt lat="45.03822" lon="3.9334">
        <ele>609.13256835938</ele>
        <time>2013-06-25T07:27:34Z</time>
      </trkpt>
      <trkpt lat="45.0384" lon="3.93321">
        <ele>608.65185546875</ele>
        <time>2013-06-25T07:27:37Z</time>
      </trkpt>
      <trkpt lat="45.03861" lon="3.93279">
        <ele>608.65185546875</ele>
        <time>2013-06-25T07:27:42Z</time>
      </trkpt>
      <trkpt lat="45.03947" lon="3.93073">
        <ele>609.61328125</ele>
        <time>2013-06-25T07:28:06Z</time>
      </trkpt>
      <trkpt lat="45.04048" lon="3.92926">
        <ele>611.05517578125</ele>
        <time>2013-06-25T07:28:26Z</time>
      </trkpt>
      <trkpt lat="45.04152" lon="3.92833">
        <ele>611.05517578125</ele>
        <time>2013-06-25T07:28:43Z</time>
      </trkpt>
      <trkpt lat="45.04181" lon="3.92817">
        <ele>610.57446289062</ele>
        <time>2013-06-25T07:28:47Z</time>
      </trkpt>
      <trkpt lat="45.04253" lon="3.92805">
        <ele>610.09375</ele>
        <time>2013-06-25T07:28:57Z</time>
      </trkpt>
      <trkpt lat="45.04348" lon="3.92763">
        <ele>608.65185546875</ele>
        <time>2013-06-25T07:29:11Z</time>
      </trkpt>
      <trkpt lat="45.04461" lon="3.92666">
        <ele>608.65185546875</ele>
        <time>2013-06-25T07:29:29Z</time>
      </trkpt>
      <trkpt lat="45.04514" lon="3.92616">
        <ele>608.65185546875</ele>
        <time>2013-06-25T07:29:40Z</time>
      </trkpt>
      <trkpt lat="45.04532" lon="3.92615">
        <ele>608.17138671875</ele>
        <time>2013-06-25T07:29:46Z</time>
      </trkpt>
      <trkpt lat="45.04576" lon="3.92698">
        <ele>608.65185546875</ele>
        <time>2013-06-25T07:29:57Z</time>
      </trkpt>
      <trkpt lat="45.04624" lon="3.92759">
        <ele>609.13256835938</ele>
        <time>2013-06-25T07:30:12Z</time>
      </trkpt>
      <trkpt lat="45.04624" lon="3.92759">
        <ele>609.61328125</ele>
        <time>2013-06-25T07:30:15Z</time>
      </trkpt>
      <trkpt lat="45.04626" lon="3.92761">
        <ele>610.09375</ele>
        <time>2013-06-25T07:30:31Z</time>
      </trkpt>
      <trkpt lat="45.04626" lon="3.92761">
        <ele>610.09375</ele>
        <time>2013-06-25T07:31:08Z</time>
      </trkpt>
      <trkpt lat="45.04626" lon="3.92761">
        <ele>610.09375</ele>
        <time>2013-06-25T07:31:10Z</time>
      </trkpt>
      <trkpt lat="45.04648" lon="3.92727">
        <ele>610.09375</ele>
        <time>2013-06-25T07:31:23Z</time>
      </trkpt>
      <trkpt lat="45.04687" lon="3.92669">
        <ele>611.05517578125</ele>
        <time>2013-06-25T07:31:36Z</time>
      </trkpt>
      <trkpt lat="45.047" lon="3.92663">
        <ele>612.0166015625</ele>
        <time>2013-06-25T07:31:41Z</time>
      </trkpt>
      <trkpt lat="45.04701" lon="3.92651">
        <ele>612.0166015625</ele>
        <time>2013-06-25T07:31:46Z</time>
      </trkpt>
      <trkpt lat="45.04732" lon="3.92548">
        <ele>609.61328125</ele>
        <time>2013-06-25T07:32:01Z</time>
      </trkpt>
      <trkpt lat="45.04784" lon="3.92379">
        <ele>607.69067382812</ele>
        <time>2013-06-25T07:32:21Z</time>
      </trkpt>
      <trkpt lat="45.04795" lon="3.92349">
        <ele>607.69067382812</ele>
        <time>2013-06-25T07:32:25Z</time>
      </trkpt>
      <trkpt lat="45.04816" lon="3.92326">
        <ele>606.72924804688</ele>
        <time>2013-06-25T07:32:30Z</time>
      </trkpt>
      <trkpt lat="45.04831" lon="3.92283">
        <ele>606.72924804688</ele>
        <time>2013-06-25T07:32:36Z</time>
      </trkpt>
      <trkpt lat="45.0483" lon="3.92257">
        <ele>606.72924804688</ele>
        <time>2013-06-25T07:32:39Z</time>
      </trkpt>
      <trkpt lat="45.04866" lon="3.92138">
        <ele>607.69067382812</ele>
        <time>2013-06-25T07:32:53Z</time>
      </trkpt>
      <trkpt lat="45.04905" lon="3.92005">
        <ele>607.69067382812</ele>
        <time>2013-06-25T07:33:07Z</time>
      </trkpt>
      <trkpt lat="45.04948" lon="3.91877">
        <ele>608.65185546875</ele>
        <time>2013-06-25T07:33:22Z</time>
      </trkpt>
      <trkpt lat="45.04961" lon="3.91837">
        <ele>609.61328125</ele>
        <time>2013-06-25T07:33:27Z</time>
      </trkpt>
      <trkpt lat="45.04987" lon="3.91677">
        <ele>611.05517578125</ele>
        <time>2013-06-25T07:33:45Z</time>
      </trkpt>
      <trkpt lat="45.04977" lon="3.91505">
        <ele>612.4970703125</ele>
        <time>2013-06-25T07:34:04Z</time>
      </trkpt>
      <trkpt lat="45.04983" lon="3.91419">
        <ele>613.45849609375</ele>
        <time>2013-06-25T07:34:14Z</time>
      </trkpt>
      <trkpt lat="45.04987" lon="3.91401">
        <ele>612.97778320312</ele>
        <time>2013-06-25T07:34:18Z</time>
      </trkpt>
      <trkpt lat="45.05076" lon="3.91296">
        <ele>612.4970703125</ele>
        <time>2013-06-25T07:34:34Z</time>
      </trkpt>
      <trkpt lat="45.05185" lon="3.91196">
        <ele>611.05517578125</ele>
        <time>2013-06-25T07:34:55Z</time>
      </trkpt>
      <trkpt lat="45.05194" lon="3.91189">
        <ele>611.53588867188</ele>
        <time>2013-06-25T07:34:59Z</time>
      </trkpt>
      <trkpt lat="45.05209" lon="3.91174">
        <ele>611.53588867188</ele>
        <time>2013-06-25T07:35:03Z</time>
      </trkpt>
      <trkpt lat="45.05218" lon="3.91166">
        <ele>611.05517578125</ele>
        <time>2013-06-25T07:35:05Z</time>
      </trkpt>
      <trkpt lat="45.0533" lon="3.91057">
        <ele>610.57446289062</ele>
        <time>2013-06-25T07:35:26Z</time>
      </trkpt>
      <trkpt lat="45.05439" lon="3.90949">
        <ele>610.57446289062</ele>
        <time>2013-06-25T07:35:46Z</time>
      </trkpt>
      <trkpt lat="45.05463" lon="3.90941">
        <ele>610.09375</ele>
        <time>2013-06-25T07:35:50Z</time>
      </trkpt>
      <trkpt lat="45.05476" lon="3.90936">
        <ele>610.09375</ele>
        <time>2013-06-25T07:35:53Z</time>
      </trkpt>
      <trkpt lat="45.05503" lon="3.90954">
        <ele>610.09375</ele>
        <time>2013-06-25T07:35:57Z</time>
      </trkpt>
      <trkpt lat="45.05536" lon="3.90917">
        <ele>609.61328125</ele>
        <time>2013-06-25T07:36:04Z</time>
      </trkpt>
      <trkpt lat="45.05536" lon="3.9091">
        <ele>609.61328125</ele>
        <time>2013-06-25T07:36:05Z</time>
      </trkpt>
      <trkpt lat="45.05536" lon="3.90894">
        <ele>609.61328125</ele>
        <time>2013-06-25T07:36:08Z</time>
      </trkpt>
      <trkpt lat="45.0555" lon="3.90857">
        <ele>609.61328125</ele>
        <time>2013-06-25T07:36:11Z</time>
      </trkpt>
      <trkpt lat="45.05557" lon="3.90798">
        <ele>608.65185546875</ele>
        <time>2013-06-25T07:36:17Z</time>
      </trkpt>
      <trkpt lat="45.05576" lon="3.90747">
        <ele>608.17138671875</ele>
        <time>2013-06-25T07:36:22Z</time>
      </trkpt>
      <trkpt lat="45.05607" lon="3.90689">
        <ele>608.17138671875</ele>
        <time>2013-06-25T07:36:29Z</time>
      </trkpt>
      <trkpt lat="45.05629" lon="3.90565">
        <ele>607.69067382812</ele>
        <time>2013-06-25T07:36:41Z</time>
      </trkpt>
      <trkpt lat="45.05635" lon="3.90493">
        <ele>608.17138671875</ele>
        <time>2013-06-25T07:36:48Z</time>
      </trkpt>
      <trkpt lat="45.05605" lon="3.9038">
        <ele>610.09375</ele>
        <time>2013-06-25T07:37:00Z</time>
      </trkpt>
      <trkpt lat="45.05569" lon="3.90301">
        <ele>609.61328125</ele>
        <time>2013-06-25T07:37:12Z</time>
      </trkpt>
      <trkpt lat="45.05556" lon="3.90278">
        <ele>609.13256835938</ele>
        <time>2013-06-25T07:37:20Z</time>
      </trkpt>
      <trkpt lat="45.05556" lon="3.90244">
        <ele>609.13256835938</ele>
        <time>2013-06-25T07:37:25Z</time>
      </trkpt>
      <trkpt lat="45.05597" lon="3.90098">
        <ele>609.61328125</ele>
        <time>2013-06-25T07:37:47Z</time>
      </trkpt>
      <trkpt lat="45.05619" lon="3.90095">
        <ele>608.17138671875</ele>
        <time>2013-06-25T07:37:52Z</time>
      </trkpt>
      <trkpt lat="45.05709" lon="3.90179">
        <ele>606.24853515625</ele>
        <time>2013-06-25T07:38:07Z</time>
      </trkpt>
      <trkpt lat="45.05753" lon="3.9023">
        <ele>604.806640625</ele>
        <time>2013-06-25T07:38:14Z</time>
      </trkpt>
      <trkpt lat="45.05783" lon="3.90307">
        <ele>604.326171875</ele>
        <time>2013-06-25T07:38:22Z</time>
      </trkpt>
      <trkpt lat="45.05783" lon="3.90431">
        <ele>605.76806640625</ele>
        <time>2013-06-25T07:38:34Z</time>
      </trkpt>
      <trkpt lat="45.0575" lon="3.90685">
        <ele>605.28735351562</ele>
        <time>2013-06-25T07:38:58Z</time>
      </trkpt>
      <trkpt lat="45.05771" lon="3.90778">
        <ele>605.28735351562</ele>
        <time>2013-06-25T07:39:07Z</time>
      </trkpt>
      <trkpt lat="45.05866" lon="3.90894">
        <ele>602.8837890625</ele>
        <time>2013-06-25T07:39:23Z</time>
      </trkpt>
      <trkpt lat="45.0592" lon="3.90948">
        <ele>602.40307617188</ele>
        <time>2013-06-25T07:39:35Z</time>
      </trkpt>
      <trkpt lat="45.05921" lon="3.90981">
        <ele>602.40307617188</ele>
        <time>2013-06-25T07:39:43Z</time>
      </trkpt>
      <trkpt lat="45.0595" lon="3.90975">
        <ele>601.92260742188</ele>
        <time>2013-06-25T07:39:50Z</time>
      </trkpt>
      <trkpt lat="45.05952" lon="3.90967">
        <ele>601.92260742188</ele>
        <time>2013-06-25T07:39:52Z</time>
      </trkpt>
      <trkpt lat="45.06049" lon="3.9095">
        <ele>600.96118164062</ele>
        <time>2013-06-25T07:40:06Z</time>
      </trkpt>
      <trkpt lat="45.06177" lon="3.90938">
        <ele>601.44189453125</ele>
        <time>2013-06-25T07:40:25Z</time>
      </trkpt>
      <trkpt lat="45.06296" lon="3.90877">
        <ele>601.92260742188</ele>
        <time>2013-06-25T07:40:42Z</time>
      </trkpt>
      <trkpt lat="45.06441" lon="3.90749">
        <ele>600.96118164062</ele>
        <time>2013-06-25T07:41:05Z</time>
      </trkpt>
      <trkpt lat="45.06541" lon="3.90617">
        <ele>601.92260742188</ele>
        <time>2013-06-25T07:41:24Z</time>
      </trkpt>
      <trkpt lat="45.06644" lon="3.90458">
        <ele>603.36450195312</ele>
        <time>2013-06-25T07:41:45Z</time>
      </trkpt>
      <trkpt lat="45.06678" lon="3.90419">
        <ele>604.326171875</ele>
        <time>2013-06-25T07:41:52Z</time>
      </trkpt>
      <trkpt lat="45.06717" lon="3.90393">
        <ele>603.36450195312</ele>
        <time>2013-06-25T07:41:59Z</time>
      </trkpt>
      <trkpt lat="45.06809" lon="3.90381">
        <ele>602.40307617188</ele>
        <time>2013-06-25T07:42:15Z</time>
      </trkpt>
      <trkpt lat="45.06913" lon="3.90341">
        <ele>602.8837890625</ele>
        <time>2013-06-25T07:42:33Z</time>
      </trkpt>
      <trkpt lat="45.07061" lon="3.90293">
        <ele>604.326171875</ele>
        <time>2013-06-25T07:42:57Z</time>
      </trkpt>
      <trkpt lat="45.07198" lon="3.90253">
        <ele>603.36450195312</ele>
        <time>2013-06-25T07:43:18Z</time>
      </trkpt>
      <trkpt lat="45.07224" lon="3.90259">
        <ele>602.8837890625</ele>
        <time>2013-06-25T07:43:22Z</time>
      </trkpt>
      <trkpt lat="45.07255" lon="3.90277">
        <ele>602.40307617188</ele>
        <time>2013-06-25T07:43:27Z</time>
      </trkpt>
      <trkpt lat="45.07337" lon="3.90375">
        <ele>600.48071289062</ele>
        <time>2013-06-25T07:43:43Z</time>
      </trkpt>
      <trkpt lat="45.0742" lon="3.90509">
        <ele>598.07739257812</ele>
        <time>2013-06-25T07:44:02Z</time>
      </trkpt>
      <trkpt lat="45.07519" lon="3.90732">
        <ele>595.67407226562</ele>
        <time>2013-06-25T07:44:29Z</time>
      </trkpt>
      <trkpt lat="45.07566" lon="3.9088">
        <ele>595.193359375</ele>
        <time>2013-06-25T07:44:46Z</time>
      </trkpt>
      <trkpt lat="45.07577" lon="3.90949">
        <ele>595.67407226562</ele>
        <time>2013-06-25T07:44:54Z</time>
      </trkpt>
      <trkpt lat="45.07584" lon="3.91022">
        <ele>594.71264648438</ele>
        <time>2013-06-25T07:45:02Z</time>
      </trkpt>
      <trkpt lat="45.07636" lon="3.9113">
        <ele>594.71264648438</ele>
        <time>2013-06-25T07:45:17Z</time>
      </trkpt>
      <trkpt lat="45.07669" lon="3.91174">
        <ele>595.193359375</ele>
        <time>2013-06-25T07:45:24Z</time>
      </trkpt>
      <trkpt lat="45.07678" lon="3.91186">
        <ele>594.71264648438</ele>
        <time>2013-06-25T07:45:28Z</time>
      </trkpt>
      <trkpt lat="45.07708" lon="3.91203">
        <ele>594.71264648438</ele>
        <time>2013-06-25T07:45:31Z</time>
      </trkpt>
      <trkpt lat="45.07749" lon="3.91208">
        <ele>594.71264648438</ele>
        <time>2013-06-25T07:45:37Z</time>
      </trkpt>
      <trkpt lat="45.07868" lon="3.91187">
        <ele>594.23217773438</ele>
        <time>2013-06-25T07:45:54Z</time>
      </trkpt>
      <trkpt lat="45.07936" lon="3.91182">
        <ele>593.27075195312</ele>
        <time>2013-06-25T07:46:04Z</time>
      </trkpt>
      <trkpt lat="45.08017" lon="3.91225">
        <ele>593.27075195312</ele>
        <time>2013-06-25T07:46:18Z</time>
      </trkpt>
      <trkpt lat="45.08155" lon="3.91364">
        <ele>595.193359375</ele>
        <time>2013-06-25T07:46:41Z</time>
      </trkpt>
      <trkpt lat="45.08217" lon="3.91422">
        <ele>594.71264648438</ele>
        <time>2013-06-25T07:46:52Z</time>
      </trkpt>
      <trkpt lat="45.08229" lon="3.91433">
        <ele>594.23217773438</ele>
        <time>2013-06-25T07:46:54Z</time>
      </trkpt>
      <trkpt lat="45.08288" lon="3.91425">
        <ele>594.23217773438</ele>
        <time>2013-06-25T07:47:03Z</time>
      </trkpt>
      <trkpt lat="45.08341" lon="3.91329">
        <ele>595.67407226562</ele>
        <time>2013-06-25T07:47:17Z</time>
      </trkpt>
      <trkpt lat="45.08364" lon="3.91198">
        <ele>595.67407226562</ele>
        <time>2013-06-25T07:47:31Z</time>
      </trkpt>
      <trkpt lat="45.0839" lon="3.91007">
        <ele>595.193359375</ele>
        <time>2013-06-25T07:47:51Z</time>
      </trkpt>
      <trkpt lat="45.08395" lon="3.90988">
        <ele>595.193359375</ele>
        <time>2013-06-25T07:47:53Z</time>
      </trkpt>
      <trkpt lat="45.08431" lon="3.90932">
        <ele>595.193359375</ele>
        <time>2013-06-25T07:48:01Z</time>
      </trkpt>
      <trkpt lat="45.08528" lon="3.9086">
        <ele>594.71264648438</ele>
        <time>2013-06-25T07:48:17Z</time>
      </trkpt>
      <trkpt lat="45.08617" lon="3.90877">
        <ele>593.75146484375</ele>
        <time>2013-06-25T07:48:30Z</time>
      </trkpt>
      <trkpt lat="45.0869" lon="3.90952">
        <ele>592.79028320312</ele>
        <time>2013-06-25T07:48:43Z</time>
      </trkpt>
      <trkpt lat="45.08782" lon="3.91089">
        <ele>592.79028320312</ele>
        <time>2013-06-25T07:49:03Z</time>
      </trkpt>
      <trkpt lat="45.08875" lon="3.91176">
        <ele>591.82885742188</ele>
        <time>2013-06-25T07:49:20Z</time>
      </trkpt>
      <trkpt lat="45.08976" lon="3.91199">
        <ele>591.34814453125</ele>
        <time>2013-06-25T07:49:35Z</time>
      </trkpt>
      <trkpt lat="45.09057" lon="3.91224">
        <ele>592.79028320312</ele>
        <time>2013-06-25T07:49:47Z</time>
      </trkpt>
      <trkpt lat="45.09158" lon="3.91211">
        <ele>592.79028320312</ele>
        <time>2013-06-25T07:50:01Z</time>
      </trkpt>
      <trkpt lat="45.09246" lon="3.91142">
        <ele>592.79028320312</ele>
        <time>2013-06-25T07:50:15Z</time>
      </trkpt>
      <trkpt lat="45.09309" lon="3.91039">
        <ele>592.79028320312</ele>
        <time>2013-06-25T07:50:29Z</time>
      </trkpt>
      <trkpt lat="45.09345" lon="3.90925">
        <ele>593.27075195312</ele>
        <time>2013-06-25T07:50:42Z</time>
      </trkpt>
      <trkpt lat="45.09342" lon="3.90782">
        <ele>596.15478515625</ele>
        <time>2013-06-25T07:50:57Z</time>
      </trkpt>
      <trkpt lat="45.09316" lon="3.90642">
        <ele>602.40307617188</ele>
        <time>2013-06-25T07:51:12Z</time>
      </trkpt>
      <trkpt lat="45.09311" lon="3.90507">
        <ele>598.07739257812</ele>
        <time>2013-06-25T07:51:26Z</time>
      </trkpt>
      <trkpt lat="45.09308" lon="3.90291">
        <ele>591.34814453125</ele>
        <time>2013-06-25T07:51:48Z</time>
      </trkpt>
      <trkpt lat="45.09335" lon="3.90122">
        <ele>590.38696289062</ele>
        <time>2013-06-25T07:52:06Z</time>
      </trkpt>
      <trkpt lat="45.09397" lon="3.90002">
        <ele>587.9833984375</ele>
        <time>2013-06-25T07:52:21Z</time>
      </trkpt>
      <trkpt lat="45.09477" lon="3.8994">
        <ele>587.9833984375</ele>
        <time>2013-06-25T07:52:34Z</time>
      </trkpt>
      <trkpt lat="45.09614" lon="3.89869">
        <ele>587.50268554688</ele>
        <time>2013-06-25T07:52:55Z</time>
      </trkpt>
      <trkpt lat="45.09766" lon="3.89806">
        <ele>587.50268554688</ele>
        <time>2013-06-25T07:53:17Z</time>
      </trkpt>
      <trkpt lat="45.09926" lon="3.89782">
        <ele>587.02197265625</ele>
        <time>2013-06-25T07:53:39Z</time>
      </trkpt>
      <trkpt lat="45.10063" lon="3.89811">
        <ele>584.61889648438</ele>
        <time>2013-06-25T07:53:58Z</time>
      </trkpt>
      <trkpt lat="45.10246" lon="3.89861">
        <ele>583.65747070312</ele>
        <time>2013-06-25T07:54:22Z</time>
      </trkpt>
      <trkpt lat="45.10437" lon="3.89909">
        <ele>581.73486328125</ele>
        <time>2013-06-25T07:54:47Z</time>
      </trkpt>
      <trkpt lat="45.10547" lon="3.89886">
        <ele>581.25439453125</ele>
        <time>2013-06-25T07:55:02Z</time>
      </trkpt>
      <trkpt lat="45.10637" lon="3.89799">
        <ele>581.25439453125</ele>
        <time>2013-06-25T07:55:17Z</time>
      </trkpt>
      <trkpt lat="45.10698" lon="3.8967">
        <ele>580.77368164062</ele>
        <time>2013-06-25T07:55:31Z</time>
      </trkpt>
      <trkpt lat="45.10757" lon="3.89508">
        <ele>580.29296875</ele>
        <time>2013-06-25T07:55:47Z</time>
      </trkpt>
      <trkpt lat="45.10783" lon="3.89374">
        <ele>580.77368164062</ele>
        <time>2013-06-25T07:56:00Z</time>
      </trkpt>
      <trkpt lat="45.10747" lon="3.89238">
        <ele>580.29296875</ele>
        <time>2013-06-25T07:56:14Z</time>
      </trkpt>
      <trkpt lat="45.10708" lon="3.89164">
        <ele>579.81225585938</ele>
        <time>2013-06-25T07:56:23Z</time>
      </trkpt>
      <trkpt lat="45.10675" lon="3.89143">
        <ele>578.85107421875</ele>
        <time>2013-06-25T07:56:28Z</time>
      </trkpt>
      <trkpt lat="45.10658" lon="3.89082">
        <ele>576.92846679688</ele>
        <time>2013-06-25T07:56:34Z</time>
      </trkpt>
      <trkpt lat="45.10695" lon="3.89045">
        <ele>576.92846679688</ele>
        <time>2013-06-25T07:56:39Z</time>
      </trkpt>
      <trkpt lat="45.10721" lon="3.8905">
        <ele>576.92846679688</ele>
        <time>2013-06-25T07:56:42Z</time>
      </trkpt>
      <trkpt lat="45.10771" lon="3.89074">
        <ele>577.4091796875</ele>
        <time>2013-06-25T07:56:48Z</time>
      </trkpt>
      <trkpt lat="45.10826" lon="3.89099">
        <ele>577.4091796875</ele>
        <time>2013-06-25T07:56:55Z</time>
      </trkpt>
      <trkpt lat="45.10926" lon="3.89135">
        <ele>575.96704101562</ele>
        <time>2013-06-25T07:57:07Z</time>
      </trkpt>
      <trkpt lat="45.11011" lon="3.89221">
        <ele>575.96704101562</ele>
        <time>2013-06-25T07:57:20Z</time>
      </trkpt>
      <trkpt lat="45.11093" lon="3.89386">
        <ele>575.005859375</ele>
        <time>2013-06-25T07:57:39Z</time>
      </trkpt>
      <trkpt lat="45.1112" lon="3.89447">
        <ele>574.52514648438</ele>
        <time>2013-06-25T07:57:46Z</time>
      </trkpt>
      <trkpt lat="45.1112" lon="3.89519">
        <ele>573.56396484375</ele>
        <time>2013-06-25T07:57:53Z</time>
      </trkpt>
      <trkpt lat="45.11119" lon="3.8954">
        <ele>573.08325195312</ele>
        <time>2013-06-25T07:57:55Z</time>
      </trkpt>
      <trkpt lat="45.11115" lon="3.89569">
        <ele>573.08325195312</ele>
        <time>2013-06-25T07:57:58Z</time>
      </trkpt>
      <trkpt lat="45.11115" lon="3.89707">
        <ele>574.52514648438</ele>
        <time>2013-06-25T07:58:12Z</time>
      </trkpt>
      <trkpt lat="45.11122" lon="3.89736">
        <ele>574.52514648438</ele>
        <time>2013-06-25T07:58:15Z</time>
      </trkpt>
      <trkpt lat="45.11154" lon="3.89816">
        <ele>576.44775390625</ele>
        <time>2013-06-25T07:58:24Z</time>
      </trkpt>
      <trkpt lat="45.11191" lon="3.89862">
        <ele>576.44775390625</ele>
        <time>2013-06-25T07:58:31Z</time>
      </trkpt>
      <trkpt lat="45.11247" lon="3.89926">
        <ele>575.486328125</ele>
        <time>2013-06-25T07:58:41Z</time>
      </trkpt>
      <trkpt lat="45.11305" lon="3.89972">
        <ele>573.56396484375</ele>
        <time>2013-06-25T07:58:50Z</time>
      </trkpt>
      <trkpt lat="45.11387" lon="3.89984">
        <ele>572.6025390625</ele>
        <time>2013-06-25T07:59:01Z</time>
      </trkpt>
      <trkpt lat="45.11513" lon="3.8999">
        <ele>573.08325195312</ele>
        <time>2013-06-25T07:59:17Z</time>
      </trkpt>
      <trkpt lat="45.11551" lon="3.89981">
        <ele>573.08325195312</ele>
        <time>2013-06-25T07:59:22Z</time>
      </trkpt>
      <trkpt lat="45.11625" lon="3.89917">
        <ele>571.16040039062</ele>
        <time>2013-06-25T07:59:34Z</time>
      </trkpt>
      <trkpt lat="45.11673" lon="3.89878">
        <ele>570.19897460938</ele>
        <time>2013-06-25T07:59:47Z</time>
      </trkpt>
      <trkpt lat="45.11673" lon="3.89878">
        <ele>570.19897460938</ele>
        <time>2013-06-25T07:59:59Z</time>
      </trkpt>
      <trkpt lat="45.11673" lon="3.89878">
        <ele>569.71850585938</ele>
        <time>2013-06-25T08:02:50Z</time>
      </trkpt>
      <trkpt lat="45.11704" lon="3.89857">
        <ele>570.19897460938</ele>
        <time>2013-06-25T08:03:03Z</time>
      </trkpt>
      <trkpt lat="45.11765" lon="3.89841">
        <ele>572.6025390625</ele>
        <time>2013-06-25T08:03:18Z</time>
      </trkpt>
      <trkpt lat="45.11784" lon="3.89843">
        <ele>572.6025390625</ele>
        <time>2013-06-25T08:03:22Z</time>
      </trkpt>
      <trkpt lat="45.11823" lon="3.89877">
        <ele>570.6796875</ele>
        <time>2013-06-25T08:03:34Z</time>
      </trkpt>
      <trkpt lat="45.11827" lon="3.89915">
        <ele>570.19897460938</ele>
        <time>2013-06-25T08:03:36Z</time>
      </trkpt>
      <trkpt lat="45.118" lon="3.90099">
        <ele>567.31518554688</ele>
        <time>2013-06-25T08:03:55Z</time>
      </trkpt>
      <trkpt lat="45.11781" lon="3.90199">
        <ele>566.35375976562</ele>
        <time>2013-06-25T08:04:07Z</time>
      </trkpt>
      <trkpt lat="45.1179" lon="3.90332">
        <ele>565.87329101562</ele>
        <time>2013-06-25T08:04:21Z</time>
      </trkpt>
      <trkpt lat="45.11814" lon="3.90545">
        <ele>563.46997070312</ele>
        <time>2013-06-25T08:04:43Z</time>
      </trkpt>
      <trkpt lat="45.11826" lon="3.90624">
        <ele>563.46997070312</ele>
        <time>2013-06-25T08:04:52Z</time>
      </trkpt>
      <trkpt lat="45.11858" lon="3.90671">
        <ele>562.50854492188</ele>
        <time>2013-06-25T08:05:00Z</time>
      </trkpt>
      <trkpt lat="45.11862" lon="3.90671">
        <ele>562.50854492188</ele>
        <time>2013-06-25T08:05:01Z</time>
      </trkpt>
      <trkpt lat="45.11879" lon="3.90671">
        <ele>562.50854492188</ele>
        <time>2013-06-25T08:05:14Z</time>
      </trkpt>
      <trkpt lat="45.11879" lon="3.90671">
        <ele>562.50854492188</ele>
        <time>2013-06-25T08:06:00Z</time>
      </trkpt>
      <trkpt lat="45.11919" lon="3.90677">
        <ele>563.46997070312</ele>
        <time>2013-06-25T08:06:10Z</time>
      </trkpt>
      <trkpt lat="45.11967" lon="3.9068">
        <ele>564.43115234375</ele>
        <time>2013-06-25T08:06:23Z</time>
      </trkpt>
      <trkpt lat="45.11997" lon="3.90682">
        <ele>564.91186523438</ele>
        <time>2013-06-25T08:06:39Z</time>
      </trkpt>
      <trkpt lat="45.12047" lon="3.90684">
        <ele>564.43115234375</ele>
        <time>2013-06-25T08:06:52Z</time>
      </trkpt>
      <trkpt lat="45.12053" lon="3.90685">
        <ele>563.95043945312</ele>
        <time>2013-06-25T08:06:53Z</time>
      </trkpt>
      <trkpt lat="45.12062" lon="3.9069">
        <ele>564.43115234375</ele>
        <time>2013-06-25T08:06:55Z</time>
      </trkpt>
      <trkpt lat="45.12081" lon="3.90701">
        <ele>564.43115234375</ele>
        <time>2013-06-25T08:07:00Z</time>
      </trkpt>
      <trkpt lat="45.12126" lon="3.90823">
        <ele>566.83447265625</ele>
        <time>2013-06-25T08:07:16Z</time>
      </trkpt>
      <trkpt lat="45.12159" lon="3.90934">
        <ele>565.392578125</ele>
        <time>2013-06-25T08:07:29Z</time>
      </trkpt>
      <trkpt lat="45.1221" lon="3.91083">
        <ele>566.35375976562</ele>
        <time>2013-06-25T08:07:46Z</time>
      </trkpt>
      <trkpt lat="45.12271" lon="3.91271">
        <ele>564.43115234375</ele>
        <time>2013-06-25T08:08:06Z</time>
      </trkpt>
      <trkpt lat="45.12334" lon="3.91472">
        <ele>562.50854492188</ele>
        <time>2013-06-25T08:08:27Z</time>
      </trkpt>
      <trkpt lat="45.12406" lon="3.91695">
        <ele>561.06665039062</ele>
        <time>2013-06-25T08:08:50Z</time>
      </trkpt>
      <trkpt lat="45.12467" lon="3.9183">
        <ele>560.5859375</ele>
        <time>2013-06-25T08:09:05Z</time>
      </trkpt>
      <trkpt lat="45.1255" lon="3.91911">
        <ele>560.10522460938</ele>
        <time>2013-06-25T08:09:18Z</time>
      </trkpt>
      <trkpt lat="45.12648" lon="3.91942">
        <ele>560.10522460938</ele>
        <time>2013-06-25T08:09:32Z</time>
      </trkpt>
      <trkpt lat="45.12781" lon="3.9193">
        <ele>558.18286132812</ele>
        <time>2013-06-25T08:09:50Z</time>
      </trkpt>
      <trkpt lat="45.12897" lon="3.91918">
        <ele>557.22143554688</ele>
        <time>2013-06-25T08:10:06Z</time>
      </trkpt>
      <trkpt lat="45.13016" lon="3.91909">
        <ele>556.74072265625</ele>
        <time>2013-06-25T08:10:24Z</time>
      </trkpt>
      <trkpt lat="45.13175" lon="3.91921">
        <ele>556.74072265625</ele>
        <time>2013-06-25T08:10:47Z</time>
      </trkpt>
      <trkpt lat="45.13328" lon="3.91936">
        <ele>556.26000976562</ele>
        <time>2013-06-25T08:11:09Z</time>
      </trkpt>
      <trkpt lat="45.1345" lon="3.91945">
        <ele>556.74072265625</ele>
        <time>2013-06-25T08:11:27Z</time>
      </trkpt>
      <trkpt lat="45.13604" lon="3.91958">
        <ele>555.29858398438</ele>
        <time>2013-06-25T08:11:50Z</time>
      </trkpt>
      <trkpt lat="45.13757" lon="3.9197">
        <ele>555.29858398438</ele>
        <time>2013-06-25T08:12:11Z</time>
      </trkpt>
      <trkpt lat="45.13922" lon="3.91984">
        <ele>553.85668945312</ele>
        <time>2013-06-25T08:12:33Z</time>
      </trkpt>
      <trkpt lat="45.1413" lon="3.92002">
        <ele>551.93408203125</ele>
        <time>2013-06-25T08:13:00Z</time>
      </trkpt>
      <trkpt lat="45.14361" lon="3.92022">
        <ele>550.4921875</ele>
        <time>2013-06-25T08:13:31Z</time>
      </trkpt>
      <trkpt lat="45.14574" lon="3.92041">
        <ele>550.97265625</ele>
        <time>2013-06-25T08:13:59Z</time>
      </trkpt>
      <trkpt lat="45.14748" lon="3.92058">
        <ele>551.45336914062</ele>
        <time>2013-06-25T08:14:21Z</time>
      </trkpt>
      <trkpt lat="45.14929" lon="3.92072">
        <ele>552.41455078125</ele>
        <time>2013-06-25T08:14:46Z</time>
      </trkpt>
      <trkpt lat="45.15075" lon="3.92087">
        <ele>553.3759765625</ele>
        <time>2013-06-25T08:15:07Z</time>
      </trkpt>
      <trkpt lat="45.15271" lon="3.9212">
        <ele>553.3759765625</ele>
        <time>2013-06-25T08:15:35Z</time>
      </trkpt>
      <trkpt lat="45.1541" lon="3.92168">
        <ele>552.41455078125</ele>
        <time>2013-06-25T08:15:54Z</time>
      </trkpt>
      <trkpt lat="45.15599" lon="3.92254">
        <ele>551.45336914062</ele>
        <time>2013-06-25T08:16:19Z</time>
      </trkpt>
      <trkpt lat="45.15794" lon="3.92342">
        <ele>552.89526367188</ele>
        <time>2013-06-25T08:16:45Z</time>
      </trkpt>
      <trkpt lat="45.15903" lon="3.92394">
        <ele>554.33740234375</ele>
        <time>2013-06-25T08:17:00Z</time>
      </trkpt>
      <trkpt lat="45.16048" lon="3.92486">
        <ele>554.81787109375</ele>
        <time>2013-06-25T08:17:20Z</time>
      </trkpt>
      <trkpt lat="45.16055" lon="3.92491">
        <ele>554.81787109375</ele>
        <time>2013-06-25T08:17:21Z</time>
      </trkpt>
      <trkpt lat="45.16118" lon="3.92584">
        <ele>553.85668945312</ele>
        <time>2013-06-25T08:17:32Z</time>
      </trkpt>
      <trkpt lat="45.16151" lon="3.92726">
        <ele>554.33740234375</ele>
        <time>2013-06-25T08:17:45Z</time>
      </trkpt>
      <trkpt lat="45.16158" lon="3.92782">
        <ele>554.33740234375</ele>
        <time>2013-06-25T08:17:50Z</time>
      </trkpt>
      <trkpt lat="45.16172" lon="3.92823">
        <ele>553.85668945312</ele>
        <time>2013-06-25T08:17:54Z</time>
      </trkpt>
      <trkpt lat="45.16277" lon="3.92975">
        <ele>552.89526367188</ele>
        <time>2013-06-25T08:18:12Z</time>
      </trkpt>
      <trkpt lat="45.16351" lon="3.93066">
        <ele>552.41455078125</ele>
        <time>2013-06-25T08:18:24Z</time>
      </trkpt>
      <trkpt lat="45.16445" lon="3.9313">
        <ele>553.85668945312</ele>
        <time>2013-06-25T08:18:40Z</time>
      </trkpt>
      <trkpt lat="45.16559" lon="3.93168">
        <ele>554.81787109375</ele>
        <time>2013-06-25T08:18:59Z</time>
      </trkpt>
      <trkpt lat="45.16584" lon="3.93166">
        <ele>555.29858398438</ele>
        <time>2013-06-25T08:19:03Z</time>
      </trkpt>
      <trkpt lat="45.16703" lon="3.93121">
        <ele>555.29858398438</ele>
        <time>2013-06-25T08:19:22Z</time>
      </trkpt>
      <trkpt lat="45.16807" lon="3.93015">
        <ele>554.33740234375</ele>
        <time>2013-06-25T08:19:40Z</time>
      </trkpt>
      <trkpt lat="45.16845" lon="3.92959">
        <ele>554.33740234375</ele>
        <time>2013-06-25T08:19:48Z</time>
      </trkpt>
      <trkpt lat="45.16891" lon="3.92808">
        <ele>552.89526367188</ele>
        <time>2013-06-25T08:20:05Z</time>
      </trkpt>
      <trkpt lat="45.16934" lon="3.92663">
        <ele>550.01147460938</ele>
        <time>2013-06-25T08:20:20Z</time>
      </trkpt>
      <trkpt lat="45.17011" lon="3.924">
        <ele>549.05004882812</ele>
        <time>2013-06-25T08:20:47Z</time>
      </trkpt>
      <trkpt lat="45.17058" lon="3.92293">
        <ele>549.05004882812</ele>
        <time>2013-06-25T08:20:59Z</time>
      </trkpt>
      <trkpt lat="45.17158" lon="3.92208">
        <ele>549.53076171875</ele>
        <time>2013-06-25T08:21:14Z</time>
      </trkpt>
      <trkpt lat="45.17286" lon="3.92095">
        <ele>548.5693359375</ele>
        <time>2013-06-25T08:21:34Z</time>
      </trkpt>
      <trkpt lat="45.17431" lon="3.91966">
        <ele>550.01147460938</ele>
        <time>2013-06-25T08:21:57Z</time>
      </trkpt>
      <trkpt lat="45.17558" lon="3.91878">
        <ele>549.05004882812</ele>
        <time>2013-06-25T08:22:16Z</time>
      </trkpt>
      <trkpt lat="45.1767" lon="3.91846">
        <ele>547.60815429688</ele>
        <time>2013-06-25T08:22:31Z</time>
      </trkpt>
      <trkpt lat="45.1777" lon="3.91861">
        <ele>546.64685058594</ele>
        <time>2013-06-25T08:22:44Z</time>
      </trkpt>
      <trkpt lat="45.17876" lon="3.91877">
        <ele>548.0888671875</ele>
        <time>2013-06-25T08:22:59Z</time>
      </trkpt>
      <trkpt lat="45.17967" lon="3.91841">
        <ele>550.4921875</ele>
        <time>2013-06-25T08:23:14Z</time>
      </trkpt>
      <trkpt lat="45.17971" lon="3.91836">
        <ele>550.4921875</ele>
        <time>2013-06-25T08:23:15Z</time>
      </trkpt>
      <trkpt lat="45.1803" lon="3.91741">
        <ele>550.97265625</ele>
        <time>2013-06-25T08:23:30Z</time>
      </trkpt>
      <trkpt lat="45.18091" lon="3.91621">
        <ele>549.53076171875</ele>
        <time>2013-06-25T08:23:46Z</time>
      </trkpt>
      <trkpt lat="45.18174" lon="3.91466">
        <ele>547.12744140625</ele>
        <time>2013-06-25T08:24:05Z</time>
      </trkpt>
      <trkpt lat="45.18443" lon="3.90817">
        <ele>546.64685058594</ele>
        <time>2013-06-25T08:25:24Z</time>
      </trkpt>
      <trkpt lat="45.18483" lon="3.90787">
        <ele>544.72424316406</ele>
        <time>2013-06-25T08:25:31Z</time>
      </trkpt>
      <trkpt lat="45.18484" lon="3.90787">
        <ele>545.20483398438</ele>
        <time>2013-06-25T08:25:33Z</time>
      </trkpt>
      <trkpt lat="45.1852" lon="3.90798">
        <ele>544.72424316406</ele>
        <time>2013-06-25T08:25:37Z</time>
      </trkpt>
      <trkpt lat="45.18541" lon="3.9082">
        <ele>544.24365234375</ele>
        <time>2013-06-25T08:25:41Z</time>
      </trkpt>
      <trkpt lat="45.18611" lon="3.90903">
        <ele>543.28210449219</ele>
        <time>2013-06-25T08:25:54Z</time>
      </trkpt>
      <trkpt lat="45.1867" lon="3.90959">
        <ele>546.64685058594</ele>
        <time>2013-06-25T08:26:06Z</time>
      </trkpt>
      <trkpt lat="45.18677" lon="3.90993">
        <ele>548.0888671875</ele>
        <time>2013-06-25T08:26:12Z</time>
      </trkpt>
      <trkpt lat="45.1869" lon="3.91126">
        <ele>545.20483398438</ele>
        <time>2013-06-25T08:26:26Z</time>
      </trkpt>
      <trkpt lat="45.18725" lon="3.91209">
        <ele>546.16625976562</ele>
        <time>2013-06-25T08:26:36Z</time>
      </trkpt>
      <trkpt lat="45.18749" lon="3.91227">
        <ele>547.60815429688</ele>
        <time>2013-06-25T08:26:41Z</time>
      </trkpt>
      <trkpt lat="45.18823" lon="3.91293">
        <ele>554.81787109375</ele>
        <time>2013-06-25T08:26:59Z</time>
      </trkpt>
      <trkpt lat="45.18831" lon="3.91428">
        <ele>560.10522460938</ele>
        <time>2013-06-25T08:27:21Z</time>
      </trkpt>
      <trkpt lat="45.18825" lon="3.91499">
        <ele>563.46997070312</ele>
        <time>2013-06-25T08:27:33Z</time>
      </trkpt>
      <trkpt lat="45.18818" lon="3.9156">
        <ele>568.2763671875</ele>
        <time>2013-06-25T08:27:48Z</time>
      </trkpt>
      <trkpt lat="45.18825" lon="3.9167">
        <ele>572.12182617188</ele>
        <time>2013-06-25T08:28:03Z</time>
      </trkpt>
      <trkpt lat="45.18853" lon="3.91712">
        <ele>575.96704101562</ele>
        <time>2013-06-25T08:28:14Z</time>
      </trkpt>
      <trkpt lat="45.18873" lon="3.91714">
        <ele>576.92846679688</ele>
        <time>2013-06-25T08:28:19Z</time>
      </trkpt>
      <trkpt lat="45.189" lon="3.9168">
        <ele>575.96704101562</ele>
        <time>2013-06-25T08:28:27Z</time>
      </trkpt>
      <trkpt lat="45.18921" lon="3.91641">
        <ele>574.52514648438</ele>
        <time>2013-06-25T08:28:33Z</time>
      </trkpt>
      <trkpt lat="45.18941" lon="3.91613">
        <ele>573.56396484375</ele>
        <time>2013-06-25T08:28:37Z</time>
      </trkpt>
      <trkpt lat="45.19046" lon="3.915">
        <ele>570.6796875</ele>
        <time>2013-06-25T08:28:53Z</time>
      </trkpt>
      <trkpt lat="45.1917" lon="3.91382">
        <ele>564.43115234375</ele>
        <time>2013-06-25T08:29:10Z</time>
      </trkpt>
      <trkpt lat="45.19283" lon="3.9128">
        <ele>562.9892578125</ele>
        <time>2013-06-25T08:29:27Z</time>
      </trkpt>
      <trkpt lat="45.19379" lon="3.91225">
        <ele>561.54736328125</ele>
        <time>2013-06-25T08:29:41Z</time>
      </trkpt>
      <trkpt lat="45.19407" lon="3.91226">
        <ele>562.02807617188</ele>
        <time>2013-06-25T08:29:45Z</time>
      </trkpt>
      <trkpt lat="45.19441" lon="3.91229">
        <ele>562.50854492188</ele>
        <time>2013-06-25T08:29:50Z</time>
      </trkpt>
      <trkpt lat="45.19536" lon="3.91295">
        <ele>563.46997070312</ele>
        <time>2013-06-25T08:30:06Z</time>
      </trkpt>
      <trkpt lat="45.19564" lon="3.91311">
        <ele>563.95043945312</ele>
        <time>2013-06-25T08:30:11Z</time>
      </trkpt>
      <trkpt lat="45.19628" lon="3.91386">
        <ele>564.91186523438</ele>
        <time>2013-06-25T08:30:25Z</time>
      </trkpt>
      <trkpt lat="45.19677" lon="3.91501">
        <ele>564.43115234375</ele>
        <time>2013-06-25T08:30:39Z</time>
      </trkpt>
      <trkpt lat="45.19721" lon="3.91662">
        <ele>562.02807617188</ele>
        <time>2013-06-25T08:30:55Z</time>
      </trkpt>
      <trkpt lat="45.19728" lon="3.91682">
        <ele>561.54736328125</ele>
        <time>2013-06-25T08:30:57Z</time>
      </trkpt>
      <trkpt lat="45.1973" lon="3.91739">
        <ele>560.10522460938</ele>
        <time>2013-06-25T08:31:02Z</time>
      </trkpt>
      <trkpt lat="45.19729" lon="3.91763">
        <ele>559.62475585938</ele>
        <time>2013-06-25T08:31:04Z</time>
      </trkpt>
      <trkpt lat="45.19746" lon="3.91864">
        <ele>556.74072265625</ele>
        <time>2013-06-25T08:31:12Z</time>
      </trkpt>
      <trkpt lat="45.19762" lon="3.91914">
        <ele>554.81787109375</ele>
        <time>2013-06-25T08:31:16Z</time>
      </trkpt>
      <trkpt lat="45.19811" lon="3.92105">
        <ele>549.05004882812</ele>
        <time>2013-06-25T08:31:30Z</time>
      </trkpt>
      <trkpt lat="45.19825" lon="3.92326">
        <ele>546.64685058594</ele>
        <time>2013-06-25T08:31:45Z</time>
      </trkpt>
      <trkpt lat="45.19846" lon="3.92435">
        <ele>551.45336914062</ele>
        <time>2013-06-25T08:31:55Z</time>
      </trkpt>
      <trkpt lat="45.19859" lon="3.92458">
        <ele>551.93408203125</ele>
        <time>2013-06-25T08:31:58Z</time>
      </trkpt>
      <trkpt lat="45.19954" lon="3.92557">
        <ele>552.41455078125</ele>
        <time>2013-06-25T08:32:14Z</time>
      </trkpt>
      <trkpt lat="45.20046" lon="3.92632">
        <ele>552.89526367188</ele>
        <time>2013-06-25T08:32:31Z</time>
      </trkpt>
      <trkpt lat="45.20132" lon="3.92664">
        <ele>553.3759765625</ele>
        <time>2013-06-25T08:32:44Z</time>
      </trkpt>
      <trkpt lat="45.20211" lon="3.92688">
        <ele>553.3759765625</ele>
        <time>2013-06-25T08:32:56Z</time>
      </trkpt>
      <trkpt lat="45.20241" lon="3.92708">
        <ele>553.3759765625</ele>
        <time>2013-06-25T08:33:01Z</time>
      </trkpt>
      <trkpt lat="45.20329" lon="3.92833">
        <ele>551.45336914062</ele>
        <time>2013-06-25T08:33:19Z</time>
      </trkpt>
      <trkpt lat="45.20402" lon="3.92971">
        <ele>549.05004882812</ele>
        <time>2013-06-25T08:33:36Z</time>
      </trkpt>
      <trkpt lat="45.20439" lon="3.93046">
        <ele>547.60815429688</ele>
        <time>2013-06-25T08:33:45Z</time>
      </trkpt>
      <trkpt lat="45.20437" lon="3.93096">
        <ele>547.60815429688</ele>
        <time>2013-06-25T08:33:50Z</time>
      </trkpt>
      <trkpt lat="45.20434" lon="3.93119">
        <ele>547.12744140625</ele>
        <time>2013-06-25T08:33:52Z</time>
      </trkpt>
      <trkpt lat="45.20434" lon="3.93164">
        <ele>546.64685058594</ele>
        <time>2013-06-25T08:33:56Z</time>
      </trkpt>
      <trkpt lat="45.20436" lon="3.9321">
        <ele>545.20483398438</ele>
        <time>2013-06-25T08:34:00Z</time>
      </trkpt>
      <trkpt lat="45.2041" lon="3.93257">
        <ele>542.32092285156</ele>
        <time>2013-06-25T08:34:06Z</time>
      </trkpt>
      <trkpt lat="45.20394" lon="3.93263">
        <ele>541.35949707031</ele>
        <time>2013-06-25T08:34:08Z</time>
      </trkpt>
      <trkpt lat="45.20376" lon="3.93289">
        <ele>539.91760253906</ele>
        <time>2013-06-25T08:34:14Z</time>
      </trkpt>
      <trkpt lat="45.20369" lon="3.93353">
        <ele>537.99499511719</ele>
        <time>2013-06-25T08:34:18Z</time>
      </trkpt>
      <trkpt lat="45.20347" lon="3.93379">
        <ele>537.03369140625</ele>
        <time>2013-06-25T08:34:23Z</time>
      </trkpt>
      <trkpt lat="45.20308" lon="3.93383">
        <ele>538.47570800781</ele>
        <time>2013-06-25T08:34:34Z</time>
      </trkpt>
      <trkpt lat="45.20281" lon="3.93386">
        <ele>540.39831542969</ele>
        <time>2013-06-25T08:35:30Z</time>
      </trkpt>
      <trkpt lat="45.20258" lon="3.93392">
        <ele>540.87890625</ele>
        <time>2013-06-25T08:35:35Z</time>
      </trkpt>
      <trkpt lat="45.20231" lon="3.93434">
        <ele>540.87890625</ele>
        <time>2013-06-25T08:35:44Z</time>
      </trkpt>
      <trkpt lat="45.20238" lon="3.93468">
        <ele>542.80151367188</ele>
        <time>2013-06-25T08:35:49Z</time>
      </trkpt>
      <trkpt lat="45.20277" lon="3.93649">
        <ele>548.0888671875</ele>
        <time>2013-06-25T08:36:11Z</time>
      </trkpt>
      <trkpt lat="45.20288" lon="3.9384">
        <ele>550.4921875</ele>
        <time>2013-06-25T08:36:32Z</time>
      </trkpt>
      <trkpt lat="45.20289" lon="3.94">
        <ele>549.53076171875</ele>
        <time>2013-06-25T08:36:49Z</time>
      </trkpt>
      <trkpt lat="45.20281" lon="3.94146">
        <ele>550.01147460938</ele>
        <time>2013-06-25T08:37:04Z</time>
      </trkpt>
      <trkpt lat="45.20281" lon="3.94296">
        <ele>550.01147460938</ele>
        <time>2013-06-25T08:37:19Z</time>
      </trkpt>
      <trkpt lat="45.20303" lon="3.94479">
        <ele>547.12744140625</ele>
        <time>2013-06-25T08:37:35Z</time>
      </trkpt>
      <trkpt lat="45.2029" lon="3.94639">
        <ele>543.76281738281</ele>
        <time>2013-06-25T08:37:48Z</time>
      </trkpt>
      <trkpt lat="45.20286" lon="3.94687">
        <ele>543.28210449219</ele>
        <time>2013-06-25T08:37:52Z</time>
      </trkpt>
      <trkpt lat="45.20295" lon="3.9474">
        <ele>544.24365234375</ele>
        <time>2013-06-25T08:37:57Z</time>
      </trkpt>
      <trkpt lat="45.20328" lon="3.94873">
        <ele>547.12744140625</ele>
        <time>2013-06-25T08:38:12Z</time>
      </trkpt>
      <trkpt lat="45.20349" lon="3.95032">
        <ele>548.0888671875</ele>
        <time>2013-06-25T08:38:30Z</time>
      </trkpt>
      <trkpt lat="45.20376" lon="3.95238">
        <ele>552.41455078125</ele>
        <time>2013-06-25T08:38:55Z</time>
      </trkpt>
      <trkpt lat="45.20387" lon="3.95369">
        <ele>552.41455078125</ele>
        <time>2013-06-25T08:39:11Z</time>
      </trkpt>
      <trkpt lat="45.20383" lon="3.95445">
        <ele>551.45336914062</ele>
        <time>2013-06-25T08:39:20Z</time>
      </trkpt>
      <trkpt lat="45.20378" lon="3.95533">
        <ele>548.5693359375</ele>
        <time>2013-06-25T08:39:30Z</time>
      </trkpt>
      <trkpt lat="45.2037" lon="3.95604">
        <ele>549.05004882812</ele>
        <time>2013-06-25T08:39:38Z</time>
      </trkpt>
      <trkpt lat="45.20328" lon="3.95716">
        <ele>552.41455078125</ele>
        <time>2013-06-25T08:39:53Z</time>
      </trkpt>
      <trkpt lat="45.20257" lon="3.95806">
        <ele>553.85668945312</ele>
        <time>2013-06-25T08:40:08Z</time>
      </trkpt>
      <trkpt lat="45.20159" lon="3.95927">
        <ele>557.7021484375</ele>
        <time>2013-06-25T08:40:31Z</time>
      </trkpt>
      <trkpt lat="45.20076" lon="3.96023">
        <ele>563.46997070312</ele>
        <time>2013-06-25T08:40:50Z</time>
      </trkpt>
      <trkpt lat="45.20049" lon="3.9603">
        <ele>563.46997070312</ele>
        <time>2013-06-25T08:40:55Z</time>
      </trkpt>
      <trkpt lat="45.20025" lon="3.96028">
        <ele>562.9892578125</ele>
        <time>2013-06-25T08:40:59Z</time>
      </trkpt>
      <trkpt lat="45.20012" lon="3.96027">
        <ele>563.46997070312</ele>
        <time>2013-06-25T08:41:01Z</time>
      </trkpt>
      <trkpt lat="45.19971" lon="3.96065">
        <ele>562.02807617188</ele>
        <time>2013-06-25T08:41:09Z</time>
      </trkpt>
      <trkpt lat="45.19954" lon="3.96094">
        <ele>562.02807617188</ele>
        <time>2013-06-25T08:41:13Z</time>
      </trkpt>
      <trkpt lat="45.19874" lon="3.96178">
        <ele>561.06665039062</ele>
        <time>2013-06-25T08:41:27Z</time>
      </trkpt>
      <trkpt lat="45.19856" lon="3.96199">
        <ele>560.10522460938</ele>
        <time>2013-06-25T08:41:30Z</time>
      </trkpt>
      <trkpt lat="45.19817" lon="3.96253">
        <ele>555.779296875</ele>
        <time>2013-06-25T08:41:36Z</time>
      </trkpt>
      <trkpt lat="45.19783" lon="3.96304">
        <ele>553.85668945312</ele>
        <time>2013-06-25T08:41:41Z</time>
      </trkpt>
      <trkpt lat="45.19766" lon="3.96393">
        <ele>551.93408203125</ele>
        <time>2013-06-25T08:41:47Z</time>
      </trkpt>
      <trkpt lat="45.19714" lon="3.96515">
        <ele>547.12744140625</ele>
        <time>2013-06-25T08:41:56Z</time>
      </trkpt>
      <trkpt lat="45.19703" lon="3.96584">
        <ele>544.24365234375</ele>
        <time>2013-06-25T08:42:01Z</time>
      </trkpt>
      <trkpt lat="45.19707" lon="3.96642">
        <ele>542.32092285156</ele>
        <time>2013-06-25T08:42:05Z</time>
      </trkpt>
      <trkpt lat="45.19698" lon="3.96719">
        <ele>539.43688964844</ele>
        <time>2013-06-25T08:42:10Z</time>
      </trkpt>
      <trkpt lat="45.19706" lon="3.96781">
        <ele>538.95629882812</ele>
        <time>2013-06-25T08:42:14Z</time>
      </trkpt>
      <trkpt lat="45.19709" lon="3.96813">
        <ele>537.99499511719</ele>
        <time>2013-06-25T08:42:16Z</time>
      </trkpt>
      <trkpt lat="45.19698" lon="3.9695">
        <ele>531.26574707031</ele>
        <time>2013-06-25T08:42:25Z</time>
      </trkpt>
      <trkpt lat="45.19701" lon="3.97003">
        <ele>529.34313964844</ele>
        <time>2013-06-25T08:42:28Z</time>
      </trkpt>
      <trkpt lat="45.19724" lon="3.9707">
        <ele>529.34313964844</ele>
        <time>2013-06-25T08:42:33Z</time>
      </trkpt>
      <trkpt lat="45.19736" lon="3.97095">
        <ele>528.86254882812</ele>
        <time>2013-06-25T08:42:35Z</time>
      </trkpt>
      <trkpt lat="45.19745" lon="3.9713">
        <ele>528.3818359375</ele>
        <time>2013-06-25T08:42:39Z</time>
      </trkpt>
      <trkpt lat="45.19745" lon="3.97194">
        <ele>527.90100097656</ele>
        <time>2013-06-25T08:42:42Z</time>
      </trkpt>
      <trkpt lat="45.19785" lon="3.97257">
        <ele>530.78515625</ele>
        <time>2013-06-25T08:42:49Z</time>
      </trkpt>
      <trkpt lat="45.19807" lon="3.97278">
        <ele>531.26574707031</ele>
        <time>2013-06-25T08:42:52Z</time>
      </trkpt>
      <trkpt lat="45.1987" lon="3.97385">
        <ele>533.18835449219</ele>
        <time>2013-06-25T08:43:04Z</time>
      </trkpt>
      <trkpt lat="45.19949" lon="3.97527">
        <ele>534.14965820312</ele>
        <time>2013-06-25T08:43:21Z</time>
      </trkpt>
      <trkpt lat="45.20023" lon="3.97672">
        <ele>534.63037109375</ele>
        <time>2013-06-25T08:43:38Z</time>
      </trkpt>
      <trkpt lat="45.2005" lon="3.97726">
        <ele>534.63037109375</ele>
        <time>2013-06-25T08:43:44Z</time>
      </trkpt>
      <trkpt lat="45.20065" lon="3.97789">
        <ele>534.14965820312</ele>
        <time>2013-06-25T08:43:50Z</time>
      </trkpt>
      <trkpt lat="45.2008" lon="3.97954">
        <ele>533.6689453125</ele>
        <time>2013-06-25T08:44:06Z</time>
      </trkpt>
      <trkpt lat="45.20097" lon="3.981">
        <ele>533.6689453125</ele>
        <time>2013-06-25T08:44:21Z</time>
      </trkpt>
      <trkpt lat="45.20101" lon="3.98274">
        <ele>535.11096191406</ele>
        <time>2013-06-25T08:44:38Z</time>
      </trkpt>
      <trkpt lat="45.20102" lon="3.98457">
        <ele>531.74633789062</ele>
        <time>2013-06-25T08:44:59Z</time>
      </trkpt>
      <trkpt lat="45.20102" lon="3.98476">
        <ele>531.26574707031</ele>
        <time>2013-06-25T08:45:01Z</time>
      </trkpt>
      <trkpt lat="45.20123" lon="3.9856">
        <ele>529.34313964844</ele>
        <time>2013-06-25T08:45:10Z</time>
      </trkpt>
      <trkpt lat="45.20127" lon="3.98606">
        <ele>530.30444335938</ele>
        <time>2013-06-25T08:45:15Z</time>
      </trkpt>
      <trkpt lat="45.20128" lon="3.98652">
        <ele>531.26574707031</ele>
        <time>2013-06-25T08:45:20Z</time>
      </trkpt>
      <trkpt lat="45.20134" lon="3.98668">
        <ele>531.74633789062</ele>
        <time>2013-06-25T08:45:22Z</time>
      </trkpt>
      <trkpt lat="45.20163" lon="3.98749">
        <ele>530.30444335938</ele>
        <time>2013-06-25T08:45:32Z</time>
      </trkpt>
      <trkpt lat="45.20205" lon="3.98817">
        <ele>527.90100097656</ele>
        <time>2013-06-25T08:45:42Z</time>
      </trkpt>
      <trkpt lat="45.20242" lon="3.98877">
        <ele>525.49780273438</ele>
        <time>2013-06-25T08:45:50Z</time>
      </trkpt>
      <trkpt lat="45.20253" lon="3.9889">
        <ele>524.05578613281</ele>
        <time>2013-06-25T08:45:52Z</time>
      </trkpt>
      <trkpt lat="45.20282" lon="3.98908">
        <ele>522.61389160156</ele>
        <time>2013-06-25T08:45:56Z</time>
      </trkpt>
      <trkpt lat="45.20377" lon="3.98938">
        <ele>520.69128417969</ele>
        <time>2013-06-25T08:46:08Z</time>
      </trkpt>
      <trkpt lat="45.20402" lon="3.9897">
        <ele>522.13317871094</ele>
        <time>2013-06-25T08:46:13Z</time>
      </trkpt>
      <trkpt lat="45.20422" lon="3.98998">
        <ele>523.09460449219</ele>
        <time>2013-06-25T08:46:18Z</time>
      </trkpt>
      <trkpt lat="45.20445" lon="3.99013">
        <ele>525.01721191406</ele>
        <time>2013-06-25T08:46:22Z</time>
      </trkpt>
      <trkpt lat="45.20458" lon="3.99018">
        <ele>525.49780273438</ele>
        <time>2013-06-25T08:46:25Z</time>
      </trkpt>
      <trkpt lat="45.20535" lon="3.99091">
        <ele>521.17199707031</ele>
        <time>2013-06-25T08:46:39Z</time>
      </trkpt>
      <trkpt lat="45.20586" lon="3.99137">
        <ele>520.21057128906</ele>
        <time>2013-06-25T08:46:45Z</time>
      </trkpt>
      <trkpt lat="45.20673" lon="3.99254">
        <ele>519.24926757812</ele>
        <time>2013-06-25T08:47:01Z</time>
      </trkpt>
      <trkpt lat="45.20684" lon="3.99293">
        <ele>519.24926757812</ele>
        <time>2013-06-25T08:47:05Z</time>
      </trkpt>
      <trkpt lat="45.20698" lon="3.9937">
        <ele>520.21057128906</ele>
        <time>2013-06-25T08:47:15Z</time>
      </trkpt>
      <trkpt lat="45.20755" lon="3.99585">
        <ele>521.17199707031</ele>
        <time>2013-06-25T08:47:36Z</time>
      </trkpt>
      <trkpt lat="45.20771" lon="3.9979">
        <ele>524.53649902344</ele>
        <time>2013-06-25T08:47:57Z</time>
      </trkpt>
      <trkpt lat="45.20771" lon="3.99975">
        <ele>524.05578613281</ele>
        <time>2013-06-25T08:48:15Z</time>
      </trkpt>
      <trkpt lat="45.20745" lon="4.00022">
        <ele>523.5751953125</ele>
        <time>2013-06-25T08:48:21Z</time>
      </trkpt>
      <trkpt lat="45.20745" lon="4.00023">
        <ele>524.05578613281</ele>
        <time>2013-06-25T08:48:23Z</time>
      </trkpt>
      <trkpt lat="45.20718" lon="4.0002">
        <ele>524.53649902344</ele>
        <time>2013-06-25T08:48:25Z</time>
      </trkpt>
      <trkpt lat="45.20644" lon="4.00048">
        <ele>527.42041015625</ele>
        <time>2013-06-25T08:48:38Z</time>
      </trkpt>
      <trkpt lat="45.20612" lon="4.00079">
        <ele>529.82373046875</ele>
        <time>2013-06-25T08:48:46Z</time>
      </trkpt>
      <trkpt lat="45.20555" lon="4.002">
        <ele>535.11096191406</ele>
        <time>2013-06-25T08:49:07Z</time>
      </trkpt>
      <trkpt lat="45.20526" lon="4.00263">
        <ele>538.95629882812</ele>
        <time>2013-06-25T08:49:20Z</time>
      </trkpt>
      <trkpt lat="45.2046" lon="4.00351">
        <ele>541.35949707031</ele>
        <time>2013-06-25T08:49:36Z</time>
      </trkpt>
      <trkpt lat="45.20453" lon="4.00362">
        <ele>541.84020996094</ele>
        <time>2013-06-25T08:49:39Z</time>
      </trkpt>
      <trkpt lat="45.20425" lon="4.00435">
        <ele>545.20483398438</ele>
        <time>2013-06-25T08:49:52Z</time>
      </trkpt>
      <trkpt lat="45.20412" lon="4.00541">
        <ele>549.05004882812</ele>
        <time>2013-06-25T08:50:08Z</time>
      </trkpt>
      <trkpt lat="45.20431" lon="4.00667">
        <ele>551.93408203125</ele>
        <time>2013-06-25T08:50:26Z</time>
      </trkpt>
      <trkpt lat="45.20446" lon="4.00757">
        <ele>556.26000976562</ele>
        <time>2013-06-25T08:50:39Z</time>
      </trkpt>
      <trkpt lat="45.20468" lon="4.00904">
        <ele>560.5859375</ele>
        <time>2013-06-25T08:51:02Z</time>
      </trkpt>
      <trkpt lat="45.20469" lon="4.00911">
        <ele>561.06665039062</ele>
        <time>2013-06-25T08:51:03Z</time>
      </trkpt>
      <trkpt lat="45.20468" lon="4.00945">
        <ele>561.06665039062</ele>
        <time>2013-06-25T08:51:08Z</time>
      </trkpt>
      <trkpt lat="45.20462" lon="4.00991">
        <ele>561.54736328125</ele>
        <time>2013-06-25T08:51:15Z</time>
      </trkpt>
      <trkpt lat="45.20454" lon="4.01106">
        <ele>567.31518554688</ele>
        <time>2013-06-25T08:51:32Z</time>
      </trkpt>
      <trkpt lat="45.20459" lon="4.0123">
        <ele>573.08325195312</ele>
        <time>2013-06-25T08:51:50Z</time>
      </trkpt>
      <trkpt lat="45.20476" lon="4.01343">
        <ele>576.92846679688</ele>
        <time>2013-06-25T08:52:06Z</time>
      </trkpt>
      <trkpt lat="45.20513" lon="4.01453">
        <ele>578.37036132812</ele>
        <time>2013-06-25T08:52:22Z</time>
      </trkpt>
      <trkpt lat="45.20519" lon="4.01484">
        <ele>577.8896484375</ele>
        <time>2013-06-25T08:52:26Z</time>
      </trkpt>
      <trkpt lat="45.20522" lon="4.01507">
        <ele>576.92846679688</ele>
        <time>2013-06-25T08:52:30Z</time>
      </trkpt>
      <trkpt lat="45.20506" lon="4.01569">
        <ele>574.04443359375</ele>
        <time>2013-06-25T08:52:36Z</time>
      </trkpt>
      <trkpt lat="45.20414" lon="4.01678">
        <ele>564.91186523438</ele>
        <time>2013-06-25T08:52:50Z</time>
      </trkpt>
      <trkpt lat="45.20405" lon="4.01684">
        <ele>564.43115234375</ele>
        <time>2013-06-25T08:52:51Z</time>
      </trkpt>
      <trkpt lat="45.20374" lon="4.01708">
        <ele>562.50854492188</ele>
        <time>2013-06-25T08:52:55Z</time>
      </trkpt>
      <trkpt lat="45.20342" lon="4.01806">
        <ele>558.18286132812</ele>
        <time>2013-06-25T08:53:03Z</time>
      </trkpt>
      <trkpt lat="45.20328" lon="4.0194">
        <ele>553.3759765625</ele>
        <time>2013-06-25T08:53:13Z</time>
      </trkpt>
      <trkpt lat="45.20299" lon="4.02005">
        <ele>550.01147460938</ele>
        <time>2013-06-25T08:53:19Z</time>
      </trkpt>
      <trkpt lat="45.20227" lon="4.02102">
        <ele>543.76281738281</ele>
        <time>2013-06-25T08:53:29Z</time>
      </trkpt>
      <trkpt lat="45.20181" lon="4.0214">
        <ele>541.35949707031</ele>
        <time>2013-06-25T08:53:34Z</time>
      </trkpt>
      <trkpt lat="45.20146" lon="4.02214">
        <ele>536.55310058594</ele>
        <time>2013-06-25T08:53:40Z</time>
      </trkpt>
      <trkpt lat="45.20146" lon="4.02245">
        <ele>535.59155273438</ele>
        <time>2013-06-25T08:53:42Z</time>
      </trkpt>
      <trkpt lat="45.20148" lon="4.02289">
        <ele>534.14965820312</ele>
        <time>2013-06-25T08:53:45Z</time>
      </trkpt>
      <trkpt lat="45.20135" lon="4.02378">
        <ele>529.34313964844</ele>
        <time>2013-06-25T08:53:53Z</time>
      </trkpt>
      <trkpt lat="45.2013" lon="4.02391">
        <ele>528.86254882812</ele>
        <time>2013-06-25T08:53:55Z</time>
      </trkpt>
      <trkpt lat="45.20116" lon="4.02415">
        <ele>529.34313964844</ele>
        <time>2013-06-25T08:53:59Z</time>
      </trkpt>
      <trkpt lat="45.201" lon="4.02435">
        <ele>530.78515625</ele>
        <time>2013-06-25T08:54:04Z</time>
      </trkpt>
      <trkpt lat="45.20057" lon="4.02506">
        <ele>531.74633789062</ele>
        <time>2013-06-25T08:54:19Z</time>
      </trkpt>
      <trkpt lat="45.20049" lon="4.02523">
        <ele>534.14965820312</ele>
        <time>2013-06-25T08:54:29Z</time>
      </trkpt>
      <trkpt lat="45.20046" lon="4.02529">
        <ele>532.70776367188</ele>
        <time>2013-06-25T08:54:57Z</time>
      </trkpt>
      <trkpt lat="45.20022" lon="4.02602">
        <ele>532.22705078125</ele>
        <time>2013-06-25T08:55:12Z</time>
      </trkpt>
      <trkpt lat="45.19998" lon="4.02657">
        <ele>532.22705078125</ele>
        <time>2013-06-25T08:55:24Z</time>
      </trkpt>
      <trkpt lat="45.19975" lon="4.02694">
        <ele>532.70776367188</ele>
        <time>2013-06-25T08:55:31Z</time>
      </trkpt>
      <trkpt lat="45.1996" lon="4.02717">
        <ele>532.70776367188</ele>
        <time>2013-06-25T08:55:35Z</time>
      </trkpt>
      <trkpt lat="45.19919" lon="4.0282">
        <ele>532.70776367188</ele>
        <time>2013-06-25T08:55:51Z</time>
      </trkpt>
      <trkpt lat="45.19912" lon="4.02848">
        <ele>532.22705078125</ele>
        <time>2013-06-25T08:55:55Z</time>
      </trkpt>
      <trkpt lat="45.19904" lon="4.02946">
        <ele>530.78515625</ele>
        <time>2013-06-25T08:56:07Z</time>
      </trkpt>
      <trkpt lat="45.19888" lon="4.03061">
        <ele>528.3818359375</ele>
        <time>2013-06-25T08:56:20Z</time>
      </trkpt>
      <trkpt lat="45.19851" lon="4.0321">
        <ele>523.5751953125</ele>
        <time>2013-06-25T08:56:35Z</time>
      </trkpt>
      <trkpt lat="45.19831" lon="4.03307">
        <ele>519.72985839844</ele>
        <time>2013-06-25T08:56:44Z</time>
      </trkpt>
      <trkpt lat="45.19833" lon="4.03349">
        <ele>519.24926757812</ele>
        <time>2013-06-25T08:56:48Z</time>
      </trkpt>
      <trkpt lat="45.19835" lon="4.0338">
        <ele>519.24926757812</ele>
        <time>2013-06-25T08:56:51Z</time>
      </trkpt>
      <trkpt lat="45.19831" lon="4.03433">
        <ele>517.80725097656</ele>
        <time>2013-06-25T08:56:56Z</time>
      </trkpt>
      <trkpt lat="45.19807" lon="4.0349">
        <ele>516.84594726562</ele>
        <time>2013-06-25T08:57:02Z</time>
      </trkpt>
      <trkpt lat="45.19803" lon="4.0356">
        <ele>515.40405273438</ele>
        <time>2013-06-25T08:57:09Z</time>
      </trkpt>
      <trkpt lat="45.19818" lon="4.0364">
        <ele>513.4814453125</ele>
        <time>2013-06-25T08:57:17Z</time>
      </trkpt>
      <trkpt lat="45.19844" lon="4.03662">
        <ele>513.96203613281</ele>
        <time>2013-06-25T08:57:23Z</time>
      </trkpt>
      <trkpt lat="45.19943" lon="4.03681">
        <ele>513.4814453125</ele>
        <time>2013-06-25T08:57:42Z</time>
      </trkpt>
      <trkpt lat="45.19995" lon="4.03687">
        <ele>512.52001953125</ele>
        <time>2013-06-25T08:58:01Z</time>
      </trkpt>
      <trkpt lat="45.20041" lon="4.03692">
        <ele>513.00073242188</ele>
        <time>2013-06-25T08:58:18Z</time>
      </trkpt>
      <trkpt lat="45.20103" lon="4.03699">
        <ele>514.44262695312</ele>
        <time>2013-06-25T08:58:36Z</time>
      </trkpt>
      <trkpt lat="45.20165" lon="4.03711">
        <ele>515.88464355469</ele>
        <time>2013-06-25T08:58:56Z</time>
      </trkpt>
      <trkpt lat="45.20199" lon="4.0371">
        <ele>519.24926757812</ele>
        <time>2013-06-25T08:59:06Z</time>
      </trkpt>
      <trkpt lat="45.20228" lon="4.03678">
        <ele>523.5751953125</ele>
        <time>2013-06-25T08:59:19Z</time>
      </trkpt>
      <trkpt lat="45.20225" lon="4.03623">
        <ele>527.90100097656</ele>
        <time>2013-06-25T08:59:31Z</time>
      </trkpt>
      <trkpt lat="45.20226" lon="4.03574">
        <ele>531.74633789062</ele>
        <time>2013-06-25T08:59:42Z</time>
      </trkpt>
      <trkpt lat="45.20228" lon="4.0357">
        <ele>532.22705078125</ele>
        <time>2013-06-25T08:59:43Z</time>
      </trkpt>
      <trkpt lat="45.20266" lon="4.03504">
        <ele>535.59155273438</ele>
        <time>2013-06-25T09:00:00Z</time>
      </trkpt>
      <trkpt lat="45.20308" lon="4.03458">
        <ele>539.91760253906</ele>
        <time>2013-06-25T09:00:15Z</time>
      </trkpt>
      <trkpt lat="45.20333" lon="4.03421">
        <ele>543.76281738281</ele>
        <time>2013-06-25T09:00:28Z</time>
      </trkpt>
      <trkpt lat="45.20342" lon="4.03354">
        <ele>545.685546875</ele>
        <time>2013-06-25T09:00:42Z</time>
      </trkpt>
      <trkpt lat="45.20346" lon="4.03306">
        <ele>548.0888671875</ele>
        <time>2013-06-25T09:00:54Z</time>
      </trkpt>
      <trkpt lat="45.20368" lon="4.03293">
        <ele>555.779296875</ele>
        <time>2013-06-25T09:01:05Z</time>
      </trkpt>
      <trkpt lat="45.20419" lon="4.03297">
        <ele>552.89526367188</ele>
        <time>2013-06-25T09:01:22Z</time>
      </trkpt>
      <trkpt lat="45.20487" lon="4.03266">
        <ele>552.89526367188</ele>
        <time>2013-06-25T09:01:39Z</time>
      </trkpt>
      <trkpt lat="45.20556" lon="4.03252">
        <ele>556.74072265625</ele>
        <time>2013-06-25T09:01:58Z</time>
      </trkpt>
      <trkpt lat="45.20609" lon="4.03225">
        <ele>556.74072265625</ele>
        <time>2013-06-25T09:02:11Z</time>
      </trkpt>
      <trkpt lat="45.20702" lon="4.03172">
        <ele>557.7021484375</ele>
        <time>2013-06-25T09:02:33Z</time>
      </trkpt>
      <trkpt lat="45.20736" lon="4.03155">
        <ele>558.66333007812</ele>
        <time>2013-06-25T09:02:41Z</time>
      </trkpt>
      <trkpt lat="45.2082" lon="4.03111">
        <ele>562.02807617188</ele>
        <time>2013-06-25T09:03:02Z</time>
      </trkpt>
      <trkpt lat="45.20907" lon="4.03065">
        <ele>566.83447265625</ele>
        <time>2013-06-25T09:03:27Z</time>
      </trkpt>
      <trkpt lat="45.20982" lon="4.03026">
        <ele>572.6025390625</ele>
        <time>2013-06-25T09:03:48Z</time>
      </trkpt>
      <trkpt lat="45.21057" lon="4.02982">
        <ele>576.92846679688</ele>
        <time>2013-06-25T09:04:10Z</time>
      </trkpt>
      <trkpt lat="45.21117" lon="4.02919">
        <ele>580.77368164062</ele>
        <time>2013-06-25T09:04:30Z</time>
      </trkpt>
      <trkpt lat="45.21173" lon="4.02835">
        <ele>585.099609375</ele>
        <time>2013-06-25T09:04:53Z</time>
      </trkpt>
      <trkpt lat="45.2122" lon="4.02844">
        <ele>587.02197265625</ele>
        <time>2013-06-25T09:05:07Z</time>
      </trkpt>
      <trkpt lat="45.21275" lon="4.02895">
        <ele>590.38696289062</ele>
        <time>2013-06-25T09:05:25Z</time>
      </trkpt>
      <trkpt lat="45.21333" lon="4.0292">
        <ele>593.75146484375</ele>
        <time>2013-06-25T09:05:42Z</time>
      </trkpt>
      <trkpt lat="45.21367" lon="4.02886">
        <ele>597.11596679688</ele>
        <time>2013-06-25T09:05:55Z</time>
      </trkpt>
      <trkpt lat="45.21383" lon="4.0282">
        <ele>600.96118164062</ele>
        <time>2013-06-25T09:06:09Z</time>
      </trkpt>
      <trkpt lat="45.21403" lon="4.02692">
        <ele>606.24853515625</ele>
        <time>2013-06-25T09:06:35Z</time>
      </trkpt>
      <trkpt lat="45.21425" lon="4.02574">
        <ele>611.53588867188</ele>
        <time>2013-06-25T09:07:00Z</time>
      </trkpt>
      <trkpt lat="45.21463" lon="4.02521">
        <ele>615.38110351562</ele>
        <time>2013-06-25T09:07:16Z</time>
      </trkpt>
      <trkpt lat="45.21497" lon="4.02484">
        <ele>617.7841796875</ele>
        <time>2013-06-25T09:07:29Z</time>
      </trkpt>
      <trkpt lat="45.2154" lon="4.02443">
        <ele>623.07177734375</ele>
        <time>2013-06-25T09:07:45Z</time>
      </trkpt>
      <trkpt lat="45.21623" lon="4.02383">
        <ele>629.80078125</ele>
        <time>2013-06-25T09:08:12Z</time>
      </trkpt>
      <trkpt lat="45.21701" lon="4.02313">
        <ele>636.04956054688</ele>
        <time>2013-06-25T09:08:37Z</time>
      </trkpt>
      <trkpt lat="45.21778" lon="4.0223">
        <ele>641.8173828125</ele>
        <time>2013-06-25T09:09:05Z</time>
      </trkpt>
      <trkpt lat="45.21838" lon="4.0219">
        <ele>643.25927734375</ele>
        <time>2013-06-25T09:09:23Z</time>
      </trkpt>
      <trkpt lat="45.21914" lon="4.02189">
        <ele>645.18188476562</ele>
        <time>2013-06-25T09:09:43Z</time>
      </trkpt>
      <trkpt lat="45.21999" lon="4.02226">
        <ele>649.02709960938</ele>
        <time>2013-06-25T09:10:05Z</time>
      </trkpt>
      <trkpt lat="45.22063" lon="4.02289">
        <ele>653.35327148438</ele>
        <time>2013-06-25T09:10:25Z</time>
      </trkpt>
      <trkpt lat="45.22107" lon="4.02396">
        <ele>656.23706054688</ele>
        <time>2013-06-25T09:10:47Z</time>
      </trkpt>
      <trkpt lat="45.22161" lon="4.02517">
        <ele>659.12109375</ele>
        <time>2013-06-25T09:11:13Z</time>
      </trkpt>
      <trkpt lat="45.22221" lon="4.02584">
        <ele>661.5244140625</ele>
        <time>2013-06-25T09:11:32Z</time>
      </trkpt>
      <trkpt lat="45.22308" lon="4.02673">
        <ele>666.8115234375</ele>
        <time>2013-06-25T09:11:59Z</time>
      </trkpt>
      <trkpt lat="45.22379" lon="4.02757">
        <ele>670.17626953125</ele>
        <time>2013-06-25T09:12:21Z</time>
      </trkpt>
      <trkpt lat="45.22442" lon="4.02895">
        <ele>671.6181640625</ele>
        <time>2013-06-25T09:12:43Z</time>
      </trkpt>
      <trkpt lat="45.22508" lon="4.03088">
        <ele>671.1376953125</ele>
        <time>2013-06-25T09:13:09Z</time>
      </trkpt>
      <trkpt lat="45.22575" lon="4.03266">
        <ele>667.77270507812</ele>
        <time>2013-06-25T09:13:31Z</time>
      </trkpt>
      <trkpt lat="45.22612" lon="4.03418">
        <ele>663.44702148438</ele>
        <time>2013-06-25T09:13:45Z</time>
      </trkpt>
      <trkpt lat="45.22601" lon="4.03563">
        <ele>663.44702148438</ele>
        <time>2013-06-25T09:13:58Z</time>
      </trkpt>
      <trkpt lat="45.22569" lon="4.0367">
        <ele>667.29223632812</ele>
        <time>2013-06-25T09:14:12Z</time>
      </trkpt>
      <trkpt lat="45.22515" lon="4.03826">
        <ele>673.541015625</ele>
        <time>2013-06-25T09:14:34Z</time>
      </trkpt>
      <trkpt lat="45.22458" lon="4.03992">
        <ele>680.27001953125</ele>
        <time>2013-06-25T09:15:01Z</time>
      </trkpt>
      <trkpt lat="45.22459" lon="4.04097">
        <ele>681.7119140625</ele>
        <time>2013-06-25T09:15:16Z</time>
      </trkpt>
      <trkpt lat="45.22503" lon="4.04169">
        <ele>683.15380859375</ele>
        <time>2013-06-25T09:15:30Z</time>
      </trkpt>
      <trkpt lat="45.22509" lon="4.04177">
        <ele>683.15380859375</ele>
        <time>2013-06-25T09:15:32Z</time>
      </trkpt>
      <trkpt lat="45.22609" lon="4.04218">
        <ele>686.0380859375</ele>
        <time>2013-06-25T09:15:52Z</time>
      </trkpt>
      <trkpt lat="45.22684" lon="4.04272">
        <ele>688.44140625</ele>
        <time>2013-06-25T09:16:09Z</time>
      </trkpt>
      <trkpt lat="45.22691" lon="4.04283">
        <ele>688.44140625</ele>
        <time>2013-06-25T09:16:11Z</time>
      </trkpt>
      <trkpt lat="45.22708" lon="4.04344">
        <ele>689.88330078125</ele>
        <time>2013-06-25T09:16:20Z</time>
      </trkpt>
      <trkpt lat="45.22711" lon="4.04387">
        <ele>690.84448242188</ele>
        <time>2013-06-25T09:16:26Z</time>
      </trkpt>
      <trkpt lat="45.22711" lon="4.04409">
        <ele>691.3251953125</ele>
        <time>2013-06-25T09:16:29Z</time>
      </trkpt>
      <trkpt lat="45.2266" lon="4.04558">
        <ele>692.76733398438</ele>
        <time>2013-06-25T09:16:49Z</time>
      </trkpt>
      <trkpt lat="45.22612" lon="4.04741">
        <ele>694.20922851562</ele>
        <time>2013-06-25T09:17:13Z</time>
      </trkpt>
      <trkpt lat="45.22627" lon="4.04866">
        <ele>693.24780273438</ele>
        <time>2013-06-25T09:17:27Z</time>
      </trkpt>
      <trkpt lat="45.22668" lon="4.05033">
        <ele>692.28662109375</ele>
        <time>2013-06-25T09:17:44Z</time>
      </trkpt>
      <trkpt lat="45.22663" lon="4.05223">
        <ele>692.28662109375</ele>
        <time>2013-06-25T09:18:01Z</time>
      </trkpt>
      <trkpt lat="45.22657" lon="4.0552">
        <ele>689.88330078125</ele>
        <time>2013-06-25T09:18:26Z</time>
      </trkpt>
      <trkpt lat="45.22664" lon="4.05567">
        <ele>690.36401367188</ele>
        <time>2013-06-25T09:18:30Z</time>
      </trkpt>
      <trkpt lat="45.2272" lon="4.05679">
        <ele>687.96069335938</ele>
        <time>2013-06-25T09:18:41Z</time>
      </trkpt>
      <trkpt lat="45.22823" lon="4.05772">
        <ele>682.67333984375</ele>
        <time>2013-06-25T09:18:53Z</time>
      </trkpt>
      <trkpt lat="45.22943" lon="4.05904">
        <ele>676.90551757812</ele>
        <time>2013-06-25T09:19:06Z</time>
      </trkpt>
      <trkpt lat="45.23058" lon="4.06066">
        <ele>672.57958984375</ele>
        <time>2013-06-25T09:19:21Z</time>
      </trkpt>
      <trkpt lat="45.23094" lon="4.06155">
        <ele>670.65698242188</ele>
        <time>2013-06-25T09:19:28Z</time>
      </trkpt>
      <trkpt lat="45.2311" lon="4.06287">
        <ele>669.21508789062</ele>
        <time>2013-06-25T09:19:37Z</time>
      </trkpt>
      <trkpt lat="45.2314" lon="4.0639">
        <ele>666.33081054688</ele>
        <time>2013-06-25T09:19:45Z</time>
      </trkpt>
      <trkpt lat="45.23203" lon="4.06428">
        <ele>665.85034179688</ele>
        <time>2013-06-25T09:19:52Z</time>
      </trkpt>
      <trkpt lat="45.23372" lon="4.06451">
        <ele>664.88891601562</ele>
        <time>2013-06-25T09:20:10Z</time>
      </trkpt>
      <trkpt lat="45.23504" lon="4.06489">
        <ele>661.5244140625</ele>
        <time>2013-06-25T09:20:24Z</time>
      </trkpt>
      <trkpt lat="45.23581" lon="4.06542">
        <ele>661.04370117188</ele>
        <time>2013-06-25T09:20:33Z</time>
      </trkpt>
      <trkpt lat="45.23706" lon="4.06694">
        <ele>655.75659179688</ele>
        <time>2013-06-25T09:20:49Z</time>
      </trkpt>
      <trkpt lat="45.23802" lon="4.06865">
        <ele>651.43041992188</ele>
        <time>2013-06-25T09:21:03Z</time>
      </trkpt>
      <trkpt lat="45.23877" lon="4.07088">
        <ele>649.02709960938</ele>
        <time>2013-06-25T09:21:20Z</time>
      </trkpt>
      <trkpt lat="45.23963" lon="4.07323">
        <ele>647.1044921875</ele>
        <time>2013-06-25T09:21:39Z</time>
      </trkpt>
      <trkpt lat="45.24048" lon="4.07552">
        <ele>641.8173828125</ele>
        <time>2013-06-25T09:21:57Z</time>
      </trkpt>
      <trkpt lat="45.24125" lon="4.07792">
        <ele>635.08813476562</ele>
        <time>2013-06-25T09:22:15Z</time>
      </trkpt>
      <trkpt lat="45.24213" lon="4.07971">
        <ele>627.87817382812</ele>
        <time>2013-06-25T09:22:29Z</time>
      </trkpt>
      <trkpt lat="45.24252" lon="4.08122">
        <ele>623.07177734375</ele>
        <time>2013-06-25T09:22:39Z</time>
      </trkpt>
      <trkpt lat="45.24248" lon="4.08284">
        <ele>619.22631835938</ele>
        <time>2013-06-25T09:22:50Z</time>
      </trkpt>
      <trkpt lat="45.2426" lon="4.08431">
        <ele>617.3037109375</ele>
        <time>2013-06-25T09:23:01Z</time>
      </trkpt>
      <trkpt lat="45.24316" lon="4.08547">
        <ele>614.41967773438</ele>
        <time>2013-06-25T09:23:12Z</time>
      </trkpt>
      <trkpt lat="45.244" lon="4.08646">
        <ele>611.05517578125</ele>
        <time>2013-06-25T09:23:23Z</time>
      </trkpt>
      <trkpt lat="45.2447" lon="4.08792">
        <ele>607.2099609375</ele>
        <time>2013-06-25T09:23:35Z</time>
      </trkpt>
      <trkpt lat="45.2458" lon="4.09106">
        <ele>597.11596679688</ele>
        <time>2013-06-25T09:24:00Z</time>
      </trkpt>
      <trkpt lat="45.24668" lon="4.09312">
        <ele>591.34814453125</ele>
        <time>2013-06-25T09:24:19Z</time>
      </trkpt>
      <trkpt lat="45.24762" lon="4.09459">
        <ele>590.38696289062</ele>
        <time>2013-06-25T09:24:37Z</time>
      </trkpt>
      <trkpt lat="45.24845" lon="4.09555">
        <ele>592.3095703125</ele>
        <time>2013-06-25T09:24:53Z</time>
      </trkpt>
      <trkpt lat="45.24962" lon="4.09639">
        <ele>590.38696289062</ele>
        <time>2013-06-25T09:25:11Z</time>
      </trkpt>
      <trkpt lat="45.25076" lon="4.09725">
        <ele>584.13818359375</ele>
        <time>2013-06-25T09:25:25Z</time>
      </trkpt>
      <trkpt lat="45.25209" lon="4.09851">
        <ele>580.29296875</ele>
        <time>2013-06-25T09:25:41Z</time>
      </trkpt>
      <trkpt lat="45.25213" lon="4.09854">
        <ele>579.81225585938</ele>
        <time>2013-06-25T09:25:42Z</time>
      </trkpt>
      <trkpt lat="45.25267" lon="4.09877">
        <ele>578.37036132812</ele>
        <time>2013-06-25T09:25:47Z</time>
      </trkpt>
      <trkpt lat="45.25451" lon="4.099">
        <ele>574.04443359375</ele>
        <time>2013-06-25T09:26:05Z</time>
      </trkpt>
      <trkpt lat="45.25635" lon="4.09914">
        <ele>566.83447265625</ele>
        <time>2013-06-25T09:26:24Z</time>
      </trkpt>
      <trkpt lat="45.25741" lon="4.09927">
        <ele>561.54736328125</ele>
        <time>2013-06-25T09:26:37Z</time>
      </trkpt>
      <trkpt lat="45.25814" lon="4.09931">
        <ele>558.18286132812</ele>
        <time>2013-06-25T09:26:45Z</time>
      </trkpt>
      <trkpt lat="45.25915" lon="4.09936">
        <ele>554.33740234375</ele>
        <time>2013-06-25T09:26:57Z</time>
      </trkpt>
      <trkpt lat="45.25942" lon="4.09956">
        <ele>553.85668945312</ele>
        <time>2013-06-25T09:27:02Z</time>
      </trkpt>
      <trkpt lat="45.25964" lon="4.09987">
        <ele>553.85668945312</ele>
        <time>2013-06-25T09:27:06Z</time>
      </trkpt>
      <trkpt lat="45.25983" lon="4.10019">
        <ele>553.85668945312</ele>
        <time>2013-06-25T09:27:10Z</time>
      </trkpt>
      <trkpt lat="45.25985" lon="4.10022">
        <ele>553.85668945312</ele>
        <time>2013-06-25T09:27:12Z</time>
      </trkpt>
      <trkpt lat="45.26022" lon="4.10054">
        <ele>554.81787109375</ele>
        <time>2013-06-25T09:27:16Z</time>
      </trkpt>
      <trkpt lat="45.2605" lon="4.10079">
        <ele>555.779296875</ele>
        <time>2013-06-25T09:27:21Z</time>
      </trkpt>
      <trkpt lat="45.26055" lon="4.10092">
        <ele>556.26000976562</ele>
        <time>2013-06-25T09:27:23Z</time>
      </trkpt>
      <trkpt lat="45.26071" lon="4.10137">
        <ele>557.7021484375</ele>
        <time>2013-06-25T09:27:31Z</time>
      </trkpt>
      <trkpt lat="45.261" lon="4.10193">
        <ele>557.7021484375</ele>
        <time>2013-06-25T09:27:41Z</time>
      </trkpt>
      <trkpt lat="45.26166" lon="4.10282">
        <ele>554.81787109375</ele>
        <time>2013-06-25T09:27:54Z</time>
      </trkpt>
      <trkpt lat="45.26264" lon="4.10435">
        <ele>554.81787109375</ele>
        <time>2013-06-25T09:28:13Z</time>
      </trkpt>
      <trkpt lat="45.26287" lon="4.10483">
        <ele>556.74072265625</ele>
        <time>2013-06-25T09:28:20Z</time>
      </trkpt>
      <trkpt lat="45.26333" lon="4.10609">
        <ele>562.02807617188</ele>
        <time>2013-06-25T09:28:40Z</time>
      </trkpt>
      <trkpt lat="45.26393" lon="4.1076">
        <ele>562.9892578125</ele>
        <time>2013-06-25T09:29:02Z</time>
      </trkpt>
      <trkpt lat="45.26488" lon="4.10926">
        <ele>562.02807617188</ele>
        <time>2013-06-25T09:29:25Z</time>
      </trkpt>
      <trkpt lat="45.26578" lon="4.11008">
        <ele>557.22143554688</ele>
        <time>2013-06-25T09:29:39Z</time>
      </trkpt>
      <trkpt lat="45.26768" lon="4.11135">
        <ele>549.05004882812</ele>
        <time>2013-06-25T09:30:02Z</time>
      </trkpt>
      <trkpt lat="45.26901" lon="4.11248">
        <ele>543.28210449219</ele>
        <time>2013-06-25T09:30:19Z</time>
      </trkpt>
      <trkpt lat="45.26999" lon="4.11356">
        <ele>540.87890625</ele>
        <time>2013-06-25T09:30:35Z</time>
      </trkpt>
      <trkpt lat="45.27073" lon="4.11368">
        <ele>541.35949707031</ele>
        <time>2013-06-25T09:30:45Z</time>
      </trkpt>
      <trkpt lat="45.27188" lon="4.11341">
        <ele>542.80151367188</ele>
        <time>2013-06-25T09:31:02Z</time>
      </trkpt>
      <trkpt lat="45.2729" lon="4.11282">
        <ele>539.43688964844</ele>
        <time>2013-06-25T09:31:16Z</time>
      </trkpt>
      <trkpt lat="45.27328" lon="4.11251">
        <ele>537.03369140625</ele>
        <time>2013-06-25T09:31:21Z</time>
      </trkpt>
      <trkpt lat="45.27422" lon="4.11236">
        <ele>532.22705078125</ele>
        <time>2013-06-25T09:31:31Z</time>
      </trkpt>
      <trkpt lat="45.27499" lon="4.11248">
        <ele>528.3818359375</ele>
        <time>2013-06-25T09:31:39Z</time>
      </trkpt>
      <trkpt lat="45.27536" lon="4.11242">
        <ele>527.42041015625</ele>
        <time>2013-06-25T09:31:43Z</time>
      </trkpt>
      <trkpt lat="45.27741" lon="4.11187">
        <ele>518.7685546875</ele>
        <time>2013-06-25T09:32:04Z</time>
      </trkpt>
      <trkpt lat="45.27893" lon="4.11163">
        <ele>511.55871582031</ele>
        <time>2013-06-25T09:32:18Z</time>
      </trkpt>
      <trkpt lat="45.27971" lon="4.11147">
        <ele>506.271484375</ele>
        <time>2013-06-25T09:32:25Z</time>
      </trkpt>
      <trkpt lat="45.28049" lon="4.11086">
        <ele>499.0615234375</ele>
        <time>2013-06-25T09:32:34Z</time>
      </trkpt>
      <trkpt lat="45.28169" lon="4.10985">
        <ele>491.37097167969</ele>
        <time>2013-06-25T09:32:44Z</time>
      </trkpt>
      <trkpt lat="45.28263" lon="4.11004">
        <ele>484.64184570312</ele>
        <time>2013-06-25T09:32:52Z</time>
      </trkpt>
      <trkpt lat="45.28303" lon="4.1105">
        <ele>481.27722167969</ele>
        <time>2013-06-25T09:32:56Z</time>
      </trkpt>
      <trkpt lat="45.28383" lon="4.11174">
        <ele>473.10607910156</ele>
        <time>2013-06-25T09:33:05Z</time>
      </trkpt>
      <trkpt lat="45.2842" lon="4.11236">
        <ele>469.74133300781</ele>
        <time>2013-06-25T09:33:10Z</time>
      </trkpt>
      <trkpt lat="45.28474" lon="4.11384">
        <ele>463.97338867188</ele>
        <time>2013-06-25T09:33:20Z</time>
      </trkpt>
      <trkpt lat="45.28529" lon="4.1142">
        <ele>460.60876464844</ele>
        <time>2013-06-25T09:33:26Z</time>
      </trkpt>
      <trkpt lat="45.28549" lon="4.11411">
        <ele>460.12817382812</ele>
        <time>2013-06-25T09:33:28Z</time>
      </trkpt>
      <trkpt lat="45.28615" lon="4.1137">
        <ele>459.64758300781</ele>
        <time>2013-06-25T09:33:35Z</time>
      </trkpt>
      <trkpt lat="45.28659" lon="4.11369">
        <ele>462.05078125</ele>
        <time>2013-06-25T09:33:40Z</time>
      </trkpt>
      <trkpt lat="45.28749" lon="4.11402">
        <ele>466.857421875</ele>
        <time>2013-06-25T09:33:55Z</time>
      </trkpt>
      <trkpt lat="45.28836" lon="4.11433">
        <ele>470.70263671875</ele>
        <time>2013-06-25T09:34:13Z</time>
      </trkpt>
      <trkpt lat="45.28954" lon="4.11476">
        <ele>474.06726074219</ele>
        <time>2013-06-25T09:34:38Z</time>
      </trkpt>
      <trkpt lat="45.29016" lon="4.11504">
        <ele>476.47058105469</ele>
        <time>2013-06-25T09:34:52Z</time>
      </trkpt>
      <trkpt lat="45.29054" lon="4.11547">
        <ele>477.43188476562</ele>
        <time>2013-06-25T09:35:02Z</time>
      </trkpt>
      <trkpt lat="45.29058" lon="4.11554">
        <ele>476.95129394531</ele>
        <time>2013-06-25T09:35:06Z</time>
      </trkpt>
      <trkpt lat="45.29058" lon="4.11554">
        <ele>476.95129394531</ele>
        <time>2013-06-25T09:35:10Z</time>
      </trkpt>
      <trkpt lat="45.29124" lon="4.11711">
        <ele>473.10607910156</ele>
        <time>2013-06-25T09:35:24Z</time>
      </trkpt>
      <trkpt lat="45.29185" lon="4.1176">
        <ele>470.22192382812</ele>
        <time>2013-06-25T09:35:34Z</time>
      </trkpt>
      <trkpt lat="45.292" lon="4.1176">
        <ele>469.74133300781</ele>
        <time>2013-06-25T09:35:36Z</time>
      </trkpt>
      <trkpt lat="45.29343" lon="4.11739">
        <ele>463.97338867188</ele>
        <time>2013-06-25T09:35:53Z</time>
      </trkpt>
      <trkpt lat="45.2938" lon="4.11724">
        <ele>461.08947753906</ele>
        <time>2013-06-25T09:35:57Z</time>
      </trkpt>
      <trkpt lat="45.2942" lon="4.11721">
        <ele>459.16687011719</ele>
        <time>2013-06-25T09:36:01Z</time>
      </trkpt>
      <trkpt lat="45.29486" lon="4.11729">
        <ele>454.8408203125</ele>
        <time>2013-06-25T09:36:07Z</time>
      </trkpt>
      <trkpt lat="45.29564" lon="4.11709">
        <ele>453.39892578125</ele>
        <time>2013-06-25T09:36:15Z</time>
      </trkpt>
      <trkpt lat="45.2959" lon="4.11709">
        <ele>454.36022949219</ele>
        <time>2013-06-25T09:36:20Z</time>
      </trkpt>
      <trkpt lat="45.29615" lon="4.11697">
        <ele>453.39892578125</ele>
        <time>2013-06-25T09:36:25Z</time>
      </trkpt>
      <trkpt lat="45.29705" lon="4.11637">
        <ele>453.87963867188</ele>
        <time>2013-06-25T09:36:42Z</time>
      </trkpt>
      <trkpt lat="45.29717" lon="4.11631">
        <ele>453.87963867188</ele>
        <time>2013-06-25T09:36:44Z</time>
      </trkpt>
      <trkpt lat="45.2982" lon="4.11599">
        <ele>454.8408203125</ele>
        <time>2013-06-25T09:37:02Z</time>
      </trkpt>
      <trkpt lat="45.29938" lon="4.11564">
        <ele>452.91821289062</ele>
        <time>2013-06-25T09:37:20Z</time>
      </trkpt>
      <trkpt lat="45.30068" lon="4.11542">
        <ele>450.51501464844</ele>
        <time>2013-06-25T09:37:40Z</time>
      </trkpt>
      <trkpt lat="45.30187" lon="4.1154">
        <ele>451.95703125</ele>
        <time>2013-06-25T09:37:59Z</time>
      </trkpt>
      <trkpt lat="45.30364" lon="4.1153">
        <ele>452.91821289062</ele>
        <time>2013-06-25T09:38:27Z</time>
      </trkpt>
      <trkpt lat="45.30454" lon="4.11505">
        <ele>451.95703125</ele>
        <time>2013-06-25T09:38:42Z</time>
      </trkpt>
      <trkpt lat="45.30517" lon="4.11473">
        <ele>451.95703125</ele>
        <time>2013-06-25T09:38:55Z</time>
      </trkpt>
      <trkpt lat="45.30526" lon="4.11468">
        <ele>451.47631835938</ele>
        <time>2013-06-25T09:38:59Z</time>
      </trkpt>
      <trkpt lat="45.30555" lon="4.11456">
        <ele>450.99560546875</ele>
        <time>2013-06-25T09:39:09Z</time>
      </trkpt>
      <trkpt lat="45.30573" lon="4.1144">
        <ele>450.51501464844</ele>
        <time>2013-06-25T09:39:15Z</time>
      </trkpt>
      <trkpt lat="45.30568" lon="4.11444">
        <ele>450.03442382812</ele>
        <time>2013-06-25T09:39:24Z</time>
      </trkpt>
      <trkpt lat="45.30568" lon="4.11444">
        <ele>449.5537109375</ele>
        <time>2013-06-25T09:39:38Z</time>
      </trkpt>
      <trkpt lat="45.30568" lon="4.11444">
        <ele>449.07299804688</ele>
        <time>2013-06-25T09:41:03Z</time>
      </trkpt>
      <trkpt lat="45.30571" lon="4.11463">
        <ele>448.11181640625</ele>
        <time>2013-06-25T10:27:45Z</time>
      </trkpt>
      <trkpt lat="45.30571" lon="4.11457">
        <ele>448.11181640625</ele>
        <time>2013-06-25T10:28:48Z</time>
      </trkpt>
      <trkpt lat="45.3057" lon="4.11457">
        <ele>447.15026855469</ele>
        <time>2013-06-25T10:29:00Z</time>
      </trkpt>
      <trkpt lat="45.3057" lon="4.11458">
        <ele>448.11181640625</ele>
        <time>2013-06-25T10:29:16Z</time>
      </trkpt>
      <trkpt lat="45.30571" lon="4.11462">
        <ele>447.63098144531</ele>
        <time>2013-06-25T10:29:37Z</time>
      </trkpt>
      <trkpt lat="45.30572" lon="4.11456">
        <ele>448.59240722656</ele>
        <time>2013-06-25T10:30:30Z</time>
      </trkpt>
      <trkpt lat="45.30574" lon="4.1145">
        <ele>448.11181640625</ele>
        <time>2013-06-25T10:30:49Z</time>
      </trkpt>
      <trkpt lat="45.30574" lon="4.1145">
        <ele>448.11181640625</ele>
        <time>2013-06-25T10:31:02Z</time>
      </trkpt>
      <trkpt lat="45.30581" lon="4.1144">
        <ele>448.11181640625</ele>
        <time>2013-06-25T10:31:20Z</time>
      </trkpt>
      <trkpt lat="45.30616" lon="4.11403">
        <ele>449.07299804688</ele>
        <time>2013-06-25T10:31:35Z</time>
      </trkpt>
      <trkpt lat="45.30687" lon="4.11348">
        <ele>450.51501464844</ele>
        <time>2013-06-25T10:31:56Z</time>
      </trkpt>
      <trkpt lat="45.3077" lon="4.11308">
        <ele>451.95703125</ele>
        <time>2013-06-25T10:32:17Z</time>
      </trkpt>
      <trkpt lat="45.30813" lon="4.11296">
        <ele>451.95703125</ele>
        <time>2013-06-25T10:32:33Z</time>
      </trkpt>
      <trkpt lat="45.30915" lon="4.11292">
        <ele>452.43762207031</ele>
        <time>2013-06-25T10:32:51Z</time>
      </trkpt>
      <trkpt lat="45.30993" lon="4.11308">
        <ele>453.39892578125</ele>
        <time>2013-06-25T10:33:10Z</time>
      </trkpt>
      <trkpt lat="45.31063" lon="4.11337">
        <ele>453.87963867188</ele>
        <time>2013-06-25T10:33:27Z</time>
      </trkpt>
      <trkpt lat="45.31144" lon="4.1137">
        <ele>453.87963867188</ele>
        <time>2013-06-25T10:33:48Z</time>
      </trkpt>
      <trkpt lat="45.31146" lon="4.11371">
        <ele>454.36022949219</ele>
        <time>2013-06-25T10:33:58Z</time>
      </trkpt>
      <trkpt lat="45.31167" lon="4.1138">
        <ele>453.87963867188</ele>
        <time>2013-06-25T10:34:40Z</time>
      </trkpt>
      <trkpt lat="45.31225" lon="4.11409">
        <ele>453.39892578125</ele>
        <time>2013-06-25T10:34:53Z</time>
      </trkpt>
      <trkpt lat="45.31396" lon="4.1152">
        <ele>448.59240722656</ele>
        <time>2013-06-25T10:35:25Z</time>
      </trkpt>
      <trkpt lat="45.31509" lon="4.116">
        <ele>448.59240722656</ele>
        <time>2013-06-25T10:35:47Z</time>
      </trkpt>
      <trkpt lat="45.31644" lon="4.11696">
        <ele>450.99560546875</ele>
        <time>2013-06-25T10:36:17Z</time>
      </trkpt>
      <trkpt lat="45.31739" lon="4.11782">
        <ele>449.5537109375</ele>
        <time>2013-06-25T10:36:39Z</time>
      </trkpt>
      <trkpt lat="45.31833" lon="4.11883">
        <ele>449.5537109375</ele>
        <time>2013-06-25T10:37:02Z</time>
      </trkpt>
      <trkpt lat="45.31936" lon="4.11993">
        <ele>450.03442382812</ele>
        <time>2013-06-25T10:37:27Z</time>
      </trkpt>
      <trkpt lat="45.3204" lon="4.12104">
        <ele>450.03442382812</ele>
        <time>2013-06-25T10:37:52Z</time>
      </trkpt>
      <trkpt lat="45.32139" lon="4.12208">
        <ele>451.95703125</ele>
        <time>2013-06-25T10:38:16Z</time>
      </trkpt>
      <trkpt lat="45.32213" lon="4.12292">
        <ele>453.87963867188</ele>
        <time>2013-06-25T10:38:37Z</time>
      </trkpt>
      <trkpt lat="45.32294" lon="4.12395">
        <ele>454.8408203125</ele>
        <time>2013-06-25T10:39:00Z</time>
      </trkpt>
      <trkpt lat="45.32372" lon="4.12505">
        <ele>455.32153320312</ele>
        <time>2013-06-25T10:39:21Z</time>
      </trkpt>
      <trkpt lat="45.32444" lon="4.12627">
        <ele>458.68615722656</ele>
        <time>2013-06-25T10:39:43Z</time>
      </trkpt>
      <trkpt lat="45.32521" lon="4.12783">
        <ele>459.64758300781</ele>
        <time>2013-06-25T10:40:13Z</time>
      </trkpt>
      <trkpt lat="45.32578" lon="4.12924">
        <ele>463.01208496094</ele>
        <time>2013-06-25T10:40:38Z</time>
      </trkpt>
      <trkpt lat="45.32621" lon="4.1306">
        <ele>466.37670898438</ele>
        <time>2013-06-25T10:41:01Z</time>
      </trkpt>
      <trkpt lat="45.3266" lon="4.13183">
        <ele>468.78002929688</ele>
        <time>2013-06-25T10:41:21Z</time>
      </trkpt>
      <trkpt lat="45.32695" lon="4.13347">
        <ele>469.74133300781</ele>
        <time>2013-06-25T10:41:45Z</time>
      </trkpt>
      <trkpt lat="45.32716" lon="4.13505">
        <ele>472.62536621094</ele>
        <time>2013-06-25T10:42:08Z</time>
      </trkpt>
      <trkpt lat="45.32755" lon="4.13655">
        <ele>475.98986816406</ele>
        <time>2013-06-25T10:42:31Z</time>
      </trkpt>
      <trkpt lat="45.3281" lon="4.13743">
        <ele>478.87390136719</ele>
        <time>2013-06-25T10:42:49Z</time>
      </trkpt>
      <trkpt lat="45.32873" lon="4.13792">
        <ele>480.31591796875</ele>
        <time>2013-06-25T10:43:07Z</time>
      </trkpt>
      <trkpt lat="45.3297" lon="4.13843">
        <ele>483.68041992188</ele>
        <time>2013-06-25T10:43:32Z</time>
      </trkpt>
      <trkpt lat="45.33042" lon="4.13918">
        <ele>483.19982910156</ele>
        <time>2013-06-25T10:43:51Z</time>
      </trkpt>
      <trkpt lat="45.33105" lon="4.14009">
        <ele>481.27722167969</ele>
        <time>2013-06-25T10:44:08Z</time>
      </trkpt>
      <trkpt lat="45.33161" lon="4.14069">
        <ele>477.43188476562</ele>
        <time>2013-06-25T10:44:18Z</time>
      </trkpt>
      <trkpt lat="45.33266" lon="4.14113">
        <ele>470.70263671875</ele>
        <time>2013-06-25T10:44:32Z</time>
      </trkpt>
      <trkpt lat="45.33439" lon="4.14178">
        <ele>463.97338867188</ele>
        <time>2013-06-25T10:44:51Z</time>
      </trkpt>
      <trkpt lat="45.33456" lon="4.14187">
        <ele>463.01208496094</ele>
        <time>2013-06-25T10:44:53Z</time>
      </trkpt>
      <trkpt lat="45.33534" lon="4.14256">
        <ele>461.57019042969</ele>
        <time>2013-06-25T10:45:06Z</time>
      </trkpt>
      <trkpt lat="45.33571" lon="4.1436">
        <ele>462.53137207031</ele>
        <time>2013-06-25T10:45:20Z</time>
      </trkpt>
      <trkpt lat="45.33576" lon="4.14459">
        <ele>468.78002929688</ele>
        <time>2013-06-25T10:45:34Z</time>
      </trkpt>
      <trkpt lat="45.3356" lon="4.1455">
        <ele>475.02868652344</ele>
        <time>2013-06-25T10:45:52Z</time>
      </trkpt>
      <trkpt lat="45.33534" lon="4.14665">
        <ele>480.79663085938</ele>
        <time>2013-06-25T10:46:19Z</time>
      </trkpt>
      <trkpt lat="45.33501" lon="4.14795">
        <ele>486.08374023438</ele>
        <time>2013-06-25T10:46:44Z</time>
      </trkpt>
      <trkpt lat="45.33467" lon="4.1495">
        <ele>490.89038085938</ele>
        <time>2013-06-25T10:47:16Z</time>
      </trkpt>
      <trkpt lat="45.3347" lon="4.15056">
        <ele>492.81298828125</ele>
        <time>2013-06-25T10:47:36Z</time>
      </trkpt>
      <trkpt lat="45.33505" lon="4.15165">
        <ele>494.25500488281</ele>
        <time>2013-06-25T10:47:57Z</time>
      </trkpt>
      <trkpt lat="45.33513" lon="4.1518">
        <ele>494.25500488281</ele>
        <time>2013-06-25T10:48:00Z</time>
      </trkpt>
      <trkpt lat="45.33589" lon="4.15298">
        <ele>494.25500488281</ele>
        <time>2013-06-25T10:48:25Z</time>
      </trkpt>
      <trkpt lat="45.33667" lon="4.1542">
        <ele>491.85168457031</ele>
        <time>2013-06-25T10:48:48Z</time>
      </trkpt>
      <trkpt lat="45.3375" lon="4.1555">
        <ele>488.00646972656</ele>
        <time>2013-06-25T10:49:08Z</time>
      </trkpt>
      <trkpt lat="45.3382" lon="4.15694">
        <ele>482.71923828125</ele>
        <time>2013-06-25T10:49:24Z</time>
      </trkpt>
      <trkpt lat="45.33829" lon="4.15819">
        <ele>484.1611328125</ele>
        <time>2013-06-25T10:49:35Z</time>
      </trkpt>
      <trkpt lat="45.33823" lon="4.15849">
        <ele>484.1611328125</ele>
        <time>2013-06-25T10:49:38Z</time>
      </trkpt>
      <trkpt lat="45.33769" lon="4.15969">
        <ele>485.12243652344</ele>
        <time>2013-06-25T10:49:52Z</time>
      </trkpt>
      <trkpt lat="45.33686" lon="4.16035">
        <ele>482.71923828125</ele>
        <time>2013-06-25T10:50:05Z</time>
      </trkpt>
      <trkpt lat="45.33559" lon="4.16128">
        <ele>477.43188476562</ele>
        <time>2013-06-25T10:50:20Z</time>
      </trkpt>
      <trkpt lat="45.33492" lon="4.16236">
        <ele>468.78002929688</ele>
        <time>2013-06-25T10:50:29Z</time>
      </trkpt>
      <trkpt lat="45.33437" lon="4.16425">
        <ele>460.60876464844</ele>
        <time>2013-06-25T10:50:41Z</time>
      </trkpt>
      <trkpt lat="45.33374" lon="4.16685">
        <ele>451.95703125</ele>
        <time>2013-06-25T10:50:58Z</time>
      </trkpt>
      <trkpt lat="45.33367" lon="4.16837">
        <ele>449.5537109375</ele>
        <time>2013-06-25T10:51:10Z</time>
      </trkpt>
      <trkpt lat="45.33368" lon="4.16961">
        <ele>449.07299804688</ele>
        <time>2013-06-25T10:51:24Z</time>
      </trkpt>
      <trkpt lat="45.33369" lon="4.17077">
        <ele>454.36022949219</ele>
        <time>2013-06-25T10:51:42Z</time>
      </trkpt>
      <trkpt lat="45.33369" lon="4.17174">
        <ele>457.24426269531</ele>
        <time>2013-06-25T10:51:59Z</time>
      </trkpt>
      <trkpt lat="45.3337" lon="4.17265">
        <ele>459.16687011719</ele>
        <time>2013-06-25T10:52:18Z</time>
      </trkpt>
      <trkpt lat="45.33374" lon="4.174">
        <ele>463.49279785156</ele>
        <time>2013-06-25T10:52:45Z</time>
      </trkpt>
      <trkpt lat="45.33358" lon="4.17476">
        <ele>468.29931640625</ele>
        <time>2013-06-25T10:53:02Z</time>
      </trkpt>
      <trkpt lat="45.33336" lon="4.17566">
        <ele>471.18334960938</ele>
        <time>2013-06-25T10:53:24Z</time>
      </trkpt>
      <trkpt lat="45.33313" lon="4.17658">
        <ele>472.62536621094</ele>
        <time>2013-06-25T10:53:45Z</time>
      </trkpt>
      <trkpt lat="45.33294" lon="4.17752">
        <ele>475.98986816406</ele>
        <time>2013-06-25T10:54:05Z</time>
      </trkpt>
      <trkpt lat="45.33298" lon="4.1783">
        <ele>478.87390136719</ele>
        <time>2013-06-25T10:54:23Z</time>
      </trkpt>
      <trkpt lat="45.33332" lon="4.17902">
        <ele>480.31591796875</ele>
        <time>2013-06-25T10:54:41Z</time>
      </trkpt>
      <trkpt lat="45.33395" lon="4.17949">
        <ele>484.64184570312</ele>
        <time>2013-06-25T10:55:01Z</time>
      </trkpt>
      <trkpt lat="45.33447" lon="4.17987">
        <ele>487.52563476562</ele>
        <time>2013-06-25T10:55:19Z</time>
      </trkpt>
      <trkpt lat="45.3348" lon="4.18011">
        <ele>491.85168457031</ele>
        <time>2013-06-25T10:55:32Z</time>
      </trkpt>
      <trkpt lat="45.3353" lon="4.18047">
        <ele>499.0615234375</ele>
        <time>2013-06-25T10:55:50Z</time>
      </trkpt>
      <trkpt lat="45.3358" lon="4.18091">
        <ele>494.25500488281</ele>
        <time>2013-06-25T10:56:10Z</time>
      </trkpt>
      <trkpt lat="45.33612" lon="4.18153">
        <ele>496.65832519531</ele>
        <time>2013-06-25T10:56:29Z</time>
      </trkpt>
      <trkpt lat="45.33636" lon="4.18247">
        <ele>499.0615234375</ele>
        <time>2013-06-25T10:56:53Z</time>
      </trkpt>
      <trkpt lat="45.33659" lon="4.1831">
        <ele>500.98413085938</ele>
        <time>2013-06-25T10:57:10Z</time>
      </trkpt>
      <trkpt lat="45.33717" lon="4.1839">
        <ele>503.38745117188</ele>
        <time>2013-06-25T10:57:35Z</time>
      </trkpt>
      <trkpt lat="45.33767" lon="4.18447">
        <ele>504.34887695312</ele>
        <time>2013-06-25T10:57:55Z</time>
      </trkpt>
      <trkpt lat="45.33814" lon="4.18484">
        <ele>506.271484375</ele>
        <time>2013-06-25T10:58:14Z</time>
      </trkpt>
      <trkpt lat="45.33851" lon="4.18512">
        <ele>508.67468261719</ele>
        <time>2013-06-25T10:58:30Z</time>
      </trkpt>
      <trkpt lat="45.33884" lon="4.18537">
        <ele>511.55871582031</ele>
        <time>2013-06-25T10:58:45Z</time>
      </trkpt>
      <trkpt lat="45.33935" lon="4.18574">
        <ele>510.11669921875</ele>
        <time>2013-06-25T10:59:07Z</time>
      </trkpt>
      <trkpt lat="45.3401" lon="4.18619">
        <ele>516.365234375</ele>
        <time>2013-06-25T10:59:35Z</time>
      </trkpt>
      <trkpt lat="45.34074" lon="4.18639">
        <ele>517.80725097656</ele>
        <time>2013-06-25T10:59:57Z</time>
      </trkpt>
      <trkpt lat="45.34137" lon="4.18621">
        <ele>523.09460449219</ele>
        <time>2013-06-25T11:00:19Z</time>
      </trkpt>
      <trkpt lat="45.34186" lon="4.18572">
        <ele>526.45910644531</ele>
        <time>2013-06-25T11:00:38Z</time>
      </trkpt>
      <trkpt lat="45.34234" lon="4.185">
        <ele>528.86254882812</ele>
        <time>2013-06-25T11:00:58Z</time>
      </trkpt>
      <trkpt lat="45.34299" lon="4.18439">
        <ele>532.22705078125</ele>
        <time>2013-06-25T11:01:19Z</time>
      </trkpt>
      <trkpt lat="45.3437" lon="4.18431">
        <ele>529.82373046875</ele>
        <time>2013-06-25T11:01:38Z</time>
      </trkpt>
      <trkpt lat="45.34439" lon="4.18483">
        <ele>529.34313964844</ele>
        <time>2013-06-25T11:02:00Z</time>
      </trkpt>
      <trkpt lat="45.34478" lon="4.18578">
        <ele>532.22705078125</ele>
        <time>2013-06-25T11:02:20Z</time>
      </trkpt>
      <trkpt lat="45.34537" lon="4.18728">
        <ele>533.6689453125</ele>
        <time>2013-06-25T11:02:49Z</time>
      </trkpt>
      <trkpt lat="45.34576" lon="4.18792">
        <ele>533.18835449219</ele>
        <time>2013-06-25T11:03:03Z</time>
      </trkpt>
      <trkpt lat="45.34586" lon="4.18803">
        <ele>533.18835449219</ele>
        <time>2013-06-25T11:03:06Z</time>
      </trkpt>
      <trkpt lat="45.34666" lon="4.18872">
        <ele>534.14965820312</ele>
        <time>2013-06-25T11:03:28Z</time>
      </trkpt>
      <trkpt lat="45.34726" lon="4.18923">
        <ele>530.30444335938</ele>
        <time>2013-06-25T11:03:43Z</time>
      </trkpt>
      <trkpt lat="45.34781" lon="4.18966">
        <ele>529.82373046875</ele>
        <time>2013-06-25T11:03:56Z</time>
      </trkpt>
      <trkpt lat="45.34811" lon="4.18978">
        <ele>527.90100097656</ele>
        <time>2013-06-25T11:04:02Z</time>
      </trkpt>
      <trkpt lat="45.34832" lon="4.18976">
        <ele>526.45910644531</ele>
        <time>2013-06-25T11:04:06Z</time>
      </trkpt>
      <trkpt lat="45.34902" lon="4.18947">
        <ele>518.28784179688</ele>
        <time>2013-06-25T11:04:19Z</time>
      </trkpt>
      <trkpt lat="45.34907" lon="4.18943">
        <ele>517.32666015625</ele>
        <time>2013-06-25T11:04:20Z</time>
      </trkpt>
      <trkpt lat="45.34996" lon="4.18829">
        <ele>516.365234375</ele>
        <time>2013-06-25T11:04:38Z</time>
      </trkpt>
      <trkpt lat="45.351" lon="4.18686">
        <ele>508.67468261719</ele>
        <time>2013-06-25T11:04:55Z</time>
      </trkpt>
      <trkpt lat="45.35182" lon="4.18639">
        <ele>508.19409179688</ele>
        <time>2013-06-25T11:05:03Z</time>
      </trkpt>
      <trkpt lat="45.3524" lon="4.18645">
        <ele>509.15539550781</ele>
        <time>2013-06-25T11:05:08Z</time>
      </trkpt>
      <trkpt lat="45.35271" lon="4.18673">
        <ele>506.75207519531</ele>
        <time>2013-06-25T11:05:12Z</time>
      </trkpt>
      <trkpt lat="45.35318" lon="4.18775">
        <ele>506.75207519531</ele>
        <time>2013-06-25T11:05:24Z</time>
      </trkpt>
      <trkpt lat="45.35342" lon="4.18944">
        <ele>503.8681640625</ele>
        <time>2013-06-25T11:05:41Z</time>
      </trkpt>
      <trkpt lat="45.35359" lon="4.19056">
        <ele>500.50354003906</ele>
        <time>2013-06-25T11:05:52Z</time>
      </trkpt>
      <trkpt lat="45.35387" lon="4.19102">
        <ele>498.58093261719</ele>
        <time>2013-06-25T11:05:57Z</time>
      </trkpt>
      <trkpt lat="45.35494" lon="4.19219">
        <ele>491.85168457031</ele>
        <time>2013-06-25T11:06:10Z</time>
      </trkpt>
      <trkpt lat="45.35511" lon="4.19238">
        <ele>489.92907714844</ele>
        <time>2013-06-25T11:06:12Z</time>
      </trkpt>
      <trkpt lat="45.35538" lon="4.19289">
        <ele>487.52563476562</ele>
        <time>2013-06-25T11:06:16Z</time>
      </trkpt>
      <trkpt lat="45.35597" lon="4.19432">
        <ele>478.87390136719</ele>
        <time>2013-06-25T11:06:26Z</time>
      </trkpt>
      <trkpt lat="45.35666" lon="4.19476">
        <ele>473.10607910156</ele>
        <time>2013-06-25T11:06:34Z</time>
      </trkpt>
      <trkpt lat="45.35719" lon="4.19468">
        <ele>469.74133300781</ele>
        <time>2013-06-25T11:06:40Z</time>
      </trkpt>
      <trkpt lat="45.35863" lon="4.19415">
        <ele>468.29931640625</ele>
        <time>2013-06-25T11:06:56Z</time>
      </trkpt>
      <trkpt lat="45.36027" lon="4.19382">
        <ele>463.49279785156</ele>
        <time>2013-06-25T11:07:12Z</time>
      </trkpt>
      <trkpt lat="45.36184" lon="4.19321">
        <ele>446.66967773438</ele>
        <time>2013-06-25T11:07:27Z</time>
      </trkpt>
      <trkpt lat="45.36249" lon="4.19297">
        <ele>451.95703125</ele>
        <time>2013-06-25T11:07:38Z</time>
      </trkpt>
      <trkpt lat="45.36298" lon="4.19279">
        <ele>454.8408203125</ele>
        <time>2013-06-25T11:07:52Z</time>
      </trkpt>
      <trkpt lat="45.36321" lon="4.19268">
        <ele>451.95703125</ele>
        <time>2013-06-25T11:07:56Z</time>
      </trkpt>
      <trkpt lat="45.36399" lon="4.1924">
        <ele>447.63098144531</ele>
        <time>2013-06-25T11:08:13Z</time>
      </trkpt>
      <trkpt lat="45.3651" lon="4.19201">
        <ele>448.11181640625</ele>
        <time>2013-06-25T11:08:36Z</time>
      </trkpt>
      <trkpt lat="45.36605" lon="4.19197">
        <ele>446.18908691406</ele>
        <time>2013-06-25T11:08:55Z</time>
      </trkpt>
      <trkpt lat="45.36736" lon="4.1924">
        <ele>444.7470703125</ele>
        <time>2013-06-25T11:09:19Z</time>
      </trkpt>
      <trkpt lat="45.36879" lon="4.19301">
        <ele>442.34387207031</ele>
        <time>2013-06-25T11:09:45Z</time>
      </trkpt>
      <trkpt lat="45.3697" lon="4.19367">
        <ele>436.57592773438</ele>
        <time>2013-06-25T11:09:59Z</time>
      </trkpt>
      <trkpt lat="45.36989" lon="4.19403">
        <ele>436.09521484375</ele>
        <time>2013-06-25T11:10:05Z</time>
      </trkpt>
      <trkpt lat="45.36996" lon="4.19441">
        <ele>437.05651855469</ele>
        <time>2013-06-25T11:10:09Z</time>
      </trkpt>
      <trkpt lat="45.36989" lon="4.19543">
        <ele>440.42126464844</ele>
        <time>2013-06-25T11:10:23Z</time>
      </trkpt>
      <trkpt lat="45.36986" lon="4.19608">
        <ele>440.42126464844</ele>
        <time>2013-06-25T11:10:38Z</time>
      </trkpt>
      <trkpt lat="45.36979" lon="4.19697">
        <ele>439.9404296875</ele>
        <time>2013-06-25T11:10:57Z</time>
      </trkpt>
      <trkpt lat="45.36971" lon="4.19809">
        <ele>439.9404296875</ele>
        <time>2013-06-25T11:11:17Z</time>
      </trkpt>
      <trkpt lat="45.36963" lon="4.1991">
        <ele>441.86315917969</ele>
        <time>2013-06-25T11:11:37Z</time>
      </trkpt>
      <trkpt lat="45.36957" lon="4.20011">
        <ele>446.18908691406</ele>
        <time>2013-06-25T11:11:58Z</time>
      </trkpt>
      <trkpt lat="45.36946" lon="4.20085">
        <ele>446.66967773438</ele>
        <time>2013-06-25T11:12:15Z</time>
      </trkpt>
      <trkpt lat="45.36954" lon="4.20141">
        <ele>445.22766113281</ele>
        <time>2013-06-25T11:12:27Z</time>
      </trkpt>
      <trkpt lat="45.36954" lon="4.20147">
        <ele>445.70837402344</ele>
        <time>2013-06-25T11:12:29Z</time>
      </trkpt>
      <trkpt lat="45.36954" lon="4.20214">
        <ele>447.63098144531</ele>
        <time>2013-06-25T11:12:41Z</time>
      </trkpt>
      <trkpt lat="45.36954" lon="4.20274">
        <ele>448.59240722656</ele>
        <time>2013-06-25T11:12:52Z</time>
      </trkpt>
      <trkpt lat="45.36957" lon="4.20346">
        <ele>448.11181640625</ele>
        <time>2013-06-25T11:13:05Z</time>
      </trkpt>
      <trkpt lat="45.36955" lon="4.20414">
        <ele>447.15026855469</ele>
        <time>2013-06-25T11:13:17Z</time>
      </trkpt>
      <trkpt lat="45.36967" lon="4.20412">
        <ele>447.63098144531</ele>
        <time>2013-06-25T11:13:21Z</time>
      </trkpt>
      <trkpt lat="45.37017" lon="4.20517">
        <ele>449.07299804688</ele>
        <time>2013-06-25T11:13:39Z</time>
      </trkpt>
      <trkpt lat="45.37075" lon="4.20645">
        <ele>449.5537109375</ele>
        <time>2013-06-25T11:14:03Z</time>
      </trkpt>
      <trkpt lat="45.37092" lon="4.20681">
        <ele>448.59240722656</ele>
        <time>2013-06-25T11:14:10Z</time>
      </trkpt>
      <trkpt lat="45.37098" lon="4.20695">
        <ele>448.11181640625</ele>
        <time>2013-06-25T11:14:13Z</time>
      </trkpt>
      <trkpt lat="45.37108" lon="4.20716">
        <ele>448.11181640625</ele>
        <time>2013-06-25T11:14:18Z</time>
      </trkpt>
      <trkpt lat="45.37111" lon="4.20723">
        <ele>448.11181640625</ele>
        <time>2013-06-25T11:14:20Z</time>
      </trkpt>
      <trkpt lat="45.3712" lon="4.20742">
        <ele>449.07299804688</ele>
        <time>2013-06-25T11:14:24Z</time>
      </trkpt>
      <trkpt lat="45.37124" lon="4.20751">
        <ele>449.07299804688</ele>
        <time>2013-06-25T11:14:26Z</time>
      </trkpt>
      <trkpt lat="45.37133" lon="4.20771">
        <ele>448.59240722656</ele>
        <time>2013-06-25T11:14:30Z</time>
      </trkpt>
      <trkpt lat="45.37181" lon="4.20868">
        <ele>450.03442382812</ele>
        <time>2013-06-25T11:14:51Z</time>
      </trkpt>
      <trkpt lat="45.37242" lon="4.20991">
        <ele>449.5537109375</ele>
        <time>2013-06-25T11:15:14Z</time>
      </trkpt>
      <trkpt lat="45.37323" lon="4.21137">
        <ele>448.59240722656</ele>
        <time>2013-06-25T11:15:39Z</time>
      </trkpt>
      <trkpt lat="45.37408" lon="4.21279">
        <ele>452.43762207031</ele>
        <time>2013-06-25T11:16:08Z</time>
      </trkpt>
      <trkpt lat="45.37487" lon="4.21412">
        <ele>451.47631835938</ele>
        <time>2013-06-25T11:16:32Z</time>
      </trkpt>
      <trkpt lat="45.37561" lon="4.21529">
        <ele>447.63098144531</ele>
        <time>2013-06-25T11:16:49Z</time>
      </trkpt>
      <trkpt lat="45.37641" lon="4.21656">
        <ele>443.30505371094</ele>
        <time>2013-06-25T11:17:10Z</time>
      </trkpt>
      <trkpt lat="45.37759" lon="4.21835">
        <ele>438.01782226562</ele>
        <time>2013-06-25T11:17:32Z</time>
      </trkpt>
      <trkpt lat="45.37865" lon="4.21994">
        <ele>434.6533203125</ele>
        <time>2013-06-25T11:17:51Z</time>
      </trkpt>
      <trkpt lat="45.37962" lon="4.22137">
        <ele>433.69189453125</ele>
        <time>2013-06-25T11:18:11Z</time>
      </trkpt>
      <trkpt lat="45.3807" lon="4.22262">
        <ele>434.6533203125</ele>
        <time>2013-06-25T11:18:34Z</time>
      </trkpt>
      <trkpt lat="45.3818" lon="4.22387">
        <ele>436.09521484375</ele>
        <time>2013-06-25T11:19:00Z</time>
      </trkpt>
      <trkpt lat="45.38241" lon="4.22506">
        <ele>435.13391113281</ele>
        <time>2013-06-25T11:19:18Z</time>
      </trkpt>
      <trkpt lat="45.38306" lon="4.22669">
        <ele>429.36596679688</ele>
        <time>2013-06-25T11:19:36Z</time>
      </trkpt>
      <trkpt lat="45.38373" lon="4.22735">
        <ele>426.96276855469</ele>
        <time>2013-06-25T11:19:46Z</time>
      </trkpt>
      <trkpt lat="45.38453" lon="4.22769">
        <ele>428.88537597656</ele>
        <time>2013-06-25T11:19:59Z</time>
      </trkpt>
      <trkpt lat="45.38504" lon="4.22784">
        <ele>431.28857421875</ele>
        <time>2013-06-25T11:20:11Z</time>
      </trkpt>
      <trkpt lat="45.38511" lon="4.22786">
        <ele>432.25</ele>
        <time>2013-06-25T11:20:13Z</time>
      </trkpt>
      <trkpt lat="45.3858" lon="4.22806">
        <ele>437.537109375</ele>
        <time>2013-06-25T11:20:30Z</time>
      </trkpt>
      <trkpt lat="45.38674" lon="4.22835">
        <ele>443.30505371094</ele>
        <time>2013-06-25T11:20:54Z</time>
      </trkpt>
      <trkpt lat="45.38761" lon="4.22862">
        <ele>444.26647949219</ele>
        <time>2013-06-25T11:21:20Z</time>
      </trkpt>
      <trkpt lat="45.38797" lon="4.22875">
        <ele>444.7470703125</ele>
        <time>2013-06-25T11:21:26Z</time>
      </trkpt>
      <trkpt lat="45.38818" lon="4.22879">
        <ele>445.22766113281</ele>
        <time>2013-06-25T11:21:32Z</time>
      </trkpt>
      <trkpt lat="45.3883" lon="4.22879">
        <ele>445.70837402344</ele>
        <time>2013-06-25T11:21:36Z</time>
      </trkpt>
      <trkpt lat="45.3883" lon="4.22879">
        <ele>444.7470703125</ele>
        <time>2013-06-25T11:21:38Z</time>
      </trkpt>
      <trkpt lat="45.38864" lon="4.22884">
        <ele>443.30505371094</ele>
        <time>2013-06-25T11:21:44Z</time>
      </trkpt>
      <trkpt lat="45.38975" lon="4.22848">
        <ele>448.11181640625</ele>
        <time>2013-06-25T11:22:04Z</time>
      </trkpt>
      <trkpt lat="45.39062" lon="4.22828">
        <ele>452.43762207031</ele>
        <time>2013-06-25T11:22:23Z</time>
      </trkpt>
      <trkpt lat="45.39073" lon="4.22826">
        <ele>453.39892578125</ele>
        <time>2013-06-25T11:22:26Z</time>
      </trkpt>
      <trkpt lat="45.39099" lon="4.22822">
        <ele>453.87963867188</ele>
        <time>2013-06-25T11:22:32Z</time>
      </trkpt>
      <trkpt lat="45.39112" lon="4.2282">
        <ele>453.39892578125</ele>
        <time>2013-06-25T11:22:35Z</time>
      </trkpt>
      <trkpt lat="45.39125" lon="4.22817">
        <ele>455.80224609375</ele>
        <time>2013-06-25T11:22:41Z</time>
      </trkpt>
      <trkpt lat="45.39207" lon="4.22784">
        <ele>455.80224609375</ele>
        <time>2013-06-25T11:23:01Z</time>
      </trkpt>
      <trkpt lat="45.39313" lon="4.22721">
        <ele>460.60876464844</ele>
        <time>2013-06-25T11:23:26Z</time>
      </trkpt>
      <trkpt lat="45.39355" lon="4.22682">
        <ele>460.60876464844</ele>
        <time>2013-06-25T11:23:37Z</time>
      </trkpt>
      <trkpt lat="45.39368" lon="4.22671">
        <ele>461.08947753906</ele>
        <time>2013-06-25T11:23:40Z</time>
      </trkpt>
      <trkpt lat="45.39392" lon="4.2265">
        <ele>461.57019042969</ele>
        <time>2013-06-25T11:23:45Z</time>
      </trkpt>
      <trkpt lat="45.39407" lon="4.22638">
        <ele>462.05078125</ele>
        <time>2013-06-25T11:23:48Z</time>
      </trkpt>
      <trkpt lat="45.39419" lon="4.22629">
        <ele>462.53137207031</ele>
        <time>2013-06-25T11:23:52Z</time>
      </trkpt>
      <trkpt lat="45.39434" lon="4.22617">
        <ele>463.01208496094</ele>
        <time>2013-06-25T11:23:58Z</time>
      </trkpt>
      <trkpt lat="45.39499" lon="4.226">
        <ele>464.93481445312</ele>
        <time>2013-06-25T11:24:17Z</time>
      </trkpt>
      <trkpt lat="45.39579" lon="4.22619">
        <ele>465.41552734375</ele>
        <time>2013-06-25T11:24:34Z</time>
      </trkpt>
      <trkpt lat="45.3966" lon="4.22636">
        <ele>465.41552734375</ele>
        <time>2013-06-25T11:24:52Z</time>
      </trkpt>
      <trkpt lat="45.39675" lon="4.22635">
        <ele>465.89611816406</ele>
        <time>2013-06-25T11:24:58Z</time>
      </trkpt>
      <trkpt lat="45.39706" lon="4.22625">
        <ele>467.33813476562</ele>
        <time>2013-06-25T11:25:01Z</time>
      </trkpt>
      <trkpt lat="45.39743" lon="4.22614">
        <ele>466.857421875</ele>
        <time>2013-06-25T11:25:08Z</time>
      </trkpt>
      <trkpt lat="45.39788" lon="4.22636">
        <ele>461.57019042969</ele>
        <time>2013-06-25T11:25:17Z</time>
      </trkpt>
      <trkpt lat="45.39794" lon="4.22708">
        <ele>459.16687011719</ele>
        <time>2013-06-25T11:25:25Z</time>
      </trkpt>
      <trkpt lat="45.39787" lon="4.22725">
        <ele>458.68615722656</ele>
        <time>2013-06-25T11:25:27Z</time>
      </trkpt>
      <trkpt lat="45.39718" lon="4.22847">
        <ele>451.47631835938</ele>
        <time>2013-06-25T11:25:41Z</time>
      </trkpt>
      <trkpt lat="45.39638" lon="4.22993">
        <ele>443.78576660156</ele>
        <time>2013-06-25T11:25:56Z</time>
      </trkpt>
      <trkpt lat="45.39625" lon="4.23051">
        <ele>440.90185546875</ele>
        <time>2013-06-25T11:26:01Z</time>
      </trkpt>
      <trkpt lat="45.39606" lon="4.23227">
        <ele>430.32727050781</ele>
        <time>2013-06-25T11:26:15Z</time>
      </trkpt>
      <trkpt lat="45.39606" lon="4.23319">
        <ele>425.52075195312</ele>
        <time>2013-06-25T11:26:24Z</time>
      </trkpt>
      <trkpt lat="45.39619" lon="4.23444">
        <ele>422.63671875</ele>
        <time>2013-06-25T11:26:37Z</time>
      </trkpt>
      <trkpt lat="45.39667" lon="4.23539">
        <ele>421.67541503906</ele>
        <time>2013-06-25T11:26:51Z</time>
      </trkpt>
      <trkpt lat="45.3975" lon="4.23591">
        <ele>422.15600585938</ele>
        <time>2013-06-25T11:27:07Z</time>
      </trkpt>
      <trkpt lat="45.39838" lon="4.23651">
        <ele>426.00134277344</ele>
        <time>2013-06-25T11:27:26Z</time>
      </trkpt>
      <trkpt lat="45.39921" lon="4.23742">
        <ele>426.00134277344</ele>
        <time>2013-06-25T11:27:46Z</time>
      </trkpt>
      <trkpt lat="45.39938" lon="4.23766">
        <ele>426.48205566406</ele>
        <time>2013-06-25T11:27:51Z</time>
      </trkpt>
      <trkpt lat="45.40008" lon="4.23864">
        <ele>433.69189453125</ele>
        <time>2013-06-25T11:28:16Z</time>
      </trkpt>
      <trkpt lat="45.40084" lon="4.23945">
        <ele>433.21130371094</ele>
        <time>2013-06-25T11:28:40Z</time>
      </trkpt>
      <trkpt lat="45.40108" lon="4.23967">
        <ele>432.25</ele>
        <time>2013-06-25T11:28:46Z</time>
      </trkpt>
      <trkpt lat="45.40136" lon="4.23991">
        <ele>432.25</ele>
        <time>2013-06-25T11:28:53Z</time>
      </trkpt>
      <trkpt lat="45.40198" lon="4.24042">
        <ele>431.76916503906</ele>
        <time>2013-06-25T11:29:07Z</time>
      </trkpt>
      <trkpt lat="45.40272" lon="4.24135">
        <ele>433.21130371094</ele>
        <time>2013-06-25T11:29:25Z</time>
      </trkpt>
      <trkpt lat="45.403" lon="4.24179">
        <ele>435.61450195312</ele>
        <time>2013-06-25T11:29:33Z</time>
      </trkpt>
      <trkpt lat="45.40367" lon="4.24292">
        <ele>433.69189453125</ele>
        <time>2013-06-25T11:29:53Z</time>
      </trkpt>
      <trkpt lat="45.40424" lon="4.24413">
        <ele>431.76916503906</ele>
        <time>2013-06-25T11:30:11Z</time>
      </trkpt>
      <trkpt lat="45.40451" lon="4.2446">
        <ele>432.25</ele>
        <time>2013-06-25T11:30:18Z</time>
      </trkpt>
      <trkpt lat="45.40491" lon="4.24506">
        <ele>434.6533203125</ele>
        <time>2013-06-25T11:30:28Z</time>
      </trkpt>
      <trkpt lat="45.40503" lon="4.24518">
        <ele>435.61450195312</ele>
        <time>2013-06-25T11:30:31Z</time>
      </trkpt>
      <trkpt lat="45.40532" lon="4.24544">
        <ele>436.09521484375</ele>
        <time>2013-06-25T11:30:39Z</time>
      </trkpt>
      <trkpt lat="45.40589" lon="4.24641">
        <ele>434.17260742188</ele>
        <time>2013-06-25T11:30:56Z</time>
      </trkpt>
      <trkpt lat="45.406" lon="4.24686">
        <ele>433.21130371094</ele>
        <time>2013-06-25T11:31:02Z</time>
      </trkpt>
      <trkpt lat="45.4062" lon="4.24722">
        <ele>432.73071289062</ele>
        <time>2013-06-25T11:31:08Z</time>
      </trkpt>
      <trkpt lat="45.40667" lon="4.24769">
        <ele>432.25</ele>
        <time>2013-06-25T11:31:18Z</time>
      </trkpt>
      <trkpt lat="45.40698" lon="4.24793">
        <ele>431.28857421875</ele>
        <time>2013-06-25T11:31:24Z</time>
      </trkpt>
      <trkpt lat="45.4076" lon="4.24867">
        <ele>430.32727050781</ele>
        <time>2013-06-25T11:31:39Z</time>
      </trkpt>
      <trkpt lat="45.40764" lon="4.24872">
        <ele>430.32727050781</ele>
        <time>2013-06-25T11:31:40Z</time>
      </trkpt>
      <trkpt lat="45.40782" lon="4.24887">
        <ele>429.84655761719</ele>
        <time>2013-06-25T11:31:45Z</time>
      </trkpt>
      <trkpt lat="45.40793" lon="4.24895">
        <ele>429.84655761719</ele>
        <time>2013-06-25T11:31:48Z</time>
      </trkpt>
      <trkpt lat="45.40849" lon="4.24934">
        <ele>429.36596679688</ele>
        <time>2013-06-25T11:32:03Z</time>
      </trkpt>
      <trkpt lat="45.40851" lon="4.24935">
        <ele>429.84655761719</ele>
        <time>2013-06-25T11:32:08Z</time>
      </trkpt>
      <trkpt lat="45.40874" lon="4.24931">
        <ele>430.80798339844</ele>
        <time>2013-06-25T11:32:16Z</time>
      </trkpt>
      <trkpt lat="45.40871" lon="4.24926">
        <ele>431.28857421875</ele>
        <time>2013-06-25T11:32:18Z</time>
      </trkpt>
      <trkpt lat="45.40864" lon="4.24922">
        <ele>430.80798339844</ele>
        <time>2013-06-25T11:32:21Z</time>
      </trkpt>
      <trkpt lat="45.40857" lon="4.24798">
        <ele>430.32727050781</ele>
        <time>2013-06-25T11:32:36Z</time>
      </trkpt>
      <trkpt lat="45.40848" lon="4.24669">
        <ele>428.88537597656</ele>
        <time>2013-06-25T11:32:55Z</time>
      </trkpt>
      <trkpt lat="45.40828" lon="4.24581">
        <ele>429.84655761719</ele>
        <time>2013-06-25T11:33:12Z</time>
      </trkpt>
      <trkpt lat="45.40824" lon="4.24573">
        <ele>430.32727050781</ele>
        <time>2013-06-25T11:33:15Z</time>
      </trkpt>
      <trkpt lat="45.40829" lon="4.24491">
        <ele>433.21130371094</ele>
        <time>2013-06-25T11:33:30Z</time>
      </trkpt>
      <trkpt lat="45.40828" lon="4.24482">
        <ele>432.73071289062</ele>
        <time>2013-06-25T11:33:32Z</time>
      </trkpt>
      <trkpt lat="45.40818" lon="4.24428">
        <ele>433.21130371094</ele>
        <time>2013-06-25T11:33:45Z</time>
      </trkpt>
      <trkpt lat="45.40805" lon="4.24356">
        <ele>434.6533203125</ele>
        <time>2013-06-25T11:34:05Z</time>
      </trkpt>
      <trkpt lat="45.40805" lon="4.24356">
        <ele>433.21130371094</ele>
        <time>2013-06-25T11:34:28Z</time>
      </trkpt>
      <trkpt lat="45.40805" lon="4.24356">
        <ele>431.28857421875</ele>
        <time>2013-06-25T11:34:51Z</time>
      </trkpt>
      <trkpt lat="45.40805" lon="4.24356">
        <ele>434.17260742188</ele>
        <time>2013-06-25T11:47:18Z</time>
      </trkpt>
      <trkpt lat="45.40805" lon="4.24356">
        <ele>434.6533203125</ele>
        <time>2013-06-25T11:47:19Z</time>
      </trkpt>
      <trkpt lat="45.40804" lon="4.24349">
        <ele>436.09521484375</ele>
        <time>2013-06-25T11:47:23Z</time>
      </trkpt>
      <trkpt lat="45.40794" lon="4.24296">
        <ele>438.01782226562</ele>
        <time>2013-06-25T11:47:36Z</time>
      </trkpt>
      <trkpt lat="45.40786" lon="4.24229">
        <ele>441.38244628906</ele>
        <time>2013-06-25T11:47:50Z</time>
      </trkpt>
      <trkpt lat="45.40778" lon="4.24151">
        <ele>443.30505371094</ele>
        <time>2013-06-25T11:48:06Z</time>
      </trkpt>
      <trkpt lat="45.40773" lon="4.24072">
        <ele>441.86315917969</ele>
        <time>2013-06-25T11:48:23Z</time>
      </trkpt>
      <trkpt lat="45.4077" lon="4.23985">
        <ele>438.97912597656</ele>
        <time>2013-06-25T11:48:43Z</time>
      </trkpt>
      <trkpt lat="45.40781" lon="4.23908">
        <ele>438.49853515625</ele>
        <time>2013-06-25T11:49:01Z</time>
      </trkpt>
      <trkpt lat="45.4081" lon="4.23829">
        <ele>432.73071289062</ele>
        <time>2013-06-25T11:49:22Z</time>
      </trkpt>
      <trkpt lat="45.40847" lon="4.23756">
        <ele>433.21130371094</ele>
        <time>2013-06-25T11:49:42Z</time>
      </trkpt>
      <trkpt lat="45.40871" lon="4.23727">
        <ele>430.32727050781</ele>
        <time>2013-06-25T11:49:53Z</time>
      </trkpt>
      <trkpt lat="45.40902" lon="4.23704">
        <ele>430.80798339844</ele>
        <time>2013-06-25T11:50:03Z</time>
      </trkpt>
      <trkpt lat="45.40951" lon="4.2367">
        <ele>444.7470703125</ele>
        <time>2013-06-25T11:50:15Z</time>
      </trkpt>
      <trkpt lat="45.40989" lon="4.23647">
        <ele>449.07299804688</ele>
        <time>2013-06-25T11:50:26Z</time>
      </trkpt>
      <trkpt lat="45.41028" lon="4.23647">
        <ele>449.07299804688</ele>
        <time>2013-06-25T11:50:38Z</time>
      </trkpt>
      <trkpt lat="45.4107" lon="4.23647">
        <ele>455.32153320312</ele>
        <time>2013-06-25T11:50:48Z</time>
      </trkpt>
      <trkpt lat="45.4111" lon="4.2365">
        <ele>454.8408203125</ele>
        <time>2013-06-25T11:50:59Z</time>
      </trkpt>
      <trkpt lat="45.41153" lon="4.2366">
        <ele>455.80224609375</ele>
        <time>2013-06-25T11:51:10Z</time>
      </trkpt>
      <trkpt lat="45.41181" lon="4.23681">
        <ele>458.68615722656</ele>
        <time>2013-06-25T11:51:19Z</time>
      </trkpt>
      <trkpt lat="45.41232" lon="4.23725">
        <ele>468.29931640625</ele>
        <time>2013-06-25T11:51:37Z</time>
      </trkpt>
      <trkpt lat="45.41271" lon="4.23737">
        <ele>469.2607421875</ele>
        <time>2013-06-25T11:51:48Z</time>
      </trkpt>
      <trkpt lat="45.41309" lon="4.23763">
        <ele>470.22192382812</ele>
        <time>2013-06-25T11:52:00Z</time>
      </trkpt>
      <trkpt lat="45.41338" lon="4.23748">
        <ele>471.66394042969</ele>
        <time>2013-06-25T11:52:11Z</time>
      </trkpt>
      <trkpt lat="45.41365" lon="4.23697">
        <ele>469.2607421875</ele>
        <time>2013-06-25T11:52:26Z</time>
      </trkpt>
      <trkpt lat="45.41403" lon="4.23642">
        <ele>458.68615722656</ele>
        <time>2013-06-25T11:52:43Z</time>
      </trkpt>
      <trkpt lat="45.41412" lon="4.2363">
        <ele>454.36022949219</ele>
        <time>2013-06-25T11:52:53Z</time>
      </trkpt>
      <trkpt lat="45.41416" lon="4.23621">
        <ele>455.32153320312</ele>
        <time>2013-06-25T11:52:58Z</time>
      </trkpt>
      <trkpt lat="45.41435" lon="4.23675">
        <ele>457.72497558594</ele>
        <time>2013-06-25T11:53:08Z</time>
      </trkpt>
      <trkpt lat="45.41464" lon="4.23764">
        <ele>465.41552734375</ele>
        <time>2013-06-25T11:53:25Z</time>
      </trkpt>
      <trkpt lat="45.41476" lon="4.2385">
        <ele>480.31591796875</ele>
        <time>2013-06-25T11:53:42Z</time>
      </trkpt>
      <trkpt lat="45.41494" lon="4.23934">
        <ele>491.37097167969</ele>
        <time>2013-06-25T11:54:00Z</time>
      </trkpt>
      <trkpt lat="45.41527" lon="4.24002">
        <ele>501.46484375</ele>
        <time>2013-06-25T11:54:17Z</time>
      </trkpt>
      <trkpt lat="45.41538" lon="4.24062">
        <ele>513.00073242188</ele>
        <time>2013-06-25T11:54:30Z</time>
      </trkpt>
      <trkpt lat="45.41574" lon="4.24116">
        <ele>498.10034179688</ele>
        <time>2013-06-25T11:54:43Z</time>
      </trkpt>
      <trkpt lat="45.41614" lon="4.24195">
        <ele>501.46484375</ele>
        <time>2013-06-25T11:55:02Z</time>
      </trkpt>
      <trkpt lat="45.41652" lon="4.24267">
        <ele>500.50354003906</ele>
        <time>2013-06-25T11:55:19Z</time>
      </trkpt>
      <trkpt lat="45.41688" lon="4.24302">
        <ele>506.75207519531</ele>
        <time>2013-06-25T11:55:32Z</time>
      </trkpt>
      <trkpt lat="45.41719" lon="4.24325">
        <ele>517.32666015625</ele>
        <time>2013-06-25T11:55:44Z</time>
      </trkpt>
      <trkpt lat="45.41781" lon="4.24359">
        <ele>514.92333984375</ele>
        <time>2013-06-25T11:56:01Z</time>
      </trkpt>
      <trkpt lat="45.41818" lon="4.24371">
        <ele>517.32666015625</ele>
        <time>2013-06-25T11:56:12Z</time>
      </trkpt>
      <trkpt lat="45.41861" lon="4.24379">
        <ele>519.24926757812</ele>
        <time>2013-06-25T11:56:23Z</time>
      </trkpt>
      <trkpt lat="45.41907" lon="4.24419">
        <ele>515.40405273438</ele>
        <time>2013-06-25T11:56:37Z</time>
      </trkpt>
      <trkpt lat="45.41942" lon="4.24437">
        <ele>515.88464355469</ele>
        <time>2013-06-25T11:56:49Z</time>
      </trkpt>
      <trkpt lat="45.41972" lon="4.24402">
        <ele>516.365234375</ele>
        <time>2013-06-25T11:57:01Z</time>
      </trkpt>
      <trkpt lat="45.41967" lon="4.24337">
        <ele>516.84594726562</ele>
        <time>2013-06-25T11:57:14Z</time>
      </trkpt>
      <trkpt lat="45.4194" lon="4.24251">
        <ele>521.65258789062</ele>
        <time>2013-06-25T11:57:33Z</time>
      </trkpt>
      <trkpt lat="45.41946" lon="4.24182">
        <ele>525.01721191406</ele>
        <time>2013-06-25T11:57:47Z</time>
      </trkpt>
      <trkpt lat="45.41967" lon="4.24072">
        <ele>528.86254882812</ele>
        <time>2013-06-25T11:58:10Z</time>
      </trkpt>
      <trkpt lat="45.41982" lon="4.23999">
        <ele>530.78515625</ele>
        <time>2013-06-25T11:58:26Z</time>
      </trkpt>
      <trkpt lat="45.42018" lon="4.23999">
        <ele>533.6689453125</ele>
        <time>2013-06-25T11:58:36Z</time>
      </trkpt>
      <trkpt lat="45.42068" lon="4.23993">
        <ele>538.47570800781</ele>
        <time>2013-06-25T11:58:51Z</time>
      </trkpt>
      <trkpt lat="45.42087" lon="4.23944">
        <ele>539.43688964844</ele>
        <time>2013-06-25T11:59:03Z</time>
      </trkpt>
      <trkpt lat="45.42089" lon="4.23859">
        <ele>537.51428222656</ele>
        <time>2013-06-25T11:59:19Z</time>
      </trkpt>
      <trkpt lat="45.42101" lon="4.23827">
        <ele>537.51428222656</ele>
        <time>2013-06-25T11:59:26Z</time>
      </trkpt>
      <trkpt lat="45.42118" lon="4.23832">
        <ele>535.59155273438</ele>
        <time>2013-06-25T11:59:30Z</time>
      </trkpt>
      <trkpt lat="45.4216" lon="4.23883">
        <ele>542.32092285156</ele>
        <time>2013-06-25T11:59:43Z</time>
      </trkpt>
      <trkpt lat="45.42205" lon="4.23954">
        <ele>545.685546875</ele>
        <time>2013-06-25T12:00:00Z</time>
      </trkpt>
      <trkpt lat="45.42273" lon="4.24014">
        <ele>548.5693359375</ele>
        <time>2013-06-25T12:00:21Z</time>
      </trkpt>
      <trkpt lat="45.42323" lon="4.24017">
        <ele>552.89526367188</ele>
        <time>2013-06-25T12:00:35Z</time>
      </trkpt>
      <trkpt lat="45.42371" lon="4.23995">
        <ele>555.779296875</ele>
        <time>2013-06-25T12:00:49Z</time>
      </trkpt>
      <trkpt lat="45.4239" lon="4.23987">
        <ele>553.85668945312</ele>
        <time>2013-06-25T12:00:54Z</time>
      </trkpt>
      <trkpt lat="45.42412" lon="4.23992">
        <ele>554.33740234375</ele>
        <time>2013-06-25T12:01:00Z</time>
      </trkpt>
      <trkpt lat="45.42466" lon="4.24057">
        <ele>556.74072265625</ele>
        <time>2013-06-25T12:01:17Z</time>
      </trkpt>
      <trkpt lat="45.42506" lon="4.24048">
        <ele>556.74072265625</ele>
        <time>2013-06-25T12:01:29Z</time>
      </trkpt>
      <trkpt lat="45.42544" lon="4.24025">
        <ele>557.22143554688</ele>
        <time>2013-06-25T12:01:41Z</time>
      </trkpt>
      <trkpt lat="45.42563" lon="4.24021">
        <ele>558.18286132812</ele>
        <time>2013-06-25T12:01:46Z</time>
      </trkpt>
      <trkpt lat="45.4259" lon="4.24039">
        <ele>563.95043945312</ele>
        <time>2013-06-25T12:01:52Z</time>
      </trkpt>
      <trkpt lat="45.42606" lon="4.24061">
        <ele>565.87329101562</ele>
        <time>2013-06-25T12:01:57Z</time>
      </trkpt>
      <trkpt lat="45.42639" lon="4.24138">
        <ele>570.19897460938</ele>
        <time>2013-06-25T12:02:12Z</time>
      </trkpt>
      <trkpt lat="45.42653" lon="4.24153">
        <ele>570.19897460938</ele>
        <time>2013-06-25T12:02:16Z</time>
      </trkpt>
      <trkpt lat="45.42672" lon="4.24162">
        <ele>572.6025390625</ele>
        <time>2013-06-25T12:02:21Z</time>
      </trkpt>
      <trkpt lat="45.42687" lon="4.2416">
        <ele>572.6025390625</ele>
        <time>2013-06-25T12:02:25Z</time>
      </trkpt>
      <trkpt lat="45.42749" lon="4.24155">
        <ele>575.486328125</ele>
        <time>2013-06-25T12:02:40Z</time>
      </trkpt>
      <trkpt lat="45.42791" lon="4.24152">
        <ele>578.85107421875</ele>
        <time>2013-06-25T12:02:53Z</time>
      </trkpt>
      <trkpt lat="45.42825" lon="4.2415">
        <ele>581.25439453125</ele>
        <time>2013-06-25T12:03:04Z</time>
      </trkpt>
      <trkpt lat="45.42872" lon="4.24162">
        <ele>585.580078125</ele>
        <time>2013-06-25T12:03:17Z</time>
      </trkpt>
      <trkpt lat="45.42911" lon="4.24207">
        <ele>583.65747070312</ele>
        <time>2013-06-25T12:03:30Z</time>
      </trkpt>
      <trkpt lat="45.42946" lon="4.24241">
        <ele>590.38696289062</ele>
        <time>2013-06-25T12:03:44Z</time>
      </trkpt>
      <trkpt lat="45.42975" lon="4.24239">
        <ele>590.86743164062</ele>
        <time>2013-06-25T12:03:53Z</time>
      </trkpt>
      <trkpt lat="45.4301" lon="4.24226">
        <ele>589.42553710938</ele>
        <time>2013-06-25T12:04:04Z</time>
      </trkpt>
      <trkpt lat="45.43046" lon="4.242">
        <ele>585.099609375</ele>
        <time>2013-06-25T12:04:19Z</time>
      </trkpt>
      <trkpt lat="45.43097" lon="4.24155">
        <ele>580.29296875</ele>
        <time>2013-06-25T12:04:37Z</time>
      </trkpt>
      <trkpt lat="45.43103" lon="4.24135">
        <ele>581.73486328125</ele>
        <time>2013-06-25T12:04:41Z</time>
      </trkpt>
      <trkpt lat="45.4308" lon="4.2409">
        <ele>592.79028320312</ele>
        <time>2013-06-25T12:04:53Z</time>
      </trkpt>
      <trkpt lat="45.43046" lon="4.24048">
        <ele>598.55786132812</ele>
        <time>2013-06-25T12:05:03Z</time>
      </trkpt>
      <trkpt lat="45.43027" lon="4.24015">
        <ele>602.8837890625</ele>
        <time>2013-06-25T12:05:10Z</time>
      </trkpt>
      <trkpt lat="45.43021" lon="4.23987">
        <ele>604.806640625</ele>
        <time>2013-06-25T12:05:14Z</time>
      </trkpt>
      <trkpt lat="45.43017" lon="4.2397">
        <ele>606.24853515625</ele>
        <time>2013-06-25T12:05:17Z</time>
      </trkpt>
      <trkpt lat="45.43013" lon="4.23951">
        <ele>608.17138671875</ele>
        <time>2013-06-25T12:05:20Z</time>
      </trkpt>
      <trkpt lat="45.43007" lon="4.23925">
        <ele>610.57446289062</ele>
        <time>2013-06-25T12:05:24Z</time>
      </trkpt>
      <trkpt lat="45.42998" lon="4.23883">
        <ele>614.900390625</ele>
        <time>2013-06-25T12:05:31Z</time>
      </trkpt>
      <trkpt lat="45.42989" lon="4.23841">
        <ele>615.86181640625</ele>
        <time>2013-06-25T12:05:38Z</time>
      </trkpt>
      <trkpt lat="45.42979" lon="4.23818">
        <ele>613.93896484375</ele>
        <time>2013-06-25T12:05:41Z</time>
      </trkpt>
      <trkpt lat="45.42948" lon="4.23744">
        <ele>609.61328125</ele>
        <time>2013-06-25T12:05:54Z</time>
      </trkpt>
      <trkpt lat="45.42928" lon="4.23702">
        <ele>609.61328125</ele>
        <time>2013-06-25T12:06:02Z</time>
      </trkpt>
      <trkpt lat="45.42921" lon="4.23649">
        <ele>608.65185546875</ele>
        <time>2013-06-25T12:06:09Z</time>
      </trkpt>
      <trkpt lat="45.42924" lon="4.23639">
        <ele>608.17138671875</ele>
        <time>2013-06-25T12:06:11Z</time>
      </trkpt>
      <trkpt lat="45.42928" lon="4.23619">
        <ele>607.2099609375</ele>
        <time>2013-06-25T12:06:14Z</time>
      </trkpt>
      <trkpt lat="45.4293" lon="4.23606">
        <ele>606.24853515625</ele>
        <time>2013-06-25T12:06:16Z</time>
      </trkpt>
      <trkpt lat="45.42917" lon="4.23537">
        <ele>604.326171875</ele>
        <time>2013-06-25T12:06:29Z</time>
      </trkpt>
      <trkpt lat="45.42896" lon="4.23479">
        <ele>605.28735351562</ele>
        <time>2013-06-25T12:06:41Z</time>
      </trkpt>
      <trkpt lat="45.42893" lon="4.23471">
        <ele>605.28735351562</ele>
        <time>2013-06-25T12:06:43Z</time>
      </trkpt>
      <trkpt lat="45.42884" lon="4.23447">
        <ele>606.24853515625</ele>
        <time>2013-06-25T12:06:48Z</time>
      </trkpt>
      <trkpt lat="45.42881" lon="4.23391">
        <ele>608.17138671875</ele>
        <time>2013-06-25T12:06:57Z</time>
      </trkpt>
      <trkpt lat="45.42881" lon="4.23372">
        <ele>608.65185546875</ele>
        <time>2013-06-25T12:07:00Z</time>
      </trkpt>
      <trkpt lat="45.42881" lon="4.23315">
        <ele>608.65185546875</ele>
        <time>2013-06-25T12:07:09Z</time>
      </trkpt>
      <trkpt lat="45.42887" lon="4.23273">
        <ele>612.0166015625</ele>
        <time>2013-06-25T12:07:16Z</time>
      </trkpt>
      <trkpt lat="45.42892" lon="4.23248">
        <ele>611.53588867188</ele>
        <time>2013-06-25T12:07:20Z</time>
      </trkpt>
      <trkpt lat="45.42893" lon="4.23233">
        <ele>611.05517578125</ele>
        <time>2013-06-25T12:07:22Z</time>
      </trkpt>
      <trkpt lat="45.42886" lon="4.23215">
        <ele>610.09375</ele>
        <time>2013-06-25T12:07:26Z</time>
      </trkpt>
      <trkpt lat="45.42868" lon="4.23186">
        <ele>612.0166015625</ele>
        <time>2013-06-25T12:07:33Z</time>
      </trkpt>
      <trkpt lat="45.42859" lon="4.23172">
        <ele>612.0166015625</ele>
        <time>2013-06-25T12:07:36Z</time>
      </trkpt>
      <trkpt lat="45.42849" lon="4.23144">
        <ele>612.0166015625</ele>
        <time>2013-06-25T12:07:41Z</time>
      </trkpt>
      <trkpt lat="45.42874" lon="4.2309">
        <ele>611.05517578125</ele>
        <time>2013-06-25T12:07:49Z</time>
      </trkpt>
      <trkpt lat="45.42888" lon="4.23092">
        <ele>610.57446289062</ele>
        <time>2013-06-25T12:07:51Z</time>
      </trkpt>
      <trkpt lat="45.42933" lon="4.23109">
        <ele>610.57446289062</ele>
        <time>2013-06-25T12:08:02Z</time>
      </trkpt>
      <trkpt lat="45.42964" lon="4.23121">
        <ele>612.4970703125</ele>
        <time>2013-06-25T12:08:11Z</time>
      </trkpt>
      <trkpt lat="45.43007" lon="4.23138">
        <ele>612.4970703125</ele>
        <time>2013-06-25T12:08:21Z</time>
      </trkpt>
      <trkpt lat="45.43036" lon="4.23184">
        <ele>614.900390625</ele>
        <time>2013-06-25T12:08:29Z</time>
      </trkpt>
      <trkpt lat="45.43049" lon="4.23219">
        <ele>612.97778320312</ele>
        <time>2013-06-25T12:08:34Z</time>
      </trkpt>
      <trkpt lat="45.43088" lon="4.23252">
        <ele>620.66845703125</ele>
        <time>2013-06-25T12:08:47Z</time>
      </trkpt>
      <trkpt lat="45.43123" lon="4.2327">
        <ele>628.83959960938</ele>
        <time>2013-06-25T12:09:01Z</time>
      </trkpt>
      <trkpt lat="45.43185" lon="4.23304">
        <ele>627.39770507812</ele>
        <time>2013-06-25T12:09:13Z</time>
      </trkpt>
      <trkpt lat="45.43224" lon="4.23324">
        <ele>630.76220703125</ele>
        <time>2013-06-25T12:09:25Z</time>
      </trkpt>
      <trkpt lat="45.43276" lon="4.23325">
        <ele>625.95556640625</ele>
        <time>2013-06-25T12:09:38Z</time>
      </trkpt>
      <trkpt lat="45.43318" lon="4.23295">
        <ele>615.38110351562</ele>
        <time>2013-06-25T12:09:50Z</time>
      </trkpt>
      <trkpt lat="45.43325" lon="4.23292">
        <ele>614.900390625</ele>
        <time>2013-06-25T12:09:53Z</time>
      </trkpt>
      <trkpt lat="45.43352" lon="4.2331">
        <ele>613.45849609375</ele>
        <time>2013-06-25T12:09:59Z</time>
      </trkpt>
      <trkpt lat="45.434" lon="4.23355">
        <ele>619.70703125</ele>
        <time>2013-06-25T12:10:14Z</time>
      </trkpt>
      <trkpt lat="45.43425" lon="4.23376">
        <ele>626.9169921875</ele>
        <time>2013-06-25T12:10:22Z</time>
      </trkpt>
      <trkpt lat="45.43434" lon="4.23392">
        <ele>629.32006835938</ele>
        <time>2013-06-25T12:10:25Z</time>
      </trkpt>
      <trkpt lat="45.43435" lon="4.23421">
        <ele>630.76220703125</ele>
        <time>2013-06-25T12:10:29Z</time>
      </trkpt>
      <trkpt lat="45.43435" lon="4.23451">
        <ele>630.76220703125</ele>
        <time>2013-06-25T12:10:34Z</time>
      </trkpt>
      <trkpt lat="45.43437" lon="4.2347">
        <ele>628.83959960938</ele>
        <time>2013-06-25T12:10:37Z</time>
      </trkpt>
      <trkpt lat="45.43469" lon="4.23507">
        <ele>623.07177734375</ele>
        <time>2013-06-25T12:10:47Z</time>
      </trkpt>
      <trkpt lat="45.43518" lon="4.23521">
        <ele>624.03295898438</ele>
        <time>2013-06-25T12:10:59Z</time>
      </trkpt>
      <trkpt lat="45.43525" lon="4.23523">
        <ele>624.513671875</ele>
        <time>2013-06-25T12:11:01Z</time>
      </trkpt>
      <trkpt lat="45.43542" lon="4.23532">
        <ele>622.59106445312</ele>
        <time>2013-06-25T12:11:05Z</time>
      </trkpt>
      <trkpt lat="45.43589" lon="4.2357">
        <ele>622.1103515625</ele>
        <time>2013-06-25T12:11:18Z</time>
      </trkpt>
      <trkpt lat="45.43609" lon="4.23549">
        <ele>623.07177734375</ele>
        <time>2013-06-25T12:11:25Z</time>
      </trkpt>
      <trkpt lat="45.43641" lon="4.23505">
        <ele>625.47485351562</ele>
        <time>2013-06-25T12:11:38Z</time>
      </trkpt>
      <trkpt lat="45.43655" lon="4.23502">
        <ele>625.47485351562</ele>
        <time>2013-06-25T12:11:43Z</time>
      </trkpt>
      <trkpt lat="45.437" lon="4.23541">
        <ele>626.43627929688</ele>
        <time>2013-06-25T12:11:54Z</time>
      </trkpt>
      <trkpt lat="45.43748" lon="4.2359">
        <ele>628.35888671875</ele>
        <time>2013-06-25T12:12:09Z</time>
      </trkpt>
      <trkpt lat="45.4378" lon="4.23609">
        <ele>632.2041015625</ele>
        <time>2013-06-25T12:12:20Z</time>
      </trkpt>
      <trkpt lat="45.43837" lon="4.23644">
        <ele>642.29809570312</ele>
        <time>2013-06-25T12:12:37Z</time>
      </trkpt>
      <trkpt lat="45.43897" lon="4.23658">
        <ele>645.66259765625</ele>
        <time>2013-06-25T12:12:54Z</time>
      </trkpt>
      <trkpt lat="45.43931" lon="4.23664">
        <ele>648.06591796875</ele>
        <time>2013-06-25T12:13:04Z</time>
      </trkpt>
      <trkpt lat="45.43963" lon="4.2367">
        <ele>653.833984375</ele>
        <time>2013-06-25T12:13:14Z</time>
      </trkpt>
      <trkpt lat="45.4398" lon="4.23673">
        <ele>655.75659179688</ele>
        <time>2013-06-25T12:13:21Z</time>
      </trkpt>
      <trkpt lat="45.44057" lon="4.23709">
        <ele>653.35327148438</ele>
        <time>2013-06-25T12:13:35Z</time>
      </trkpt>
      <trkpt lat="45.44116" lon="4.23738">
        <ele>647.1044921875</ele>
        <time>2013-06-25T12:13:45Z</time>
      </trkpt>
      <trkpt lat="45.44176" lon="4.23758">
        <ele>642.77880859375</ele>
        <time>2013-06-25T12:14:01Z</time>
      </trkpt>
      <trkpt lat="45.44178" lon="4.23758">
        <ele>643.25927734375</ele>
        <time>2013-06-25T12:14:11Z</time>
      </trkpt>
      <trkpt lat="45.44178" lon="4.23758">
        <ele>642.77880859375</ele>
        <time>2013-06-25T12:14:49Z</time>
      </trkpt>
      <trkpt lat="45.44221" lon="4.23751">
        <ele>638.93359375</ele>
        <time>2013-06-25T12:15:06Z</time>
      </trkpt>
      <trkpt lat="45.44287" lon="4.23755">
        <ele>634.607421875</ele>
        <time>2013-06-25T12:15:23Z</time>
      </trkpt>
      <trkpt lat="45.44312" lon="4.23755">
        <ele>633.64599609375</ele>
        <time>2013-06-25T12:15:28Z</time>
      </trkpt>
      <trkpt lat="45.44398" lon="4.23723">
        <ele>629.32006835938</ele>
        <time>2013-06-25T12:15:44Z</time>
      </trkpt>
      <trkpt lat="45.44482" lon="4.23636">
        <ele>623.07177734375</ele>
        <time>2013-06-25T12:15:59Z</time>
      </trkpt>
      <trkpt lat="45.44589" lon="4.23571">
        <ele>621.14916992188</ele>
        <time>2013-06-25T12:16:16Z</time>
      </trkpt>
      <trkpt lat="45.447" lon="4.2351">
        <ele>620.18774414062</ele>
        <time>2013-06-25T12:16:36Z</time>
      </trkpt>
      <trkpt lat="45.44798" lon="4.23451">
        <ele>617.3037109375</ele>
        <time>2013-06-25T12:16:55Z</time>
      </trkpt>
      <trkpt lat="45.44854" lon="4.23368">
        <ele>613.45849609375</ele>
        <time>2013-06-25T12:17:08Z</time>
      </trkpt>
      <trkpt lat="45.44973" lon="4.23205">
        <ele>605.28735351562</ele>
        <time>2013-06-25T12:17:30Z</time>
      </trkpt>
      <trkpt lat="45.45059" lon="4.23095">
        <ele>601.44189453125</ele>
        <time>2013-06-25T12:17:44Z</time>
      </trkpt>
      <trkpt lat="45.45085" lon="4.23081">
        <ele>602.8837890625</ele>
        <time>2013-06-25T12:17:48Z</time>
      </trkpt>
      <trkpt lat="45.45157" lon="4.23068">
        <ele>605.28735351562</ele>
        <time>2013-06-25T12:18:03Z</time>
      </trkpt>
      <trkpt lat="45.4525" lon="4.23038">
        <ele>600.96118164062</ele>
        <time>2013-06-25T12:18:20Z</time>
      </trkpt>
      <trkpt lat="45.45255" lon="4.23032">
        <ele>600.96118164062</ele>
        <time>2013-06-25T12:18:21Z</time>
      </trkpt>
      <trkpt lat="45.45316" lon="4.22922">
        <ele>594.23217773438</ele>
        <time>2013-06-25T12:18:35Z</time>
      </trkpt>
      <trkpt lat="45.45354" lon="4.2273">
        <ele>585.099609375</ele>
        <time>2013-06-25T12:18:51Z</time>
      </trkpt>
      <trkpt lat="45.45375" lon="4.22657">
        <ele>581.73486328125</ele>
        <time>2013-06-25T12:18:57Z</time>
      </trkpt>
      <trkpt lat="45.45442" lon="4.22553">
        <ele>575.96704101562</ele>
        <time>2013-06-25T12:19:08Z</time>
      </trkpt>
      <trkpt lat="45.45566" lon="4.22429">
        <ele>566.35375976562</ele>
        <time>2013-06-25T12:19:24Z</time>
      </trkpt>
      <trkpt lat="45.45724" lon="4.22287">
        <ele>553.3759765625</ele>
        <time>2013-06-25T12:19:43Z</time>
      </trkpt>
      <trkpt lat="45.45822" lon="4.22277">
        <ele>546.16625976562</ele>
        <time>2013-06-25T12:19:53Z</time>
      </trkpt>
      <trkpt lat="45.45921" lon="4.22337">
        <ele>541.35949707031</ele>
        <time>2013-06-25T12:20:04Z</time>
      </trkpt>
      <trkpt lat="45.45943" lon="4.22363">
        <ele>539.91760253906</ele>
        <time>2013-06-25T12:20:07Z</time>
      </trkpt>
      <trkpt lat="45.45978" lon="4.22474">
        <ele>537.03369140625</ele>
        <time>2013-06-25T12:20:16Z</time>
      </trkpt>
      <trkpt lat="45.46" lon="4.22653">
        <ele>533.18835449219</ele>
        <time>2013-06-25T12:20:29Z</time>
      </trkpt>
      <trkpt lat="45.46004" lon="4.22666">
        <ele>532.70776367188</ele>
        <time>2013-06-25T12:20:30Z</time>
      </trkpt>
      <trkpt lat="45.46056" lon="4.22739">
        <ele>530.30444335938</ele>
        <time>2013-06-25T12:20:38Z</time>
      </trkpt>
      <trkpt lat="45.46099" lon="4.22774">
        <ele>528.86254882812</ele>
        <time>2013-06-25T12:20:43Z</time>
      </trkpt>
      <trkpt lat="45.4621" lon="4.22915">
        <ele>522.13317871094</ele>
        <time>2013-06-25T12:20:58Z</time>
      </trkpt>
      <trkpt lat="45.4629" lon="4.23018">
        <ele>517.32666015625</ele>
        <time>2013-06-25T12:21:09Z</time>
      </trkpt>
      <trkpt lat="45.46406" lon="4.23115">
        <ele>512.52001953125</ele>
        <time>2013-06-25T12:21:23Z</time>
      </trkpt>
      <trkpt lat="45.46423" lon="4.23125">
        <ele>511.55871582031</ele>
        <time>2013-06-25T12:21:25Z</time>
      </trkpt>
      <trkpt lat="45.46457" lon="4.23132">
        <ele>510.59729003906</ele>
        <time>2013-06-25T12:21:29Z</time>
      </trkpt>
      <trkpt lat="45.46509" lon="4.23124">
        <ele>509.15539550781</ele>
        <time>2013-06-25T12:21:35Z</time>
      </trkpt>
      <trkpt lat="45.4655" lon="4.2309">
        <ele>506.271484375</ele>
        <time>2013-06-25T12:21:41Z</time>
      </trkpt>
      <trkpt lat="45.46573" lon="4.23056">
        <ele>504.34887695312</ele>
        <time>2013-06-25T12:21:45Z</time>
      </trkpt>
      <trkpt lat="45.46612" lon="4.23008">
        <ele>501.46484375</ele>
        <time>2013-06-25T12:21:51Z</time>
      </trkpt>
      <trkpt lat="45.46668" lon="4.23006">
        <ele>497.13891601562</ele>
        <time>2013-06-25T12:21:58Z</time>
      </trkpt>
      <trkpt lat="45.46682" lon="4.23059">
        <ele>495.21618652344</ele>
        <time>2013-06-25T12:22:03Z</time>
      </trkpt>
      <trkpt lat="45.46682" lon="4.23084">
        <ele>494.25500488281</ele>
        <time>2013-06-25T12:22:05Z</time>
      </trkpt>
      <trkpt lat="45.46675" lon="4.23136">
        <ele>492.33239746094</ele>
        <time>2013-06-25T12:22:09Z</time>
      </trkpt>
      <trkpt lat="45.46693" lon="4.23218">
        <ele>490.89038085938</ele>
        <time>2013-06-25T12:22:17Z</time>
      </trkpt>
      <trkpt lat="45.46725" lon="4.23241">
        <ele>488.9677734375</ele>
        <time>2013-06-25T12:22:22Z</time>
      </trkpt>
      <trkpt lat="45.46846" lon="4.23308">
        <ele>484.64184570312</ele>
        <time>2013-06-25T12:22:40Z</time>
      </trkpt>
      <trkpt lat="45.4696" lon="4.23422">
        <ele>481.7578125</ele>
        <time>2013-06-25T12:22:59Z</time>
      </trkpt>
      <trkpt lat="45.47044" lon="4.23523">
        <ele>479.83508300781</ele>
        <time>2013-06-25T12:23:16Z</time>
      </trkpt>
      <trkpt lat="45.47087" lon="4.23575">
        <ele>479.83508300781</ele>
        <time>2013-06-25T12:23:24Z</time>
      </trkpt>
      <trkpt lat="45.47084" lon="4.23634">
        <ele>480.31591796875</ele>
        <time>2013-06-25T12:23:32Z</time>
      </trkpt>
      <trkpt lat="45.47073" lon="4.23653">
        <ele>481.27722167969</ele>
        <time>2013-06-25T12:23:35Z</time>
      </trkpt>
      <trkpt lat="45.4704" lon="4.2369">
        <ele>482.23852539062</ele>
        <time>2013-06-25T12:23:42Z</time>
      </trkpt>
      <trkpt lat="45.46989" lon="4.23774">
        <ele>483.19982910156</ele>
        <time>2013-06-25T12:23:54Z</time>
      </trkpt>
      <trkpt lat="45.46932" lon="4.23812">
        <ele>482.23852539062</ele>
        <time>2013-06-25T12:24:03Z</time>
      </trkpt>
      <trkpt lat="45.46905" lon="4.23877">
        <ele>479.83508300781</ele>
        <time>2013-06-25T12:24:11Z</time>
      </trkpt>
      <trkpt lat="45.46934" lon="4.2392">
        <ele>478.39318847656</ele>
        <time>2013-06-25T12:24:17Z</time>
      </trkpt>
      <trkpt lat="45.4703" lon="4.24013">
        <ele>473.58666992188</ele>
        <time>2013-06-25T12:24:31Z</time>
      </trkpt>
      <trkpt lat="45.47066" lon="4.24072">
        <ele>472.62536621094</ele>
        <time>2013-06-25T12:24:38Z</time>
      </trkpt>
      <trkpt lat="45.47125" lon="4.24136">
        <ele>472.14465332031</ele>
        <time>2013-06-25T12:24:48Z</time>
      </trkpt>
      <trkpt lat="45.47234" lon="4.24188">
        <ele>466.857421875</ele>
        <time>2013-06-25T12:25:02Z</time>
      </trkpt>
      <trkpt lat="45.4733" lon="4.24193">
        <ele>462.05078125</ele>
        <time>2013-06-25T12:25:14Z</time>
      </trkpt>
      <trkpt lat="45.47353" lon="4.24197">
        <ele>460.60876464844</ele>
        <time>2013-06-25T12:25:17Z</time>
      </trkpt>
      <trkpt lat="45.47384" lon="4.24209">
        <ele>458.68615722656</ele>
        <time>2013-06-25T12:25:21Z</time>
      </trkpt>
      <trkpt lat="45.47413" lon="4.24228">
        <ele>457.72497558594</ele>
        <time>2013-06-25T12:25:25Z</time>
      </trkpt>
      <trkpt lat="45.47444" lon="4.24235">
        <ele>456.28295898438</ele>
        <time>2013-06-25T12:25:29Z</time>
      </trkpt>
      <trkpt lat="45.47567" lon="4.24214">
        <ele>450.51501464844</ele>
        <time>2013-06-25T12:25:44Z</time>
      </trkpt>
      <trkpt lat="45.47735" lon="4.24197">
        <ele>442.82446289062</ele>
        <time>2013-06-25T12:26:05Z</time>
      </trkpt>
      <trkpt lat="45.478" lon="4.24194">
        <ele>439.9404296875</ele>
        <time>2013-06-25T12:26:13Z</time>
      </trkpt>
      <trkpt lat="45.47844" lon="4.24173">
        <ele>437.537109375</ele>
        <time>2013-06-25T12:26:19Z</time>
      </trkpt>
      <trkpt lat="45.47935" lon="4.24099">
        <ele>436.57592773438</ele>
        <time>2013-06-25T12:26:34Z</time>
      </trkpt>
      <trkpt lat="45.48064" lon="4.24059">
        <ele>433.69189453125</ele>
        <time>2013-06-25T12:26:54Z</time>
      </trkpt>
      <trkpt lat="45.48153" lon="4.24095">
        <ele>430.80798339844</ele>
        <time>2013-06-25T12:27:07Z</time>
      </trkpt>
      <trkpt lat="45.48184" lon="4.24127">
        <ele>429.84655761719</ele>
        <time>2013-06-25T12:27:12Z</time>
      </trkpt>
      <trkpt lat="45.48194" lon="4.24141">
        <ele>428.40466308594</ele>
        <time>2013-06-25T12:27:16Z</time>
      </trkpt>
      <trkpt lat="45.48352" lon="4.24191">
        <ele>426.48205566406</ele>
        <time>2013-06-25T12:27:36Z</time>
      </trkpt>
      <trkpt lat="45.48502" lon="4.24225">
        <ele>422.15600585938</ele>
        <time>2013-06-25T12:27:57Z</time>
      </trkpt>
      <trkpt lat="45.48633" lon="4.24268">
        <ele>414.46545410156</ele>
        <time>2013-06-25T12:28:13Z</time>
      </trkpt>
      <trkpt lat="45.48755" lon="4.24325">
        <ele>407.736328125</ele>
        <time>2013-06-25T12:28:28Z</time>
      </trkpt>
      <trkpt lat="45.48914" lon="4.24345">
        <ele>400.52648925781</ele>
        <time>2013-06-25T12:28:46Z</time>
      </trkpt>
      <trkpt lat="45.49093" lon="4.24347">
        <ele>393.31652832031</ele>
        <time>2013-06-25T12:29:06Z</time>
      </trkpt>
      <trkpt lat="45.49211" lon="4.24356">
        <ele>392.8359375</ele>
        <time>2013-06-25T12:29:22Z</time>
      </trkpt>
      <trkpt lat="45.49369" lon="4.24375">
        <ele>392.8359375</ele>
        <time>2013-06-25T12:29:47Z</time>
      </trkpt>
      <trkpt lat="45.49451" lon="4.24411">
        <ele>393.79724121094</ele>
        <time>2013-06-25T12:30:02Z</time>
      </trkpt>
      <trkpt lat="45.49537" lon="4.24452">
        <ele>390.91320800781</ele>
        <time>2013-06-25T12:30:18Z</time>
      </trkpt>
      <trkpt lat="45.4957" lon="4.2445">
        <ele>391.87451171875</ele>
        <time>2013-06-25T12:30:24Z</time>
      </trkpt>
      <trkpt lat="45.49696" lon="4.24403">
        <ele>394.27795410156</ele>
        <time>2013-06-25T12:30:46Z</time>
      </trkpt>
      <trkpt lat="45.49713" lon="4.24395">
        <ele>394.27795410156</ele>
        <time>2013-06-25T12:30:49Z</time>
      </trkpt>
      <trkpt lat="45.49792" lon="4.2433">
        <ele>393.31652832031</ele>
        <time>2013-06-25T12:31:05Z</time>
      </trkpt>
      <trkpt lat="45.49854" lon="4.24284">
        <ele>394.75854492188</ele>
        <time>2013-06-25T12:31:20Z</time>
      </trkpt>
      <trkpt lat="45.49873" lon="4.24273">
        <ele>395.23913574219</ele>
        <time>2013-06-25T12:31:24Z</time>
      </trkpt>
      <trkpt lat="45.49881" lon="4.2423">
        <ele>395.23913574219</ele>
        <time>2013-06-25T12:31:30Z</time>
      </trkpt>
      <trkpt lat="45.4989" lon="4.24111">
        <ele>392.8359375</ele>
        <time>2013-06-25T12:31:46Z</time>
      </trkpt>
      <trkpt lat="45.4991" lon="4.2407">
        <ele>392.8359375</ele>
        <time>2013-06-25T12:31:52Z</time>
      </trkpt>
      <trkpt lat="45.49973" lon="4.24033">
        <ele>391.87451171875</ele>
        <time>2013-06-25T12:32:07Z</time>
      </trkpt>
      <trkpt lat="45.4999" lon="4.24027">
        <ele>391.87451171875</ele>
        <time>2013-06-25T12:32:13Z</time>
      </trkpt>
      <trkpt lat="45.49996" lon="4.24025">
        <ele>391.39379882812</ele>
        <time>2013-06-25T12:32:17Z</time>
      </trkpt>
      <trkpt lat="45.50056" lon="4.24007">
        <ele>390.91320800781</ele>
        <time>2013-06-25T12:32:29Z</time>
      </trkpt>
      <trkpt lat="45.50129" lon="4.24016">
        <ele>392.35534667969</ele>
        <time>2013-06-25T12:32:45Z</time>
      </trkpt>
      <trkpt lat="45.50133" lon="4.24018">
        <ele>392.35534667969</ele>
        <time>2013-06-25T12:32:46Z</time>
      </trkpt>
      <trkpt lat="45.50201" lon="4.24067">
        <ele>391.39379882812</ele>
        <time>2013-06-25T12:33:01Z</time>
      </trkpt>
      <trkpt lat="45.50222" lon="4.24061">
        <ele>391.39379882812</ele>
        <time>2013-06-25T12:33:07Z</time>
      </trkpt>
      <trkpt lat="45.50265" lon="4.24031">
        <ele>392.8359375</ele>
        <time>2013-06-25T12:33:18Z</time>
      </trkpt>
      <trkpt lat="45.50307" lon="4.24002">
        <ele>390.91320800781</ele>
        <time>2013-06-25T12:33:32Z</time>
      </trkpt>
      <trkpt lat="45.50305" lon="4.24001">
        <ele>388.99060058594</ele>
        <time>2013-06-25T12:33:40Z</time>
      </trkpt>
      <trkpt lat="45.50304" lon="4.24">
        <ele>388.51000976562</ele>
        <time>2013-06-25T12:34:09Z</time>
      </trkpt>
      <trkpt lat="45.50292" lon="4.24014">
        <ele>387.54858398438</ele>
        <time>2013-06-25T12:34:39Z</time>
      </trkpt>
      <trkpt lat="45.50285" lon="4.24005">
        <ele>385.14538574219</ele>
        <time>2013-06-25T12:34:47Z</time>
      </trkpt>
      <trkpt lat="45.50285" lon="4.24005">
        <ele>385.6259765625</ele>
        <time>2013-06-25T12:34:48Z</time>
      </trkpt>
      <trkpt lat="45.50276" lon="4.2396">
        <ele>383.70324707031</ele>
        <time>2013-06-25T12:35:01Z</time>
      </trkpt>
      <trkpt lat="45.50274" lon="4.23929">
        <ele>383.70324707031</ele>
        <time>2013-06-25T12:35:14Z</time>
      </trkpt>
      <trkpt lat="45.50273" lon="4.23928">
        <ele>383.70324707031</ele>
        <time>2013-06-25T12:35:39Z</time>
      </trkpt>
      <trkpt lat="45.50273" lon="4.23929">
        <ele>383.70324707031</ele>
        <time>2013-06-25T12:35:50Z</time>
      </trkpt>
      <trkpt lat="45.50273" lon="4.23929">
        <ele>383.70324707031</ele>
        <time>2013-06-25T12:35:51Z</time>
      </trkpt>
      <trkpt lat="45.50271" lon="4.2394">
        <ele>383.70324707031</ele>
        <time>2013-06-25T12:35:56Z</time>
      </trkpt>
      <trkpt lat="45.50268" lon="4.23932">
        <ele>382.74206542969</ele>
        <time>2013-06-25T12:36:05Z</time>
      </trkpt>
      <trkpt lat="45.50269" lon="4.23931">
        <ele>382.74206542969</ele>
        <time>2013-06-25T12:36:06Z</time>
      </trkpt>
      <trkpt lat="45.50274" lon="4.23926">
        <ele>382.26135253906</ele>
        <time>2013-06-25T12:36:22Z</time>
      </trkpt>
      <trkpt lat="45.50274" lon="4.2393">
        <ele>382.26135253906</ele>
        <time>2013-06-25T12:36:42Z</time>
      </trkpt>
      <trkpt lat="45.50274" lon="4.23934">
        <ele>382.74206542969</ele>
        <time>2013-06-25T12:36:56Z</time>
      </trkpt>
      <trkpt lat="45.50274" lon="4.23934">
        <ele>383.22265625</ele>
        <time>2013-06-25T12:38:08Z</time>
      </trkpt>
      <trkpt lat="45.50273" lon="4.23935">
        <ele>382.74206542969</ele>
        <time>2013-06-25T12:38:14Z</time>
      </trkpt>
      <trkpt lat="45.5027" lon="4.23945">
        <ele>383.22265625</ele>
        <time>2013-06-25T12:38:18Z</time>
      </trkpt>
      <trkpt lat="45.50282" lon="4.24011">
        <ele>382.74206542969</ele>
        <time>2013-06-25T12:38:33Z</time>
      </trkpt>
      <trkpt lat="45.50285" lon="4.24016">
        <ele>382.26135253906</ele>
        <time>2013-06-25T12:38:43Z</time>
      </trkpt>
      <trkpt lat="45.50285" lon="4.24016">
        <ele>382.26135253906</ele>
        <time>2013-06-25T12:38:46Z</time>
      </trkpt>
      <trkpt lat="45.50292" lon="4.24018">
        <ele>381.78063964844</ele>
        <time>2013-06-25T12:38:51Z</time>
      </trkpt>
      <trkpt lat="45.50333" lon="4.2398">
        <ele>380.81945800781</ele>
        <time>2013-06-25T12:39:06Z</time>
      </trkpt>
      <trkpt lat="45.50333" lon="4.23977">
        <ele>380.33874511719</ele>
        <time>2013-06-25T12:39:21Z</time>
      </trkpt>
      <trkpt lat="45.50334" lon="4.23977">
        <ele>379.37744140625</ele>
        <time>2013-06-25T12:39:27Z</time>
      </trkpt>
      <trkpt lat="45.50364" lon="4.23968">
        <ele>378.89685058594</ele>
        <time>2013-06-25T12:39:39Z</time>
      </trkpt>
      <trkpt lat="45.50453" lon="4.23954">
        <ele>377.45483398438</ele>
        <time>2013-06-25T12:39:58Z</time>
      </trkpt>
      <trkpt lat="45.50576" lon="4.23936">
        <ele>371.68688964844</ele>
        <time>2013-06-25T12:40:19Z</time>
      </trkpt>
      <trkpt lat="45.50729" lon="4.23914">
        <ele>366.88024902344</ele>
        <time>2013-06-25T12:40:40Z</time>
      </trkpt>
      <trkpt lat="45.5085" lon="4.23895">
        <ele>365.9189453125</ele>
        <time>2013-06-25T12:41:00Z</time>
      </trkpt>
      <trkpt lat="45.50871" lon="4.23892">
        <ele>366.39953613281</ele>
        <time>2013-06-25T12:41:04Z</time>
      </trkpt>
      <trkpt lat="45.50904" lon="4.23884">
        <ele>366.88024902344</ele>
        <time>2013-06-25T12:41:10Z</time>
      </trkpt>
      <trkpt lat="45.50923" lon="4.23872">
        <ele>366.88024902344</ele>
        <time>2013-06-25T12:41:14Z</time>
      </trkpt>
      <trkpt lat="45.50932" lon="4.23866">
        <ele>367.36096191406</ele>
        <time>2013-06-25T12:41:16Z</time>
      </trkpt>
      <trkpt lat="45.50964" lon="4.23813">
        <ele>367.36096191406</ele>
        <time>2013-06-25T12:41:25Z</time>
      </trkpt>
      <trkpt lat="45.51006" lon="4.23818">
        <ele>366.39953613281</ele>
        <time>2013-06-25T12:41:34Z</time>
      </trkpt>
      <trkpt lat="45.51009" lon="4.23823">
        <ele>366.39953613281</ele>
        <time>2013-06-25T12:41:36Z</time>
      </trkpt>
      <trkpt lat="45.51009" lon="4.23823">
        <ele>365.9189453125</ele>
        <time>2013-06-25T12:41:39Z</time>
      </trkpt>
      <trkpt lat="45.51043" lon="4.23832">
        <ele>365.43835449219</ele>
        <time>2013-06-25T12:41:47Z</time>
      </trkpt>
      <trkpt lat="45.51044" lon="4.23832">
        <ele>365.9189453125</ele>
        <time>2013-06-25T12:41:48Z</time>
      </trkpt>
      <trkpt lat="45.51039" lon="4.23815">
        <ele>364.95764160156</ele>
        <time>2013-06-25T12:41:51Z</time>
      </trkpt>
      <trkpt lat="45.51058" lon="4.23779">
        <ele>364.95764160156</ele>
        <time>2013-06-25T12:41:55Z</time>
      </trkpt>
      <trkpt lat="45.5107" lon="4.23756">
        <ele>364.47692871094</ele>
        <time>2013-06-25T12:42:00Z</time>
      </trkpt>
      <trkpt lat="45.51066" lon="4.23753">
        <ele>364.47692871094</ele>
        <time>2013-06-25T12:42:05Z</time>
      </trkpt>
      <trkpt lat="45.51049" lon="4.23796">
        <ele>364.95764160156</ele>
        <time>2013-06-25T12:42:12Z</time>
      </trkpt>
      <trkpt lat="45.51039" lon="4.23815">
        <ele>364.95764160156</ele>
        <time>2013-06-25T12:42:17Z</time>
      </trkpt>
      <trkpt lat="45.51026" lon="4.23851">
        <ele>364.95764160156</ele>
        <time>2013-06-25T12:42:24Z</time>
      </trkpt>
      <trkpt lat="45.51031" lon="4.23853">
        <ele>364.47692871094</ele>
        <time>2013-06-25T12:42:27Z</time>
      </trkpt>
      <trkpt lat="45.5113" lon="4.23847">
        <ele>364.47692871094</ele>
        <time>2013-06-25T12:42:43Z</time>
      </trkpt>
      <trkpt lat="45.51254" lon="4.23833">
        <ele>364.95764160156</ele>
        <time>2013-06-25T12:43:06Z</time>
      </trkpt>
      <trkpt lat="45.5139" lon="4.23829">
        <ele>364.95764160156</ele>
        <time>2013-06-25T12:43:30Z</time>
      </trkpt>
      <trkpt lat="45.51513" lon="4.23823">
        <ele>370.7255859375</ele>
        <time>2013-06-25T12:43:54Z</time>
      </trkpt>
      <trkpt lat="45.51623" lon="4.23813">
        <ele>373.60949707031</ele>
        <time>2013-06-25T12:44:17Z</time>
      </trkpt>
      <trkpt lat="45.51743" lon="4.23803">
        <ele>369.76428222656</ele>
        <time>2013-06-25T12:44:36Z</time>
      </trkpt>
      <trkpt lat="45.51782" lon="4.2381">
        <ele>367.84155273438</ele>
        <time>2013-06-25T12:44:44Z</time>
      </trkpt>
      <trkpt lat="45.51839" lon="4.23809">
        <ele>367.84155273438</ele>
        <time>2013-06-25T12:44:49Z</time>
      </trkpt>
      <trkpt lat="45.51951" lon="4.23698">
        <ele>368.80297851562</ele>
        <time>2013-06-25T12:45:11Z</time>
      </trkpt>
      <trkpt lat="45.51984" lon="4.23671">
        <ele>369.28369140625</ele>
        <time>2013-06-25T12:45:17Z</time>
      </trkpt>
      <trkpt lat="45.52007" lon="4.23659">
        <ele>369.28369140625</ele>
        <time>2013-06-25T12:45:21Z</time>
      </trkpt>
      <trkpt lat="45.52033" lon="4.2366">
        <ele>369.76428222656</ele>
        <time>2013-06-25T12:45:25Z</time>
      </trkpt>
      <trkpt lat="45.52131" lon="4.23684">
        <ele>371.68688964844</ele>
        <time>2013-06-25T12:45:44Z</time>
      </trkpt>
      <trkpt lat="45.5214" lon="4.23688">
        <ele>372.16748046875</ele>
        <time>2013-06-25T12:45:46Z</time>
      </trkpt>
      <trkpt lat="45.52247" lon="4.23665">
        <ele>372.16748046875</ele>
        <time>2013-06-25T12:46:08Z</time>
      </trkpt>
      <trkpt lat="45.52281" lon="4.23655">
        <ele>371.68688964844</ele>
        <time>2013-06-25T12:46:15Z</time>
      </trkpt>
      <trkpt lat="45.52378" lon="4.23585">
        <ele>372.16748046875</ele>
        <time>2013-06-25T12:46:36Z</time>
      </trkpt>
      <trkpt lat="45.52459" lon="4.23522">
        <ele>372.16748046875</ele>
        <time>2013-06-25T12:46:59Z</time>
      </trkpt>
      <trkpt lat="45.52505" lon="4.23494">
        <ele>373.60949707031</ele>
        <time>2013-06-25T12:47:17Z</time>
      </trkpt>
      <trkpt lat="45.52516" lon="4.23487">
        <ele>373.60949707031</ele>
        <time>2013-06-25T12:47:32Z</time>
      </trkpt>
      <trkpt lat="45.52539" lon="4.23473">
        <ele>374.09008789062</ele>
        <time>2013-06-25T12:47:45Z</time>
      </trkpt>
      <trkpt lat="45.52618" lon="4.23424">
        <ele>376.49353027344</ele>
        <time>2013-06-25T12:48:03Z</time>
      </trkpt>
      <trkpt lat="45.52643" lon="4.23413">
        <ele>376.01281738281</ele>
        <time>2013-06-25T12:48:08Z</time>
      </trkpt>
      <trkpt lat="45.5267" lon="4.23407">
        <ele>375.05151367188</ele>
        <time>2013-06-25T12:48:13Z</time>
      </trkpt>
      <trkpt lat="45.52683" lon="4.2342">
        <ele>375.05151367188</ele>
        <time>2013-06-25T12:48:15Z</time>
      </trkpt>
      <trkpt lat="45.52704" lon="4.23394">
        <ele>375.53210449219</ele>
        <time>2013-06-25T12:48:22Z</time>
      </trkpt>
      <trkpt lat="45.52723" lon="4.23371">
        <ele>376.01281738281</ele>
        <time>2013-06-25T12:48:25Z</time>
      </trkpt>
      <trkpt lat="45.52841" lon="4.23334">
        <ele>377.93542480469</ele>
        <time>2013-06-25T12:48:47Z</time>
      </trkpt>
      <trkpt lat="45.52908" lon="4.23337">
        <ele>378.89685058594</ele>
        <time>2013-06-25T12:49:03Z</time>
      </trkpt>
      <trkpt lat="45.52961" lon="4.23356">
        <ele>380.33874511719</ele>
        <time>2013-06-25T12:49:17Z</time>
      </trkpt>
      <trkpt lat="45.52979" lon="4.23359">
        <ele>379.85803222656</ele>
        <time>2013-06-25T12:49:21Z</time>
      </trkpt>
      <trkpt lat="45.53015" lon="4.23351">
        <ele>379.85803222656</ele>
        <time>2013-06-25T12:49:29Z</time>
      </trkpt>
      <trkpt lat="45.53109" lon="4.23331">
        <ele>379.37744140625</ele>
        <time>2013-06-25T12:49:48Z</time>
      </trkpt>
      <trkpt lat="45.53142" lon="4.23319">
        <ele>380.33874511719</ele>
        <time>2013-06-25T12:49:55Z</time>
      </trkpt>
      <trkpt lat="45.53167" lon="4.23333">
        <ele>379.85803222656</ele>
        <time>2013-06-25T12:50:00Z</time>
      </trkpt>
      <trkpt lat="45.53193" lon="4.2336">
        <ele>379.37744140625</ele>
        <time>2013-06-25T12:50:06Z</time>
      </trkpt>
      <trkpt lat="45.53219" lon="4.23373">
        <ele>378.89685058594</ele>
        <time>2013-06-25T12:50:11Z</time>
      </trkpt>
      <trkpt lat="45.5331" lon="4.23391">
        <ele>380.33874511719</ele>
        <time>2013-06-25T12:50:29Z</time>
      </trkpt>
      <trkpt lat="45.5333" lon="4.23393">
        <ele>381.30004882812</ele>
        <time>2013-06-25T12:50:33Z</time>
      </trkpt>
      <trkpt lat="45.53344" lon="4.23395">
        <ele>381.30004882812</ele>
        <time>2013-06-25T12:50:36Z</time>
      </trkpt>
      <trkpt lat="45.53422" lon="4.23403">
        <ele>381.30004882812</ele>
        <time>2013-06-25T12:50:51Z</time>
      </trkpt>
      <trkpt lat="45.53514" lon="4.23383">
        <ele>380.81945800781</ele>
        <time>2013-06-25T12:51:08Z</time>
      </trkpt>
      <trkpt lat="45.53558" lon="4.23371">
        <ele>379.85803222656</ele>
        <time>2013-06-25T12:51:16Z</time>
      </trkpt>
      <trkpt lat="45.53588" lon="4.23385">
        <ele>380.33874511719</ele>
        <time>2013-06-25T12:51:23Z</time>
      </trkpt>
      <trkpt lat="45.53614" lon="4.23445">
        <ele>383.22265625</ele>
        <time>2013-06-25T12:51:34Z</time>
      </trkpt>
      <trkpt lat="45.53654" lon="4.23507">
        <ele>381.78063964844</ele>
        <time>2013-06-25T12:51:45Z</time>
      </trkpt>
      <trkpt lat="45.53734" lon="4.23591">
        <ele>381.78063964844</ele>
        <time>2013-06-25T12:52:04Z</time>
      </trkpt>
      <trkpt lat="45.53796" lon="4.23665">
        <ele>390.4326171875</ele>
        <time>2013-06-25T12:52:20Z</time>
      </trkpt>
      <trkpt lat="45.53833" lon="4.23711">
        <ele>393.31652832031</ele>
        <time>2013-06-25T12:52:32Z</time>
      </trkpt>
      <trkpt lat="45.53842" lon="4.2372">
        <ele>391.39379882812</ele>
        <time>2013-06-25T12:52:39Z</time>
      </trkpt>
      <trkpt lat="45.53842" lon="4.2372">
        <ele>388.99060058594</ele>
        <time>2013-06-25T12:52:50Z</time>
      </trkpt>
      <trkpt lat="45.53833" lon="4.23737">
        <ele>388.99060058594</ele>
        <time>2013-06-25T12:52:55Z</time>
      </trkpt>
      <trkpt lat="45.53835" lon="4.23733">
        <ele>389.47119140625</ele>
        <time>2013-06-25T12:52:59Z</time>
      </trkpt>
      <trkpt lat="45.53835" lon="4.23733">
        <ele>388.029296875</ele>
        <time>2013-06-25T12:53:05Z</time>
      </trkpt>
      <trkpt lat="45.53842" lon="4.2372">
        <ele>386.58740234375</ele>
        <time>2013-06-25T12:53:16Z</time>
      </trkpt>
      <trkpt lat="45.53809" lon="4.23666">
        <ele>384.66479492188</ele>
        <time>2013-06-25T12:53:28Z</time>
      </trkpt>
      <trkpt lat="45.53809" lon="4.23659">
        <ele>384.66479492188</ele>
        <time>2013-06-25T12:53:30Z</time>
      </trkpt>
      <trkpt lat="45.53809" lon="4.23659">
        <ele>386.58740234375</ele>
        <time>2013-06-25T12:53:42Z</time>
      </trkpt>
      <trkpt lat="45.5381" lon="4.23656">
        <ele>385.6259765625</ele>
        <time>2013-06-25T12:53:59Z</time>
      </trkpt>
      <trkpt lat="45.5381" lon="4.23656">
        <ele>384.18408203125</ele>
        <time>2013-06-25T12:56:08Z</time>
      </trkpt>
      <trkpt lat="45.5381" lon="4.23656">
        <ele>384.66479492188</ele>
        <time>2013-06-25T12:56:22Z</time>
      </trkpt>
      <trkpt lat="45.5381" lon="4.23656">
        <ele>383.70324707031</ele>
        <time>2013-06-25T12:56:24Z</time>
      </trkpt>
      <trkpt lat="45.53809" lon="4.23665">
        <ele>381.78063964844</ele>
        <time>2013-06-25T12:56:30Z</time>
      </trkpt>
      <trkpt lat="45.53821" lon="4.23697">
        <ele>380.33874511719</ele>
        <time>2013-06-25T12:56:43Z</time>
      </trkpt>
      <trkpt lat="45.53842" lon="4.2372">
        <ele>379.85803222656</ele>
        <time>2013-06-25T12:56:52Z</time>
      </trkpt>
      <trkpt lat="45.53842" lon="4.2372">
        <ele>379.85803222656</ele>
        <time>2013-06-25T12:56:56Z</time>
      </trkpt>
      <trkpt lat="45.53906" lon="4.23773">
        <ele>378.89685058594</ele>
        <time>2013-06-25T12:57:10Z</time>
      </trkpt>
      <trkpt lat="45.53957" lon="4.23808">
        <ele>379.37744140625</ele>
        <time>2013-06-25T12:57:21Z</time>
      </trkpt>
      <trkpt lat="45.53986" lon="4.23823">
        <ele>379.85803222656</ele>
        <time>2013-06-25T12:57:27Z</time>
      </trkpt>
      <trkpt lat="45.5401" lon="4.23835">
        <ele>380.33874511719</ele>
        <time>2013-06-25T12:57:32Z</time>
      </trkpt>
      <trkpt lat="45.54085" lon="4.23867">
        <ele>381.30004882812</ele>
        <time>2013-06-25T12:57:48Z</time>
      </trkpt>
      <trkpt lat="45.54176" lon="4.23881">
        <ele>381.78063964844</ele>
        <time>2013-06-25T12:58:06Z</time>
      </trkpt>
      <trkpt lat="45.54227" lon="4.23886">
        <ele>381.30004882812</ele>
        <time>2013-06-25T12:58:16Z</time>
      </trkpt>
      <trkpt lat="45.54301" lon="4.23909">
        <ele>382.74206542969</ele>
        <time>2013-06-25T12:58:30Z</time>
      </trkpt>
      <trkpt lat="45.54402" lon="4.23941">
        <ele>382.26135253906</ele>
        <time>2013-06-25T12:58:49Z</time>
      </trkpt>
      <trkpt lat="45.54509" lon="4.23975">
        <ele>377.45483398438</ele>
        <time>2013-06-25T12:59:09Z</time>
      </trkpt>
      <trkpt lat="45.54625" lon="4.24004">
        <ele>369.76428222656</ele>
        <time>2013-06-25T12:59:28Z</time>
      </trkpt>
      <trkpt lat="45.54725" lon="4.24037">
        <ele>368.80297851562</ele>
        <time>2013-06-25T12:59:47Z</time>
      </trkpt>
      <trkpt lat="45.54822" lon="4.2408">
        <ele>367.84155273438</ele>
        <time>2013-06-25T13:00:06Z</time>
      </trkpt>
      <trkpt lat="45.54926" lon="4.24152">
        <ele>367.84155273438</ele>
        <time>2013-06-25T13:00:26Z</time>
      </trkpt>
      <trkpt lat="45.54962" lon="4.24178">
        <ele>367.84155273438</ele>
        <time>2013-06-25T13:00:33Z</time>
      </trkpt>
      <trkpt lat="45.54984" lon="4.24212">
        <ele>367.36096191406</ele>
        <time>2013-06-25T13:00:39Z</time>
      </trkpt>
      <trkpt lat="45.55" lon="4.24268">
        <ele>367.36096191406</ele>
        <time>2013-06-25T13:00:47Z</time>
      </trkpt>
      <trkpt lat="45.55018" lon="4.24368">
        <ele>366.88024902344</ele>
        <time>2013-06-25T13:01:00Z</time>
      </trkpt>
      <trkpt lat="45.55036" lon="4.24436">
        <ele>366.88024902344</ele>
        <time>2013-06-25T13:01:09Z</time>
      </trkpt>
      <trkpt lat="45.55042" lon="4.24457">
        <ele>366.88024902344</ele>
        <time>2013-06-25T13:01:12Z</time>
      </trkpt>
      <trkpt lat="45.55044" lon="4.24482">
        <ele>367.36096191406</ele>
        <time>2013-06-25T13:01:15Z</time>
      </trkpt>
      <trkpt lat="45.55056" lon="4.24636">
        <ele>366.39953613281</ele>
        <time>2013-06-25T13:01:34Z</time>
      </trkpt>
      <trkpt lat="45.55078" lon="4.24787">
        <ele>365.43835449219</ele>
        <time>2013-06-25T13:01:52Z</time>
      </trkpt>
      <trkpt lat="45.55108" lon="4.24909">
        <ele>365.9189453125</ele>
        <time>2013-06-25T13:02:08Z</time>
      </trkpt>
      <trkpt lat="45.55142" lon="4.25043">
        <ele>365.9189453125</ele>
        <time>2013-06-25T13:02:26Z</time>
      </trkpt>
      <trkpt lat="45.5518" lon="4.25208">
        <ele>364.47692871094</ele>
        <time>2013-06-25T13:02:46Z</time>
      </trkpt>
      <trkpt lat="45.55188" lon="4.25247">
        <ele>363.51574707031</ele>
        <time>2013-06-25T13:02:50Z</time>
      </trkpt>
      <trkpt lat="45.55234" lon="4.25411">
        <ele>361.11242675781</ele>
        <time>2013-06-25T13:03:08Z</time>
      </trkpt>
      <trkpt lat="45.55292" lon="4.25614">
        <ele>359.18969726562</ele>
        <time>2013-06-25T13:03:33Z</time>
      </trkpt>
      <trkpt lat="45.55319" lon="4.25721">
        <ele>358.708984375</ele>
        <time>2013-06-25T13:03:46Z</time>
      </trkpt>
      <trkpt lat="45.55342" lon="4.25849">
        <ele>358.22839355469</ele>
        <time>2013-06-25T13:04:01Z</time>
      </trkpt>
      <trkpt lat="45.55365" lon="4.25934">
        <ele>359.18969726562</ele>
        <time>2013-06-25T13:04:12Z</time>
      </trkpt>
      <trkpt lat="45.55418" lon="4.26015">
        <ele>358.708984375</ele>
        <time>2013-06-25T13:04:25Z</time>
      </trkpt>
      <trkpt lat="45.55499" lon="4.26119">
        <ele>355.8251953125</ele>
        <time>2013-06-25T13:04:44Z</time>
      </trkpt>
      <trkpt lat="45.55611" lon="4.2622">
        <ele>354.38317871094</ele>
        <time>2013-06-25T13:05:09Z</time>
      </trkpt>
      <trkpt lat="45.55652" lon="4.26317">
        <ele>353.421875</ele>
        <time>2013-06-25T13:05:24Z</time>
      </trkpt>
      <trkpt lat="45.55714" lon="4.26493">
        <ele>353.421875</ele>
        <time>2013-06-25T13:05:48Z</time>
      </trkpt>
      <trkpt lat="45.55753" lon="4.26632">
        <ele>353.421875</ele>
        <time>2013-06-25T13:06:06Z</time>
      </trkpt>
      <trkpt lat="45.55762" lon="4.2667">
        <ele>353.421875</ele>
        <time>2013-06-25T13:06:11Z</time>
      </trkpt>
      <trkpt lat="45.55797" lon="4.26712">
        <ele>354.38317871094</ele>
        <time>2013-06-25T13:06:21Z</time>
      </trkpt>
      <trkpt lat="45.55817" lon="4.26716">
        <ele>354.38317871094</ele>
        <time>2013-06-25T13:06:25Z</time>
      </trkpt>
      <trkpt lat="45.55943" lon="4.26716">
        <ele>354.38317871094</ele>
        <time>2013-06-25T13:06:48Z</time>
      </trkpt>
      <trkpt lat="45.55957" lon="4.26716">
        <ele>353.421875</ele>
        <time>2013-06-25T13:06:51Z</time>
      </trkpt>
      <trkpt lat="45.56075" lon="4.26688">
        <ele>354.86376953125</ele>
        <time>2013-06-25T13:07:12Z</time>
      </trkpt>
      <trkpt lat="45.56134" lon="4.26663">
        <ele>355.34448242188</ele>
        <time>2013-06-25T13:07:23Z</time>
      </trkpt>
      <trkpt lat="45.56142" lon="4.2666">
        <ele>354.86376953125</ele>
        <time>2013-06-25T13:07:27Z</time>
      </trkpt>
      <trkpt lat="45.56179" lon="4.26645">
        <ele>354.86376953125</ele>
        <time>2013-06-25T13:07:33Z</time>
      </trkpt>
      <trkpt lat="45.56177" lon="4.26633">
        <ele>354.86376953125</ele>
        <time>2013-06-25T13:07:35Z</time>
      </trkpt>
      <trkpt lat="45.56208" lon="4.2659">
        <ele>354.86376953125</ele>
        <time>2013-06-25T13:07:41Z</time>
      </trkpt>
      <trkpt lat="45.56225" lon="4.26568">
        <ele>354.38317871094</ele>
        <time>2013-06-25T13:07:46Z</time>
      </trkpt>
      <trkpt lat="45.56316" lon="4.2652">
        <ele>355.34448242188</ele>
        <time>2013-06-25T13:08:03Z</time>
      </trkpt>
      <trkpt lat="45.56335" lon="4.26508">
        <ele>355.8251953125</ele>
        <time>2013-06-25T13:08:07Z</time>
      </trkpt>
      <trkpt lat="45.56426" lon="4.26463">
        <ele>356.30578613281</ele>
        <time>2013-06-25T13:08:25Z</time>
      </trkpt>
      <trkpt lat="45.56535" lon="4.26409">
        <ele>356.30578613281</ele>
        <time>2013-06-25T13:08:46Z</time>
      </trkpt>
      <trkpt lat="45.56643" lon="4.26343">
        <ele>356.78637695312</ele>
        <time>2013-06-25T13:09:09Z</time>
      </trkpt>
      <trkpt lat="45.5677" lon="4.26278">
        <ele>357.26708984375</ele>
        <time>2013-06-25T13:09:34Z</time>
      </trkpt>
      <trkpt lat="45.56879" lon="4.26207">
        <ele>357.74780273438</ele>
        <time>2013-06-25T13:09:57Z</time>
      </trkpt>
      <trkpt lat="45.57004" lon="4.26118">
        <ele>357.26708984375</ele>
        <time>2013-06-25T13:10:23Z</time>
      </trkpt>
      <trkpt lat="45.57112" lon="4.26057">
        <ele>356.78637695312</ele>
        <time>2013-06-25T13:10:44Z</time>
      </trkpt>
      <trkpt lat="45.57174" lon="4.26036">
        <ele>356.78637695312</ele>
        <time>2013-06-25T13:10:55Z</time>
      </trkpt>
      <trkpt lat="45.57264" lon="4.26004">
        <ele>356.30578613281</ele>
        <time>2013-06-25T13:11:11Z</time>
      </trkpt>
      <trkpt lat="45.5727" lon="4.26002">
        <ele>356.30578613281</ele>
        <time>2013-06-25T13:11:12Z</time>
      </trkpt>
      <trkpt lat="45.57298" lon="4.2599">
        <ele>356.30578613281</ele>
        <time>2013-06-25T13:11:17Z</time>
      </trkpt>
      <trkpt lat="45.57348" lon="4.25935">
        <ele>354.86376953125</ele>
        <time>2013-06-25T13:11:29Z</time>
      </trkpt>
      <trkpt lat="45.57383" lon="4.25884">
        <ele>355.34448242188</ele>
        <time>2013-06-25T13:11:38Z</time>
      </trkpt>
      <trkpt lat="45.57443" lon="4.25782">
        <ele>354.86376953125</ele>
        <time>2013-06-25T13:11:54Z</time>
      </trkpt>
      <trkpt lat="45.57509" lon="4.25669">
        <ele>354.86376953125</ele>
        <time>2013-06-25T13:12:11Z</time>
      </trkpt>
      <trkpt lat="45.57516" lon="4.25655">
        <ele>354.38317871094</ele>
        <time>2013-06-25T13:12:13Z</time>
      </trkpt>
      <trkpt lat="45.57542" lon="4.25604">
        <ele>354.38317871094</ele>
        <time>2013-06-25T13:12:20Z</time>
      </trkpt>
      <trkpt lat="45.5756" lon="4.2557">
        <ele>355.34448242188</ele>
        <time>2013-06-25T13:12:25Z</time>
      </trkpt>
      <trkpt lat="45.5759" lon="4.25512">
        <ele>353.421875</ele>
        <time>2013-06-25T13:12:33Z</time>
      </trkpt>
      <trkpt lat="45.57652" lon="4.25394">
        <ele>350.05725097656</ele>
        <time>2013-06-25T13:12:52Z</time>
      </trkpt>
      <trkpt lat="45.57724" lon="4.2528">
        <ele>351.97985839844</ele>
        <time>2013-06-25T13:13:08Z</time>
      </trkpt>
      <trkpt lat="45.57752" lon="4.25236">
        <ele>353.421875</ele>
        <time>2013-06-25T13:13:15Z</time>
      </trkpt>
      <trkpt lat="45.57808" lon="4.25138">
        <ele>349.09582519531</ele>
        <time>2013-06-25T13:13:30Z</time>
      </trkpt>
      <trkpt lat="45.57879" lon="4.25015">
        <ele>348.615234375</ele>
        <time>2013-06-25T13:13:49Z</time>
      </trkpt>
      <trkpt lat="45.57952" lon="4.24908">
        <ele>350.53784179688</ele>
        <time>2013-06-25T13:14:06Z</time>
      </trkpt>
      <trkpt lat="45.58021" lon="4.24776">
        <ele>350.53784179688</ele>
        <time>2013-06-25T13:14:24Z</time>
      </trkpt>
      <trkpt lat="45.58071" lon="4.24624">
        <ele>350.53784179688</ele>
        <time>2013-06-25T13:14:43Z</time>
      </trkpt>
      <trkpt lat="45.58116" lon="4.24489">
        <ele>351.97985839844</ele>
        <time>2013-06-25T13:15:01Z</time>
      </trkpt>
      <trkpt lat="45.58159" lon="4.24407">
        <ele>353.421875</ele>
        <time>2013-06-25T13:15:11Z</time>
      </trkpt>
      <trkpt lat="45.5819" lon="4.24347">
        <ele>352.94116210938</ele>
        <time>2013-06-25T13:15:20Z</time>
      </trkpt>
      <trkpt lat="45.58213" lon="4.24302">
        <ele>353.421875</ele>
        <time>2013-06-25T13:15:27Z</time>
      </trkpt>
      <trkpt lat="45.58245" lon="4.24248">
        <ele>351.97985839844</ele>
        <time>2013-06-25T13:15:41Z</time>
      </trkpt>
      <trkpt lat="45.58248" lon="4.24245">
        <ele>351.97985839844</ele>
        <time>2013-06-25T13:15:43Z</time>
      </trkpt>
      <trkpt lat="45.58243" lon="4.24171">
        <ele>351.97985839844</ele>
        <time>2013-06-25T13:15:54Z</time>
      </trkpt>
      <trkpt lat="45.58227" lon="4.23956">
        <ele>347.65393066406</ele>
        <time>2013-06-25T13:16:20Z</time>
      </trkpt>
      <trkpt lat="45.58207" lon="4.23701">
        <ele>345.25061035156</ele>
        <time>2013-06-25T13:16:48Z</time>
      </trkpt>
      <trkpt lat="45.58199" lon="4.23591">
        <ele>349.09582519531</ele>
        <time>2013-06-25T13:17:03Z</time>
      </trkpt>
      <trkpt lat="45.58198" lon="4.23576">
        <ele>350.05725097656</ele>
        <time>2013-06-25T13:17:06Z</time>
      </trkpt>
      <trkpt lat="45.5823" lon="4.23527">
        <ele>351.97985839844</ele>
        <time>2013-06-25T13:17:16Z</time>
      </trkpt>
      <trkpt lat="45.58281" lon="4.23513">
        <ele>353.90258789062</ele>
        <time>2013-06-25T13:17:26Z</time>
      </trkpt>
      <trkpt lat="45.5831" lon="4.23506">
        <ele>357.26708984375</ele>
        <time>2013-06-25T13:17:32Z</time>
      </trkpt>
      <trkpt lat="45.58321" lon="4.23503">
        <ele>356.30578613281</ele>
        <time>2013-06-25T13:17:34Z</time>
      </trkpt>
      <trkpt lat="45.58337" lon="4.23498">
        <ele>355.8251953125</ele>
        <time>2013-06-25T13:17:37Z</time>
      </trkpt>
      <trkpt lat="45.58348" lon="4.23493">
        <ele>355.8251953125</ele>
        <time>2013-06-25T13:17:39Z</time>
      </trkpt>
      <trkpt lat="45.58405" lon="4.23453">
        <ele>358.22839355469</ele>
        <time>2013-06-25T13:17:51Z</time>
      </trkpt>
      <trkpt lat="45.58412" lon="4.23433">
        <ele>358.22839355469</ele>
        <time>2013-06-25T13:17:55Z</time>
      </trkpt>
      <trkpt lat="45.58441" lon="4.23259">
        <ele>356.78637695312</ele>
        <time>2013-06-25T13:18:16Z</time>
      </trkpt>
      <trkpt lat="45.5846" lon="4.23172">
        <ele>357.74780273438</ele>
        <time>2013-06-25T13:18:27Z</time>
      </trkpt>
      <trkpt lat="45.58474" lon="4.23108">
        <ele>358.708984375</ele>
        <time>2013-06-25T13:18:36Z</time>
      </trkpt>
      <trkpt lat="45.585" lon="4.23071">
        <ele>360.15112304688</ele>
        <time>2013-06-25T13:18:43Z</time>
      </trkpt>
      <trkpt lat="45.58593" lon="4.23048">
        <ele>361.11242675781</ele>
        <time>2013-06-25T13:18:59Z</time>
      </trkpt>
      <trkpt lat="45.58612" lon="4.23034">
        <ele>361.59313964844</ele>
        <time>2013-06-25T13:19:03Z</time>
      </trkpt>
      <trkpt lat="45.58634" lon="4.2301">
        <ele>361.59313964844</ele>
        <time>2013-06-25T13:19:08Z</time>
      </trkpt>
      <trkpt lat="45.58714" lon="4.22918">
        <ele>362.07373046875</ele>
        <time>2013-06-25T13:19:26Z</time>
      </trkpt>
      <trkpt lat="45.58771" lon="4.22824">
        <ele>360.63171386719</ele>
        <time>2013-06-25T13:19:40Z</time>
      </trkpt>
      <trkpt lat="45.58796" lon="4.22781">
        <ele>359.67041015625</ele>
        <time>2013-06-25T13:19:46Z</time>
      </trkpt>
      <trkpt lat="45.58873" lon="4.22665">
        <ele>358.22839355469</ele>
        <time>2013-06-25T13:20:04Z</time>
      </trkpt>
      <trkpt lat="45.58951" lon="4.22566">
        <ele>357.74780273438</ele>
        <time>2013-06-25T13:20:21Z</time>
      </trkpt>
      <trkpt lat="45.58963" lon="4.22551">
        <ele>358.22839355469</ele>
        <time>2013-06-25T13:20:24Z</time>
      </trkpt>
      <trkpt lat="45.5898" lon="4.2253">
        <ele>358.708984375</ele>
        <time>2013-06-25T13:20:29Z</time>
      </trkpt>
      <trkpt lat="45.59015" lon="4.22532">
        <ele>359.18969726562</ele>
        <time>2013-06-25T13:20:34Z</time>
      </trkpt>
      <trkpt lat="45.59034" lon="4.22547">
        <ele>359.18969726562</ele>
        <time>2013-06-25T13:20:38Z</time>
      </trkpt>
      <trkpt lat="45.59103" lon="4.226">
        <ele>359.67041015625</ele>
        <time>2013-06-25T13:20:52Z</time>
      </trkpt>
      <trkpt lat="45.59203" lon="4.22616">
        <ele>359.67041015625</ele>
        <time>2013-06-25T13:21:11Z</time>
      </trkpt>
      <trkpt lat="45.59345" lon="4.22624">
        <ele>359.18969726562</ele>
        <time>2013-06-25T13:21:36Z</time>
      </trkpt>
      <trkpt lat="45.59479" lon="4.22632">
        <ele>358.708984375</ele>
        <time>2013-06-25T13:21:59Z</time>
      </trkpt>
      <trkpt lat="45.59599" lon="4.22654">
        <ele>358.708984375</ele>
        <time>2013-06-25T13:22:20Z</time>
      </trkpt>
      <trkpt lat="45.59734" lon="4.22669">
        <ele>358.708984375</ele>
        <time>2013-06-25T13:22:43Z</time>
      </trkpt>
      <trkpt lat="45.59845" lon="4.22669">
        <ele>358.22839355469</ele>
        <time>2013-06-25T13:23:03Z</time>
      </trkpt>
      <trkpt lat="45.59986" lon="4.22653">
        <ele>355.8251953125</ele>
        <time>2013-06-25T13:23:25Z</time>
      </trkpt>
      <trkpt lat="45.60132" lon="4.22634">
        <ele>354.86376953125</ele>
        <time>2013-06-25T13:23:48Z</time>
      </trkpt>
      <trkpt lat="45.60215" lon="4.22628">
        <ele>354.38317871094</ele>
        <time>2013-06-25T13:24:01Z</time>
      </trkpt>
      <trkpt lat="45.60323" lon="4.22634">
        <ele>353.90258789062</ele>
        <time>2013-06-25T13:24:19Z</time>
      </trkpt>
      <trkpt lat="45.60446" lon="4.2266">
        <ele>353.421875</ele>
        <time>2013-06-25T13:24:40Z</time>
      </trkpt>
      <trkpt lat="45.60487" lon="4.22668">
        <ele>352.94116210938</ele>
        <time>2013-06-25T13:24:47Z</time>
      </trkpt>
      <trkpt lat="45.60506" lon="4.22686">
        <ele>352.94116210938</ele>
        <time>2013-06-25T13:24:51Z</time>
      </trkpt>
      <trkpt lat="45.60516" lon="4.22696">
        <ele>352.46057128906</ele>
        <time>2013-06-25T13:24:53Z</time>
      </trkpt>
      <trkpt lat="45.60548" lon="4.22698">
        <ele>352.46057128906</ele>
        <time>2013-06-25T13:24:59Z</time>
      </trkpt>
      <trkpt lat="45.60597" lon="4.22673">
        <ele>352.94116210938</ele>
        <time>2013-06-25T13:25:08Z</time>
      </trkpt>
      <trkpt lat="45.60615" lon="4.22652">
        <ele>353.421875</ele>
        <time>2013-06-25T13:25:12Z</time>
      </trkpt>
      <trkpt lat="45.6066" lon="4.2255">
        <ele>352.46057128906</ele>
        <time>2013-06-25T13:25:26Z</time>
      </trkpt>
      <trkpt lat="45.60682" lon="4.22494">
        <ele>351.49914550781</ele>
        <time>2013-06-25T13:25:33Z</time>
      </trkpt>
      <trkpt lat="45.6074" lon="4.22356">
        <ele>351.49914550781</ele>
        <time>2013-06-25T13:25:50Z</time>
      </trkpt>
      <trkpt lat="45.60743" lon="4.22349">
        <ele>351.49914550781</ele>
        <time>2013-06-25T13:25:51Z</time>
      </trkpt>
      <trkpt lat="45.608" lon="4.22211">
        <ele>352.46057128906</ele>
        <time>2013-06-25T13:26:11Z</time>
      </trkpt>
      <trkpt lat="45.60808" lon="4.222">
        <ele>352.94116210938</ele>
        <time>2013-06-25T13:26:13Z</time>
      </trkpt>
      <trkpt lat="45.6089" lon="4.22127">
        <ele>353.421875</ele>
        <time>2013-06-25T13:26:30Z</time>
      </trkpt>
      <trkpt lat="45.60995" lon="4.22034">
        <ele>352.94116210938</ele>
        <time>2013-06-25T13:26:51Z</time>
      </trkpt>
      <trkpt lat="45.61071" lon="4.21922">
        <ele>350.53784179688</ele>
        <time>2013-06-25T13:27:05Z</time>
      </trkpt>
      <trkpt lat="45.61134" lon="4.21827">
        <ele>348.615234375</ele>
        <time>2013-06-25T13:27:17Z</time>
      </trkpt>
      <trkpt lat="45.61168" lon="4.21805">
        <ele>349.09582519531</ele>
        <time>2013-06-25T13:27:22Z</time>
      </trkpt>
      <trkpt lat="45.61273" lon="4.2179">
        <ele>351.97985839844</ele>
        <time>2013-06-25T13:27:39Z</time>
      </trkpt>
      <trkpt lat="45.61408" lon="4.21781">
        <ele>350.53784179688</ele>
        <time>2013-06-25T13:28:04Z</time>
      </trkpt>
      <trkpt lat="45.61545" lon="4.21748">
        <ele>351.01843261719</ele>
        <time>2013-06-25T13:28:24Z</time>
      </trkpt>
      <trkpt lat="45.61639" lon="4.21658">
        <ele>351.49914550781</ele>
        <time>2013-06-25T13:28:43Z</time>
      </trkpt>
      <trkpt lat="45.61699" lon="4.2159">
        <ele>351.49914550781</ele>
        <time>2013-06-25T13:28:55Z</time>
      </trkpt>
      <trkpt lat="45.61753" lon="4.21454">
        <ele>349.57653808594</ele>
        <time>2013-06-25T13:29:12Z</time>
      </trkpt>
      <trkpt lat="45.61781" lon="4.21354">
        <ele>347.65393066406</ele>
        <time>2013-06-25T13:29:25Z</time>
      </trkpt>
      <trkpt lat="45.61812" lon="4.2135">
        <ele>348.13464355469</ele>
        <time>2013-06-25T13:29:31Z</time>
      </trkpt>
      <trkpt lat="45.61858" lon="4.21369">
        <ele>346.21203613281</ele>
        <time>2013-06-25T13:29:39Z</time>
      </trkpt>
      <trkpt lat="45.61924" lon="4.21355">
        <ele>347.65393066406</ele>
        <time>2013-06-25T13:29:51Z</time>
      </trkpt>
      <trkpt lat="45.61951" lon="4.21344">
        <ele>348.615234375</ele>
        <time>2013-06-25T13:29:56Z</time>
      </trkpt>
      <trkpt lat="45.6204" lon="4.21301">
        <ele>350.05725097656</ele>
        <time>2013-06-25T13:30:13Z</time>
      </trkpt>
      <trkpt lat="45.62068" lon="4.21293">
        <ele>348.615234375</ele>
        <time>2013-06-25T13:30:18Z</time>
      </trkpt>
      <trkpt lat="45.6209" lon="4.21263">
        <ele>348.615234375</ele>
        <time>2013-06-25T13:30:24Z</time>
      </trkpt>
      <trkpt lat="45.6209" lon="4.21202">
        <ele>348.615234375</ele>
        <time>2013-06-25T13:30:32Z</time>
      </trkpt>
      <trkpt lat="45.62122" lon="4.21191">
        <ele>346.69262695312</ele>
        <time>2013-06-25T13:30:38Z</time>
      </trkpt>
      <trkpt lat="45.62141" lon="4.21197">
        <ele>345.25061035156</ele>
        <time>2013-06-25T13:30:41Z</time>
      </trkpt>
      <trkpt lat="45.62171" lon="4.21208">
        <ele>345.73132324219</ele>
        <time>2013-06-25T13:30:46Z</time>
      </trkpt>
      <trkpt lat="45.62274" lon="4.21239">
        <ele>345.25061035156</ele>
        <time>2013-06-25T13:31:03Z</time>
      </trkpt>
      <trkpt lat="45.62338" lon="4.21248">
        <ele>346.69262695312</ele>
        <time>2013-06-25T13:31:16Z</time>
      </trkpt>
      <trkpt lat="45.62373" lon="4.21247">
        <ele>347.17321777344</ele>
        <time>2013-06-25T13:31:27Z</time>
      </trkpt>
      <trkpt lat="45.62393" lon="4.21246">
        <ele>347.17321777344</ele>
        <time>2013-06-25T13:31:31Z</time>
      </trkpt>
      <trkpt lat="45.62491" lon="4.21267">
        <ele>347.65393066406</ele>
        <time>2013-06-25T13:31:48Z</time>
      </trkpt>
      <trkpt lat="45.62587" lon="4.21292">
        <ele>348.615234375</ele>
        <time>2013-06-25T13:32:05Z</time>
      </trkpt>
      <trkpt lat="45.62622" lon="4.21296">
        <ele>349.09582519531</ele>
        <time>2013-06-25T13:32:12Z</time>
      </trkpt>
      <trkpt lat="45.62735" lon="4.21281">
        <ele>351.01843261719</ele>
        <time>2013-06-25T13:32:31Z</time>
      </trkpt>
      <trkpt lat="45.6284" lon="4.2125">
        <ele>349.57653808594</ele>
        <time>2013-06-25T13:32:50Z</time>
      </trkpt>
      <trkpt lat="45.62964" lon="4.21174">
        <ele>351.97985839844</ele>
        <time>2013-06-25T13:33:13Z</time>
      </trkpt>
      <trkpt lat="45.63063" lon="4.21112">
        <ele>350.05725097656</ele>
        <time>2013-06-25T13:33:31Z</time>
      </trkpt>
      <trkpt lat="45.632" lon="4.21037">
        <ele>348.615234375</ele>
        <time>2013-06-25T13:33:56Z</time>
      </trkpt>
      <trkpt lat="45.63245" lon="4.21018">
        <ele>348.13464355469</ele>
        <time>2013-06-25T13:34:04Z</time>
      </trkpt>
      <trkpt lat="45.63363" lon="4.20964">
        <ele>347.65393066406</ele>
        <time>2013-06-25T13:34:25Z</time>
      </trkpt>
      <trkpt lat="45.63454" lon="4.20891">
        <ele>347.65393066406</ele>
        <time>2013-06-25T13:34:42Z</time>
      </trkpt>
      <trkpt lat="45.63509" lon="4.20826">
        <ele>348.13464355469</ele>
        <time>2013-06-25T13:34:53Z</time>
      </trkpt>
      <trkpt lat="45.63569" lon="4.20746">
        <ele>347.65393066406</ele>
        <time>2013-06-25T13:35:06Z</time>
      </trkpt>
      <trkpt lat="45.63643" lon="4.20686">
        <ele>346.69262695312</ele>
        <time>2013-06-25T13:35:20Z</time>
      </trkpt>
      <trkpt lat="45.63717" lon="4.20644">
        <ele>346.69262695312</ele>
        <time>2013-06-25T13:35:36Z</time>
      </trkpt>
      <trkpt lat="45.63728" lon="4.20637">
        <ele>347.65393066406</ele>
        <time>2013-06-25T13:35:48Z</time>
      </trkpt>
      <trkpt lat="45.63751" lon="4.20624">
        <ele>347.65393066406</ele>
        <time>2013-06-25T13:36:31Z</time>
      </trkpt>
      <trkpt lat="45.63755" lon="4.20622">
        <ele>346.69262695312</ele>
        <time>2013-06-25T13:36:36Z</time>
      </trkpt>
      <trkpt lat="45.63785" lon="4.20622">
        <ele>346.21203613281</ele>
        <time>2013-06-25T13:36:40Z</time>
      </trkpt>
      <trkpt lat="45.63815" lon="4.20618">
        <ele>345.73132324219</ele>
        <time>2013-06-25T13:36:48Z</time>
      </trkpt>
      <trkpt lat="45.63845" lon="4.20557">
        <ele>345.25061035156</ele>
        <time>2013-06-25T13:36:59Z</time>
      </trkpt>
      <trkpt lat="45.63902" lon="4.2051">
        <ele>344.77001953125</ele>
        <time>2013-06-25T13:37:15Z</time>
      </trkpt>
      <trkpt lat="45.63945" lon="4.20484">
        <ele>345.25061035156</ele>
        <time>2013-06-25T13:37:27Z</time>
      </trkpt>
      <trkpt lat="45.64033" lon="4.20436">
        <ele>345.25061035156</ele>
        <time>2013-06-25T13:37:48Z</time>
      </trkpt>
      <trkpt lat="45.6415" lon="4.20373">
        <ele>343.32788085938</ele>
        <time>2013-06-25T13:38:12Z</time>
      </trkpt>
      <trkpt lat="45.64287" lon="4.203">
        <ele>342.36669921875</ele>
        <time>2013-06-25T13:38:40Z</time>
      </trkpt>
      <trkpt lat="45.64354" lon="4.20263">
        <ele>341.88598632812</ele>
        <time>2013-06-25T13:38:56Z</time>
      </trkpt>
      <trkpt lat="45.64354" lon="4.20263">
        <ele>341.4052734375</ele>
        <time>2013-06-25T13:39:19Z</time>
      </trkpt>
      <trkpt lat="45.64366" lon="4.20256">
        <ele>341.4052734375</ele>
        <time>2013-06-25T13:40:06Z</time>
      </trkpt>
      <trkpt lat="45.64423" lon="4.20227">
        <ele>341.4052734375</ele>
        <time>2013-06-25T13:40:22Z</time>
      </trkpt>
      <trkpt lat="45.64495" lon="4.20166">
        <ele>340.92468261719</ele>
        <time>2013-06-25T13:40:39Z</time>
      </trkpt>
      <trkpt lat="45.64565" lon="4.20021">
        <ele>340.44409179688</ele>
        <time>2013-06-25T13:41:00Z</time>
      </trkpt>
      <trkpt lat="45.64651" lon="4.19862">
        <ele>338.521484375</ele>
        <time>2013-06-25T13:41:23Z</time>
      </trkpt>
      <trkpt lat="45.64796" lon="4.19706">
        <ele>339.96337890625</ele>
        <time>2013-06-25T13:41:52Z</time>
      </trkpt>
      <trkpt lat="45.64881" lon="4.19615">
        <ele>339.00207519531</ele>
        <time>2013-06-25T13:42:09Z</time>
      </trkpt>
      <trkpt lat="45.64975" lon="4.19511">
        <ele>339.96337890625</ele>
        <time>2013-06-25T13:42:28Z</time>
      </trkpt>
      <trkpt lat="45.65078" lon="4.19397">
        <ele>340.44409179688</ele>
        <time>2013-06-25T13:42:48Z</time>
      </trkpt>
      <trkpt lat="45.65235" lon="4.19223">
        <ele>339.48266601562</ele>
        <time>2013-06-25T13:43:18Z</time>
      </trkpt>
      <trkpt lat="45.65388" lon="4.19054">
        <ele>338.04077148438</ele>
        <time>2013-06-25T13:43:47Z</time>
      </trkpt>
      <trkpt lat="45.65541" lon="4.18884">
        <ele>334.67614746094</ele>
        <time>2013-06-25T13:44:17Z</time>
      </trkpt>
      <trkpt lat="45.6574" lon="4.18665">
        <ele>335.63732910156</ele>
        <time>2013-06-25T13:44:55Z</time>
      </trkpt>
      <trkpt lat="45.65876" lon="4.18516">
        <ele>333.23413085938</ele>
        <time>2013-06-25T13:45:21Z</time>
      </trkpt>
      <trkpt lat="45.66075" lon="4.18296">
        <ele>332.75354003906</ele>
        <time>2013-06-25T13:46:00Z</time>
      </trkpt>
      <trkpt lat="45.66227" lon="4.18127">
        <ele>332.75354003906</ele>
        <time>2013-06-25T13:46:29Z</time>
      </trkpt>
      <trkpt lat="45.66364" lon="4.17975">
        <ele>331.3115234375</ele>
        <time>2013-06-25T13:46:55Z</time>
      </trkpt>
      <trkpt lat="45.66532" lon="4.17791">
        <ele>330.35021972656</ele>
        <time>2013-06-25T13:47:26Z</time>
      </trkpt>
      <trkpt lat="45.66657" lon="4.17657">
        <ele>331.3115234375</ele>
        <time>2013-06-25T13:47:49Z</time>
      </trkpt>
      <trkpt lat="45.66716" lon="4.17585">
        <ele>331.3115234375</ele>
        <time>2013-06-25T13:48:01Z</time>
      </trkpt>
      <trkpt lat="45.66725" lon="4.17508">
        <ele>332.75354003906</ele>
        <time>2013-06-25T13:48:10Z</time>
      </trkpt>
      <trkpt lat="45.66703" lon="4.17431">
        <ele>333.71472167969</ele>
        <time>2013-06-25T13:48:19Z</time>
      </trkpt>
      <trkpt lat="45.66693" lon="4.17398">
        <ele>335.15673828125</ele>
        <time>2013-06-25T13:48:23Z</time>
      </trkpt>
      <trkpt lat="45.6669" lon="4.17381">
        <ele>335.63732910156</ele>
        <time>2013-06-25T13:48:25Z</time>
      </trkpt>
      <trkpt lat="45.66708" lon="4.173">
        <ele>338.521484375</ele>
        <time>2013-06-25T13:48:36Z</time>
      </trkpt>
      <trkpt lat="45.66716" lon="4.17292">
        <ele>339.48266601562</ele>
        <time>2013-06-25T13:48:38Z</time>
      </trkpt>
      <trkpt lat="45.66728" lon="4.17279">
        <ele>340.44409179688</ele>
        <time>2013-06-25T13:48:41Z</time>
      </trkpt>
      <trkpt lat="45.6675" lon="4.17265">
        <ele>340.44409179688</ele>
        <time>2013-06-25T13:48:46Z</time>
      </trkpt>
      <trkpt lat="45.66827" lon="4.17233">
        <ele>341.88598632812</ele>
        <time>2013-06-25T13:49:01Z</time>
      </trkpt>
      <trkpt lat="45.66844" lon="4.17227">
        <ele>341.88598632812</ele>
        <time>2013-06-25T13:49:04Z</time>
      </trkpt>
      <trkpt lat="45.66923" lon="4.17202">
        <ele>342.36669921875</ele>
        <time>2013-06-25T13:49:18Z</time>
      </trkpt>
      <trkpt lat="45.67016" lon="4.1715">
        <ele>343.32788085938</ele>
        <time>2013-06-25T13:49:34Z</time>
      </trkpt>
      <trkpt lat="45.67073" lon="4.17109">
        <ele>343.32788085938</ele>
        <time>2013-06-25T13:49:45Z</time>
      </trkpt>
      <trkpt lat="45.6709" lon="4.17107">
        <ele>342.84729003906</ele>
        <time>2013-06-25T13:49:50Z</time>
      </trkpt>
      <trkpt lat="45.67223" lon="4.1715">
        <ele>341.4052734375</ele>
        <time>2013-06-25T13:50:09Z</time>
      </trkpt>
      <trkpt lat="45.67341" lon="4.1718">
        <ele>340.92468261719</ele>
        <time>2013-06-25T13:50:26Z</time>
      </trkpt>
      <trkpt lat="45.67495" lon="4.17208">
        <ele>340.44409179688</ele>
        <time>2013-06-25T13:50:51Z</time>
      </trkpt>
      <trkpt lat="45.67655" lon="4.17244">
        <ele>339.96337890625</ele>
        <time>2013-06-25T13:51:16Z</time>
      </trkpt>
      <trkpt lat="45.67798" lon="4.17248">
        <ele>339.48266601562</ele>
        <time>2013-06-25T13:51:38Z</time>
      </trkpt>
      <trkpt lat="45.67922" lon="4.17219">
        <ele>337.56005859375</ele>
        <time>2013-06-25T13:51:58Z</time>
      </trkpt>
      <trkpt lat="45.68075" lon="4.17168">
        <ele>337.07946777344</ele>
        <time>2013-06-25T13:52:22Z</time>
      </trkpt>
      <trkpt lat="45.68216" lon="4.17143">
        <ele>336.59887695312</ele>
        <time>2013-06-25T13:52:44Z</time>
      </trkpt>
      <trkpt lat="45.68309" lon="4.17155">
        <ele>335.63732910156</ele>
        <time>2013-06-25T13:52:59Z</time>
      </trkpt>
      <trkpt lat="45.68409" lon="4.17157">
        <ele>337.07946777344</ele>
        <time>2013-06-25T13:53:14Z</time>
      </trkpt>
      <trkpt lat="45.68501" lon="4.17159">
        <ele>339.00207519531</ele>
        <time>2013-06-25T13:53:34Z</time>
      </trkpt>
      <trkpt lat="45.68633" lon="4.17156">
        <ele>339.48266601562</ele>
        <time>2013-06-25T13:53:54Z</time>
      </trkpt>
      <trkpt lat="45.68748" lon="4.17185">
        <ele>339.96337890625</ele>
        <time>2013-06-25T13:54:13Z</time>
      </trkpt>
      <trkpt lat="45.68883" lon="4.17206">
        <ele>339.96337890625</ele>
        <time>2013-06-25T13:54:35Z</time>
      </trkpt>
      <trkpt lat="45.68978" lon="4.17191">
        <ele>339.96337890625</ele>
        <time>2013-06-25T13:54:51Z</time>
      </trkpt>
      <trkpt lat="45.69064" lon="4.17236">
        <ele>339.96337890625</ele>
        <time>2013-06-25T13:55:07Z</time>
      </trkpt>
      <trkpt lat="45.69167" lon="4.17256">
        <ele>338.521484375</ele>
        <time>2013-06-25T13:55:24Z</time>
      </trkpt>
      <trkpt lat="45.69275" lon="4.17293">
        <ele>338.521484375</ele>
        <time>2013-06-25T13:55:43Z</time>
      </trkpt>
      <trkpt lat="45.69383" lon="4.17364">
        <ele>340.92468261719</ele>
        <time>2013-06-25T13:56:04Z</time>
      </trkpt>
      <trkpt lat="45.69478" lon="4.17429">
        <ele>339.00207519531</ele>
        <time>2013-06-25T13:56:20Z</time>
      </trkpt>
      <trkpt lat="45.69577" lon="4.17493">
        <ele>336.1181640625</ele>
        <time>2013-06-25T13:56:36Z</time>
      </trkpt>
      <trkpt lat="45.69682" lon="4.17558">
        <ele>335.63732910156</ele>
        <time>2013-06-25T13:56:54Z</time>
      </trkpt>
      <trkpt lat="45.69688" lon="4.17561">
        <ele>335.63732910156</ele>
        <time>2013-06-25T13:56:55Z</time>
      </trkpt>
      <trkpt lat="45.69766" lon="4.17604">
        <ele>334.19543457031</ele>
        <time>2013-06-25T13:57:08Z</time>
      </trkpt>
      <trkpt lat="45.69793" lon="4.1763">
        <ele>334.67614746094</ele>
        <time>2013-06-25T13:57:13Z</time>
      </trkpt>
      <trkpt lat="45.69816" lon="4.17641">
        <ele>334.19543457031</ele>
        <time>2013-06-25T13:57:17Z</time>
      </trkpt>
      <trkpt lat="45.69828" lon="4.17644">
        <ele>334.19543457031</ele>
        <time>2013-06-25T13:57:19Z</time>
      </trkpt>
      <trkpt lat="45.69849" lon="4.17665">
        <ele>333.23413085938</ele>
        <time>2013-06-25T13:57:23Z</time>
      </trkpt>
      <trkpt lat="45.70006" lon="4.17804">
        <ele>331.3115234375</ele>
        <time>2013-06-25T13:57:50Z</time>
      </trkpt>
      <trkpt lat="45.7011" lon="4.17911">
        <ele>330.35021972656</ele>
        <time>2013-06-25T13:58:09Z</time>
      </trkpt>
      <trkpt lat="45.70239" lon="4.18059">
        <ele>326.98559570312</ele>
        <time>2013-06-25T13:58:34Z</time>
      </trkpt>
      <trkpt lat="45.70372" lon="4.1821">
        <ele>327.94677734375</ele>
        <time>2013-06-25T13:58:59Z</time>
      </trkpt>
      <trkpt lat="45.70474" lon="4.18327">
        <ele>327.94677734375</ele>
        <time>2013-06-25T13:59:20Z</time>
      </trkpt>
      <trkpt lat="45.70601" lon="4.1847">
        <ele>325.54357910156</ele>
        <time>2013-06-25T13:59:44Z</time>
      </trkpt>
      <trkpt lat="45.7077" lon="4.18659">
        <ele>324.58227539062</ele>
        <time>2013-06-25T14:00:16Z</time>
      </trkpt>
      <trkpt lat="45.70907" lon="4.18811">
        <ele>325.06298828125</ele>
        <time>2013-06-25T14:00:42Z</time>
      </trkpt>
      <trkpt lat="45.7103" lon="4.1895">
        <ele>325.54357910156</ele>
        <time>2013-06-25T14:01:06Z</time>
      </trkpt>
      <trkpt lat="45.71189" lon="4.19132">
        <ele>324.1015625</ele>
        <time>2013-06-25T14:01:37Z</time>
      </trkpt>
      <trkpt lat="45.71356" lon="4.19322">
        <ele>323.62097167969</ele>
        <time>2013-06-25T14:02:09Z</time>
      </trkpt>
      <trkpt lat="45.71444" lon="4.19422">
        <ele>323.62097167969</ele>
        <time>2013-06-25T14:02:26Z</time>
      </trkpt>
      <trkpt lat="45.71488" lon="4.19482">
        <ele>324.1015625</ele>
        <time>2013-06-25T14:02:35Z</time>
      </trkpt>
      <trkpt lat="45.71525" lon="4.19531">
        <ele>325.06298828125</ele>
        <time>2013-06-25T14:02:44Z</time>
      </trkpt>
      <trkpt lat="45.71536" lon="4.19534">
        <ele>325.06298828125</ele>
        <time>2013-06-25T14:02:46Z</time>
      </trkpt>
      <trkpt lat="45.71607" lon="4.19557">
        <ele>328.42761230469</ele>
        <time>2013-06-25T14:03:02Z</time>
      </trkpt>
      <trkpt lat="45.71681" lon="4.19596">
        <ele>328.42761230469</ele>
        <time>2013-06-25T14:03:20Z</time>
      </trkpt>
      <trkpt lat="45.7181" lon="4.19722">
        <ele>329.38891601562</ele>
        <time>2013-06-25T14:03:42Z</time>
      </trkpt>
      <trkpt lat="45.71911" lon="4.19787">
        <ele>327.94677734375</ele>
        <time>2013-06-25T14:04:00Z</time>
      </trkpt>
      <trkpt lat="45.72009" lon="4.19813">
        <ele>329.38891601562</ele>
        <time>2013-06-25T14:04:17Z</time>
      </trkpt>
      <trkpt lat="45.72095" lon="4.19832">
        <ele>327.94677734375</ele>
        <time>2013-06-25T14:04:32Z</time>
      </trkpt>
      <trkpt lat="45.72206" lon="4.19906">
        <ele>327.94677734375</ele>
        <time>2013-06-25T14:04:52Z</time>
      </trkpt>
      <trkpt lat="45.72332" lon="4.20037">
        <ele>327.46618652344</ele>
        <time>2013-06-25T14:05:16Z</time>
      </trkpt>
      <trkpt lat="45.7244" lon="4.20177">
        <ele>327.46618652344</ele>
        <time>2013-06-25T14:05:39Z</time>
      </trkpt>
      <trkpt lat="45.72527" lon="4.20351">
        <ele>327.94677734375</ele>
        <time>2013-06-25T14:06:04Z</time>
      </trkpt>
      <trkpt lat="45.72588" lon="4.2045">
        <ele>328.90832519531</ele>
        <time>2013-06-25T14:06:20Z</time>
      </trkpt>
      <trkpt lat="45.72672" lon="4.20587">
        <ele>327.46618652344</ele>
        <time>2013-06-25T14:06:41Z</time>
      </trkpt>
      <trkpt lat="45.72762" lon="4.2069">
        <ele>327.94677734375</ele>
        <time>2013-06-25T14:07:01Z</time>
      </trkpt>
      <trkpt lat="45.72857" lon="4.20743">
        <ele>326.98559570312</ele>
        <time>2013-06-25T14:07:18Z</time>
      </trkpt>
      <trkpt lat="45.72981" lon="4.20751">
        <ele>325.54357910156</ele>
        <time>2013-06-25T14:07:38Z</time>
      </trkpt>
      <trkpt lat="45.73084" lon="4.20747">
        <ele>324.1015625</ele>
        <time>2013-06-25T14:07:54Z</time>
      </trkpt>
      <trkpt lat="45.73183" lon="4.20731">
        <ele>323.62097167969</ele>
        <time>2013-06-25T14:08:10Z</time>
      </trkpt>
      <trkpt lat="45.73298" lon="4.20732">
        <ele>324.58227539062</ele>
        <time>2013-06-25T14:08:29Z</time>
      </trkpt>
      <trkpt lat="45.73408" lon="4.20754">
        <ele>323.62097167969</ele>
        <time>2013-06-25T14:08:47Z</time>
      </trkpt>
      <trkpt lat="45.73538" lon="4.20783">
        <ele>322.65966796875</ele>
        <time>2013-06-25T14:09:09Z</time>
      </trkpt>
      <trkpt lat="45.73674" lon="4.20834">
        <ele>322.65966796875</ele>
        <time>2013-06-25T14:09:33Z</time>
      </trkpt>
      <trkpt lat="45.73803" lon="4.20875">
        <ele>320.73706054688</ele>
        <time>2013-06-25T14:09:55Z</time>
      </trkpt>
      <trkpt lat="45.73903" lon="4.209">
        <ele>319.77563476562</ele>
        <time>2013-06-25T14:10:12Z</time>
      </trkpt>
      <trkpt lat="45.73958" lon="4.20978">
        <ele>319.29504394531</ele>
        <time>2013-06-25T14:10:25Z</time>
      </trkpt>
      <trkpt lat="45.7398" lon="4.21009">
        <ele>320.73706054688</ele>
        <time>2013-06-25T14:10:31Z</time>
      </trkpt>
      <trkpt lat="45.74004" lon="4.21017">
        <ele>320.25634765625</ele>
        <time>2013-06-25T14:10:36Z</time>
      </trkpt>
      <trkpt lat="45.74121" lon="4.21017">
        <ele>320.73706054688</ele>
        <time>2013-06-25T14:10:56Z</time>
      </trkpt>
      <trkpt lat="45.74212" lon="4.2101">
        <ele>322.65966796875</ele>
        <time>2013-06-25T14:11:14Z</time>
      </trkpt>
      <trkpt lat="45.74226" lon="4.21009">
        <ele>324.1015625</ele>
        <time>2013-06-25T14:11:21Z</time>
      </trkpt>
      <trkpt lat="45.74231" lon="4.21008">
        <ele>323.62097167969</ele>
        <time>2013-06-25T14:11:32Z</time>
      </trkpt>
      <trkpt lat="45.74231" lon="4.21008">
        <ele>324.1015625</ele>
        <time>2013-06-25T14:11:38Z</time>
      </trkpt>
      <trkpt lat="45.74234" lon="4.20964">
        <ele>323.62097167969</ele>
        <time>2013-06-25T14:11:47Z</time>
      </trkpt>
      <trkpt lat="45.74263" lon="4.20829">
        <ele>323.14038085938</ele>
        <time>2013-06-25T14:12:05Z</time>
      </trkpt>
      <trkpt lat="45.74283" lon="4.20716">
        <ele>321.69836425781</ele>
        <time>2013-06-25T14:12:18Z</time>
      </trkpt>
      <trkpt lat="45.74286" lon="4.2068">
        <ele>320.73706054688</ele>
        <time>2013-06-25T14:12:22Z</time>
      </trkpt>
      <trkpt lat="45.74286" lon="4.20617">
        <ele>321.2177734375</ele>
        <time>2013-06-25T14:12:29Z</time>
      </trkpt>
      <trkpt lat="45.74251" lon="4.20422">
        <ele>321.69836425781</ele>
        <time>2013-06-25T14:12:51Z</time>
      </trkpt>
      <trkpt lat="45.74219" lon="4.20274">
        <ele>322.17895507812</ele>
        <time>2013-06-25T14:13:08Z</time>
      </trkpt>
      <trkpt lat="45.74235" lon="4.20239">
        <ele>322.17895507812</ele>
        <time>2013-06-25T14:13:13Z</time>
      </trkpt>
      <trkpt lat="45.74279" lon="4.20229">
        <ele>321.2177734375</ele>
        <time>2013-06-25T14:13:20Z</time>
      </trkpt>
      <trkpt lat="45.74366" lon="4.20202">
        <ele>321.2177734375</ele>
        <time>2013-06-25T14:13:35Z</time>
      </trkpt>
      <trkpt lat="45.74483" lon="4.20155">
        <ele>319.77563476562</ele>
        <time>2013-06-25T14:13:57Z</time>
      </trkpt>
      <trkpt lat="45.74593" lon="4.20087">
        <ele>320.73706054688</ele>
        <time>2013-06-25T14:14:18Z</time>
      </trkpt>
      <trkpt lat="45.74647" lon="4.19982">
        <ele>321.69836425781</ele>
        <time>2013-06-25T14:14:33Z</time>
      </trkpt>
      <trkpt lat="45.74709" lon="4.19827">
        <ele>322.17895507812</ele>
        <time>2013-06-25T14:14:53Z</time>
      </trkpt>
      <trkpt lat="45.74813" lon="4.19569">
        <ele>321.69836425781</ele>
        <time>2013-06-25T14:15:26Z</time>
      </trkpt>
      <trkpt lat="45.749" lon="4.19353">
        <ele>321.2177734375</ele>
        <time>2013-06-25T14:15:54Z</time>
      </trkpt>
      <trkpt lat="45.74973" lon="4.19169">
        <ele>321.69836425781</ele>
        <time>2013-06-25T14:16:17Z</time>
      </trkpt>
      <trkpt lat="45.75038" lon="4.19035">
        <ele>324.58227539062</ele>
        <time>2013-06-25T14:16:37Z</time>
      </trkpt>
      <trkpt lat="45.7512" lon="4.18893">
        <ele>323.14038085938</ele>
        <time>2013-06-25T14:16:58Z</time>
      </trkpt>
      <trkpt lat="45.75184" lon="4.18783">
        <ele>322.17895507812</ele>
        <time>2013-06-25T14:17:12Z</time>
      </trkpt>
      <trkpt lat="45.75263" lon="4.18629">
        <ele>323.14038085938</ele>
        <time>2013-06-25T14:17:33Z</time>
      </trkpt>
      <trkpt lat="45.75294" lon="4.18501">
        <ele>324.1015625</ele>
        <time>2013-06-25T14:17:49Z</time>
      </trkpt>
      <trkpt lat="45.75325" lon="4.1844">
        <ele>325.54357910156</ele>
        <time>2013-06-25T14:17:59Z</time>
      </trkpt>
      <trkpt lat="45.75429" lon="4.18341">
        <ele>328.42761230469</ele>
        <time>2013-06-25T14:18:22Z</time>
      </trkpt>
      <trkpt lat="45.75514" lon="4.18315">
        <ele>328.90832519531</ele>
        <time>2013-06-25T14:18:38Z</time>
      </trkpt>
      <trkpt lat="45.7554" lon="4.1831">
        <ele>328.90832519531</ele>
        <time>2013-06-25T14:18:43Z</time>
      </trkpt>
      <trkpt lat="45.75632" lon="4.18242">
        <ele>329.86950683594</ele>
        <time>2013-06-25T14:19:03Z</time>
      </trkpt>
      <trkpt lat="45.7572" lon="4.18163">
        <ele>328.42761230469</ele>
        <time>2013-06-25T14:19:23Z</time>
      </trkpt>
      <trkpt lat="45.75827" lon="4.18075">
        <ele>331.3115234375</ele>
        <time>2013-06-25T14:19:43Z</time>
      </trkpt>
      <trkpt lat="45.7591" lon="4.18025">
        <ele>333.71472167969</ele>
        <time>2013-06-25T14:20:02Z</time>
      </trkpt>
      <trkpt lat="45.76035" lon="4.17968">
        <ele>335.15673828125</ele>
        <time>2013-06-25T14:20:28Z</time>
      </trkpt>
      <trkpt lat="45.76108" lon="4.17936">
        <ele>336.1181640625</ele>
        <time>2013-06-25T14:20:45Z</time>
      </trkpt>
      <trkpt lat="45.762" lon="4.17896">
        <ele>337.56005859375</ele>
        <time>2013-06-25T14:21:06Z</time>
      </trkpt>
      <trkpt lat="45.76301" lon="4.17851">
        <ele>339.48266601562</ele>
        <time>2013-06-25T14:21:27Z</time>
      </trkpt>
      <trkpt lat="45.76448" lon="4.17798">
        <ele>340.44409179688</ele>
        <time>2013-06-25T14:21:56Z</time>
      </trkpt>
      <trkpt lat="45.76583" lon="4.17759">
        <ele>341.4052734375</ele>
        <time>2013-06-25T14:22:22Z</time>
      </trkpt>
      <trkpt lat="45.76707" lon="4.1773">
        <ele>344.28942871094</ele>
        <time>2013-06-25T14:22:47Z</time>
      </trkpt>
      <trkpt lat="45.76814" lon="4.17705">
        <ele>346.21203613281</ele>
        <time>2013-06-25T14:23:11Z</time>
      </trkpt>
      <trkpt lat="45.76961" lon="4.17668">
        <ele>350.05725097656</ele>
        <time>2013-06-25T14:23:41Z</time>
      </trkpt>
      <trkpt lat="45.77109" lon="4.17637">
        <ele>352.94116210938</ele>
        <time>2013-06-25T14:24:11Z</time>
      </trkpt>
      <trkpt lat="45.77244" lon="4.17598">
        <ele>353.421875</ele>
        <time>2013-06-25T14:24:38Z</time>
      </trkpt>
      <trkpt lat="45.77372" lon="4.17563">
        <ele>355.34448242188</ele>
        <time>2013-06-25T14:25:03Z</time>
      </trkpt>
      <trkpt lat="45.77478" lon="4.17528">
        <ele>358.708984375</ele>
        <time>2013-06-25T14:25:25Z</time>
      </trkpt>
      <trkpt lat="45.77594" lon="4.17483">
        <ele>356.30578613281</ele>
        <time>2013-06-25T14:25:46Z</time>
      </trkpt>
      <trkpt lat="45.77713" lon="4.17436">
        <ele>355.34448242188</ele>
        <time>2013-06-25T14:26:06Z</time>
      </trkpt>
      <trkpt lat="45.77825" lon="4.17392">
        <ele>354.86376953125</ele>
        <time>2013-06-25T14:26:24Z</time>
      </trkpt>
      <trkpt lat="45.77929" lon="4.1735">
        <ele>354.38317871094</ele>
        <time>2013-06-25T14:26:39Z</time>
      </trkpt>
      <trkpt lat="45.7808" lon="4.17287">
        <ele>350.05725097656</ele>
        <time>2013-06-25T14:26:59Z</time>
      </trkpt>
      <trkpt lat="45.78215" lon="4.17222">
        <ele>346.21203613281</ele>
        <time>2013-06-25T14:27:14Z</time>
      </trkpt>
      <trkpt lat="45.78326" lon="4.17171">
        <ele>341.88598632812</ele>
        <time>2013-06-25T14:27:27Z</time>
      </trkpt>
      <trkpt lat="45.78449" lon="4.17097">
        <ele>335.63732910156</ele>
        <time>2013-06-25T14:27:42Z</time>
      </trkpt>
      <trkpt lat="45.78571" lon="4.16988">
        <ele>334.67614746094</ele>
        <time>2013-06-25T14:27:59Z</time>
      </trkpt>
      <trkpt lat="45.78677" lon="4.1689">
        <ele>335.15673828125</ele>
        <time>2013-06-25T14:28:18Z</time>
      </trkpt>
      <trkpt lat="45.78782" lon="4.16792">
        <ele>337.07946777344</ele>
        <time>2013-06-25T14:28:40Z</time>
      </trkpt>
      <trkpt lat="45.78897" lon="4.16686">
        <ele>339.48266601562</ele>
        <time>2013-06-25T14:29:04Z</time>
      </trkpt>
      <trkpt lat="45.78994" lon="4.16596">
        <ele>340.44409179688</ele>
        <time>2013-06-25T14:29:24Z</time>
      </trkpt>
      <trkpt lat="45.79143" lon="4.16457">
        <ele>340.44409179688</ele>
        <time>2013-06-25T14:29:53Z</time>
      </trkpt>
      <trkpt lat="45.79215" lon="4.16388">
        <ele>338.04077148438</ele>
        <time>2013-06-25T14:30:05Z</time>
      </trkpt>
      <trkpt lat="45.79352" lon="4.16257">
        <ele>334.19543457031</ele>
        <time>2013-06-25T14:30:26Z</time>
      </trkpt>
      <trkpt lat="45.79451" lon="4.16177">
        <ele>333.23413085938</ele>
        <time>2013-06-25T14:30:40Z</time>
      </trkpt>
      <trkpt lat="45.79547" lon="4.16124">
        <ele>333.71472167969</ele>
        <time>2013-06-25T14:30:55Z</time>
      </trkpt>
      <trkpt lat="45.79673" lon="4.16053">
        <ele>332.27282714844</ele>
        <time>2013-06-25T14:31:16Z</time>
      </trkpt>
      <trkpt lat="45.7981" lon="4.15984">
        <ele>331.79211425781</ele>
        <time>2013-06-25T14:31:38Z</time>
      </trkpt>
      <trkpt lat="45.79907" lon="4.15946">
        <ele>334.19543457031</ele>
        <time>2013-06-25T14:31:55Z</time>
      </trkpt>
      <trkpt lat="45.80058" lon="4.15887">
        <ele>335.63732910156</ele>
        <time>2013-06-25T14:32:21Z</time>
      </trkpt>
      <trkpt lat="45.80172" lon="4.15847">
        <ele>335.63732910156</ele>
        <time>2013-06-25T14:32:39Z</time>
      </trkpt>
      <trkpt lat="45.80237" lon="4.15823">
        <ele>336.59887695312</ele>
        <time>2013-06-25T14:32:49Z</time>
      </trkpt>
      <trkpt lat="45.80382" lon="4.15775">
        <ele>334.67614746094</ele>
        <time>2013-06-25T14:33:11Z</time>
      </trkpt>
      <trkpt lat="45.80427" lon="4.15761">
        <ele>334.67614746094</ele>
        <time>2013-06-25T14:33:18Z</time>
      </trkpt>
      <trkpt lat="45.80457" lon="4.15734">
        <ele>335.15673828125</ele>
        <time>2013-06-25T14:33:24Z</time>
      </trkpt>
      <trkpt lat="45.80477" lon="4.15702">
        <ele>334.67614746094</ele>
        <time>2013-06-25T14:33:29Z</time>
      </trkpt>
      <trkpt lat="45.8049" lon="4.15686">
        <ele>334.19543457031</ele>
        <time>2013-06-25T14:33:32Z</time>
      </trkpt>
      <trkpt lat="45.80533" lon="4.15663">
        <ele>331.3115234375</ele>
        <time>2013-06-25T14:33:40Z</time>
      </trkpt>
      <trkpt lat="45.80543" lon="4.15684">
        <ele>331.3115234375</ele>
        <time>2013-06-25T14:33:41Z</time>
      </trkpt>
      <trkpt lat="45.80585" lon="4.15745">
        <ele>326.02416992188</ele>
        <time>2013-06-25T14:33:49Z</time>
      </trkpt>
      <trkpt lat="45.80631" lon="4.15754">
        <ele>323.62097167969</ele>
        <time>2013-06-25T14:33:56Z</time>
      </trkpt>
      <trkpt lat="45.80637" lon="4.1575">
        <ele>323.62097167969</ele>
        <time>2013-06-25T14:33:57Z</time>
      </trkpt>
      <trkpt lat="45.80662" lon="4.15734">
        <ele>322.65966796875</ele>
        <time>2013-06-25T14:34:03Z</time>
      </trkpt>
      <trkpt lat="45.80684" lon="4.15764">
        <ele>321.69836425781</ele>
        <time>2013-06-25T14:34:13Z</time>
      </trkpt>
      <trkpt lat="45.80754" lon="4.15837">
        <ele>318.33361816406</ele>
        <time>2013-06-25T14:34:28Z</time>
      </trkpt>
      <trkpt lat="45.80871" lon="4.1597">
        <ele>314.96911621094</ele>
        <time>2013-06-25T14:34:52Z</time>
      </trkpt>
      <trkpt lat="45.80962" lon="4.16084">
        <ele>314.48840332031</ele>
        <time>2013-06-25T14:35:12Z</time>
      </trkpt>
      <trkpt lat="45.80969" lon="4.16096">
        <ele>314.96911621094</ele>
        <time>2013-06-25T14:35:14Z</time>
      </trkpt>
      <trkpt lat="45.81024" lon="4.16252">
        <ele>316.89172363281</ele>
        <time>2013-06-25T14:35:35Z</time>
      </trkpt>
      <trkpt lat="45.81078" lon="4.16408">
        <ele>317.37243652344</ele>
        <time>2013-06-25T14:35:55Z</time>
      </trkpt>
      <trkpt lat="45.81152" lon="4.16618">
        <ele>318.33361816406</ele>
        <time>2013-06-25T14:36:22Z</time>
      </trkpt>
      <trkpt lat="45.81234" lon="4.16852">
        <ele>318.33361816406</ele>
        <time>2013-06-25T14:36:51Z</time>
      </trkpt>
      <trkpt lat="45.81309" lon="4.17065">
        <ele>318.81433105469</ele>
        <time>2013-06-25T14:37:18Z</time>
      </trkpt>
      <trkpt lat="45.81397" lon="4.17299">
        <ele>320.25634765625</ele>
        <time>2013-06-25T14:37:48Z</time>
      </trkpt>
      <trkpt lat="45.81475" lon="4.17445">
        <ele>320.73706054688</ele>
        <time>2013-06-25T14:38:10Z</time>
      </trkpt>
      <trkpt lat="45.81493" lon="4.17569">
        <ele>320.25634765625</ele>
        <time>2013-06-25T14:38:26Z</time>
      </trkpt>
      <trkpt lat="45.81489" lon="4.17825">
        <ele>319.77563476562</ele>
        <time>2013-06-25T14:38:56Z</time>
      </trkpt>
      <trkpt lat="45.81467" lon="4.18012">
        <ele>322.65966796875</ele>
        <time>2013-06-25T14:39:18Z</time>
      </trkpt>
      <trkpt lat="45.8148" lon="4.18086">
        <ele>324.58227539062</ele>
        <time>2013-06-25T14:39:30Z</time>
      </trkpt>
      <trkpt lat="45.81522" lon="4.18147">
        <ele>325.06298828125</ele>
        <time>2013-06-25T14:39:43Z</time>
      </trkpt>
      <trkpt lat="45.81531" lon="4.1816">
        <ele>325.06298828125</ele>
        <time>2013-06-25T14:39:46Z</time>
      </trkpt>
      <trkpt lat="45.81602" lon="4.18259">
        <ele>327.46618652344</ele>
        <time>2013-06-25T14:40:07Z</time>
      </trkpt>
      <trkpt lat="45.81664" lon="4.1835">
        <ele>325.06298828125</ele>
        <time>2013-06-25T14:40:27Z</time>
      </trkpt>
      <trkpt lat="45.81684" lon="4.18377">
        <ele>326.02416992188</ele>
        <time>2013-06-25T14:40:35Z</time>
      </trkpt>
      <trkpt lat="45.81712" lon="4.18334">
        <ele>324.58227539062</ele>
        <time>2013-06-25T14:40:46Z</time>
      </trkpt>
      <trkpt lat="45.81762" lon="4.18271">
        <ele>324.58227539062</ele>
        <time>2013-06-25T14:41:01Z</time>
      </trkpt>
      <trkpt lat="45.81822" lon="4.18206">
        <ele>324.58227539062</ele>
        <time>2013-06-25T14:41:20Z</time>
      </trkpt>
      <trkpt lat="45.81872" lon="4.18178">
        <ele>324.58227539062</ele>
        <time>2013-06-25T14:41:34Z</time>
      </trkpt>
      <trkpt lat="45.81904" lon="4.1818">
        <ele>324.1015625</ele>
        <time>2013-06-25T14:41:43Z</time>
      </trkpt>
      <trkpt lat="45.81924" lon="4.18093">
        <ele>324.1015625</ele>
        <time>2013-06-25T14:41:57Z</time>
      </trkpt>
      <trkpt lat="45.81948" lon="4.17934">
        <ele>324.58227539062</ele>
        <time>2013-06-25T14:42:22Z</time>
      </trkpt>
      <trkpt lat="45.8195" lon="4.17916">
        <ele>325.06298828125</ele>
        <time>2013-06-25T14:42:25Z</time>
      </trkpt>
      <trkpt lat="45.81943" lon="4.17888">
        <ele>324.58227539062</ele>
        <time>2013-06-25T14:42:30Z</time>
      </trkpt>
      <trkpt lat="45.81907" lon="4.17772">
        <ele>324.1015625</ele>
        <time>2013-06-25T14:42:50Z</time>
      </trkpt>
      <trkpt lat="45.8191" lon="4.1771">
        <ele>324.1015625</ele>
        <time>2013-06-25T14:43:01Z</time>
      </trkpt>
      <trkpt lat="45.81921" lon="4.17622">
        <ele>323.62097167969</ele>
        <time>2013-06-25T14:43:16Z</time>
      </trkpt>
      <trkpt lat="45.81936" lon="4.17577">
        <ele>323.14038085938</ele>
        <time>2013-06-25T14:43:19Z</time>
      </trkpt>
      <trkpt lat="45.81986" lon="4.17467">
        <ele>323.62097167969</ele>
        <time>2013-06-25T14:43:37Z</time>
      </trkpt>
      <trkpt lat="45.82054" lon="4.17371">
        <ele>326.02416992188</ele>
        <time>2013-06-25T14:43:56Z</time>
      </trkpt>
      <trkpt lat="45.82122" lon="4.17306">
        <ele>326.02416992188</ele>
        <time>2013-06-25T14:44:13Z</time>
      </trkpt>
      <trkpt lat="45.82245" lon="4.17257">
        <ele>324.58227539062</ele>
        <time>2013-06-25T14:44:38Z</time>
      </trkpt>
      <trkpt lat="45.8226" lon="4.17252">
        <ele>324.58227539062</ele>
        <time>2013-06-25T14:44:41Z</time>
      </trkpt>
      <trkpt lat="45.82295" lon="4.17184">
        <ele>324.1015625</ele>
        <time>2013-06-25T14:44:51Z</time>
      </trkpt>
      <trkpt lat="45.82356" lon="4.17107">
        <ele>321.2177734375</ele>
        <time>2013-06-25T14:45:05Z</time>
      </trkpt>
      <trkpt lat="45.8238" lon="4.17085">
        <ele>319.77563476562</ele>
        <time>2013-06-25T14:45:10Z</time>
      </trkpt>
      <trkpt lat="45.82393" lon="4.17031">
        <ele>317.85302734375</ele>
        <time>2013-06-25T14:45:17Z</time>
      </trkpt>
      <trkpt lat="45.82389" lon="4.16888">
        <ele>315.93041992188</ele>
        <time>2013-06-25T14:45:31Z</time>
      </trkpt>
      <trkpt lat="45.82432" lon="4.16761">
        <ele>317.85302734375</ele>
        <time>2013-06-25T14:45:46Z</time>
      </trkpt>
      <trkpt lat="45.82459" lon="4.1663">
        <ele>317.85302734375</ele>
        <time>2013-06-25T14:46:01Z</time>
      </trkpt>
      <trkpt lat="45.82462" lon="4.16605">
        <ele>317.85302734375</ele>
        <time>2013-06-25T14:46:05Z</time>
      </trkpt>
      <trkpt lat="45.82462" lon="4.16575">
        <ele>318.81433105469</ele>
        <time>2013-06-25T14:46:09Z</time>
      </trkpt>
      <trkpt lat="45.82458" lon="4.16552">
        <ele>319.29504394531</ele>
        <time>2013-06-25T14:46:13Z</time>
      </trkpt>
      <trkpt lat="45.82456" lon="4.16539">
        <ele>319.29504394531</ele>
        <time>2013-06-25T14:46:15Z</time>
      </trkpt>
      <trkpt lat="45.82448" lon="4.16498">
        <ele>319.29504394531</ele>
        <time>2013-06-25T14:46:20Z</time>
      </trkpt>
      <trkpt lat="45.82443" lon="4.16471">
        <ele>319.29504394531</ele>
        <time>2013-06-25T14:46:23Z</time>
      </trkpt>
      <trkpt lat="45.82436" lon="4.16441">
        <ele>318.81433105469</ele>
        <time>2013-06-25T14:46:28Z</time>
      </trkpt>
      <trkpt lat="45.8242" lon="4.16374">
        <ele>316.89172363281</ele>
        <time>2013-06-25T14:46:43Z</time>
      </trkpt>
      <trkpt lat="45.8242" lon="4.16374">
        <ele>315.93041992188</ele>
        <time>2013-06-25T14:47:06Z</time>
      </trkpt>
      <trkpt lat="45.8242" lon="4.16374">
        <ele>315.93041992188</ele>
        <time>2013-06-25T14:47:27Z</time>
      </trkpt>
      <trkpt lat="45.82418" lon="4.16359">
        <ele>315.93041992188</ele>
        <time>2013-06-25T14:47:32Z</time>
      </trkpt>
      <trkpt lat="45.82417" lon="4.16354">
        <ele>315.93041992188</ele>
        <time>2013-06-25T14:47:34Z</time>
      </trkpt>
      <trkpt lat="45.82467" lon="4.1632">
        <ele>316.89172363281</ele>
        <time>2013-06-25T14:47:49Z</time>
      </trkpt>
      <trkpt lat="45.82491" lon="4.16266">
        <ele>318.81433105469</ele>
        <time>2013-06-25T14:48:03Z</time>
      </trkpt>
      <trkpt lat="45.82516" lon="4.16219">
        <ele>322.17895507812</ele>
        <time>2013-06-25T14:48:17Z</time>
      </trkpt>
      <trkpt lat="45.8254" lon="4.16203">
        <ele>321.69836425781</ele>
        <time>2013-06-25T14:48:31Z</time>
      </trkpt>
      <trkpt lat="45.82541" lon="4.16205">
        <ele>321.69836425781</ele>
        <time>2013-06-25T14:48:32Z</time>
      </trkpt>
      <trkpt lat="45.82542" lon="4.16202">
        <ele>321.69836425781</ele>
        <time>2013-06-25T14:48:38Z</time>
      </trkpt>
      <trkpt lat="45.82512" lon="4.16226">
        <ele>321.2177734375</ele>
        <time>2013-06-25T14:48:52Z</time>
      </trkpt>
      <trkpt lat="45.82515" lon="4.16261">
        <ele>319.29504394531</ele>
        <time>2013-06-25T14:49:01Z</time>
      </trkpt>
      <trkpt lat="45.8252" lon="4.16295">
        <ele>317.37243652344</ele>
        <time>2013-06-25T14:49:14Z</time>
      </trkpt>
      <trkpt lat="45.82519" lon="4.16306">
        <ele>316.89172363281</ele>
        <time>2013-06-25T14:49:18Z</time>
      </trkpt>
      <trkpt lat="45.8252" lon="4.16309">
        <ele>316.89172363281</ele>
        <time>2013-06-25T14:49:30Z</time>
      </trkpt>
      <trkpt lat="45.82521" lon="4.1631">
        <ele>317.37243652344</ele>
        <time>2013-06-25T14:49:39Z</time>
      </trkpt>
    </trkseg>
  </trk>
</gpx>